<?xml version="1.0" encoding="UTF-8" standalone="no" ?>
<gpx xmlns="http://www.topografix.com/GPX/1/1" xmlns:xsi="http://www.w3.org/2001/XMLSchema-instance" xsi:schemaLocation="http://www.topografix.com/GPX/1/1 http://www.topografix.com/GPX/1/1/gpx.xsd" version="1.1" creator="VisuGPX - https://www.visugpx.com">
  <metadata>
    <name>ALL départ Geruge</name>
  </metadata>
  <trk>
    <name><![CDATA[Rando_course_]]></name>
    <trkseg>
      <trkpt lat="46.62332" lon="5.52015">
        <ele>471.2</ele>
        <time>2022-08-20T12:54:36Z</time>
        <extensions>
          <visugpx:TrkExtension xmlns:visugpx="https://www.visugpx.com/editgpx/">
            <visugpx:node>7</visugpx:node>
            </visugpx:TrkExtension>
        </extensions>
      </trkpt>
      <trkpt lat="46.62328" lon="5.52016">
        <ele>471</ele>
        <time>2022-08-20T12:54:37Z</time>
      </trkpt>
      <trkpt lat="46.62325" lon="5.52017">
        <ele>470.8</ele>
        <time>2022-08-20T12:54:38Z</time>
      </trkpt>
      <trkpt lat="46.62327" lon="5.52018">
        <ele>470.4</ele>
        <time>2022-08-20T12:54:40Z</time>
      </trkpt>
      <trkpt lat="46.62321" lon="5.52017">
        <ele>470.2</ele>
        <time>2022-08-20T12:54:42Z</time>
      </trkpt>
      <trkpt lat="46.62319" lon="5.52016">
        <ele>470.2</ele>
        <time>2022-08-20T12:54:43Z</time>
      </trkpt>
      <trkpt lat="46.62317" lon="5.52015">
        <ele>470</ele>
        <time>2022-08-20T12:54:44Z</time>
      </trkpt>
      <trkpt lat="46.62314" lon="5.52013">
        <ele>469.8</ele>
        <time>2022-08-20T12:54:45Z</time>
      </trkpt>
      <trkpt lat="46.62312" lon="5.5201">
        <ele>469.8</ele>
        <time>2022-08-20T12:54:46Z</time>
      </trkpt>
      <trkpt lat="46.6231" lon="5.52007">
        <ele>469.6</ele>
        <time>2022-08-20T12:54:47Z</time>
      </trkpt>
      <trkpt lat="46.62308" lon="5.52003">
        <ele>469.2</ele>
        <time>2022-08-20T12:54:49Z</time>
      </trkpt>
      <trkpt lat="46.62308" lon="5.52">
        <ele>469.2</ele>
        <time>2022-08-20T12:54:50Z</time>
      </trkpt>
      <trkpt lat="46.62307" lon="5.51996">
        <ele>468.6</ele>
        <time>2022-08-20T12:54:53Z</time>
      </trkpt>
      <trkpt lat="46.62309" lon="5.51994">
        <ele>468.6</ele>
        <time>2022-08-20T12:54:54Z</time>
      </trkpt>
      <trkpt lat="46.62311" lon="5.51994">
        <ele>468.4</ele>
        <time>2022-08-20T12:54:55Z</time>
      </trkpt>
      <trkpt lat="46.62312" lon="5.51997">
        <ele>468</ele>
        <time>2022-08-20T12:54:58Z</time>
      </trkpt>
      <trkpt lat="46.62312" lon="5.52">
        <ele>467.6</ele>
        <time>2022-08-20T12:55:00Z</time>
      </trkpt>
      <trkpt lat="46.62309" lon="5.52001">
        <ele>467.6</ele>
        <time>2022-08-20T12:55:02Z</time>
      </trkpt>
      <trkpt lat="46.62307" lon="5.52">
        <ele>467.4</ele>
        <time>2022-08-20T12:55:04Z</time>
      </trkpt>
      <trkpt lat="46.62304" lon="5.52">
        <ele>467.2</ele>
        <time>2022-08-20T12:55:06Z</time>
      </trkpt>
      <trkpt lat="46.62301" lon="5.51999">
        <ele>467.2</ele>
        <time>2022-08-20T12:55:08Z</time>
      </trkpt>
      <trkpt lat="46.62299" lon="5.51997">
        <ele>466.8</ele>
        <time>2022-08-20T12:55:10Z</time>
      </trkpt>
      <trkpt lat="46.62296" lon="5.51996">
        <ele>466.6</ele>
        <time>2022-08-20T12:55:12Z</time>
      </trkpt>
      <trkpt lat="46.62294" lon="5.51994">
        <ele>466.2</ele>
        <time>2022-08-20T12:55:15Z</time>
      </trkpt>
      <trkpt lat="46.62292" lon="5.51994">
        <ele>465.6</ele>
        <time>2022-08-20T12:55:20Z</time>
      </trkpt>
      <trkpt lat="46.6229" lon="5.51993">
        <ele>465.6</ele>
        <time>2022-08-20T12:55:22Z</time>
      </trkpt>
      <trkpt lat="46.62288" lon="5.51991">
        <ele>465.8</ele>
        <time>2022-08-20T12:55:24Z</time>
      </trkpt>
      <trkpt lat="46.62286" lon="5.51991">
        <ele>465.8</ele>
        <time>2022-08-20T12:55:25Z</time>
      </trkpt>
      <trkpt lat="46.62285" lon="5.51989">
        <ele>465.8</ele>
        <time>2022-08-20T12:55:26Z</time>
      </trkpt>
      <trkpt lat="46.62281" lon="5.51988">
        <ele>466</ele>
        <time>2022-08-20T12:55:28Z</time>
      </trkpt>
      <trkpt lat="46.62278" lon="5.51986">
        <ele>466.2</ele>
        <time>2022-08-20T12:55:29Z</time>
      </trkpt>
      <trkpt lat="46.62274" lon="5.51985">
        <ele>466.2</ele>
        <time>2022-08-20T12:55:30Z</time>
      </trkpt>
      <trkpt lat="46.62271" lon="5.51984">
        <ele>466.2</ele>
        <time>2022-08-20T12:55:31Z</time>
      </trkpt>
      <trkpt lat="46.62268" lon="5.51984">
        <ele>466.4</ele>
        <time>2022-08-20T12:55:32Z</time>
      </trkpt>
      <trkpt lat="46.62264" lon="5.51983">
        <ele>466.4</ele>
        <time>2022-08-20T12:55:33Z</time>
      </trkpt>
      <trkpt lat="46.62262" lon="5.51982">
        <ele>466.4</ele>
        <time>2022-08-20T12:55:34Z</time>
      </trkpt>
      <trkpt lat="46.62259" lon="5.51981">
        <ele>466.4</ele>
        <time>2022-08-20T12:55:35Z</time>
      </trkpt>
      <trkpt lat="46.62256" lon="5.5198">
        <ele>466.4</ele>
        <time>2022-08-20T12:55:36Z</time>
      </trkpt>
      <trkpt lat="46.62253" lon="5.51979">
        <ele>466.6</ele>
        <time>2022-08-20T12:55:37Z</time>
      </trkpt>
      <trkpt lat="46.62251" lon="5.51978">
        <ele>466.6</ele>
        <time>2022-08-20T12:55:38Z</time>
      </trkpt>
      <trkpt lat="46.62249" lon="5.51977">
        <ele>466.6</ele>
        <time>2022-08-20T12:55:39Z</time>
      </trkpt>
      <trkpt lat="46.62246" lon="5.51976">
        <ele>466.6</ele>
        <time>2022-08-20T12:55:40Z</time>
      </trkpt>
      <trkpt lat="46.62244" lon="5.51975">
        <ele>466.6</ele>
        <time>2022-08-20T12:55:41Z</time>
      </trkpt>
      <trkpt lat="46.62241" lon="5.51975">
        <ele>466.6</ele>
        <time>2022-08-20T12:55:42Z</time>
      </trkpt>
      <trkpt lat="46.62239" lon="5.51974">
        <ele>466.6</ele>
        <time>2022-08-20T12:55:43Z</time>
      </trkpt>
      <trkpt lat="46.62237" lon="5.51973">
        <ele>466.8</ele>
        <time>2022-08-20T12:55:44Z</time>
      </trkpt>
      <trkpt lat="46.62234" lon="5.51972">
        <ele>466.8</ele>
        <time>2022-08-20T12:55:45Z</time>
      </trkpt>
      <trkpt lat="46.62231" lon="5.51971">
        <ele>466.8</ele>
        <time>2022-08-20T12:55:46Z</time>
      </trkpt>
      <trkpt lat="46.62229" lon="5.5197">
        <ele>467</ele>
        <time>2022-08-20T12:55:47Z</time>
      </trkpt>
      <trkpt lat="46.62226" lon="5.51969">
        <ele>467</ele>
        <time>2022-08-20T12:55:48Z</time>
      </trkpt>
      <trkpt lat="46.62223" lon="5.51968">
        <ele>467</ele>
        <time>2022-08-20T12:55:49Z</time>
      </trkpt>
      <trkpt lat="46.62221" lon="5.51967">
        <ele>467</ele>
        <time>2022-08-20T12:55:50Z</time>
      </trkpt>
      <trkpt lat="46.62219" lon="5.51966">
        <ele>467</ele>
        <time>2022-08-20T12:55:51Z</time>
      </trkpt>
      <trkpt lat="46.62216" lon="5.51966">
        <ele>467.2</ele>
        <time>2022-08-20T12:55:52Z</time>
      </trkpt>
      <trkpt lat="46.62214" lon="5.51964">
        <ele>467.2</ele>
        <time>2022-08-20T12:55:53Z</time>
      </trkpt>
      <trkpt lat="46.62212" lon="5.51963">
        <ele>467.2</ele>
        <time>2022-08-20T12:55:54Z</time>
      </trkpt>
      <trkpt lat="46.62209" lon="5.51962">
        <ele>467.2</ele>
        <time>2022-08-20T12:55:55Z</time>
      </trkpt>
      <trkpt lat="46.62207" lon="5.51961">
        <ele>467.2</ele>
        <time>2022-08-20T12:55:56Z</time>
      </trkpt>
      <trkpt lat="46.62205" lon="5.5196">
        <ele>467.2</ele>
        <time>2022-08-20T12:55:57Z</time>
      </trkpt>
      <trkpt lat="46.62202" lon="5.5196">
        <ele>467.4</ele>
        <time>2022-08-20T12:55:58Z</time>
      </trkpt>
      <trkpt lat="46.62199" lon="5.51959">
        <ele>467.4</ele>
        <time>2022-08-20T12:55:59Z</time>
      </trkpt>
      <trkpt lat="46.62197" lon="5.51958">
        <ele>467.4</ele>
        <time>2022-08-20T12:56:00Z</time>
      </trkpt>
      <trkpt lat="46.62195" lon="5.51957">
        <ele>467.4</ele>
        <time>2022-08-20T12:56:01Z</time>
      </trkpt>
      <trkpt lat="46.62193" lon="5.51955">
        <ele>467.4</ele>
        <time>2022-08-20T12:56:02Z</time>
      </trkpt>
      <trkpt lat="46.62191" lon="5.51954">
        <ele>467.4</ele>
        <time>2022-08-20T12:56:03Z</time>
      </trkpt>
      <trkpt lat="46.62189" lon="5.51953">
        <ele>467.4</ele>
        <time>2022-08-20T12:56:04Z</time>
      </trkpt>
      <trkpt lat="46.62187" lon="5.51952">
        <ele>467.2</ele>
        <time>2022-08-20T12:56:05Z</time>
      </trkpt>
      <trkpt lat="46.62184" lon="5.51951">
        <ele>467.2</ele>
        <time>2022-08-20T12:56:06Z</time>
      </trkpt>
      <trkpt lat="46.62182" lon="5.51949">
        <ele>467.2</ele>
        <time>2022-08-20T12:56:07Z</time>
      </trkpt>
      <trkpt lat="46.6218" lon="5.51949">
        <ele>467.2</ele>
        <time>2022-08-20T12:56:08Z</time>
      </trkpt>
      <trkpt lat="46.62177" lon="5.51948">
        <ele>467.2</ele>
        <time>2022-08-20T12:56:09Z</time>
      </trkpt>
      <trkpt lat="46.62175" lon="5.51947">
        <ele>467.2</ele>
        <time>2022-08-20T12:56:10Z</time>
      </trkpt>
      <trkpt lat="46.62172" lon="5.51946">
        <ele>467.4</ele>
        <time>2022-08-20T12:56:12Z</time>
      </trkpt>
      <trkpt lat="46.6217" lon="5.51945">
        <ele>467.6</ele>
        <time>2022-08-20T12:56:14Z</time>
      </trkpt>
      <trkpt lat="46.62167" lon="5.51944">
        <ele>467.8</ele>
        <time>2022-08-20T12:56:16Z</time>
      </trkpt>
      <trkpt lat="46.62164" lon="5.51944">
        <ele>468</ele>
        <time>2022-08-20T12:56:18Z</time>
      </trkpt>
      <trkpt lat="46.62162" lon="5.51943">
        <ele>468.2</ele>
        <time>2022-08-20T12:56:20Z</time>
      </trkpt>
      <trkpt lat="46.62159" lon="5.51941">
        <ele>468.4</ele>
        <time>2022-08-20T12:56:22Z</time>
      </trkpt>
      <trkpt lat="46.62157" lon="5.5194">
        <ele>468.6</ele>
        <time>2022-08-20T12:56:24Z</time>
      </trkpt>
      <trkpt lat="46.62154" lon="5.51938">
        <ele>468.8</ele>
        <time>2022-08-20T12:56:26Z</time>
      </trkpt>
      <trkpt lat="46.62151" lon="5.51937">
        <ele>469</ele>
        <time>2022-08-20T12:56:28Z</time>
      </trkpt>
      <trkpt lat="46.62149" lon="5.51936">
        <ele>469</ele>
        <time>2022-08-20T12:56:29Z</time>
      </trkpt>
      <trkpt lat="46.62146" lon="5.51934">
        <ele>469.2</ele>
        <time>2022-08-20T12:56:31Z</time>
      </trkpt>
      <trkpt lat="46.62143" lon="5.51933">
        <ele>469.4</ele>
        <time>2022-08-20T12:56:33Z</time>
      </trkpt>
      <trkpt lat="46.6214" lon="5.51931">
        <ele>469.8</ele>
        <time>2022-08-20T12:56:35Z</time>
      </trkpt>
      <trkpt lat="46.62138" lon="5.51931">
        <ele>469.8</ele>
        <time>2022-08-20T12:56:36Z</time>
      </trkpt>
      <trkpt lat="46.62135" lon="5.51931">
        <ele>470.2</ele>
        <time>2022-08-20T12:56:38Z</time>
      </trkpt>
      <trkpt lat="46.62133" lon="5.51931">
        <ele>470.2</ele>
        <time>2022-08-20T12:56:39Z</time>
      </trkpt>
      <trkpt lat="46.6213" lon="5.51931">
        <ele>470.6</ele>
        <time>2022-08-20T12:56:41Z</time>
      </trkpt>
      <trkpt lat="46.62127" lon="5.5193">
        <ele>471</ele>
        <time>2022-08-20T12:56:43Z</time>
      </trkpt>
      <trkpt lat="46.62124" lon="5.5193">
        <ele>471.2</ele>
        <time>2022-08-20T12:56:45Z</time>
      </trkpt>
      <trkpt lat="46.62122" lon="5.5193">
        <ele>471.4</ele>
        <time>2022-08-20T12:56:46Z</time>
      </trkpt>
      <trkpt lat="46.6212" lon="5.5193">
        <ele>471.6</ele>
        <time>2022-08-20T12:56:48Z</time>
      </trkpt>
      <trkpt lat="46.62117" lon="5.5193">
        <ele>471.8</ele>
        <time>2022-08-20T12:56:50Z</time>
      </trkpt>
      <trkpt lat="46.62114" lon="5.51929">
        <ele>472</ele>
        <time>2022-08-20T12:56:52Z</time>
      </trkpt>
      <trkpt lat="46.62111" lon="5.51929">
        <ele>472.2</ele>
        <time>2022-08-20T12:56:54Z</time>
      </trkpt>
      <trkpt lat="46.62108" lon="5.51929">
        <ele>472.4</ele>
        <time>2022-08-20T12:56:56Z</time>
      </trkpt>
      <trkpt lat="46.62104" lon="5.51928">
        <ele>472.6</ele>
        <time>2022-08-20T12:56:58Z</time>
      </trkpt>
      <trkpt lat="46.62102" lon="5.51927">
        <ele>472.6</ele>
        <time>2022-08-20T12:56:59Z</time>
      </trkpt>
      <trkpt lat="46.621" lon="5.51927">
        <ele>472.8</ele>
        <time>2022-08-20T12:57:00Z</time>
      </trkpt>
      <trkpt lat="46.62097" lon="5.51926">
        <ele>472.8</ele>
        <time>2022-08-20T12:57:01Z</time>
      </trkpt>
      <trkpt lat="46.62094" lon="5.51926">
        <ele>472.8</ele>
        <time>2022-08-20T12:57:02Z</time>
      </trkpt>
      <trkpt lat="46.62092" lon="5.51925">
        <ele>472.8</ele>
        <time>2022-08-20T12:57:03Z</time>
      </trkpt>
      <trkpt lat="46.62088" lon="5.51924">
        <ele>472.8</ele>
        <time>2022-08-20T12:57:04Z</time>
      </trkpt>
      <trkpt lat="46.62086" lon="5.51923">
        <ele>472.8</ele>
        <time>2022-08-20T12:57:05Z</time>
      </trkpt>
      <trkpt lat="46.62083" lon="5.51921">
        <ele>473</ele>
        <time>2022-08-20T12:57:06Z</time>
      </trkpt>
      <trkpt lat="46.6208" lon="5.5192">
        <ele>473</ele>
        <time>2022-08-20T12:57:07Z</time>
      </trkpt>
      <trkpt lat="46.62078" lon="5.51919">
        <ele>473</ele>
        <time>2022-08-20T12:57:08Z</time>
      </trkpt>
      <trkpt lat="46.62075" lon="5.51918">
        <ele>473</ele>
        <time>2022-08-20T12:57:09Z</time>
      </trkpt>
      <trkpt lat="46.62072" lon="5.51917">
        <ele>473</ele>
        <time>2022-08-20T12:57:10Z</time>
      </trkpt>
      <trkpt lat="46.6207" lon="5.51916">
        <ele>473</ele>
        <time>2022-08-20T12:57:11Z</time>
      </trkpt>
      <trkpt lat="46.62067" lon="5.51915">
        <ele>473</ele>
        <time>2022-08-20T12:57:12Z</time>
      </trkpt>
      <trkpt lat="46.62064" lon="5.51914">
        <ele>473</ele>
        <time>2022-08-20T12:57:13Z</time>
      </trkpt>
      <trkpt lat="46.62061" lon="5.51912">
        <ele>473</ele>
        <time>2022-08-20T12:57:14Z</time>
      </trkpt>
      <trkpt lat="46.62058" lon="5.51912">
        <ele>473</ele>
        <time>2022-08-20T12:57:15Z</time>
      </trkpt>
      <trkpt lat="46.62056" lon="5.5191">
        <ele>472.8</ele>
        <time>2022-08-20T12:57:16Z</time>
      </trkpt>
      <trkpt lat="46.62054" lon="5.51909">
        <ele>472.8</ele>
        <time>2022-08-20T12:57:17Z</time>
      </trkpt>
      <trkpt lat="46.62051" lon="5.51908">
        <ele>472.8</ele>
        <time>2022-08-20T12:57:18Z</time>
      </trkpt>
      <trkpt lat="46.62048" lon="5.51907">
        <ele>472.8</ele>
        <time>2022-08-20T12:57:19Z</time>
      </trkpt>
      <trkpt lat="46.62046" lon="5.51907">
        <ele>472.8</ele>
        <time>2022-08-20T12:57:20Z</time>
      </trkpt>
      <trkpt lat="46.62043" lon="5.51907">
        <ele>472.8</ele>
        <time>2022-08-20T12:57:21Z</time>
      </trkpt>
      <trkpt lat="46.6204" lon="5.51907">
        <ele>473</ele>
        <time>2022-08-20T12:57:22Z</time>
      </trkpt>
      <trkpt lat="46.62038" lon="5.51907">
        <ele>473</ele>
        <time>2022-08-20T12:57:23Z</time>
      </trkpt>
      <trkpt lat="46.62035" lon="5.51906">
        <ele>473</ele>
        <time>2022-08-20T12:57:24Z</time>
      </trkpt>
      <trkpt lat="46.62033" lon="5.51906">
        <ele>473</ele>
        <time>2022-08-20T12:57:25Z</time>
      </trkpt>
      <trkpt lat="46.6203" lon="5.51905">
        <ele>473</ele>
        <time>2022-08-20T12:57:26Z</time>
      </trkpt>
      <trkpt lat="46.62027" lon="5.51904">
        <ele>472.8</ele>
        <time>2022-08-20T12:57:27Z</time>
      </trkpt>
      <trkpt lat="46.62024" lon="5.51904">
        <ele>472.8</ele>
        <time>2022-08-20T12:57:28Z</time>
      </trkpt>
      <trkpt lat="46.62021" lon="5.51904">
        <ele>472.8</ele>
        <time>2022-08-20T12:57:29Z</time>
      </trkpt>
      <trkpt lat="46.62018" lon="5.51904">
        <ele>472.8</ele>
        <time>2022-08-20T12:57:30Z</time>
      </trkpt>
      <trkpt lat="46.62015" lon="5.51904">
        <ele>472.8</ele>
        <time>2022-08-20T12:57:31Z</time>
      </trkpt>
      <trkpt lat="46.62012" lon="5.51904">
        <ele>472.6</ele>
        <time>2022-08-20T12:57:32Z</time>
      </trkpt>
      <trkpt lat="46.62009" lon="5.51904">
        <ele>472.6</ele>
        <time>2022-08-20T12:57:33Z</time>
      </trkpt>
      <trkpt lat="46.62007" lon="5.51903">
        <ele>472.6</ele>
        <time>2022-08-20T12:57:34Z</time>
      </trkpt>
      <trkpt lat="46.62005" lon="5.51903">
        <ele>472.6</ele>
        <time>2022-08-20T12:57:35Z</time>
      </trkpt>
      <trkpt lat="46.62002" lon="5.51903">
        <ele>472.6</ele>
        <time>2022-08-20T12:57:36Z</time>
      </trkpt>
      <trkpt lat="46.61999" lon="5.51902">
        <ele>472.6</ele>
        <time>2022-08-20T12:57:37Z</time>
      </trkpt>
      <trkpt lat="46.61996" lon="5.51902">
        <ele>472.6</ele>
        <time>2022-08-20T12:57:38Z</time>
      </trkpt>
      <trkpt lat="46.61994" lon="5.51901">
        <ele>472.6</ele>
        <time>2022-08-20T12:57:39Z</time>
      </trkpt>
      <trkpt lat="46.61991" lon="5.519">
        <ele>472.6</ele>
        <time>2022-08-20T12:57:40Z</time>
      </trkpt>
      <trkpt lat="46.61988" lon="5.51899">
        <ele>472.6</ele>
        <time>2022-08-20T12:57:41Z</time>
      </trkpt>
      <trkpt lat="46.61985" lon="5.51898">
        <ele>472.6</ele>
        <time>2022-08-20T12:57:42Z</time>
      </trkpt>
      <trkpt lat="46.61982" lon="5.51897">
        <ele>472.6</ele>
        <time>2022-08-20T12:57:43Z</time>
      </trkpt>
      <trkpt lat="46.61979" lon="5.51895">
        <ele>472.4</ele>
        <time>2022-08-20T12:57:44Z</time>
      </trkpt>
      <trkpt lat="46.61976" lon="5.51894">
        <ele>472.4</ele>
        <time>2022-08-20T12:57:45Z</time>
      </trkpt>
      <trkpt lat="46.61973" lon="5.51894">
        <ele>472.4</ele>
        <time>2022-08-20T12:57:46Z</time>
      </trkpt>
      <trkpt lat="46.61971" lon="5.51893">
        <ele>472.4</ele>
        <time>2022-08-20T12:57:47Z</time>
      </trkpt>
      <trkpt lat="46.61968" lon="5.51893">
        <ele>472.4</ele>
        <time>2022-08-20T12:57:48Z</time>
      </trkpt>
      <trkpt lat="46.61965" lon="5.51893">
        <ele>472.4</ele>
        <time>2022-08-20T12:57:49Z</time>
      </trkpt>
      <trkpt lat="46.61963" lon="5.51892">
        <ele>472.4</ele>
        <time>2022-08-20T12:57:50Z</time>
      </trkpt>
      <trkpt lat="46.6196" lon="5.51892">
        <ele>472.4</ele>
        <time>2022-08-20T12:57:51Z</time>
      </trkpt>
      <trkpt lat="46.61957" lon="5.51892">
        <ele>472.4</ele>
        <time>2022-08-20T12:57:52Z</time>
      </trkpt>
      <trkpt lat="46.61955" lon="5.51891">
        <ele>472.4</ele>
        <time>2022-08-20T12:57:53Z</time>
      </trkpt>
      <trkpt lat="46.61952" lon="5.51889">
        <ele>472.4</ele>
        <time>2022-08-20T12:57:54Z</time>
      </trkpt>
      <trkpt lat="46.61949" lon="5.51888">
        <ele>472.4</ele>
        <time>2022-08-20T12:57:55Z</time>
      </trkpt>
      <trkpt lat="46.61947" lon="5.51886">
        <ele>472.4</ele>
        <time>2022-08-20T12:57:56Z</time>
      </trkpt>
      <trkpt lat="46.61944" lon="5.51884">
        <ele>472.6</ele>
        <time>2022-08-20T12:57:57Z</time>
      </trkpt>
      <trkpt lat="46.61941" lon="5.51883">
        <ele>472.6</ele>
        <time>2022-08-20T12:57:58Z</time>
      </trkpt>
      <trkpt lat="46.61939" lon="5.51881">
        <ele>472.6</ele>
        <time>2022-08-20T12:57:59Z</time>
      </trkpt>
      <trkpt lat="46.61935" lon="5.5188">
        <ele>472.6</ele>
        <time>2022-08-20T12:58:00Z</time>
      </trkpt>
      <trkpt lat="46.61933" lon="5.5188">
        <ele>472.6</ele>
        <time>2022-08-20T12:58:01Z</time>
      </trkpt>
      <trkpt lat="46.61931" lon="5.51879">
        <ele>472.6</ele>
        <time>2022-08-20T12:58:02Z</time>
      </trkpt>
      <trkpt lat="46.61928" lon="5.51878">
        <ele>472.6</ele>
        <time>2022-08-20T12:58:03Z</time>
      </trkpt>
      <trkpt lat="46.61925" lon="5.51877">
        <ele>472.6</ele>
        <time>2022-08-20T12:58:04Z</time>
      </trkpt>
      <trkpt lat="46.61922" lon="5.51877">
        <ele>472.6</ele>
        <time>2022-08-20T12:58:05Z</time>
      </trkpt>
      <trkpt lat="46.61919" lon="5.51876">
        <ele>472.6</ele>
        <time>2022-08-20T12:58:06Z</time>
      </trkpt>
      <trkpt lat="46.61917" lon="5.51876">
        <ele>472.6</ele>
        <time>2022-08-20T12:58:07Z</time>
      </trkpt>
      <trkpt lat="46.61914" lon="5.51875">
        <ele>472.6</ele>
        <time>2022-08-20T12:58:08Z</time>
      </trkpt>
      <trkpt lat="46.61911" lon="5.51875">
        <ele>472.6</ele>
        <time>2022-08-20T12:58:09Z</time>
      </trkpt>
      <trkpt lat="46.61909" lon="5.51875">
        <ele>472.6</ele>
        <time>2022-08-20T12:58:10Z</time>
      </trkpt>
      <trkpt lat="46.61906" lon="5.51875">
        <ele>472.6</ele>
        <time>2022-08-20T12:58:11Z</time>
      </trkpt>
      <trkpt lat="46.61902" lon="5.51874">
        <ele>472.8</ele>
        <time>2022-08-20T12:58:12Z</time>
      </trkpt>
      <trkpt lat="46.61899" lon="5.51874">
        <ele>472.8</ele>
        <time>2022-08-20T12:58:13Z</time>
      </trkpt>
      <trkpt lat="46.61897" lon="5.51873">
        <ele>472.8</ele>
        <time>2022-08-20T12:58:14Z</time>
      </trkpt>
      <trkpt lat="46.61894" lon="5.51873">
        <ele>472.8</ele>
        <time>2022-08-20T12:58:15Z</time>
      </trkpt>
      <trkpt lat="46.61891" lon="5.51872">
        <ele>472.8</ele>
        <time>2022-08-20T12:58:16Z</time>
      </trkpt>
      <trkpt lat="46.61889" lon="5.51871">
        <ele>472.8</ele>
        <time>2022-08-20T12:58:17Z</time>
      </trkpt>
      <trkpt lat="46.61886" lon="5.51871">
        <ele>472.8</ele>
        <time>2022-08-20T12:58:18Z</time>
      </trkpt>
      <trkpt lat="46.61884" lon="5.5187">
        <ele>472.6</ele>
        <time>2022-08-20T12:58:19Z</time>
      </trkpt>
      <trkpt lat="46.61881" lon="5.5187">
        <ele>472.6</ele>
        <time>2022-08-20T12:58:20Z</time>
      </trkpt>
      <trkpt lat="46.61878" lon="5.5187">
        <ele>472.6</ele>
        <time>2022-08-20T12:58:21Z</time>
      </trkpt>
      <trkpt lat="46.61876" lon="5.5187">
        <ele>472.6</ele>
        <time>2022-08-20T12:58:22Z</time>
      </trkpt>
      <trkpt lat="46.61873" lon="5.5187">
        <ele>472.6</ele>
        <time>2022-08-20T12:58:23Z</time>
      </trkpt>
      <trkpt lat="46.6187" lon="5.5187">
        <ele>472.6</ele>
        <time>2022-08-20T12:58:24Z</time>
      </trkpt>
      <trkpt lat="46.61868" lon="5.5187">
        <ele>472.6</ele>
        <time>2022-08-20T12:58:25Z</time>
      </trkpt>
      <trkpt lat="46.61864" lon="5.5187">
        <ele>472.6</ele>
        <time>2022-08-20T12:58:26Z</time>
      </trkpt>
      <trkpt lat="46.61862" lon="5.51871">
        <ele>472.6</ele>
        <time>2022-08-20T12:58:27Z</time>
      </trkpt>
      <trkpt lat="46.6186" lon="5.51871">
        <ele>472.4</ele>
        <time>2022-08-20T12:58:28Z</time>
      </trkpt>
      <trkpt lat="46.61857" lon="5.51871">
        <ele>472.4</ele>
        <time>2022-08-20T12:58:29Z</time>
      </trkpt>
      <trkpt lat="46.61854" lon="5.51871">
        <ele>472.4</ele>
        <time>2022-08-20T12:58:30Z</time>
      </trkpt>
      <trkpt lat="46.61851" lon="5.51871">
        <ele>472.4</ele>
        <time>2022-08-20T12:58:31Z</time>
      </trkpt>
      <trkpt lat="46.61849" lon="5.51871">
        <ele>472.4</ele>
        <time>2022-08-20T12:58:32Z</time>
      </trkpt>
      <trkpt lat="46.61846" lon="5.51871">
        <ele>472.4</ele>
        <time>2022-08-20T12:58:33Z</time>
      </trkpt>
      <trkpt lat="46.61843" lon="5.51871">
        <ele>472.6</ele>
        <time>2022-08-20T12:58:34Z</time>
      </trkpt>
      <trkpt lat="46.61841" lon="5.51871">
        <ele>472.6</ele>
        <time>2022-08-20T12:58:35Z</time>
      </trkpt>
      <trkpt lat="46.61838" lon="5.51871">
        <ele>472.6</ele>
        <time>2022-08-20T12:58:36Z</time>
      </trkpt>
      <trkpt lat="46.61836" lon="5.51871">
        <ele>472.6</ele>
        <time>2022-08-20T12:58:40Z</time>
      </trkpt>
      <trkpt lat="46.61834" lon="5.51872">
        <ele>472.6</ele>
        <time>2022-08-20T12:58:42Z</time>
      </trkpt>
      <trkpt lat="46.61832" lon="5.51872">
        <ele>472.6</ele>
        <time>2022-08-20T12:58:43Z</time>
      </trkpt>
      <trkpt lat="46.61829" lon="5.51873">
        <ele>472.6</ele>
        <time>2022-08-20T12:58:45Z</time>
      </trkpt>
      <trkpt lat="46.61827" lon="5.51874">
        <ele>472.6</ele>
        <time>2022-08-20T12:58:46Z</time>
      </trkpt>
      <trkpt lat="46.61824" lon="5.51874">
        <ele>472.6</ele>
        <time>2022-08-20T12:58:47Z</time>
      </trkpt>
      <trkpt lat="46.61821" lon="5.51874">
        <ele>472.6</ele>
        <time>2022-08-20T12:58:48Z</time>
      </trkpt>
      <trkpt lat="46.61819" lon="5.51874">
        <ele>472.6</ele>
        <time>2022-08-20T12:58:49Z</time>
      </trkpt>
      <trkpt lat="46.61817" lon="5.51874">
        <ele>472.6</ele>
        <time>2022-08-20T12:58:50Z</time>
      </trkpt>
      <trkpt lat="46.61814" lon="5.51873">
        <ele>472.6</ele>
        <time>2022-08-20T12:58:52Z</time>
      </trkpt>
      <trkpt lat="46.61812" lon="5.51874">
        <ele>472.6</ele>
        <time>2022-08-20T12:58:53Z</time>
      </trkpt>
      <trkpt lat="46.6181" lon="5.51874">
        <ele>472.6</ele>
        <time>2022-08-20T12:58:54Z</time>
      </trkpt>
      <trkpt lat="46.61807" lon="5.51875">
        <ele>472.6</ele>
        <time>2022-08-20T12:58:55Z</time>
      </trkpt>
      <trkpt lat="46.61805" lon="5.51876">
        <ele>472.4</ele>
        <time>2022-08-20T12:58:56Z</time>
      </trkpt>
      <trkpt lat="46.61802" lon="5.51876">
        <ele>472.4</ele>
        <time>2022-08-20T12:58:57Z</time>
      </trkpt>
      <trkpt lat="46.618" lon="5.51877">
        <ele>472.4</ele>
        <time>2022-08-20T12:58:58Z</time>
      </trkpt>
      <trkpt lat="46.61797" lon="5.51877">
        <ele>472.4</ele>
        <time>2022-08-20T12:58:59Z</time>
      </trkpt>
      <trkpt lat="46.61795" lon="5.51877">
        <ele>472.4</ele>
        <time>2022-08-20T12:59:00Z</time>
      </trkpt>
      <trkpt lat="46.61792" lon="5.51877">
        <ele>472.4</ele>
        <time>2022-08-20T12:59:01Z</time>
      </trkpt>
      <trkpt lat="46.61789" lon="5.51877">
        <ele>472.4</ele>
        <time>2022-08-20T12:59:02Z</time>
      </trkpt>
      <trkpt lat="46.61786" lon="5.51878">
        <ele>472.6</ele>
        <time>2022-08-20T12:59:03Z</time>
      </trkpt>
      <trkpt lat="46.61784" lon="5.51878">
        <ele>472.6</ele>
        <time>2022-08-20T12:59:04Z</time>
      </trkpt>
      <trkpt lat="46.61781" lon="5.51879">
        <ele>472.6</ele>
        <time>2022-08-20T12:59:05Z</time>
      </trkpt>
      <trkpt lat="46.61778" lon="5.51879">
        <ele>472.8</ele>
        <time>2022-08-20T12:59:06Z</time>
      </trkpt>
      <trkpt lat="46.61776" lon="5.51878">
        <ele>472.8</ele>
        <time>2022-08-20T12:59:07Z</time>
      </trkpt>
      <trkpt lat="46.61774" lon="5.51878">
        <ele>473</ele>
        <time>2022-08-20T12:59:08Z</time>
      </trkpt>
      <trkpt lat="46.61771" lon="5.51878">
        <ele>473.2</ele>
        <time>2022-08-20T12:59:10Z</time>
      </trkpt>
      <trkpt lat="46.61769" lon="5.51878">
        <ele>473.2</ele>
        <time>2022-08-20T12:59:11Z</time>
      </trkpt>
      <trkpt lat="46.61766" lon="5.51877">
        <ele>473.4</ele>
        <time>2022-08-20T12:59:13Z</time>
      </trkpt>
      <trkpt lat="46.61763" lon="5.51877">
        <ele>473.6</ele>
        <time>2022-08-20T12:59:15Z</time>
      </trkpt>
      <trkpt lat="46.6176" lon="5.51877">
        <ele>473.6</ele>
        <time>2022-08-20T12:59:17Z</time>
      </trkpt>
      <trkpt lat="46.61757" lon="5.51876">
        <ele>474</ele>
        <time>2022-08-20T12:59:19Z</time>
      </trkpt>
      <trkpt lat="46.61754" lon="5.51874">
        <ele>474.2</ele>
        <time>2022-08-20T12:59:21Z</time>
      </trkpt>
      <trkpt lat="46.61751" lon="5.51874">
        <ele>474.2</ele>
        <time>2022-08-20T12:59:23Z</time>
      </trkpt>
      <trkpt lat="46.61748" lon="5.51873">
        <ele>474.4</ele>
        <time>2022-08-20T12:59:25Z</time>
      </trkpt>
      <trkpt lat="46.61745" lon="5.51874">
        <ele>474.6</ele>
        <time>2022-08-20T12:59:27Z</time>
      </trkpt>
      <trkpt lat="46.61743" lon="5.51874">
        <ele>474.6</ele>
        <time>2022-08-20T12:59:28Z</time>
      </trkpt>
      <trkpt lat="46.61741" lon="5.51874">
        <ele>474.6</ele>
        <time>2022-08-20T12:59:29Z</time>
      </trkpt>
      <trkpt lat="46.61739" lon="5.51875">
        <ele>474.8</ele>
        <time>2022-08-20T12:59:30Z</time>
      </trkpt>
      <trkpt lat="46.61736" lon="5.51876">
        <ele>474.8</ele>
        <time>2022-08-20T12:59:32Z</time>
      </trkpt>
      <trkpt lat="46.61733" lon="5.51877">
        <ele>474.8</ele>
        <time>2022-08-20T12:59:34Z</time>
      </trkpt>
      <trkpt lat="46.6173" lon="5.51879">
        <ele>474.8</ele>
        <time>2022-08-20T12:59:36Z</time>
      </trkpt>
      <trkpt lat="46.61728" lon="5.51879">
        <ele>474.8</ele>
        <time>2022-08-20T12:59:37Z</time>
      </trkpt>
      <trkpt lat="46.61726" lon="5.51881">
        <ele>474.8</ele>
        <time>2022-08-20T12:59:38Z</time>
      </trkpt>
      <trkpt lat="46.61724" lon="5.51882">
        <ele>475</ele>
        <time>2022-08-20T12:59:40Z</time>
      </trkpt>
      <trkpt lat="46.61721" lon="5.51883">
        <ele>475</ele>
        <time>2022-08-20T12:59:42Z</time>
      </trkpt>
      <trkpt lat="46.61718" lon="5.51884">
        <ele>475</ele>
        <time>2022-08-20T12:59:44Z</time>
      </trkpt>
      <trkpt lat="46.61717" lon="5.51885">
        <ele>475.2</ele>
        <time>2022-08-20T12:59:45Z</time>
      </trkpt>
      <trkpt lat="46.61713" lon="5.51885">
        <ele>475.4</ele>
        <time>2022-08-20T12:59:47Z</time>
      </trkpt>
      <trkpt lat="46.6171" lon="5.51886">
        <ele>475.6</ele>
        <time>2022-08-20T12:59:49Z</time>
      </trkpt>
      <trkpt lat="46.61708" lon="5.51886">
        <ele>475.8</ele>
        <time>2022-08-20T12:59:50Z</time>
      </trkpt>
      <trkpt lat="46.61706" lon="5.51886">
        <ele>476</ele>
        <time>2022-08-20T12:59:51Z</time>
      </trkpt>
      <trkpt lat="46.61703" lon="5.51885">
        <ele>476</ele>
        <time>2022-08-20T12:59:52Z</time>
      </trkpt>
      <trkpt lat="46.617" lon="5.51884">
        <ele>476.4</ele>
        <time>2022-08-20T12:59:54Z</time>
      </trkpt>
      <trkpt lat="46.61698" lon="5.51883">
        <ele>476.6</ele>
        <time>2022-08-20T12:59:55Z</time>
      </trkpt>
      <trkpt lat="46.61696" lon="5.51883">
        <ele>476.6</ele>
        <time>2022-08-20T12:59:56Z</time>
      </trkpt>
      <trkpt lat="46.61693" lon="5.51882">
        <ele>476.8</ele>
        <time>2022-08-20T12:59:58Z</time>
      </trkpt>
      <trkpt lat="46.6169" lon="5.51881">
        <ele>477</ele>
        <time>2022-08-20T13:00:00Z</time>
      </trkpt>
      <trkpt lat="46.61687" lon="5.51881">
        <ele>477.2</ele>
        <time>2022-08-20T13:00:02Z</time>
      </trkpt>
      <trkpt lat="46.61685" lon="5.5188">
        <ele>477.6</ele>
        <time>2022-08-20T13:00:04Z</time>
      </trkpt>
      <trkpt lat="46.61681" lon="5.5188">
        <ele>477.8</ele>
        <time>2022-08-20T13:00:06Z</time>
      </trkpt>
      <trkpt lat="46.61678" lon="5.5188">
        <ele>478</ele>
        <time>2022-08-20T13:00:08Z</time>
      </trkpt>
      <trkpt lat="46.61676" lon="5.5188">
        <ele>478.2</ele>
        <time>2022-08-20T13:00:10Z</time>
      </trkpt>
      <trkpt lat="46.61673" lon="5.5188">
        <ele>478.2</ele>
        <time>2022-08-20T13:00:12Z</time>
      </trkpt>
      <trkpt lat="46.61671" lon="5.51882">
        <ele>478.2</ele>
        <time>2022-08-20T13:00:14Z</time>
      </trkpt>
      <trkpt lat="46.61668" lon="5.51884">
        <ele>478.4</ele>
        <time>2022-08-20T13:00:16Z</time>
      </trkpt>
      <trkpt lat="46.61665" lon="5.51886">
        <ele>478.4</ele>
        <time>2022-08-20T13:00:18Z</time>
      </trkpt>
      <trkpt lat="46.61661" lon="5.51888">
        <ele>478.4</ele>
        <time>2022-08-20T13:00:20Z</time>
      </trkpt>
      <trkpt lat="46.6166" lon="5.51889">
        <ele>478.6</ele>
        <time>2022-08-20T13:00:22Z</time>
      </trkpt>
      <trkpt lat="46.61658" lon="5.51891">
        <ele>479</ele>
        <time>2022-08-20T13:00:24Z</time>
      </trkpt>
      <trkpt lat="46.61655" lon="5.51895">
        <ele>479.2</ele>
        <time>2022-08-20T13:00:26Z</time>
      </trkpt>
      <trkpt lat="46.61652" lon="5.51897">
        <ele>479.6</ele>
        <time>2022-08-20T13:00:28Z</time>
      </trkpt>
      <trkpt lat="46.6165" lon="5.51898">
        <ele>480</ele>
        <time>2022-08-20T13:00:29Z</time>
      </trkpt>
      <trkpt lat="46.61648" lon="5.51899">
        <ele>480.2</ele>
        <time>2022-08-20T13:00:30Z</time>
      </trkpt>
      <trkpt lat="46.61646" lon="5.51901">
        <ele>480.4</ele>
        <time>2022-08-20T13:00:31Z</time>
      </trkpt>
      <trkpt lat="46.61645" lon="5.51902">
        <ele>480.6</ele>
        <time>2022-08-20T13:00:32Z</time>
      </trkpt>
      <trkpt lat="46.61642" lon="5.51903">
        <ele>481</ele>
        <time>2022-08-20T13:00:34Z</time>
      </trkpt>
      <trkpt lat="46.61639" lon="5.51905">
        <ele>481.4</ele>
        <time>2022-08-20T13:00:36Z</time>
      </trkpt>
      <trkpt lat="46.61637" lon="5.51908">
        <ele>481.8</ele>
        <time>2022-08-20T13:00:38Z</time>
      </trkpt>
      <trkpt lat="46.61633" lon="5.51909">
        <ele>482.2</ele>
        <time>2022-08-20T13:00:40Z</time>
      </trkpt>
      <trkpt lat="46.6163" lon="5.51911">
        <ele>482.4</ele>
        <time>2022-08-20T13:00:42Z</time>
      </trkpt>
      <trkpt lat="46.61629" lon="5.51912">
        <ele>482.6</ele>
        <time>2022-08-20T13:00:43Z</time>
      </trkpt>
      <trkpt lat="46.61627" lon="5.51913">
        <ele>482.8</ele>
        <time>2022-08-20T13:00:44Z</time>
      </trkpt>
      <trkpt lat="46.61625" lon="5.51915">
        <ele>483.2</ele>
        <time>2022-08-20T13:00:46Z</time>
      </trkpt>
      <trkpt lat="46.61622" lon="5.51917">
        <ele>483.6</ele>
        <time>2022-08-20T13:00:48Z</time>
      </trkpt>
      <trkpt lat="46.61619" lon="5.51919">
        <ele>484</ele>
        <time>2022-08-20T13:00:50Z</time>
      </trkpt>
      <trkpt lat="46.61616" lon="5.51921">
        <ele>484.2</ele>
        <time>2022-08-20T13:00:52Z</time>
      </trkpt>
      <trkpt lat="46.61614" lon="5.51923">
        <ele>484.4</ele>
        <time>2022-08-20T13:00:53Z</time>
      </trkpt>
      <trkpt lat="46.61612" lon="5.51924">
        <ele>484.6</ele>
        <time>2022-08-20T13:00:54Z</time>
      </trkpt>
      <trkpt lat="46.61609" lon="5.51926">
        <ele>484.8</ele>
        <time>2022-08-20T13:00:56Z</time>
      </trkpt>
      <trkpt lat="46.61607" lon="5.51928">
        <ele>485.2</ele>
        <time>2022-08-20T13:00:58Z</time>
      </trkpt>
      <trkpt lat="46.61604" lon="5.51929">
        <ele>485.6</ele>
        <time>2022-08-20T13:01:00Z</time>
      </trkpt>
      <trkpt lat="46.61601" lon="5.51931">
        <ele>486</ele>
        <time>2022-08-20T13:01:02Z</time>
      </trkpt>
      <trkpt lat="46.61597" lon="5.51932">
        <ele>486.4</ele>
        <time>2022-08-20T13:01:04Z</time>
      </trkpt>
      <trkpt lat="46.61596" lon="5.51932">
        <ele>486.6</ele>
        <time>2022-08-20T13:01:05Z</time>
      </trkpt>
      <trkpt lat="46.61593" lon="5.51932">
        <ele>487</ele>
        <time>2022-08-20T13:01:07Z</time>
      </trkpt>
      <trkpt lat="46.6159" lon="5.51933">
        <ele>487.4</ele>
        <time>2022-08-20T13:01:09Z</time>
      </trkpt>
      <trkpt lat="46.61587" lon="5.51934">
        <ele>487.8</ele>
        <time>2022-08-20T13:01:11Z</time>
      </trkpt>
      <trkpt lat="46.61585" lon="5.51934">
        <ele>488</ele>
        <time>2022-08-20T13:01:12Z</time>
      </trkpt>
      <trkpt lat="46.61583" lon="5.51934">
        <ele>488.2</ele>
        <time>2022-08-20T13:01:13Z</time>
      </trkpt>
      <trkpt lat="46.61579" lon="5.51936">
        <ele>488.4</ele>
        <time>2022-08-20T13:01:15Z</time>
      </trkpt>
      <trkpt lat="46.61573" lon="5.51938">
        <ele>488.8</ele>
        <time>2022-08-20T13:01:17Z</time>
      </trkpt>
      <trkpt lat="46.61572" lon="5.51938">
        <ele>489</ele>
        <time>2022-08-20T13:01:18Z</time>
      </trkpt>
      <trkpt lat="46.6157" lon="5.51939">
        <ele>489</ele>
        <time>2022-08-20T13:01:19Z</time>
      </trkpt>
      <trkpt lat="46.61568" lon="5.5194">
        <ele>489</ele>
        <time>2022-08-20T13:01:20Z</time>
      </trkpt>
      <trkpt lat="46.61566" lon="5.51941">
        <ele>489.2</ele>
        <time>2022-08-20T13:01:21Z</time>
      </trkpt>
      <trkpt lat="46.61564" lon="5.51942">
        <ele>489.2</ele>
        <time>2022-08-20T13:01:23Z</time>
      </trkpt>
      <trkpt lat="46.61561" lon="5.51941">
        <ele>489.2</ele>
        <time>2022-08-20T13:01:24Z</time>
      </trkpt>
      <trkpt lat="46.61559" lon="5.51941">
        <ele>489.2</ele>
        <time>2022-08-20T13:01:25Z</time>
      </trkpt>
      <trkpt lat="46.61556" lon="5.5194">
        <ele>489.2</ele>
        <time>2022-08-20T13:01:27Z</time>
      </trkpt>
      <trkpt lat="46.61554" lon="5.5194">
        <ele>489.4</ele>
        <time>2022-08-20T13:01:29Z</time>
      </trkpt>
      <trkpt lat="46.61552" lon="5.5194">
        <ele>489.6</ele>
        <time>2022-08-20T13:01:31Z</time>
      </trkpt>
      <trkpt lat="46.61549" lon="5.5194">
        <ele>489.6</ele>
        <time>2022-08-20T13:01:33Z</time>
      </trkpt>
      <trkpt lat="46.61546" lon="5.5194">
        <ele>489.8</ele>
        <time>2022-08-20T13:01:36Z</time>
      </trkpt>
      <trkpt lat="46.61544" lon="5.5194">
        <ele>489.8</ele>
        <time>2022-08-20T13:01:38Z</time>
      </trkpt>
      <trkpt lat="46.61542" lon="5.5194">
        <ele>489.8</ele>
        <time>2022-08-20T13:01:39Z</time>
      </trkpt>
      <trkpt lat="46.6154" lon="5.51941">
        <ele>489.8</ele>
        <time>2022-08-20T13:01:40Z</time>
      </trkpt>
      <trkpt lat="46.61538" lon="5.51941">
        <ele>489.8</ele>
        <time>2022-08-20T13:01:41Z</time>
      </trkpt>
      <trkpt lat="46.61535" lon="5.51942">
        <ele>489.8</ele>
        <time>2022-08-20T13:01:43Z</time>
      </trkpt>
      <trkpt lat="46.61531" lon="5.51944">
        <ele>490</ele>
        <time>2022-08-20T13:01:45Z</time>
      </trkpt>
      <trkpt lat="46.61529" lon="5.51944">
        <ele>490</ele>
        <time>2022-08-20T13:01:46Z</time>
      </trkpt>
      <trkpt lat="46.61526" lon="5.51944">
        <ele>490.2</ele>
        <time>2022-08-20T13:01:48Z</time>
      </trkpt>
      <trkpt lat="46.61524" lon="5.51945">
        <ele>490.2</ele>
        <time>2022-08-20T13:01:50Z</time>
      </trkpt>
      <trkpt lat="46.61522" lon="5.51946">
        <ele>490.2</ele>
        <time>2022-08-20T13:01:51Z</time>
      </trkpt>
      <trkpt lat="46.61518" lon="5.51946">
        <ele>490.4</ele>
        <time>2022-08-20T13:01:53Z</time>
      </trkpt>
      <trkpt lat="46.61516" lon="5.51945">
        <ele>490.4</ele>
        <time>2022-08-20T13:01:54Z</time>
      </trkpt>
      <trkpt lat="46.61514" lon="5.51945">
        <ele>490.6</ele>
        <time>2022-08-20T13:01:55Z</time>
      </trkpt>
      <trkpt lat="46.61512" lon="5.51945">
        <ele>490.6</ele>
        <time>2022-08-20T13:01:56Z</time>
      </trkpt>
      <trkpt lat="46.6151" lon="5.51946">
        <ele>490.8</ele>
        <time>2022-08-20T13:01:57Z</time>
      </trkpt>
      <trkpt lat="46.61508" lon="5.51947">
        <ele>490.8</ele>
        <time>2022-08-20T13:01:59Z</time>
      </trkpt>
      <trkpt lat="46.61506" lon="5.51947">
        <ele>490.8</ele>
        <time>2022-08-20T13:02:00Z</time>
      </trkpt>
      <trkpt lat="46.61504" lon="5.51948">
        <ele>491</ele>
        <time>2022-08-20T13:02:01Z</time>
      </trkpt>
      <trkpt lat="46.61501" lon="5.51949">
        <ele>491</ele>
        <time>2022-08-20T13:02:03Z</time>
      </trkpt>
      <trkpt lat="46.61498" lon="5.51949">
        <ele>491.4</ele>
        <time>2022-08-20T13:02:05Z</time>
      </trkpt>
      <trkpt lat="46.61495" lon="5.51949">
        <ele>491.6</ele>
        <time>2022-08-20T13:02:07Z</time>
      </trkpt>
      <trkpt lat="46.61492" lon="5.51948">
        <ele>491.8</ele>
        <time>2022-08-20T13:02:09Z</time>
      </trkpt>
      <trkpt lat="46.61487" lon="5.51947">
        <ele>492</ele>
        <time>2022-08-20T13:02:11Z</time>
      </trkpt>
      <trkpt lat="46.61485" lon="5.51947">
        <ele>492</ele>
        <time>2022-08-20T13:02:12Z</time>
      </trkpt>
      <trkpt lat="46.61483" lon="5.51947">
        <ele>492</ele>
        <time>2022-08-20T13:02:13Z</time>
      </trkpt>
      <trkpt lat="46.6148" lon="5.51946">
        <ele>492.2</ele>
        <time>2022-08-20T13:02:14Z</time>
      </trkpt>
      <trkpt lat="46.61478" lon="5.51945">
        <ele>492.2</ele>
        <time>2022-08-20T13:02:15Z</time>
      </trkpt>
      <trkpt lat="46.61477" lon="5.51944">
        <ele>492.2</ele>
        <time>2022-08-20T13:02:16Z</time>
      </trkpt>
      <trkpt lat="46.61474" lon="5.51943">
        <ele>492.4</ele>
        <time>2022-08-20T13:02:18Z</time>
      </trkpt>
      <trkpt lat="46.61472" lon="5.51943">
        <ele>492.4</ele>
        <time>2022-08-20T13:02:20Z</time>
      </trkpt>
      <trkpt lat="46.6147" lon="5.51943">
        <ele>492.4</ele>
        <time>2022-08-20T13:02:21Z</time>
      </trkpt>
      <trkpt lat="46.61467" lon="5.51941">
        <ele>492.6</ele>
        <time>2022-08-20T13:02:23Z</time>
      </trkpt>
      <trkpt lat="46.61464" lon="5.5194">
        <ele>492.6</ele>
        <time>2022-08-20T13:02:25Z</time>
      </trkpt>
      <trkpt lat="46.61461" lon="5.51939">
        <ele>492.8</ele>
        <time>2022-08-20T13:02:27Z</time>
      </trkpt>
      <trkpt lat="46.61459" lon="5.51937">
        <ele>493</ele>
        <time>2022-08-20T13:02:29Z</time>
      </trkpt>
      <trkpt lat="46.61456" lon="5.51934">
        <ele>493</ele>
        <time>2022-08-20T13:02:31Z</time>
      </trkpt>
      <trkpt lat="46.61454" lon="5.51932">
        <ele>493</ele>
        <time>2022-08-20T13:02:33Z</time>
      </trkpt>
      <trkpt lat="46.61451" lon="5.51931">
        <ele>493</ele>
        <time>2022-08-20T13:02:34Z</time>
      </trkpt>
      <trkpt lat="46.61448" lon="5.51931">
        <ele>493</ele>
        <time>2022-08-20T13:02:36Z</time>
      </trkpt>
      <trkpt lat="46.61445" lon="5.51931">
        <ele>493</ele>
        <time>2022-08-20T13:02:37Z</time>
      </trkpt>
      <trkpt lat="46.61442" lon="5.5193">
        <ele>493.2</ele>
        <time>2022-08-20T13:02:38Z</time>
      </trkpt>
      <trkpt lat="46.6144" lon="5.51929">
        <ele>493.2</ele>
        <time>2022-08-20T13:02:39Z</time>
      </trkpt>
      <trkpt lat="46.61438" lon="5.51928">
        <ele>493.2</ele>
        <time>2022-08-20T13:02:40Z</time>
      </trkpt>
      <trkpt lat="46.61437" lon="5.51927">
        <ele>493.2</ele>
        <time>2022-08-20T13:02:41Z</time>
      </trkpt>
      <trkpt lat="46.61434" lon="5.51925">
        <ele>493.2</ele>
        <time>2022-08-20T13:02:43Z</time>
      </trkpt>
      <trkpt lat="46.61431" lon="5.51922">
        <ele>493.4</ele>
        <time>2022-08-20T13:02:45Z</time>
      </trkpt>
      <trkpt lat="46.61429" lon="5.51921">
        <ele>493.2</ele>
        <time>2022-08-20T13:02:47Z</time>
      </trkpt>
      <trkpt lat="46.61427" lon="5.51919">
        <ele>493.2</ele>
        <time>2022-08-20T13:02:48Z</time>
      </trkpt>
      <trkpt lat="46.61425" lon="5.51917">
        <ele>493.2</ele>
        <time>2022-08-20T13:02:49Z</time>
      </trkpt>
      <trkpt lat="46.61423" lon="5.51916">
        <ele>493.4</ele>
        <time>2022-08-20T13:02:50Z</time>
      </trkpt>
      <trkpt lat="46.61421" lon="5.51914">
        <ele>493.4</ele>
        <time>2022-08-20T13:02:52Z</time>
      </trkpt>
      <trkpt lat="46.61419" lon="5.51913">
        <ele>493.4</ele>
        <time>2022-08-20T13:02:53Z</time>
      </trkpt>
      <trkpt lat="46.61417" lon="5.51912">
        <ele>493.4</ele>
        <time>2022-08-20T13:02:54Z</time>
      </trkpt>
      <trkpt lat="46.61414" lon="5.5191">
        <ele>493.2</ele>
        <time>2022-08-20T13:02:56Z</time>
      </trkpt>
      <trkpt lat="46.61411" lon="5.51908">
        <ele>493.2</ele>
        <time>2022-08-20T13:02:58Z</time>
      </trkpt>
      <trkpt lat="46.61408" lon="5.51906">
        <ele>493.4</ele>
        <time>2022-08-20T13:03:00Z</time>
      </trkpt>
      <trkpt lat="46.61406" lon="5.51904">
        <ele>493.6</ele>
        <time>2022-08-20T13:03:02Z</time>
      </trkpt>
      <trkpt lat="46.61403" lon="5.51903">
        <ele>493.8</ele>
        <time>2022-08-20T13:03:04Z</time>
      </trkpt>
      <trkpt lat="46.614" lon="5.51902">
        <ele>494</ele>
        <time>2022-08-20T13:03:06Z</time>
      </trkpt>
      <trkpt lat="46.61397" lon="5.51902">
        <ele>494.2</ele>
        <time>2022-08-20T13:03:08Z</time>
      </trkpt>
      <trkpt lat="46.61396" lon="5.51901">
        <ele>494.4</ele>
        <time>2022-08-20T13:03:10Z</time>
      </trkpt>
      <trkpt lat="46.61393" lon="5.51901">
        <ele>494.4</ele>
        <time>2022-08-20T13:03:12Z</time>
      </trkpt>
      <trkpt lat="46.6139" lon="5.51901">
        <ele>494.6</ele>
        <time>2022-08-20T13:03:14Z</time>
      </trkpt>
      <trkpt lat="46.61388" lon="5.51901">
        <ele>494.6</ele>
        <time>2022-08-20T13:03:15Z</time>
      </trkpt>
      <trkpt lat="46.61386" lon="5.519">
        <ele>494.8</ele>
        <time>2022-08-20T13:03:16Z</time>
      </trkpt>
      <trkpt lat="46.61384" lon="5.519">
        <ele>494.8</ele>
        <time>2022-08-20T13:03:17Z</time>
      </trkpt>
      <trkpt lat="46.61381" lon="5.519">
        <ele>494.8</ele>
        <time>2022-08-20T13:03:18Z</time>
      </trkpt>
      <trkpt lat="46.61379" lon="5.51901">
        <ele>495</ele>
        <time>2022-08-20T13:03:20Z</time>
      </trkpt>
      <trkpt lat="46.61377" lon="5.51901">
        <ele>495</ele>
        <time>2022-08-20T13:03:21Z</time>
      </trkpt>
      <trkpt lat="46.61374" lon="5.51901">
        <ele>495.2</ele>
        <time>2022-08-20T13:03:23Z</time>
      </trkpt>
      <trkpt lat="46.61372" lon="5.51902">
        <ele>495.2</ele>
        <time>2022-08-20T13:03:24Z</time>
      </trkpt>
      <trkpt lat="46.61369" lon="5.51902">
        <ele>495.6</ele>
        <time>2022-08-20T13:03:26Z</time>
      </trkpt>
      <trkpt lat="46.61367" lon="5.519">
        <ele>495.8</ele>
        <time>2022-08-20T13:03:27Z</time>
      </trkpt>
      <trkpt lat="46.61364" lon="5.51901">
        <ele>496</ele>
        <time>2022-08-20T13:03:29Z</time>
      </trkpt>
      <trkpt lat="46.61361" lon="5.51901">
        <ele>496.2</ele>
        <time>2022-08-20T13:03:31Z</time>
      </trkpt>
      <trkpt lat="46.61359" lon="5.51902">
        <ele>496.6</ele>
        <time>2022-08-20T13:03:33Z</time>
      </trkpt>
      <trkpt lat="46.61357" lon="5.51901">
        <ele>496.8</ele>
        <time>2022-08-20T13:03:35Z</time>
      </trkpt>
      <trkpt lat="46.61353" lon="5.519">
        <ele>497.2</ele>
        <time>2022-08-20T13:03:37Z</time>
      </trkpt>
      <trkpt lat="46.61351" lon="5.519">
        <ele>497.2</ele>
        <time>2022-08-20T13:03:38Z</time>
      </trkpt>
      <trkpt lat="46.61348" lon="5.51901">
        <ele>497.4</ele>
        <time>2022-08-20T13:03:40Z</time>
      </trkpt>
      <trkpt lat="46.61345" lon="5.51902">
        <ele>497.8</ele>
        <time>2022-08-20T13:03:42Z</time>
      </trkpt>
      <trkpt lat="46.61341" lon="5.51903">
        <ele>498</ele>
        <time>2022-08-20T13:03:44Z</time>
      </trkpt>
      <trkpt lat="46.6134" lon="5.51903">
        <ele>498.2</ele>
        <time>2022-08-20T13:03:45Z</time>
      </trkpt>
      <trkpt lat="46.61336" lon="5.51904">
        <ele>498.6</ele>
        <time>2022-08-20T13:03:47Z</time>
      </trkpt>
      <trkpt lat="46.61334" lon="5.51904">
        <ele>498.8</ele>
        <time>2022-08-20T13:03:48Z</time>
      </trkpt>
      <trkpt lat="46.61332" lon="5.51905">
        <ele>499</ele>
        <time>2022-08-20T13:03:49Z</time>
      </trkpt>
      <trkpt lat="46.61328" lon="5.51905">
        <ele>499.4</ele>
        <time>2022-08-20T13:03:51Z</time>
      </trkpt>
      <trkpt lat="46.61326" lon="5.51905">
        <ele>499.6</ele>
        <time>2022-08-20T13:03:52Z</time>
      </trkpt>
      <trkpt lat="46.61324" lon="5.51905">
        <ele>499.8</ele>
        <time>2022-08-20T13:03:53Z</time>
      </trkpt>
      <trkpt lat="46.61323" lon="5.51905">
        <ele>499.8</ele>
        <time>2022-08-20T13:03:54Z</time>
      </trkpt>
      <trkpt lat="46.61322" lon="5.51905">
        <ele>499.8</ele>
        <time>2022-08-20T13:03:55Z</time>
      </trkpt>
      <trkpt lat="46.61321" lon="5.51905">
        <ele>500.2</ele>
        <time>2022-08-20T13:03:56Z</time>
      </trkpt>
      <trkpt lat="46.61317" lon="5.51905">
        <ele>500.4</ele>
        <time>2022-08-20T13:03:57Z</time>
      </trkpt>
      <trkpt lat="46.61315" lon="5.51905">
        <ele>500.4</ele>
        <time>2022-08-20T13:03:58Z</time>
      </trkpt>
      <trkpt lat="46.61312" lon="5.51905">
        <ele>500.8</ele>
        <time>2022-08-20T13:04:00Z</time>
      </trkpt>
      <trkpt lat="46.6131" lon="5.51904">
        <ele>500.8</ele>
        <time>2022-08-20T13:04:01Z</time>
      </trkpt>
      <trkpt lat="46.61308" lon="5.51905">
        <ele>501</ele>
        <time>2022-08-20T13:04:02Z</time>
      </trkpt>
      <trkpt lat="46.61306" lon="5.51905">
        <ele>501</ele>
        <time>2022-08-20T13:04:03Z</time>
      </trkpt>
      <trkpt lat="46.61304" lon="5.51905">
        <ele>501.4</ele>
        <time>2022-08-20T13:04:04Z</time>
      </trkpt>
      <trkpt lat="46.61302" lon="5.51905">
        <ele>501.6</ele>
        <time>2022-08-20T13:04:05Z</time>
      </trkpt>
      <trkpt lat="46.61299" lon="5.51904">
        <ele>501.8</ele>
        <time>2022-08-20T13:04:07Z</time>
      </trkpt>
      <trkpt lat="46.61294" lon="5.51904">
        <ele>502.2</ele>
        <time>2022-08-20T13:04:09Z</time>
      </trkpt>
      <trkpt lat="46.61293" lon="5.51904">
        <ele>502.4</ele>
        <time>2022-08-20T13:04:10Z</time>
      </trkpt>
      <trkpt lat="46.6129" lon="5.51903">
        <ele>502.6</ele>
        <time>2022-08-20T13:04:12Z</time>
      </trkpt>
      <trkpt lat="46.61288" lon="5.51903">
        <ele>502.8</ele>
        <time>2022-08-20T13:04:13Z</time>
      </trkpt>
      <trkpt lat="46.61286" lon="5.51902">
        <ele>502.8</ele>
        <time>2022-08-20T13:04:14Z</time>
      </trkpt>
      <trkpt lat="46.61284" lon="5.51902">
        <ele>503</ele>
        <time>2022-08-20T13:04:15Z</time>
      </trkpt>
      <trkpt lat="46.61281" lon="5.51903">
        <ele>503.2</ele>
        <time>2022-08-20T13:04:17Z</time>
      </trkpt>
      <trkpt lat="46.61278" lon="5.51903">
        <ele>503.4</ele>
        <time>2022-08-20T13:04:19Z</time>
      </trkpt>
      <trkpt lat="46.61276" lon="5.51903">
        <ele>503.6</ele>
        <time>2022-08-20T13:04:21Z</time>
      </trkpt>
      <trkpt lat="46.61272" lon="5.51902">
        <ele>503.8</ele>
        <time>2022-08-20T13:04:23Z</time>
      </trkpt>
      <trkpt lat="46.61269" lon="5.51902">
        <ele>504</ele>
        <time>2022-08-20T13:04:25Z</time>
      </trkpt>
      <trkpt lat="46.61266" lon="5.51902">
        <ele>504.2</ele>
        <time>2022-08-20T13:04:27Z</time>
      </trkpt>
      <trkpt lat="46.61263" lon="5.51902">
        <ele>504.2</ele>
        <time>2022-08-20T13:04:29Z</time>
      </trkpt>
      <trkpt lat="46.61261" lon="5.51901">
        <ele>504.4</ele>
        <time>2022-08-20T13:04:30Z</time>
      </trkpt>
      <trkpt lat="46.61258" lon="5.51901">
        <ele>504.4</ele>
        <time>2022-08-20T13:04:32Z</time>
      </trkpt>
      <trkpt lat="46.61256" lon="5.519">
        <ele>504.4</ele>
        <time>2022-08-20T13:04:33Z</time>
      </trkpt>
      <trkpt lat="46.61253" lon="5.519">
        <ele>504.6</ele>
        <time>2022-08-20T13:04:35Z</time>
      </trkpt>
      <trkpt lat="46.61251" lon="5.519">
        <ele>504.8</ele>
        <time>2022-08-20T13:04:36Z</time>
      </trkpt>
      <trkpt lat="46.61249" lon="5.519">
        <ele>504.8</ele>
        <time>2022-08-20T13:04:37Z</time>
      </trkpt>
      <trkpt lat="46.61246" lon="5.51901">
        <ele>505</ele>
        <time>2022-08-20T13:04:39Z</time>
      </trkpt>
      <trkpt lat="46.61244" lon="5.51901">
        <ele>505.2</ele>
        <time>2022-08-20T13:04:40Z</time>
      </trkpt>
      <trkpt lat="46.61241" lon="5.51901">
        <ele>505.4</ele>
        <time>2022-08-20T13:04:42Z</time>
      </trkpt>
      <trkpt lat="46.61239" lon="5.51901">
        <ele>505.4</ele>
        <time>2022-08-20T13:04:43Z</time>
      </trkpt>
      <trkpt lat="46.61236" lon="5.51902">
        <ele>505.6</ele>
        <time>2022-08-20T13:04:45Z</time>
      </trkpt>
      <trkpt lat="46.61232" lon="5.51902">
        <ele>505.8</ele>
        <time>2022-08-20T13:04:47Z</time>
      </trkpt>
      <trkpt lat="46.61229" lon="5.51902">
        <ele>506</ele>
        <time>2022-08-20T13:04:49Z</time>
      </trkpt>
      <trkpt lat="46.61226" lon="5.51902">
        <ele>506.2</ele>
        <time>2022-08-20T13:04:51Z</time>
      </trkpt>
      <trkpt lat="46.61223" lon="5.51902">
        <ele>506.4</ele>
        <time>2022-08-20T13:04:53Z</time>
      </trkpt>
      <trkpt lat="46.61219" lon="5.51902">
        <ele>506.6</ele>
        <time>2022-08-20T13:04:55Z</time>
      </trkpt>
      <trkpt lat="46.61216" lon="5.51903">
        <ele>506.6</ele>
        <time>2022-08-20T13:04:56Z</time>
      </trkpt>
      <trkpt lat="46.61214" lon="5.51903">
        <ele>506.6</ele>
        <time>2022-08-20T13:04:57Z</time>
      </trkpt>
      <trkpt lat="46.61211" lon="5.51904">
        <ele>506.6</ele>
        <time>2022-08-20T13:04:58Z</time>
      </trkpt>
      <trkpt lat="46.61208" lon="5.51905">
        <ele>506.6</ele>
        <time>2022-08-20T13:04:59Z</time>
      </trkpt>
      <trkpt lat="46.61205" lon="5.51905">
        <ele>506.6</ele>
        <time>2022-08-20T13:05:00Z</time>
      </trkpt>
      <trkpt lat="46.61202" lon="5.51906">
        <ele>506.6</ele>
        <time>2022-08-20T13:05:01Z</time>
      </trkpt>
      <trkpt lat="46.612" lon="5.51906">
        <ele>506.6</ele>
        <time>2022-08-20T13:05:02Z</time>
      </trkpt>
      <trkpt lat="46.61197" lon="5.51906">
        <ele>506.8</ele>
        <time>2022-08-20T13:05:03Z</time>
      </trkpt>
      <trkpt lat="46.61194" lon="5.51906">
        <ele>506.8</ele>
        <time>2022-08-20T13:05:04Z</time>
      </trkpt>
      <trkpt lat="46.61191" lon="5.51906">
        <ele>506.8</ele>
        <time>2022-08-20T13:05:05Z</time>
      </trkpt>
      <trkpt lat="46.61188" lon="5.51906">
        <ele>506.8</ele>
        <time>2022-08-20T13:05:06Z</time>
      </trkpt>
      <trkpt lat="46.61186" lon="5.51907">
        <ele>506.8</ele>
        <time>2022-08-20T13:05:07Z</time>
      </trkpt>
      <trkpt lat="46.61183" lon="5.51907">
        <ele>506.8</ele>
        <time>2022-08-20T13:05:08Z</time>
      </trkpt>
      <trkpt lat="46.61181" lon="5.51907">
        <ele>506.8</ele>
        <time>2022-08-20T13:05:09Z</time>
      </trkpt>
      <trkpt lat="46.61179" lon="5.51906">
        <ele>507</ele>
        <time>2022-08-20T13:05:10Z</time>
      </trkpt>
      <trkpt lat="46.61173" lon="5.51906">
        <ele>507</ele>
        <time>2022-08-20T13:05:12Z</time>
      </trkpt>
      <trkpt lat="46.61172" lon="5.51906">
        <ele>507.2</ele>
        <time>2022-08-20T13:05:13Z</time>
      </trkpt>
      <trkpt lat="46.61169" lon="5.51907">
        <ele>507.2</ele>
        <time>2022-08-20T13:05:14Z</time>
      </trkpt>
      <trkpt lat="46.61167" lon="5.51906">
        <ele>507.2</ele>
        <time>2022-08-20T13:05:15Z</time>
      </trkpt>
      <trkpt lat="46.61165" lon="5.51906">
        <ele>507.2</ele>
        <time>2022-08-20T13:05:16Z</time>
      </trkpt>
      <trkpt lat="46.61162" lon="5.51904">
        <ele>507.4</ele>
        <time>2022-08-20T13:05:17Z</time>
      </trkpt>
      <trkpt lat="46.61159" lon="5.51904">
        <ele>507.4</ele>
        <time>2022-08-20T13:05:19Z</time>
      </trkpt>
      <trkpt lat="46.61156" lon="5.51904">
        <ele>507.6</ele>
        <time>2022-08-20T13:05:21Z</time>
      </trkpt>
      <trkpt lat="46.61154" lon="5.51904">
        <ele>507.8</ele>
        <time>2022-08-20T13:05:22Z</time>
      </trkpt>
      <trkpt lat="46.61151" lon="5.51903">
        <ele>508</ele>
        <time>2022-08-20T13:05:24Z</time>
      </trkpt>
      <trkpt lat="46.61148" lon="5.51904">
        <ele>508</ele>
        <time>2022-08-20T13:05:26Z</time>
      </trkpt>
      <trkpt lat="46.61145" lon="5.51904">
        <ele>508</ele>
        <time>2022-08-20T13:05:28Z</time>
      </trkpt>
      <trkpt lat="46.61143" lon="5.51905">
        <ele>508.2</ele>
        <time>2022-08-20T13:05:29Z</time>
      </trkpt>
      <trkpt lat="46.6114" lon="5.51906">
        <ele>508.2</ele>
        <time>2022-08-20T13:05:31Z</time>
      </trkpt>
      <trkpt lat="46.61136" lon="5.51907">
        <ele>508.4</ele>
        <time>2022-08-20T13:05:33Z</time>
      </trkpt>
      <trkpt lat="46.61133" lon="5.51907">
        <ele>508.6</ele>
        <time>2022-08-20T13:05:35Z</time>
      </trkpt>
      <trkpt lat="46.6113" lon="5.51907">
        <ele>508.8</ele>
        <time>2022-08-20T13:05:37Z</time>
      </trkpt>
      <trkpt lat="46.61128" lon="5.51907">
        <ele>509</ele>
        <time>2022-08-20T13:05:38Z</time>
      </trkpt>
      <trkpt lat="46.61125" lon="5.51907">
        <ele>509.2</ele>
        <time>2022-08-20T13:05:40Z</time>
      </trkpt>
      <trkpt lat="46.61123" lon="5.51906">
        <ele>509.2</ele>
        <time>2022-08-20T13:05:41Z</time>
      </trkpt>
      <trkpt lat="46.6112" lon="5.51905">
        <ele>509.4</ele>
        <time>2022-08-20T13:05:43Z</time>
      </trkpt>
      <trkpt lat="46.61117" lon="5.51904">
        <ele>509.6</ele>
        <time>2022-08-20T13:05:45Z</time>
      </trkpt>
      <trkpt lat="46.61115" lon="5.51902">
        <ele>509.8</ele>
        <time>2022-08-20T13:05:47Z</time>
      </trkpt>
      <trkpt lat="46.61111" lon="5.519">
        <ele>510</ele>
        <time>2022-08-20T13:05:49Z</time>
      </trkpt>
      <trkpt lat="46.61108" lon="5.51899">
        <ele>510</ele>
        <time>2022-08-20T13:05:51Z</time>
      </trkpt>
      <trkpt lat="46.61105" lon="5.51898">
        <ele>510.2</ele>
        <time>2022-08-20T13:05:53Z</time>
      </trkpt>
      <trkpt lat="46.61103" lon="5.51898">
        <ele>510.2</ele>
        <time>2022-08-20T13:05:55Z</time>
      </trkpt>
      <trkpt lat="46.61101" lon="5.51897">
        <ele>510.2</ele>
        <time>2022-08-20T13:05:56Z</time>
      </trkpt>
      <trkpt lat="46.61099" lon="5.51897">
        <ele>510.2</ele>
        <time>2022-08-20T13:05:58Z</time>
      </trkpt>
      <trkpt lat="46.61095" lon="5.51898">
        <ele>510.4</ele>
        <time>2022-08-20T13:06:00Z</time>
      </trkpt>
      <trkpt lat="46.61092" lon="5.51897">
        <ele>510.6</ele>
        <time>2022-08-20T13:06:02Z</time>
      </trkpt>
      <trkpt lat="46.61089" lon="5.51897">
        <ele>510.6</ele>
        <time>2022-08-20T13:06:04Z</time>
      </trkpt>
      <trkpt lat="46.61087" lon="5.51896">
        <ele>510.8</ele>
        <time>2022-08-20T13:06:06Z</time>
      </trkpt>
      <trkpt lat="46.61084" lon="5.51895">
        <ele>511</ele>
        <time>2022-08-20T13:06:08Z</time>
      </trkpt>
      <trkpt lat="46.61081" lon="5.51894">
        <ele>511.2</ele>
        <time>2022-08-20T13:06:10Z</time>
      </trkpt>
      <trkpt lat="46.61078" lon="5.51895">
        <ele>511.4</ele>
        <time>2022-08-20T13:06:12Z</time>
      </trkpt>
      <trkpt lat="46.61076" lon="5.51894">
        <ele>511.8</ele>
        <time>2022-08-20T13:06:14Z</time>
      </trkpt>
      <trkpt lat="46.61073" lon="5.51894">
        <ele>512</ele>
        <time>2022-08-20T13:06:16Z</time>
      </trkpt>
      <trkpt lat="46.6107" lon="5.51894">
        <ele>512.4</ele>
        <time>2022-08-20T13:06:18Z</time>
      </trkpt>
      <trkpt lat="46.61067" lon="5.51894">
        <ele>512.6</ele>
        <time>2022-08-20T13:06:20Z</time>
      </trkpt>
      <trkpt lat="46.61063" lon="5.51894">
        <ele>512.6</ele>
        <time>2022-08-20T13:06:22Z</time>
      </trkpt>
      <trkpt lat="46.61061" lon="5.51893">
        <ele>512.8</ele>
        <time>2022-08-20T13:06:24Z</time>
      </trkpt>
      <trkpt lat="46.61058" lon="5.51893">
        <ele>513</ele>
        <time>2022-08-20T13:06:26Z</time>
      </trkpt>
      <trkpt lat="46.61056" lon="5.51892">
        <ele>513</ele>
        <time>2022-08-20T13:06:27Z</time>
      </trkpt>
      <trkpt lat="46.61053" lon="5.51892">
        <ele>513.2</ele>
        <time>2022-08-20T13:06:29Z</time>
      </trkpt>
      <trkpt lat="46.61051" lon="5.51893">
        <ele>513.4</ele>
        <time>2022-08-20T13:06:31Z</time>
      </trkpt>
      <trkpt lat="46.61048" lon="5.51893">
        <ele>513.8</ele>
        <time>2022-08-20T13:06:33Z</time>
      </trkpt>
      <trkpt lat="46.61046" lon="5.51893">
        <ele>514</ele>
        <time>2022-08-20T13:06:34Z</time>
      </trkpt>
      <trkpt lat="46.61043" lon="5.51891">
        <ele>514.2</ele>
        <time>2022-08-20T13:06:36Z</time>
      </trkpt>
      <trkpt lat="46.61041" lon="5.51889">
        <ele>514.2</ele>
        <time>2022-08-20T13:06:38Z</time>
      </trkpt>
      <trkpt lat="46.61037" lon="5.51887">
        <ele>514.4</ele>
        <time>2022-08-20T13:06:40Z</time>
      </trkpt>
      <trkpt lat="46.61036" lon="5.51885">
        <ele>514.6</ele>
        <time>2022-08-20T13:06:41Z</time>
      </trkpt>
      <trkpt lat="46.61033" lon="5.51883">
        <ele>514.8</ele>
        <time>2022-08-20T13:06:43Z</time>
      </trkpt>
      <trkpt lat="46.6103" lon="5.51883">
        <ele>515</ele>
        <time>2022-08-20T13:06:45Z</time>
      </trkpt>
      <trkpt lat="46.61028" lon="5.51881">
        <ele>515.4</ele>
        <time>2022-08-20T13:06:47Z</time>
      </trkpt>
      <trkpt lat="46.61024" lon="5.51881">
        <ele>515.6</ele>
        <time>2022-08-20T13:06:49Z</time>
      </trkpt>
      <trkpt lat="46.61022" lon="5.51881">
        <ele>516</ele>
        <time>2022-08-20T13:06:51Z</time>
      </trkpt>
      <trkpt lat="46.61018" lon="5.5188">
        <ele>516.4</ele>
        <time>2022-08-20T13:06:53Z</time>
      </trkpt>
      <trkpt lat="46.61016" lon="5.51879">
        <ele>516.8</ele>
        <time>2022-08-20T13:06:55Z</time>
      </trkpt>
      <trkpt lat="46.61013" lon="5.51879">
        <ele>517.2</ele>
        <time>2022-08-20T13:06:57Z</time>
      </trkpt>
      <trkpt lat="46.6101" lon="5.51879">
        <ele>517.4</ele>
        <time>2022-08-20T13:06:58Z</time>
      </trkpt>
      <trkpt lat="46.61007" lon="5.51879">
        <ele>517.4</ele>
        <time>2022-08-20T13:06:59Z</time>
      </trkpt>
      <trkpt lat="46.61005" lon="5.51878">
        <ele>517.6</ele>
        <time>2022-08-20T13:07:00Z</time>
      </trkpt>
      <trkpt lat="46.61001" lon="5.51878">
        <ele>518</ele>
        <time>2022-08-20T13:07:02Z</time>
      </trkpt>
      <trkpt lat="46.60998" lon="5.51878">
        <ele>518.2</ele>
        <time>2022-08-20T13:07:04Z</time>
      </trkpt>
      <trkpt lat="46.60994" lon="5.51878">
        <ele>518.4</ele>
        <time>2022-08-20T13:07:06Z</time>
      </trkpt>
      <trkpt lat="46.60992" lon="5.51877">
        <ele>518.6</ele>
        <time>2022-08-20T13:07:07Z</time>
      </trkpt>
      <trkpt lat="46.6099" lon="5.51878">
        <ele>518.8</ele>
        <time>2022-08-20T13:07:08Z</time>
      </trkpt>
      <trkpt lat="46.60989" lon="5.51878">
        <ele>518.8</ele>
        <time>2022-08-20T13:07:09Z</time>
      </trkpt>
      <trkpt lat="46.60986" lon="5.51878">
        <ele>519</ele>
        <time>2022-08-20T13:07:10Z</time>
      </trkpt>
      <trkpt lat="46.60984" lon="5.51877">
        <ele>519.2</ele>
        <time>2022-08-20T13:07:11Z</time>
      </trkpt>
      <trkpt lat="46.60982" lon="5.51877">
        <ele>519.2</ele>
        <time>2022-08-20T13:07:12Z</time>
      </trkpt>
      <trkpt lat="46.60981" lon="5.51877">
        <ele>519.4</ele>
        <time>2022-08-20T13:07:13Z</time>
      </trkpt>
      <trkpt lat="46.60977" lon="5.51879">
        <ele>519.6</ele>
        <time>2022-08-20T13:07:15Z</time>
      </trkpt>
      <trkpt lat="46.60974" lon="5.5188">
        <ele>519.8</ele>
        <time>2022-08-20T13:07:17Z</time>
      </trkpt>
      <trkpt lat="46.6097" lon="5.51882">
        <ele>520</ele>
        <time>2022-08-20T13:07:19Z</time>
      </trkpt>
      <trkpt lat="46.60967" lon="5.51884">
        <ele>520.4</ele>
        <time>2022-08-20T13:07:21Z</time>
      </trkpt>
      <trkpt lat="46.60965" lon="5.51885">
        <ele>520.6</ele>
        <time>2022-08-20T13:07:22Z</time>
      </trkpt>
      <trkpt lat="46.60962" lon="5.51884">
        <ele>520.8</ele>
        <time>2022-08-20T13:07:24Z</time>
      </trkpt>
      <trkpt lat="46.60959" lon="5.51883">
        <ele>521</ele>
        <time>2022-08-20T13:07:26Z</time>
      </trkpt>
      <trkpt lat="46.60956" lon="5.5188">
        <ele>521.4</ele>
        <time>2022-08-20T13:07:28Z</time>
      </trkpt>
      <trkpt lat="46.60954" lon="5.51879">
        <ele>521.4</ele>
        <time>2022-08-20T13:07:29Z</time>
      </trkpt>
      <trkpt lat="46.60952" lon="5.51875">
        <ele>521.4</ele>
        <time>2022-08-20T13:07:31Z</time>
      </trkpt>
      <trkpt lat="46.6095" lon="5.51873">
        <ele>521.6</ele>
        <time>2022-08-20T13:07:32Z</time>
      </trkpt>
      <trkpt lat="46.60948" lon="5.51871">
        <ele>521.6</ele>
        <time>2022-08-20T13:07:34Z</time>
      </trkpt>
      <trkpt lat="46.60946" lon="5.5187">
        <ele>521.8</ele>
        <time>2022-08-20T13:07:35Z</time>
      </trkpt>
      <trkpt lat="46.60944" lon="5.51869">
        <ele>521.8</ele>
        <time>2022-08-20T13:07:36Z</time>
      </trkpt>
      <trkpt lat="46.60942" lon="5.51868">
        <ele>521.8</ele>
        <time>2022-08-20T13:07:38Z</time>
      </trkpt>
      <trkpt lat="46.6094" lon="5.51868">
        <ele>521.8</ele>
        <time>2022-08-20T13:07:40Z</time>
      </trkpt>
      <trkpt lat="46.60937" lon="5.51869">
        <ele>521.8</ele>
        <time>2022-08-20T13:07:42Z</time>
      </trkpt>
      <trkpt lat="46.60935" lon="5.5187">
        <ele>522.2</ele>
        <time>2022-08-20T13:07:44Z</time>
      </trkpt>
      <trkpt lat="46.60933" lon="5.51871">
        <ele>522.4</ele>
        <time>2022-08-20T13:07:46Z</time>
      </trkpt>
      <trkpt lat="46.60931" lon="5.51872">
        <ele>522.6</ele>
        <time>2022-08-20T13:07:48Z</time>
      </trkpt>
      <trkpt lat="46.60928" lon="5.51872">
        <ele>522.8</ele>
        <time>2022-08-20T13:07:50Z</time>
      </trkpt>
      <trkpt lat="46.60926" lon="5.51872">
        <ele>523</ele>
        <time>2022-08-20T13:07:52Z</time>
      </trkpt>
      <trkpt lat="46.60924" lon="5.51872">
        <ele>523.2</ele>
        <time>2022-08-20T13:07:54Z</time>
      </trkpt>
      <trkpt lat="46.6092" lon="5.51872">
        <ele>523.4</ele>
        <time>2022-08-20T13:07:56Z</time>
      </trkpt>
      <trkpt lat="46.60918" lon="5.51871">
        <ele>523.6</ele>
        <time>2022-08-20T13:07:58Z</time>
      </trkpt>
      <trkpt lat="46.60915" lon="5.51869">
        <ele>523.6</ele>
        <time>2022-08-20T13:08:00Z</time>
      </trkpt>
      <trkpt lat="46.60912" lon="5.51867">
        <ele>524</ele>
        <time>2022-08-20T13:08:02Z</time>
      </trkpt>
      <trkpt lat="46.60909" lon="5.51867">
        <ele>524.2</ele>
        <time>2022-08-20T13:08:04Z</time>
      </trkpt>
      <trkpt lat="46.60906" lon="5.51866">
        <ele>524.6</ele>
        <time>2022-08-20T13:08:07Z</time>
      </trkpt>
      <trkpt lat="46.60904" lon="5.51864">
        <ele>524.8</ele>
        <time>2022-08-20T13:08:09Z</time>
      </trkpt>
      <trkpt lat="46.60902" lon="5.51863">
        <ele>525</ele>
        <time>2022-08-20T13:08:11Z</time>
      </trkpt>
      <trkpt lat="46.60899" lon="5.51862">
        <ele>525.2</ele>
        <time>2022-08-20T13:08:13Z</time>
      </trkpt>
      <trkpt lat="46.60896" lon="5.51861">
        <ele>525.4</ele>
        <time>2022-08-20T13:08:15Z</time>
      </trkpt>
      <trkpt lat="46.60894" lon="5.5186">
        <ele>525.6</ele>
        <time>2022-08-20T13:08:17Z</time>
      </trkpt>
      <trkpt lat="46.60891" lon="5.51857">
        <ele>526</ele>
        <time>2022-08-20T13:08:19Z</time>
      </trkpt>
      <trkpt lat="46.60889" lon="5.51855">
        <ele>526.2</ele>
        <time>2022-08-20T13:08:20Z</time>
      </trkpt>
      <trkpt lat="46.60887" lon="5.51853">
        <ele>526.4</ele>
        <time>2022-08-20T13:08:21Z</time>
      </trkpt>
      <trkpt lat="46.60885" lon="5.51851">
        <ele>526.8</ele>
        <time>2022-08-20T13:08:23Z</time>
      </trkpt>
      <trkpt lat="46.60882" lon="5.51849">
        <ele>527.2</ele>
        <time>2022-08-20T13:08:24Z</time>
      </trkpt>
      <trkpt lat="46.60879" lon="5.51848">
        <ele>527.8</ele>
        <time>2022-08-20T13:08:26Z</time>
      </trkpt>
      <trkpt lat="46.60877" lon="5.51846">
        <ele>528</ele>
        <time>2022-08-20T13:08:27Z</time>
      </trkpt>
      <trkpt lat="46.60874" lon="5.51843">
        <ele>528.6</ele>
        <time>2022-08-20T13:08:29Z</time>
      </trkpt>
      <trkpt lat="46.60871" lon="5.51841">
        <ele>529.2</ele>
        <time>2022-08-20T13:08:31Z</time>
      </trkpt>
      <trkpt lat="46.60869" lon="5.51838">
        <ele>529.6</ele>
        <time>2022-08-20T13:08:33Z</time>
      </trkpt>
      <trkpt lat="46.60866" lon="5.51835">
        <ele>530.2</ele>
        <time>2022-08-20T13:08:35Z</time>
      </trkpt>
      <trkpt lat="46.60863" lon="5.51833">
        <ele>530.4</ele>
        <time>2022-08-20T13:08:37Z</time>
      </trkpt>
      <trkpt lat="46.60861" lon="5.5183">
        <ele>530.8</ele>
        <time>2022-08-20T13:08:39Z</time>
      </trkpt>
      <trkpt lat="46.60858" lon="5.51828">
        <ele>531.2</ele>
        <time>2022-08-20T13:08:41Z</time>
      </trkpt>
      <trkpt lat="46.60854" lon="5.51825">
        <ele>531.4</ele>
        <time>2022-08-20T13:08:43Z</time>
      </trkpt>
      <trkpt lat="46.60852" lon="5.51823">
        <ele>531.8</ele>
        <time>2022-08-20T13:08:45Z</time>
      </trkpt>
      <trkpt lat="46.60849" lon="5.51821">
        <ele>532.2</ele>
        <time>2022-08-20T13:08:47Z</time>
      </trkpt>
      <trkpt lat="46.60847" lon="5.51819">
        <ele>532.6</ele>
        <time>2022-08-20T13:08:49Z</time>
      </trkpt>
      <trkpt lat="46.60845" lon="5.51817">
        <ele>533</ele>
        <time>2022-08-20T13:08:51Z</time>
      </trkpt>
      <trkpt lat="46.60843" lon="5.51815">
        <ele>533.2</ele>
        <time>2022-08-20T13:08:52Z</time>
      </trkpt>
      <trkpt lat="46.6084" lon="5.51812">
        <ele>533.6</ele>
        <time>2022-08-20T13:08:54Z</time>
      </trkpt>
      <trkpt lat="46.60839" lon="5.51811">
        <ele>533.8</ele>
        <time>2022-08-20T13:08:55Z</time>
      </trkpt>
      <trkpt lat="46.60837" lon="5.51808">
        <ele>534</ele>
        <time>2022-08-20T13:08:57Z</time>
      </trkpt>
      <trkpt lat="46.60834" lon="5.51806">
        <ele>534.2</ele>
        <time>2022-08-20T13:08:59Z</time>
      </trkpt>
      <trkpt lat="46.60831" lon="5.51803">
        <ele>534.4</ele>
        <time>2022-08-20T13:09:01Z</time>
      </trkpt>
      <trkpt lat="46.60829" lon="5.51802">
        <ele>534.6</ele>
        <time>2022-08-20T13:09:02Z</time>
      </trkpt>
      <trkpt lat="46.60827" lon="5.518">
        <ele>534.6</ele>
        <time>2022-08-20T13:09:04Z</time>
      </trkpt>
      <trkpt lat="46.60824" lon="5.51798">
        <ele>534.8</ele>
        <time>2022-08-20T13:09:06Z</time>
      </trkpt>
      <trkpt lat="46.60822" lon="5.51795">
        <ele>535</ele>
        <time>2022-08-20T13:09:08Z</time>
      </trkpt>
      <trkpt lat="46.60819" lon="5.51793">
        <ele>535.2</ele>
        <time>2022-08-20T13:09:10Z</time>
      </trkpt>
      <trkpt lat="46.60817" lon="5.51791">
        <ele>535.6</ele>
        <time>2022-08-20T13:09:13Z</time>
      </trkpt>
      <trkpt lat="46.60814" lon="5.51791">
        <ele>535.8</ele>
        <time>2022-08-20T13:09:15Z</time>
      </trkpt>
      <trkpt lat="46.60813" lon="5.51791">
        <ele>536.2</ele>
        <time>2022-08-20T13:09:17Z</time>
      </trkpt>
      <trkpt lat="46.60811" lon="5.51792">
        <ele>536.4</ele>
        <time>2022-08-20T13:09:19Z</time>
      </trkpt>
      <trkpt lat="46.60808" lon="5.51791">
        <ele>536.8</ele>
        <time>2022-08-20T13:09:21Z</time>
      </trkpt>
      <trkpt lat="46.60806" lon="5.51791">
        <ele>537.2</ele>
        <time>2022-08-20T13:09:23Z</time>
      </trkpt>
      <trkpt lat="46.60804" lon="5.51789">
        <ele>537.4</ele>
        <time>2022-08-20T13:09:25Z</time>
      </trkpt>
      <trkpt lat="46.60802" lon="5.5179">
        <ele>537.8</ele>
        <time>2022-08-20T13:09:28Z</time>
      </trkpt>
      <trkpt lat="46.608" lon="5.51789">
        <ele>538</ele>
        <time>2022-08-20T13:09:30Z</time>
      </trkpt>
      <trkpt lat="46.60797" lon="5.51787">
        <ele>538.2</ele>
        <time>2022-08-20T13:09:32Z</time>
      </trkpt>
      <trkpt lat="46.60794" lon="5.51786">
        <ele>538.4</ele>
        <time>2022-08-20T13:09:34Z</time>
      </trkpt>
      <trkpt lat="46.60791" lon="5.51787">
        <ele>538.8</ele>
        <time>2022-08-20T13:09:36Z</time>
      </trkpt>
      <trkpt lat="46.60789" lon="5.51788">
        <ele>539.2</ele>
        <time>2022-08-20T13:09:38Z</time>
      </trkpt>
      <trkpt lat="46.60786" lon="5.51789">
        <ele>539.6</ele>
        <time>2022-08-20T13:09:40Z</time>
      </trkpt>
      <trkpt lat="46.60782" lon="5.51789">
        <ele>539.8</ele>
        <time>2022-08-20T13:09:42Z</time>
      </trkpt>
      <trkpt lat="46.6078" lon="5.51789">
        <ele>540.2</ele>
        <time>2022-08-20T13:09:44Z</time>
      </trkpt>
      <trkpt lat="46.60777" lon="5.51789">
        <ele>540.4</ele>
        <time>2022-08-20T13:09:46Z</time>
      </trkpt>
      <trkpt lat="46.60775" lon="5.51789">
        <ele>540.6</ele>
        <time>2022-08-20T13:09:48Z</time>
      </trkpt>
      <trkpt lat="46.60773" lon="5.5179">
        <ele>541</ele>
        <time>2022-08-20T13:09:50Z</time>
      </trkpt>
      <trkpt lat="46.60771" lon="5.5179">
        <ele>541.4</ele>
        <time>2022-08-20T13:09:52Z</time>
      </trkpt>
      <trkpt lat="46.60769" lon="5.51791">
        <ele>541.6</ele>
        <time>2022-08-20T13:09:54Z</time>
      </trkpt>
      <trkpt lat="46.60766" lon="5.51793">
        <ele>542</ele>
        <time>2022-08-20T13:09:56Z</time>
      </trkpt>
      <trkpt lat="46.60764" lon="5.51793">
        <ele>542.2</ele>
        <time>2022-08-20T13:09:58Z</time>
      </trkpt>
      <trkpt lat="46.60761" lon="5.51791">
        <ele>542.6</ele>
        <time>2022-08-20T13:10:00Z</time>
      </trkpt>
      <trkpt lat="46.60758" lon="5.5179">
        <ele>543</ele>
        <time>2022-08-20T13:10:02Z</time>
      </trkpt>
      <trkpt lat="46.60756" lon="5.51787">
        <ele>543.4</ele>
        <time>2022-08-20T13:10:04Z</time>
      </trkpt>
      <trkpt lat="46.60753" lon="5.51786">
        <ele>543.8</ele>
        <time>2022-08-20T13:10:06Z</time>
      </trkpt>
      <trkpt lat="46.6075" lon="5.51784">
        <ele>544</ele>
        <time>2022-08-20T13:10:08Z</time>
      </trkpt>
      <trkpt lat="46.60748" lon="5.51781">
        <ele>544.4</ele>
        <time>2022-08-20T13:10:10Z</time>
      </trkpt>
      <trkpt lat="46.60746" lon="5.51779">
        <ele>544.6</ele>
        <time>2022-08-20T13:10:12Z</time>
      </trkpt>
      <trkpt lat="46.60744" lon="5.51777">
        <ele>544.8</ele>
        <time>2022-08-20T13:10:13Z</time>
      </trkpt>
      <trkpt lat="46.60741" lon="5.51775">
        <ele>545</ele>
        <time>2022-08-20T13:10:15Z</time>
      </trkpt>
      <trkpt lat="46.60738" lon="5.51772">
        <ele>545.4</ele>
        <time>2022-08-20T13:10:17Z</time>
      </trkpt>
      <trkpt lat="46.60736" lon="5.51771">
        <ele>545.8</ele>
        <time>2022-08-20T13:10:18Z</time>
      </trkpt>
      <trkpt lat="46.60734" lon="5.5177">
        <ele>546</ele>
        <time>2022-08-20T13:10:19Z</time>
      </trkpt>
      <trkpt lat="46.60732" lon="5.5177">
        <ele>546.4</ele>
        <time>2022-08-20T13:10:21Z</time>
      </trkpt>
      <trkpt lat="46.60729" lon="5.51768">
        <ele>546.6</ele>
        <time>2022-08-20T13:10:23Z</time>
      </trkpt>
      <trkpt lat="46.60726" lon="5.51766">
        <ele>546.8</ele>
        <time>2022-08-20T13:10:25Z</time>
      </trkpt>
      <trkpt lat="46.60724" lon="5.51764">
        <ele>547.4</ele>
        <time>2022-08-20T13:10:27Z</time>
      </trkpt>
      <trkpt lat="46.60721" lon="5.51763">
        <ele>547.8</ele>
        <time>2022-08-20T13:10:29Z</time>
      </trkpt>
      <trkpt lat="46.60718" lon="5.51761">
        <ele>548.2</ele>
        <time>2022-08-20T13:10:31Z</time>
      </trkpt>
      <trkpt lat="46.60716" lon="5.5176">
        <ele>548.4</ele>
        <time>2022-08-20T13:10:32Z</time>
      </trkpt>
      <trkpt lat="46.60714" lon="5.51758">
        <ele>548.8</ele>
        <time>2022-08-20T13:10:34Z</time>
      </trkpt>
      <trkpt lat="46.60711" lon="5.51756">
        <ele>549.2</ele>
        <time>2022-08-20T13:10:36Z</time>
      </trkpt>
      <trkpt lat="46.60708" lon="5.51754">
        <ele>549.6</ele>
        <time>2022-08-20T13:10:38Z</time>
      </trkpt>
      <trkpt lat="46.60705" lon="5.51754">
        <ele>550</ele>
        <time>2022-08-20T13:10:40Z</time>
      </trkpt>
      <trkpt lat="46.60702" lon="5.51752">
        <ele>550.2</ele>
        <time>2022-08-20T13:10:42Z</time>
      </trkpt>
      <trkpt lat="46.607" lon="5.51751">
        <ele>550.6</ele>
        <time>2022-08-20T13:10:44Z</time>
      </trkpt>
      <trkpt lat="46.60697" lon="5.5175">
        <ele>551</ele>
        <time>2022-08-20T13:10:46Z</time>
      </trkpt>
      <trkpt lat="46.60694" lon="5.51748">
        <ele>551.4</ele>
        <time>2022-08-20T13:10:48Z</time>
      </trkpt>
      <trkpt lat="46.60693" lon="5.51747">
        <ele>551.6</ele>
        <time>2022-08-20T13:10:49Z</time>
      </trkpt>
      <trkpt lat="46.60692" lon="5.51744">
        <ele>552</ele>
        <time>2022-08-20T13:10:51Z</time>
      </trkpt>
      <trkpt lat="46.60692" lon="5.51741">
        <ele>553</ele>
        <time>2022-08-20T13:10:57Z</time>
      </trkpt>
      <trkpt lat="46.6069" lon="5.5174">
        <ele>555.4</ele>
        <time>2022-08-20T13:11:12Z</time>
      </trkpt>
      <trkpt lat="46.60687" lon="5.51738">
        <ele>555.6</ele>
        <time>2022-08-20T13:11:14Z</time>
      </trkpt>
      <trkpt lat="46.60685" lon="5.51738">
        <ele>555.8</ele>
        <time>2022-08-20T13:11:16Z</time>
      </trkpt>
      <trkpt lat="46.60681" lon="5.51737">
        <ele>556</ele>
        <time>2022-08-20T13:11:18Z</time>
      </trkpt>
      <trkpt lat="46.60678" lon="5.51736">
        <ele>556.2</ele>
        <time>2022-08-20T13:11:20Z</time>
      </trkpt>
      <trkpt lat="46.60676" lon="5.51734">
        <ele>556.4</ele>
        <time>2022-08-20T13:11:22Z</time>
      </trkpt>
      <trkpt lat="46.60673" lon="5.51732">
        <ele>556.4</ele>
        <time>2022-08-20T13:11:24Z</time>
      </trkpt>
      <trkpt lat="46.6067" lon="5.51731">
        <ele>556.4</ele>
        <time>2022-08-20T13:11:26Z</time>
      </trkpt>
      <trkpt lat="46.60667" lon="5.5173">
        <ele>556.6</ele>
        <time>2022-08-20T13:11:28Z</time>
      </trkpt>
      <trkpt lat="46.60665" lon="5.51728">
        <ele>556.6</ele>
        <time>2022-08-20T13:11:30Z</time>
      </trkpt>
      <trkpt lat="46.60662" lon="5.51726">
        <ele>556.8</ele>
        <time>2022-08-20T13:11:32Z</time>
      </trkpt>
      <trkpt lat="46.6066" lon="5.51725">
        <ele>556.8</ele>
        <time>2022-08-20T13:11:33Z</time>
      </trkpt>
      <trkpt lat="46.60657" lon="5.51723">
        <ele>556.8</ele>
        <time>2022-08-20T13:11:35Z</time>
      </trkpt>
      <trkpt lat="46.60654" lon="5.51721">
        <ele>556.8</ele>
        <time>2022-08-20T13:11:37Z</time>
      </trkpt>
      <trkpt lat="46.60651" lon="5.51718">
        <ele>556.8</ele>
        <time>2022-08-20T13:11:39Z</time>
      </trkpt>
      <trkpt lat="46.60649" lon="5.51715">
        <ele>556.6</ele>
        <time>2022-08-20T13:11:41Z</time>
      </trkpt>
      <trkpt lat="46.60646" lon="5.51712">
        <ele>556.6</ele>
        <time>2022-08-20T13:11:43Z</time>
      </trkpt>
      <trkpt lat="46.60644" lon="5.5171">
        <ele>556.4</ele>
        <time>2022-08-20T13:11:45Z</time>
      </trkpt>
      <trkpt lat="46.60642" lon="5.51708">
        <ele>556.4</ele>
        <time>2022-08-20T13:11:47Z</time>
      </trkpt>
      <trkpt lat="46.6064" lon="5.51706">
        <ele>556.4</ele>
        <time>2022-08-20T13:11:48Z</time>
      </trkpt>
      <trkpt lat="46.60638" lon="5.51705">
        <ele>556.2</ele>
        <time>2022-08-20T13:11:49Z</time>
      </trkpt>
      <trkpt lat="46.60637" lon="5.51704">
        <ele>556.2</ele>
        <time>2022-08-20T13:11:50Z</time>
      </trkpt>
      <trkpt lat="46.60635" lon="5.51703">
        <ele>556</ele>
        <time>2022-08-20T13:11:51Z</time>
      </trkpt>
      <trkpt lat="46.60632" lon="5.517">
        <ele>555.8</ele>
        <time>2022-08-20T13:11:53Z</time>
      </trkpt>
      <trkpt lat="46.6063" lon="5.51698">
        <ele>555.8</ele>
        <time>2022-08-20T13:11:55Z</time>
      </trkpt>
      <trkpt lat="46.60628" lon="5.51697">
        <ele>555.6</ele>
        <time>2022-08-20T13:11:57Z</time>
      </trkpt>
      <trkpt lat="46.60625" lon="5.51696">
        <ele>555.6</ele>
        <time>2022-08-20T13:11:59Z</time>
      </trkpt>
      <trkpt lat="46.60622" lon="5.51693">
        <ele>555.4</ele>
        <time>2022-08-20T13:12:01Z</time>
      </trkpt>
      <trkpt lat="46.60619" lon="5.51691">
        <ele>555.4</ele>
        <time>2022-08-20T13:12:03Z</time>
      </trkpt>
      <trkpt lat="46.60616" lon="5.5169">
        <ele>555.2</ele>
        <time>2022-08-20T13:12:05Z</time>
      </trkpt>
      <trkpt lat="46.60613" lon="5.51689">
        <ele>555</ele>
        <time>2022-08-20T13:12:06Z</time>
      </trkpt>
      <trkpt lat="46.6061" lon="5.51688">
        <ele>555</ele>
        <time>2022-08-20T13:12:07Z</time>
      </trkpt>
      <trkpt lat="46.60608" lon="5.51687">
        <ele>555</ele>
        <time>2022-08-20T13:12:08Z</time>
      </trkpt>
      <trkpt lat="46.60606" lon="5.51685">
        <ele>555</ele>
        <time>2022-08-20T13:12:09Z</time>
      </trkpt>
      <trkpt lat="46.60603" lon="5.51684">
        <ele>555</ele>
        <time>2022-08-20T13:12:10Z</time>
      </trkpt>
      <trkpt lat="46.606" lon="5.51683">
        <ele>554.8</ele>
        <time>2022-08-20T13:12:11Z</time>
      </trkpt>
      <trkpt lat="46.60598" lon="5.51682">
        <ele>554.8</ele>
        <time>2022-08-20T13:12:12Z</time>
      </trkpt>
      <trkpt lat="46.60595" lon="5.51682">
        <ele>554.8</ele>
        <time>2022-08-20T13:12:13Z</time>
      </trkpt>
      <trkpt lat="46.60593" lon="5.51682">
        <ele>554.8</ele>
        <time>2022-08-20T13:12:14Z</time>
      </trkpt>
      <trkpt lat="46.6059" lon="5.51681">
        <ele>554.8</ele>
        <time>2022-08-20T13:12:15Z</time>
      </trkpt>
      <trkpt lat="46.60588" lon="5.5168">
        <ele>554.8</ele>
        <time>2022-08-20T13:12:16Z</time>
      </trkpt>
      <trkpt lat="46.60585" lon="5.51679">
        <ele>554.6</ele>
        <time>2022-08-20T13:12:17Z</time>
      </trkpt>
      <trkpt lat="46.60583" lon="5.51678">
        <ele>554.6</ele>
        <time>2022-08-20T13:12:18Z</time>
      </trkpt>
      <trkpt lat="46.60581" lon="5.51676">
        <ele>554.6</ele>
        <time>2022-08-20T13:12:19Z</time>
      </trkpt>
      <trkpt lat="46.60577" lon="5.51675">
        <ele>554.4</ele>
        <time>2022-08-20T13:12:20Z</time>
      </trkpt>
      <trkpt lat="46.60575" lon="5.51675">
        <ele>554.4</ele>
        <time>2022-08-20T13:12:21Z</time>
      </trkpt>
      <trkpt lat="46.60572" lon="5.51674">
        <ele>554.4</ele>
        <time>2022-08-20T13:12:22Z</time>
      </trkpt>
      <trkpt lat="46.60569" lon="5.51673">
        <ele>554.2</ele>
        <time>2022-08-20T13:12:23Z</time>
      </trkpt>
      <trkpt lat="46.60567" lon="5.51672">
        <ele>554.2</ele>
        <time>2022-08-20T13:12:24Z</time>
      </trkpt>
      <trkpt lat="46.60565" lon="5.5167">
        <ele>554</ele>
        <time>2022-08-20T13:12:25Z</time>
      </trkpt>
      <trkpt lat="46.60562" lon="5.51669">
        <ele>553.8</ele>
        <time>2022-08-20T13:12:26Z</time>
      </trkpt>
      <trkpt lat="46.60559" lon="5.51668">
        <ele>553.6</ele>
        <time>2022-08-20T13:12:27Z</time>
      </trkpt>
      <trkpt lat="46.60556" lon="5.51666">
        <ele>553.4</ele>
        <time>2022-08-20T13:12:28Z</time>
      </trkpt>
      <trkpt lat="46.60553" lon="5.51665">
        <ele>553.2</ele>
        <time>2022-08-20T13:12:29Z</time>
      </trkpt>
      <trkpt lat="46.60551" lon="5.51663">
        <ele>553</ele>
        <time>2022-08-20T13:12:30Z</time>
      </trkpt>
      <trkpt lat="46.60548" lon="5.51661">
        <ele>552.8</ele>
        <time>2022-08-20T13:12:31Z</time>
      </trkpt>
      <trkpt lat="46.60546" lon="5.5166">
        <ele>552.6</ele>
        <time>2022-08-20T13:12:32Z</time>
      </trkpt>
      <trkpt lat="46.60543" lon="5.51659">
        <ele>552.4</ele>
        <time>2022-08-20T13:12:33Z</time>
      </trkpt>
      <trkpt lat="46.60541" lon="5.51658">
        <ele>552.2</ele>
        <time>2022-08-20T13:12:34Z</time>
      </trkpt>
      <trkpt lat="46.60538" lon="5.51656">
        <ele>552</ele>
        <time>2022-08-20T13:12:35Z</time>
      </trkpt>
      <trkpt lat="46.60535" lon="5.51654">
        <ele>551.8</ele>
        <time>2022-08-20T13:12:36Z</time>
      </trkpt>
      <trkpt lat="46.60533" lon="5.51652">
        <ele>551.6</ele>
        <time>2022-08-20T13:12:37Z</time>
      </trkpt>
      <trkpt lat="46.60531" lon="5.51651">
        <ele>551.4</ele>
        <time>2022-08-20T13:12:38Z</time>
      </trkpt>
      <trkpt lat="46.60528" lon="5.5165">
        <ele>551.4</ele>
        <time>2022-08-20T13:12:39Z</time>
      </trkpt>
      <trkpt lat="46.60525" lon="5.51649">
        <ele>551.2</ele>
        <time>2022-08-20T13:12:40Z</time>
      </trkpt>
      <trkpt lat="46.60523" lon="5.51647">
        <ele>551</ele>
        <time>2022-08-20T13:12:41Z</time>
      </trkpt>
      <trkpt lat="46.6052" lon="5.51646">
        <ele>550.8</ele>
        <time>2022-08-20T13:12:42Z</time>
      </trkpt>
      <trkpt lat="46.60517" lon="5.51645">
        <ele>550.4</ele>
        <time>2022-08-20T13:12:43Z</time>
      </trkpt>
      <trkpt lat="46.60515" lon="5.51644">
        <ele>550.2</ele>
        <time>2022-08-20T13:12:44Z</time>
      </trkpt>
      <trkpt lat="46.60512" lon="5.51644">
        <ele>550</ele>
        <time>2022-08-20T13:12:45Z</time>
      </trkpt>
      <trkpt lat="46.60509" lon="5.51643">
        <ele>549.8</ele>
        <time>2022-08-20T13:12:46Z</time>
      </trkpt>
      <trkpt lat="46.60507" lon="5.51642">
        <ele>549.6</ele>
        <time>2022-08-20T13:12:47Z</time>
      </trkpt>
      <trkpt lat="46.60504" lon="5.51641">
        <ele>549.4</ele>
        <time>2022-08-20T13:12:48Z</time>
      </trkpt>
      <trkpt lat="46.60502" lon="5.5164">
        <ele>549.2</ele>
        <time>2022-08-20T13:12:49Z</time>
      </trkpt>
      <trkpt lat="46.605" lon="5.51639">
        <ele>549</ele>
        <time>2022-08-20T13:12:50Z</time>
      </trkpt>
      <trkpt lat="46.60497" lon="5.51637">
        <ele>548.6</ele>
        <time>2022-08-20T13:12:51Z</time>
      </trkpt>
      <trkpt lat="46.60494" lon="5.51636">
        <ele>548.4</ele>
        <time>2022-08-20T13:12:52Z</time>
      </trkpt>
      <trkpt lat="46.60492" lon="5.51634">
        <ele>548.2</ele>
        <time>2022-08-20T13:12:53Z</time>
      </trkpt>
      <trkpt lat="46.60489" lon="5.51633">
        <ele>548</ele>
        <time>2022-08-20T13:12:54Z</time>
      </trkpt>
      <trkpt lat="46.60487" lon="5.51632">
        <ele>547.6</ele>
        <time>2022-08-20T13:12:55Z</time>
      </trkpt>
      <trkpt lat="46.60484" lon="5.51631">
        <ele>547.4</ele>
        <time>2022-08-20T13:12:56Z</time>
      </trkpt>
      <trkpt lat="46.60482" lon="5.51629">
        <ele>547.2</ele>
        <time>2022-08-20T13:12:57Z</time>
      </trkpt>
      <trkpt lat="46.60479" lon="5.51628">
        <ele>547</ele>
        <time>2022-08-20T13:12:58Z</time>
      </trkpt>
      <trkpt lat="46.60477" lon="5.51626">
        <ele>546.6</ele>
        <time>2022-08-20T13:12:59Z</time>
      </trkpt>
      <trkpt lat="46.60474" lon="5.51625">
        <ele>546.4</ele>
        <time>2022-08-20T13:13:00Z</time>
      </trkpt>
      <trkpt lat="46.60472" lon="5.51624">
        <ele>546</ele>
        <time>2022-08-20T13:13:01Z</time>
      </trkpt>
      <trkpt lat="46.60469" lon="5.51622">
        <ele>545.8</ele>
        <time>2022-08-20T13:13:02Z</time>
      </trkpt>
      <trkpt lat="46.60467" lon="5.51621">
        <ele>545.6</ele>
        <time>2022-08-20T13:13:03Z</time>
      </trkpt>
      <trkpt lat="46.60464" lon="5.51619">
        <ele>545.4</ele>
        <time>2022-08-20T13:13:04Z</time>
      </trkpt>
      <trkpt lat="46.60462" lon="5.51618">
        <ele>545.2</ele>
        <time>2022-08-20T13:13:05Z</time>
      </trkpt>
      <trkpt lat="46.6046" lon="5.51617">
        <ele>545</ele>
        <time>2022-08-20T13:13:06Z</time>
      </trkpt>
      <trkpt lat="46.60457" lon="5.51616">
        <ele>544.6</ele>
        <time>2022-08-20T13:13:07Z</time>
      </trkpt>
      <trkpt lat="46.60454" lon="5.51614">
        <ele>544.4</ele>
        <time>2022-08-20T13:13:08Z</time>
      </trkpt>
      <trkpt lat="46.60452" lon="5.51613">
        <ele>544.2</ele>
        <time>2022-08-20T13:13:09Z</time>
      </trkpt>
      <trkpt lat="46.6045" lon="5.51612">
        <ele>544</ele>
        <time>2022-08-20T13:13:10Z</time>
      </trkpt>
      <trkpt lat="46.60448" lon="5.51612">
        <ele>543.6</ele>
        <time>2022-08-20T13:13:11Z</time>
      </trkpt>
      <trkpt lat="46.60445" lon="5.51612">
        <ele>543.4</ele>
        <time>2022-08-20T13:13:12Z</time>
      </trkpt>
      <trkpt lat="46.60443" lon="5.51611">
        <ele>543</ele>
        <time>2022-08-20T13:13:13Z</time>
      </trkpt>
      <trkpt lat="46.60441" lon="5.51611">
        <ele>542.8</ele>
        <time>2022-08-20T13:13:14Z</time>
      </trkpt>
      <trkpt lat="46.60438" lon="5.51609">
        <ele>542.4</ele>
        <time>2022-08-20T13:13:15Z</time>
      </trkpt>
      <trkpt lat="46.60436" lon="5.51608">
        <ele>542.2</ele>
        <time>2022-08-20T13:13:16Z</time>
      </trkpt>
      <trkpt lat="46.60434" lon="5.51607">
        <ele>541.8</ele>
        <time>2022-08-20T13:13:17Z</time>
      </trkpt>
      <trkpt lat="46.60432" lon="5.51605">
        <ele>541.6</ele>
        <time>2022-08-20T13:13:18Z</time>
      </trkpt>
      <trkpt lat="46.6043" lon="5.51604">
        <ele>541.4</ele>
        <time>2022-08-20T13:13:19Z</time>
      </trkpt>
      <trkpt lat="46.60428" lon="5.51603">
        <ele>541</ele>
        <time>2022-08-20T13:13:20Z</time>
      </trkpt>
      <trkpt lat="46.60426" lon="5.51602">
        <ele>540.8</ele>
        <time>2022-08-20T13:13:21Z</time>
      </trkpt>
      <trkpt lat="46.60423" lon="5.51601">
        <ele>540.4</ele>
        <time>2022-08-20T13:13:22Z</time>
      </trkpt>
      <trkpt lat="46.60421" lon="5.516">
        <ele>540.2</ele>
        <time>2022-08-20T13:13:23Z</time>
      </trkpt>
      <trkpt lat="46.60419" lon="5.51599">
        <ele>539.8</ele>
        <time>2022-08-20T13:13:24Z</time>
      </trkpt>
      <trkpt lat="46.60416" lon="5.51598">
        <ele>539.4</ele>
        <time>2022-08-20T13:13:25Z</time>
      </trkpt>
      <trkpt lat="46.60414" lon="5.51596">
        <ele>539</ele>
        <time>2022-08-20T13:13:26Z</time>
      </trkpt>
      <trkpt lat="46.60412" lon="5.51595">
        <ele>538.6</ele>
        <time>2022-08-20T13:13:27Z</time>
      </trkpt>
      <trkpt lat="46.60409" lon="5.51594">
        <ele>538.2</ele>
        <time>2022-08-20T13:13:28Z</time>
      </trkpt>
      <trkpt lat="46.60407" lon="5.51593">
        <ele>538</ele>
        <time>2022-08-20T13:13:29Z</time>
      </trkpt>
      <trkpt lat="46.60405" lon="5.51591">
        <ele>537.6</ele>
        <time>2022-08-20T13:13:30Z</time>
      </trkpt>
      <trkpt lat="46.60403" lon="5.5159">
        <ele>537.2</ele>
        <time>2022-08-20T13:13:31Z</time>
      </trkpt>
      <trkpt lat="46.60401" lon="5.51588">
        <ele>536.8</ele>
        <time>2022-08-20T13:13:32Z</time>
      </trkpt>
      <trkpt lat="46.60398" lon="5.51587">
        <ele>536.4</ele>
        <time>2022-08-20T13:13:33Z</time>
      </trkpt>
      <trkpt lat="46.60396" lon="5.51586">
        <ele>536</ele>
        <time>2022-08-20T13:13:34Z</time>
      </trkpt>
      <trkpt lat="46.60394" lon="5.51584">
        <ele>535.6</ele>
        <time>2022-08-20T13:13:35Z</time>
      </trkpt>
      <trkpt lat="46.60391" lon="5.51583">
        <ele>535.2</ele>
        <time>2022-08-20T13:13:36Z</time>
      </trkpt>
      <trkpt lat="46.60389" lon="5.51581">
        <ele>534.8</ele>
        <time>2022-08-20T13:13:37Z</time>
      </trkpt>
      <trkpt lat="46.60387" lon="5.5158">
        <ele>534.4</ele>
        <time>2022-08-20T13:13:38Z</time>
      </trkpt>
      <trkpt lat="46.60384" lon="5.51579">
        <ele>534.2</ele>
        <time>2022-08-20T13:13:39Z</time>
      </trkpt>
      <trkpt lat="46.60382" lon="5.51578">
        <ele>533.8</ele>
        <time>2022-08-20T13:13:40Z</time>
      </trkpt>
      <trkpt lat="46.6038" lon="5.51576">
        <ele>533.4</ele>
        <time>2022-08-20T13:13:41Z</time>
      </trkpt>
      <trkpt lat="46.60378" lon="5.51575">
        <ele>533.2</ele>
        <time>2022-08-20T13:13:42Z</time>
      </trkpt>
      <trkpt lat="46.60376" lon="5.51574">
        <ele>532.8</ele>
        <time>2022-08-20T13:13:43Z</time>
      </trkpt>
      <trkpt lat="46.60374" lon="5.51572">
        <ele>532.2</ele>
        <time>2022-08-20T13:13:44Z</time>
      </trkpt>
      <trkpt lat="46.60372" lon="5.51572">
        <ele>531.8</ele>
        <time>2022-08-20T13:13:45Z</time>
      </trkpt>
      <trkpt lat="46.60369" lon="5.51571">
        <ele>531.4</ele>
        <time>2022-08-20T13:13:46Z</time>
      </trkpt>
      <trkpt lat="46.60367" lon="5.5157">
        <ele>531</ele>
        <time>2022-08-20T13:13:47Z</time>
      </trkpt>
      <trkpt lat="46.60364" lon="5.51569">
        <ele>530.6</ele>
        <time>2022-08-20T13:13:48Z</time>
      </trkpt>
      <trkpt lat="46.60362" lon="5.51568">
        <ele>530.2</ele>
        <time>2022-08-20T13:13:49Z</time>
      </trkpt>
      <trkpt lat="46.60359" lon="5.51567">
        <ele>529.8</ele>
        <time>2022-08-20T13:13:50Z</time>
      </trkpt>
      <trkpt lat="46.60357" lon="5.51565">
        <ele>529.4</ele>
        <time>2022-08-20T13:13:51Z</time>
      </trkpt>
      <trkpt lat="46.60355" lon="5.51564">
        <ele>528.8</ele>
        <time>2022-08-20T13:13:52Z</time>
      </trkpt>
      <trkpt lat="46.60353" lon="5.51563">
        <ele>528.4</ele>
        <time>2022-08-20T13:13:53Z</time>
      </trkpt>
      <trkpt lat="46.60351" lon="5.51561">
        <ele>528</ele>
        <time>2022-08-20T13:13:54Z</time>
      </trkpt>
      <trkpt lat="46.60349" lon="5.5156">
        <ele>527.4</ele>
        <time>2022-08-20T13:13:55Z</time>
      </trkpt>
      <trkpt lat="46.60346" lon="5.51558">
        <ele>527</ele>
        <time>2022-08-20T13:13:56Z</time>
      </trkpt>
      <trkpt lat="46.60343" lon="5.51556">
        <ele>526.4</ele>
        <time>2022-08-20T13:13:57Z</time>
      </trkpt>
      <trkpt lat="46.6034" lon="5.51555">
        <ele>526</ele>
        <time>2022-08-20T13:13:58Z</time>
      </trkpt>
      <trkpt lat="46.60338" lon="5.51554">
        <ele>525.6</ele>
        <time>2022-08-20T13:13:59Z</time>
      </trkpt>
      <trkpt lat="46.60336" lon="5.51553">
        <ele>525.2</ele>
        <time>2022-08-20T13:14:00Z</time>
      </trkpt>
      <trkpt lat="46.60334" lon="5.51552">
        <ele>524.8</ele>
        <time>2022-08-20T13:14:01Z</time>
      </trkpt>
      <trkpt lat="46.60332" lon="5.51551">
        <ele>524.4</ele>
        <time>2022-08-20T13:14:02Z</time>
      </trkpt>
      <trkpt lat="46.6033" lon="5.51549">
        <ele>524</ele>
        <time>2022-08-20T13:14:03Z</time>
      </trkpt>
      <trkpt lat="46.60328" lon="5.51549">
        <ele>523.8</ele>
        <time>2022-08-20T13:14:04Z</time>
      </trkpt>
      <trkpt lat="46.60326" lon="5.51549">
        <ele>523.4</ele>
        <time>2022-08-20T13:14:05Z</time>
      </trkpt>
      <trkpt lat="46.60324" lon="5.51549">
        <ele>523</ele>
        <time>2022-08-20T13:14:06Z</time>
      </trkpt>
      <trkpt lat="46.60321" lon="5.51547">
        <ele>522.6</ele>
        <time>2022-08-20T13:14:07Z</time>
      </trkpt>
      <trkpt lat="46.60319" lon="5.51546">
        <ele>522.2</ele>
        <time>2022-08-20T13:14:08Z</time>
      </trkpt>
      <trkpt lat="46.60318" lon="5.51544">
        <ele>521.8</ele>
        <time>2022-08-20T13:14:09Z</time>
      </trkpt>
      <trkpt lat="46.60316" lon="5.51542">
        <ele>521.4</ele>
        <time>2022-08-20T13:14:10Z</time>
      </trkpt>
      <trkpt lat="46.60313" lon="5.51543">
        <ele>520.2</ele>
        <time>2022-08-20T13:14:13Z</time>
      </trkpt>
      <trkpt lat="46.60311" lon="5.51544">
        <ele>518.4</ele>
        <time>2022-08-20T13:14:17Z</time>
      </trkpt>
      <trkpt lat="46.60309" lon="5.51544">
        <ele>516.8</ele>
        <time>2022-08-20T13:14:21Z</time>
      </trkpt>
      <trkpt lat="46.60306" lon="5.51543">
        <ele>516</ele>
        <time>2022-08-20T13:14:23Z</time>
      </trkpt>
      <trkpt lat="46.60303" lon="5.51543">
        <ele>515.4</ele>
        <time>2022-08-20T13:14:25Z</time>
      </trkpt>
      <trkpt lat="46.60301" lon="5.51543">
        <ele>514.8</ele>
        <time>2022-08-20T13:14:27Z</time>
      </trkpt>
      <trkpt lat="46.60298" lon="5.51543">
        <ele>514</ele>
        <time>2022-08-20T13:14:29Z</time>
      </trkpt>
      <trkpt lat="46.60296" lon="5.51544">
        <ele>513.8</ele>
        <time>2022-08-20T13:14:30Z</time>
      </trkpt>
      <trkpt lat="46.60294" lon="5.51544">
        <ele>513.4</ele>
        <time>2022-08-20T13:14:31Z</time>
      </trkpt>
      <trkpt lat="46.60293" lon="5.5154">
        <ele>512.6</ele>
        <time>2022-08-20T13:14:33Z</time>
      </trkpt>
      <trkpt lat="46.60295" lon="5.51538">
        <ele>512.4</ele>
        <time>2022-08-20T13:14:34Z</time>
      </trkpt>
      <trkpt lat="46.60297" lon="5.51536">
        <ele>512</ele>
        <time>2022-08-20T13:14:35Z</time>
      </trkpt>
      <trkpt lat="46.60299" lon="5.51534">
        <ele>511.6</ele>
        <time>2022-08-20T13:14:36Z</time>
      </trkpt>
      <trkpt lat="46.60301" lon="5.51532">
        <ele>511.4</ele>
        <time>2022-08-20T13:14:37Z</time>
      </trkpt>
      <trkpt lat="46.60303" lon="5.51531">
        <ele>511</ele>
        <time>2022-08-20T13:14:38Z</time>
      </trkpt>
      <trkpt lat="46.60305" lon="5.51531">
        <ele>510.8</ele>
        <time>2022-08-20T13:14:39Z</time>
      </trkpt>
      <trkpt lat="46.60307" lon="5.5153">
        <ele>510.4</ele>
        <time>2022-08-20T13:14:40Z</time>
      </trkpt>
      <trkpt lat="46.60309" lon="5.51529">
        <ele>510</ele>
        <time>2022-08-20T13:14:41Z</time>
      </trkpt>
      <trkpt lat="46.60311" lon="5.51528">
        <ele>509.8</ele>
        <time>2022-08-20T13:14:42Z</time>
      </trkpt>
      <trkpt lat="46.60314" lon="5.51527">
        <ele>509.4</ele>
        <time>2022-08-20T13:14:43Z</time>
      </trkpt>
      <trkpt lat="46.60317" lon="5.51525">
        <ele>509.2</ele>
        <time>2022-08-20T13:14:44Z</time>
      </trkpt>
      <trkpt lat="46.60319" lon="5.51524">
        <ele>508.8</ele>
        <time>2022-08-20T13:14:45Z</time>
      </trkpt>
      <trkpt lat="46.60321" lon="5.51522">
        <ele>508.4</ele>
        <time>2022-08-20T13:14:46Z</time>
      </trkpt>
      <trkpt lat="46.60323" lon="5.51522">
        <ele>508.2</ele>
        <time>2022-08-20T13:14:47Z</time>
      </trkpt>
      <trkpt lat="46.60325" lon="5.51521">
        <ele>508</ele>
        <time>2022-08-20T13:14:48Z</time>
      </trkpt>
      <trkpt lat="46.60328" lon="5.5152">
        <ele>507.6</ele>
        <time>2022-08-20T13:14:49Z</time>
      </trkpt>
      <trkpt lat="46.60331" lon="5.5152">
        <ele>507.4</ele>
        <time>2022-08-20T13:14:50Z</time>
      </trkpt>
      <trkpt lat="46.60333" lon="5.5152">
        <ele>507.2</ele>
        <time>2022-08-20T13:14:51Z</time>
      </trkpt>
      <trkpt lat="46.60336" lon="5.51519">
        <ele>507</ele>
        <time>2022-08-20T13:14:52Z</time>
      </trkpt>
      <trkpt lat="46.60338" lon="5.51519">
        <ele>506.8</ele>
        <time>2022-08-20T13:14:53Z</time>
      </trkpt>
      <trkpt lat="46.60341" lon="5.51519">
        <ele>506.6</ele>
        <time>2022-08-20T13:14:54Z</time>
      </trkpt>
      <trkpt lat="46.60343" lon="5.51518">
        <ele>506.2</ele>
        <time>2022-08-20T13:14:55Z</time>
      </trkpt>
      <trkpt lat="46.60346" lon="5.51517">
        <ele>506</ele>
        <time>2022-08-20T13:14:56Z</time>
      </trkpt>
      <trkpt lat="46.60349" lon="5.51514">
        <ele>505.6</ele>
        <time>2022-08-20T13:14:57Z</time>
      </trkpt>
      <trkpt lat="46.60351" lon="5.51511">
        <ele>505.4</ele>
        <time>2022-08-20T13:14:58Z</time>
      </trkpt>
      <trkpt lat="46.60354" lon="5.51508">
        <ele>505</ele>
        <time>2022-08-20T13:14:59Z</time>
      </trkpt>
      <trkpt lat="46.60357" lon="5.51506">
        <ele>504.6</ele>
        <time>2022-08-20T13:15:00Z</time>
      </trkpt>
      <trkpt lat="46.60359" lon="5.51504">
        <ele>504.4</ele>
        <time>2022-08-20T13:15:01Z</time>
      </trkpt>
      <trkpt lat="46.60361" lon="5.51502">
        <ele>504</ele>
        <time>2022-08-20T13:15:02Z</time>
      </trkpt>
      <trkpt lat="46.60363" lon="5.51499">
        <ele>503.8</ele>
        <time>2022-08-20T13:15:03Z</time>
      </trkpt>
      <trkpt lat="46.60365" lon="5.51496">
        <ele>503.4</ele>
        <time>2022-08-20T13:15:04Z</time>
      </trkpt>
      <trkpt lat="46.60367" lon="5.51492">
        <ele>503</ele>
        <time>2022-08-20T13:15:05Z</time>
      </trkpt>
      <trkpt lat="46.60368" lon="5.51488">
        <ele>502.8</ele>
        <time>2022-08-20T13:15:06Z</time>
      </trkpt>
      <trkpt lat="46.6037" lon="5.51485">
        <ele>502.4</ele>
        <time>2022-08-20T13:15:07Z</time>
      </trkpt>
      <trkpt lat="46.60371" lon="5.51481">
        <ele>502</ele>
        <time>2022-08-20T13:15:08Z</time>
      </trkpt>
      <trkpt lat="46.60372" lon="5.51477">
        <ele>501.4</ele>
        <time>2022-08-20T13:15:09Z</time>
      </trkpt>
      <trkpt lat="46.60373" lon="5.51473">
        <ele>501.2</ele>
        <time>2022-08-20T13:15:10Z</time>
      </trkpt>
      <trkpt lat="46.60374" lon="5.51469">
        <ele>500.8</ele>
        <time>2022-08-20T13:15:11Z</time>
      </trkpt>
      <trkpt lat="46.60376" lon="5.51465">
        <ele>500.4</ele>
        <time>2022-08-20T13:15:12Z</time>
      </trkpt>
      <trkpt lat="46.60377" lon="5.51462">
        <ele>500</ele>
        <time>2022-08-20T13:15:13Z</time>
      </trkpt>
      <trkpt lat="46.60379" lon="5.51458">
        <ele>499.6</ele>
        <time>2022-08-20T13:15:14Z</time>
      </trkpt>
      <trkpt lat="46.6038" lon="5.51454">
        <ele>499.2</ele>
        <time>2022-08-20T13:15:15Z</time>
      </trkpt>
      <trkpt lat="46.60382" lon="5.51451">
        <ele>498.8</ele>
        <time>2022-08-20T13:15:16Z</time>
      </trkpt>
      <trkpt lat="46.60384" lon="5.51447">
        <ele>498.4</ele>
        <time>2022-08-20T13:15:17Z</time>
      </trkpt>
      <trkpt lat="46.60387" lon="5.51444">
        <ele>498.2</ele>
        <time>2022-08-20T13:15:18Z</time>
      </trkpt>
      <trkpt lat="46.60389" lon="5.51441">
        <ele>497.8</ele>
        <time>2022-08-20T13:15:19Z</time>
      </trkpt>
      <trkpt lat="46.60391" lon="5.51439">
        <ele>497.4</ele>
        <time>2022-08-20T13:15:20Z</time>
      </trkpt>
      <trkpt lat="46.60394" lon="5.51436">
        <ele>497</ele>
        <time>2022-08-20T13:15:21Z</time>
      </trkpt>
      <trkpt lat="46.60396" lon="5.51434">
        <ele>496.6</ele>
        <time>2022-08-20T13:15:22Z</time>
      </trkpt>
      <trkpt lat="46.60398" lon="5.51433">
        <ele>496.2</ele>
        <time>2022-08-20T13:15:23Z</time>
      </trkpt>
      <trkpt lat="46.604" lon="5.51432">
        <ele>495.8</ele>
        <time>2022-08-20T13:15:24Z</time>
      </trkpt>
      <trkpt lat="46.60404" lon="5.51431">
        <ele>495</ele>
        <time>2022-08-20T13:15:26Z</time>
      </trkpt>
      <trkpt lat="46.60405" lon="5.51431">
        <ele>494.6</ele>
        <time>2022-08-20T13:15:27Z</time>
      </trkpt>
      <trkpt lat="46.60408" lon="5.5143">
        <ele>494</ele>
        <time>2022-08-20T13:15:29Z</time>
      </trkpt>
      <trkpt lat="46.6041" lon="5.51429">
        <ele>493.4</ele>
        <time>2022-08-20T13:15:31Z</time>
      </trkpt>
      <trkpt lat="46.60412" lon="5.51428">
        <ele>493.2</ele>
        <time>2022-08-20T13:15:32Z</time>
      </trkpt>
      <trkpt lat="46.60413" lon="5.51426">
        <ele>492.8</ele>
        <time>2022-08-20T13:15:33Z</time>
      </trkpt>
      <trkpt lat="46.60415" lon="5.51426">
        <ele>492.6</ele>
        <time>2022-08-20T13:15:34Z</time>
      </trkpt>
      <trkpt lat="46.60417" lon="5.51426">
        <ele>492.4</ele>
        <time>2022-08-20T13:15:35Z</time>
      </trkpt>
      <trkpt lat="46.60421" lon="5.51424">
        <ele>492</ele>
        <time>2022-08-20T13:15:37Z</time>
      </trkpt>
      <trkpt lat="46.60424" lon="5.51422">
        <ele>491.6</ele>
        <time>2022-08-20T13:15:39Z</time>
      </trkpt>
      <trkpt lat="46.60425" lon="5.5142">
        <ele>491.4</ele>
        <time>2022-08-20T13:15:40Z</time>
      </trkpt>
      <trkpt lat="46.60428" lon="5.51417">
        <ele>491</ele>
        <time>2022-08-20T13:15:42Z</time>
      </trkpt>
      <trkpt lat="46.6043" lon="5.51416">
        <ele>490.8</ele>
        <time>2022-08-20T13:15:43Z</time>
      </trkpt>
      <trkpt lat="46.60434" lon="5.51415">
        <ele>490.4</ele>
        <time>2022-08-20T13:15:45Z</time>
      </trkpt>
      <trkpt lat="46.60436" lon="5.51413">
        <ele>490</ele>
        <time>2022-08-20T13:15:47Z</time>
      </trkpt>
      <trkpt lat="46.60438" lon="5.51411">
        <ele>489.8</ele>
        <time>2022-08-20T13:15:49Z</time>
      </trkpt>
      <trkpt lat="46.60442" lon="5.51409">
        <ele>489.4</ele>
        <time>2022-08-20T13:15:51Z</time>
      </trkpt>
      <trkpt lat="46.60444" lon="5.51408">
        <ele>489</ele>
        <time>2022-08-20T13:15:53Z</time>
      </trkpt>
      <trkpt lat="46.60448" lon="5.51407">
        <ele>488.8</ele>
        <time>2022-08-20T13:15:55Z</time>
      </trkpt>
      <trkpt lat="46.6045" lon="5.51406">
        <ele>488.6</ele>
        <time>2022-08-20T13:15:57Z</time>
      </trkpt>
      <trkpt lat="46.60453" lon="5.51405">
        <ele>488.2</ele>
        <time>2022-08-20T13:15:59Z</time>
      </trkpt>
      <trkpt lat="46.60456" lon="5.51404">
        <ele>487.8</ele>
        <time>2022-08-20T13:16:01Z</time>
      </trkpt>
      <trkpt lat="46.60458" lon="5.51404">
        <ele>487.6</ele>
        <time>2022-08-20T13:16:03Z</time>
      </trkpt>
      <trkpt lat="46.60461" lon="5.51403">
        <ele>487.6</ele>
        <time>2022-08-20T13:16:05Z</time>
      </trkpt>
      <trkpt lat="46.60464" lon="5.51403">
        <ele>487.6</ele>
        <time>2022-08-20T13:16:07Z</time>
      </trkpt>
      <trkpt lat="46.60468" lon="5.51402">
        <ele>487.4</ele>
        <time>2022-08-20T13:16:09Z</time>
      </trkpt>
      <trkpt lat="46.60471" lon="5.514">
        <ele>487.4</ele>
        <time>2022-08-20T13:16:11Z</time>
      </trkpt>
      <trkpt lat="46.60473" lon="5.51398">
        <ele>487.4</ele>
        <time>2022-08-20T13:16:13Z</time>
      </trkpt>
      <trkpt lat="46.60475" lon="5.51393">
        <ele>487.4</ele>
        <time>2022-08-20T13:16:15Z</time>
      </trkpt>
      <trkpt lat="46.60475" lon="5.51388">
        <ele>487.4</ele>
        <time>2022-08-20T13:16:17Z</time>
      </trkpt>
      <trkpt lat="46.60477" lon="5.51383">
        <ele>487.4</ele>
        <time>2022-08-20T13:16:19Z</time>
      </trkpt>
      <trkpt lat="46.60478" lon="5.51378">
        <ele>487.4</ele>
        <time>2022-08-20T13:16:21Z</time>
      </trkpt>
      <trkpt lat="46.60479" lon="5.51376">
        <ele>487.4</ele>
        <time>2022-08-20T13:16:22Z</time>
      </trkpt>
      <trkpt lat="46.60479" lon="5.51374">
        <ele>487.4</ele>
        <time>2022-08-20T13:16:23Z</time>
      </trkpt>
      <trkpt lat="46.60481" lon="5.5137">
        <ele>487.2</ele>
        <time>2022-08-20T13:16:24Z</time>
      </trkpt>
      <trkpt lat="46.60482" lon="5.51367">
        <ele>487.2</ele>
        <time>2022-08-20T13:16:25Z</time>
      </trkpt>
      <trkpt lat="46.60483" lon="5.51364">
        <ele>487.2</ele>
        <time>2022-08-20T13:16:26Z</time>
      </trkpt>
      <trkpt lat="46.60483" lon="5.5136">
        <ele>487.2</ele>
        <time>2022-08-20T13:16:27Z</time>
      </trkpt>
      <trkpt lat="46.60484" lon="5.51356">
        <ele>487.2</ele>
        <time>2022-08-20T13:16:28Z</time>
      </trkpt>
      <trkpt lat="46.60485" lon="5.51352">
        <ele>487.2</ele>
        <time>2022-08-20T13:16:29Z</time>
      </trkpt>
      <trkpt lat="46.60486" lon="5.51348">
        <ele>487</ele>
        <time>2022-08-20T13:16:30Z</time>
      </trkpt>
      <trkpt lat="46.60487" lon="5.51344">
        <ele>487</ele>
        <time>2022-08-20T13:16:31Z</time>
      </trkpt>
      <trkpt lat="46.60487" lon="5.51341">
        <ele>487</ele>
        <time>2022-08-20T13:16:32Z</time>
      </trkpt>
      <trkpt lat="46.60487" lon="5.51337">
        <ele>486.8</ele>
        <time>2022-08-20T13:16:34Z</time>
      </trkpt>
      <trkpt lat="46.60486" lon="5.51335">
        <ele>486.8</ele>
        <time>2022-08-20T13:16:39Z</time>
      </trkpt>
      <trkpt lat="46.60487" lon="5.51332">
        <ele>486.8</ele>
        <time>2022-08-20T13:16:41Z</time>
      </trkpt>
      <trkpt lat="46.60486" lon="5.5133">
        <ele>486.6</ele>
        <time>2022-08-20T13:16:44Z</time>
      </trkpt>
      <trkpt lat="46.60484" lon="5.51328">
        <ele>486.6</ele>
        <time>2022-08-20T13:16:46Z</time>
      </trkpt>
      <trkpt lat="46.60481" lon="5.51326">
        <ele>486.4</ele>
        <time>2022-08-20T13:16:48Z</time>
      </trkpt>
      <trkpt lat="46.60478" lon="5.51324">
        <ele>486.4</ele>
        <time>2022-08-20T13:16:50Z</time>
      </trkpt>
      <trkpt lat="46.60476" lon="5.51323">
        <ele>486.2</ele>
        <time>2022-08-20T13:16:52Z</time>
      </trkpt>
      <trkpt lat="46.60473" lon="5.51322">
        <ele>486</ele>
        <time>2022-08-20T13:16:54Z</time>
      </trkpt>
      <trkpt lat="46.60471" lon="5.51322">
        <ele>486</ele>
        <time>2022-08-20T13:16:56Z</time>
      </trkpt>
      <trkpt lat="46.60468" lon="5.51321">
        <ele>485.8</ele>
        <time>2022-08-20T13:16:58Z</time>
      </trkpt>
      <trkpt lat="46.60466" lon="5.5132">
        <ele>486</ele>
        <time>2022-08-20T13:17:00Z</time>
      </trkpt>
      <trkpt lat="46.60464" lon="5.51319">
        <ele>486</ele>
        <time>2022-08-20T13:17:02Z</time>
      </trkpt>
      <trkpt lat="46.60461" lon="5.51317">
        <ele>486</ele>
        <time>2022-08-20T13:17:04Z</time>
      </trkpt>
      <trkpt lat="46.6046" lon="5.51316">
        <ele>486.2</ele>
        <time>2022-08-20T13:17:06Z</time>
      </trkpt>
      <trkpt lat="46.60456" lon="5.51315">
        <ele>486.4</ele>
        <time>2022-08-20T13:17:08Z</time>
      </trkpt>
      <trkpt lat="46.60453" lon="5.51312">
        <ele>486.6</ele>
        <time>2022-08-20T13:17:10Z</time>
      </trkpt>
      <trkpt lat="46.60451" lon="5.5131">
        <ele>486.8</ele>
        <time>2022-08-20T13:17:12Z</time>
      </trkpt>
      <trkpt lat="46.60449" lon="5.51309">
        <ele>487</ele>
        <time>2022-08-20T13:17:14Z</time>
      </trkpt>
      <trkpt lat="46.60446" lon="5.51306">
        <ele>487.2</ele>
        <time>2022-08-20T13:17:16Z</time>
      </trkpt>
      <trkpt lat="46.60444" lon="5.51303">
        <ele>487.4</ele>
        <time>2022-08-20T13:17:18Z</time>
      </trkpt>
      <trkpt lat="46.60443" lon="5.51297">
        <ele>487.6</ele>
        <time>2022-08-20T13:17:20Z</time>
      </trkpt>
      <trkpt lat="46.60442" lon="5.51293">
        <ele>487.8</ele>
        <time>2022-08-20T13:17:21Z</time>
      </trkpt>
      <trkpt lat="46.60443" lon="5.51291">
        <ele>487.8</ele>
        <time>2022-08-20T13:17:22Z</time>
      </trkpt>
      <trkpt lat="46.60442" lon="5.51288">
        <ele>487.8</ele>
        <time>2022-08-20T13:17:23Z</time>
      </trkpt>
      <trkpt lat="46.60441" lon="5.51284">
        <ele>488</ele>
        <time>2022-08-20T13:17:25Z</time>
      </trkpt>
      <trkpt lat="46.6044" lon="5.51279">
        <ele>488</ele>
        <time>2022-08-20T13:17:27Z</time>
      </trkpt>
      <trkpt lat="46.6044" lon="5.51275">
        <ele>488.2</ele>
        <time>2022-08-20T13:17:29Z</time>
      </trkpt>
      <trkpt lat="46.60438" lon="5.51272">
        <ele>488.4</ele>
        <time>2022-08-20T13:17:31Z</time>
      </trkpt>
      <trkpt lat="46.60437" lon="5.51271">
        <ele>488.6</ele>
        <time>2022-08-20T13:17:33Z</time>
      </trkpt>
      <trkpt lat="46.60434" lon="5.51272">
        <ele>488.8</ele>
        <time>2022-08-20T13:17:36Z</time>
      </trkpt>
      <trkpt lat="46.60432" lon="5.51273">
        <ele>488.8</ele>
        <time>2022-08-20T13:17:38Z</time>
      </trkpt>
      <trkpt lat="46.6043" lon="5.51269">
        <ele>488.6</ele>
        <time>2022-08-20T13:17:40Z</time>
      </trkpt>
      <trkpt lat="46.60429" lon="5.51266">
        <ele>488.6</ele>
        <time>2022-08-20T13:17:42Z</time>
      </trkpt>
      <trkpt lat="46.60427" lon="5.51263">
        <ele>488.4</ele>
        <time>2022-08-20T13:17:46Z</time>
      </trkpt>
      <trkpt lat="46.60425" lon="5.51261">
        <ele>488.4</ele>
        <time>2022-08-20T13:17:48Z</time>
      </trkpt>
      <trkpt lat="46.60423" lon="5.51259">
        <ele>488.6</ele>
        <time>2022-08-20T13:17:50Z</time>
      </trkpt>
      <trkpt lat="46.60421" lon="5.51257">
        <ele>488.6</ele>
        <time>2022-08-20T13:17:53Z</time>
      </trkpt>
      <trkpt lat="46.60418" lon="5.51257">
        <ele>488.8</ele>
        <time>2022-08-20T13:17:55Z</time>
      </trkpt>
      <trkpt lat="46.60416" lon="5.51257">
        <ele>489</ele>
        <time>2022-08-20T13:17:57Z</time>
      </trkpt>
      <trkpt lat="46.60414" lon="5.51256">
        <ele>489</ele>
        <time>2022-08-20T13:17:59Z</time>
      </trkpt>
      <trkpt lat="46.60412" lon="5.51256">
        <ele>489.2</ele>
        <time>2022-08-20T13:18:00Z</time>
      </trkpt>
      <trkpt lat="46.6041" lon="5.51254">
        <ele>489.4</ele>
        <time>2022-08-20T13:18:01Z</time>
      </trkpt>
      <trkpt lat="46.60408" lon="5.51253">
        <ele>489.6</ele>
        <time>2022-08-20T13:18:02Z</time>
      </trkpt>
      <trkpt lat="46.60407" lon="5.51251">
        <ele>490</ele>
        <time>2022-08-20T13:18:05Z</time>
      </trkpt>
      <trkpt lat="46.60404" lon="5.51248">
        <ele>490</ele>
        <time>2022-08-20T13:18:07Z</time>
      </trkpt>
      <trkpt lat="46.60402" lon="5.51247">
        <ele>490.2</ele>
        <time>2022-08-20T13:18:08Z</time>
      </trkpt>
      <trkpt lat="46.604" lon="5.51245">
        <ele>490.6</ele>
        <time>2022-08-20T13:18:10Z</time>
      </trkpt>
      <trkpt lat="46.60398" lon="5.51244">
        <ele>490.8</ele>
        <time>2022-08-20T13:18:11Z</time>
      </trkpt>
      <trkpt lat="46.60397" lon="5.51242">
        <ele>491</ele>
        <time>2022-08-20T13:18:12Z</time>
      </trkpt>
      <trkpt lat="46.60395" lon="5.51241">
        <ele>491.2</ele>
        <time>2022-08-20T13:18:13Z</time>
      </trkpt>
      <trkpt lat="46.60391" lon="5.51238">
        <ele>491.6</ele>
        <time>2022-08-20T13:18:15Z</time>
      </trkpt>
      <trkpt lat="46.60389" lon="5.51237">
        <ele>491.8</ele>
        <time>2022-08-20T13:18:16Z</time>
      </trkpt>
      <trkpt lat="46.60387" lon="5.51235">
        <ele>492</ele>
        <time>2022-08-20T13:18:18Z</time>
      </trkpt>
      <trkpt lat="46.60384" lon="5.51233">
        <ele>492.4</ele>
        <time>2022-08-20T13:18:21Z</time>
      </trkpt>
      <trkpt lat="46.60381" lon="5.51231">
        <ele>492.8</ele>
        <time>2022-08-20T13:18:23Z</time>
      </trkpt>
      <trkpt lat="46.60378" lon="5.5123">
        <ele>493</ele>
        <time>2022-08-20T13:18:25Z</time>
      </trkpt>
      <trkpt lat="46.60375" lon="5.51228">
        <ele>493.2</ele>
        <time>2022-08-20T13:18:27Z</time>
      </trkpt>
      <trkpt lat="46.60372" lon="5.51226">
        <ele>493.4</ele>
        <time>2022-08-20T13:18:29Z</time>
      </trkpt>
      <trkpt lat="46.60369" lon="5.51225">
        <ele>493.6</ele>
        <time>2022-08-20T13:18:30Z</time>
      </trkpt>
      <trkpt lat="46.60367" lon="5.51224">
        <ele>493.6</ele>
        <time>2022-08-20T13:18:31Z</time>
      </trkpt>
      <trkpt lat="46.60363" lon="5.51223">
        <ele>493.8</ele>
        <time>2022-08-20T13:18:33Z</time>
      </trkpt>
      <trkpt lat="46.60361" lon="5.51222">
        <ele>493.8</ele>
        <time>2022-08-20T13:18:34Z</time>
      </trkpt>
      <trkpt lat="46.60358" lon="5.5122">
        <ele>494</ele>
        <time>2022-08-20T13:18:36Z</time>
      </trkpt>
      <trkpt lat="46.60356" lon="5.51218">
        <ele>494.2</ele>
        <time>2022-08-20T13:18:38Z</time>
      </trkpt>
      <trkpt lat="46.60352" lon="5.51216">
        <ele>494.4</ele>
        <time>2022-08-20T13:18:40Z</time>
      </trkpt>
      <trkpt lat="46.6035" lon="5.51214">
        <ele>494.4</ele>
        <time>2022-08-20T13:18:42Z</time>
      </trkpt>
      <trkpt lat="46.60347" lon="5.51212">
        <ele>494.6</ele>
        <time>2022-08-20T13:18:44Z</time>
      </trkpt>
      <trkpt lat="46.60345" lon="5.51209">
        <ele>494.6</ele>
        <time>2022-08-20T13:18:46Z</time>
      </trkpt>
      <trkpt lat="46.60343" lon="5.51208">
        <ele>494.6</ele>
        <time>2022-08-20T13:18:47Z</time>
      </trkpt>
      <trkpt lat="46.60341" lon="5.51206">
        <ele>494.8</ele>
        <time>2022-08-20T13:18:48Z</time>
      </trkpt>
      <trkpt lat="46.60337" lon="5.51203">
        <ele>495</ele>
        <time>2022-08-20T13:18:50Z</time>
      </trkpt>
      <trkpt lat="46.60336" lon="5.51202">
        <ele>495.2</ele>
        <time>2022-08-20T13:18:51Z</time>
      </trkpt>
      <trkpt lat="46.60334" lon="5.512">
        <ele>495.4</ele>
        <time>2022-08-20T13:18:52Z</time>
      </trkpt>
      <trkpt lat="46.60331" lon="5.51198">
        <ele>495.6</ele>
        <time>2022-08-20T13:18:53Z</time>
      </trkpt>
      <trkpt lat="46.60329" lon="5.51195">
        <ele>495.8</ele>
        <time>2022-08-20T13:18:54Z</time>
      </trkpt>
      <trkpt lat="46.60326" lon="5.51193">
        <ele>495.8</ele>
        <time>2022-08-20T13:18:55Z</time>
      </trkpt>
      <trkpt lat="46.60323" lon="5.51192">
        <ele>496</ele>
        <time>2022-08-20T13:18:56Z</time>
      </trkpt>
      <trkpt lat="46.60321" lon="5.51191">
        <ele>496</ele>
        <time>2022-08-20T13:18:57Z</time>
      </trkpt>
      <trkpt lat="46.60318" lon="5.51189">
        <ele>496.2</ele>
        <time>2022-08-20T13:18:58Z</time>
      </trkpt>
      <trkpt lat="46.60314" lon="5.51188">
        <ele>496.2</ele>
        <time>2022-08-20T13:18:59Z</time>
      </trkpt>
      <trkpt lat="46.60311" lon="5.51186">
        <ele>496.4</ele>
        <time>2022-08-20T13:19:00Z</time>
      </trkpt>
      <trkpt lat="46.60308" lon="5.51184">
        <ele>496.6</ele>
        <time>2022-08-20T13:19:01Z</time>
      </trkpt>
      <trkpt lat="46.60304" lon="5.51183">
        <ele>496.6</ele>
        <time>2022-08-20T13:19:02Z</time>
      </trkpt>
      <trkpt lat="46.60301" lon="5.51181">
        <ele>496.6</ele>
        <time>2022-08-20T13:19:03Z</time>
      </trkpt>
      <trkpt lat="46.60298" lon="5.5118">
        <ele>496.8</ele>
        <time>2022-08-20T13:19:04Z</time>
      </trkpt>
      <trkpt lat="46.60295" lon="5.51178">
        <ele>496.8</ele>
        <time>2022-08-20T13:19:05Z</time>
      </trkpt>
      <trkpt lat="46.60292" lon="5.51176">
        <ele>496.8</ele>
        <time>2022-08-20T13:19:06Z</time>
      </trkpt>
      <trkpt lat="46.60289" lon="5.51174">
        <ele>496.8</ele>
        <time>2022-08-20T13:19:07Z</time>
      </trkpt>
      <trkpt lat="46.60286" lon="5.51173">
        <ele>496.8</ele>
        <time>2022-08-20T13:19:08Z</time>
      </trkpt>
      <trkpt lat="46.60283" lon="5.51172">
        <ele>496.6</ele>
        <time>2022-08-20T13:19:09Z</time>
      </trkpt>
      <trkpt lat="46.6028" lon="5.51171">
        <ele>496.6</ele>
        <time>2022-08-20T13:19:10Z</time>
      </trkpt>
      <trkpt lat="46.60277" lon="5.51169">
        <ele>496.6</ele>
        <time>2022-08-20T13:19:11Z</time>
      </trkpt>
      <trkpt lat="46.60275" lon="5.51168">
        <ele>496.6</ele>
        <time>2022-08-20T13:19:12Z</time>
      </trkpt>
      <trkpt lat="46.60273" lon="5.51165">
        <ele>496.6</ele>
        <time>2022-08-20T13:19:13Z</time>
      </trkpt>
      <trkpt lat="46.6027" lon="5.51163">
        <ele>496.4</ele>
        <time>2022-08-20T13:19:14Z</time>
      </trkpt>
      <trkpt lat="46.60268" lon="5.51161">
        <ele>496.4</ele>
        <time>2022-08-20T13:19:15Z</time>
      </trkpt>
      <trkpt lat="46.60264" lon="5.51159">
        <ele>496.4</ele>
        <time>2022-08-20T13:19:16Z</time>
      </trkpt>
      <trkpt lat="46.60261" lon="5.51158">
        <ele>496.4</ele>
        <time>2022-08-20T13:19:17Z</time>
      </trkpt>
      <trkpt lat="46.60259" lon="5.51156">
        <ele>496.2</ele>
        <time>2022-08-20T13:19:18Z</time>
      </trkpt>
      <trkpt lat="46.60256" lon="5.51155">
        <ele>496.2</ele>
        <time>2022-08-20T13:19:19Z</time>
      </trkpt>
      <trkpt lat="46.60253" lon="5.51153">
        <ele>496</ele>
        <time>2022-08-20T13:19:20Z</time>
      </trkpt>
      <trkpt lat="46.60251" lon="5.51152">
        <ele>496</ele>
        <time>2022-08-20T13:19:21Z</time>
      </trkpt>
      <trkpt lat="46.60248" lon="5.51151">
        <ele>495.8</ele>
        <time>2022-08-20T13:19:22Z</time>
      </trkpt>
      <trkpt lat="46.60245" lon="5.5115">
        <ele>495.8</ele>
        <time>2022-08-20T13:19:23Z</time>
      </trkpt>
      <trkpt lat="46.60243" lon="5.51149">
        <ele>495.8</ele>
        <time>2022-08-20T13:19:24Z</time>
      </trkpt>
      <trkpt lat="46.6024" lon="5.51148">
        <ele>495.8</ele>
        <time>2022-08-20T13:19:25Z</time>
      </trkpt>
      <trkpt lat="46.60237" lon="5.51147">
        <ele>495.8</ele>
        <time>2022-08-20T13:19:26Z</time>
      </trkpt>
      <trkpt lat="46.60235" lon="5.51146">
        <ele>495.8</ele>
        <time>2022-08-20T13:19:27Z</time>
      </trkpt>
      <trkpt lat="46.60232" lon="5.51146">
        <ele>495.6</ele>
        <time>2022-08-20T13:19:28Z</time>
      </trkpt>
      <trkpt lat="46.6023" lon="5.51145">
        <ele>495.6</ele>
        <time>2022-08-20T13:19:29Z</time>
      </trkpt>
      <trkpt lat="46.60228" lon="5.51144">
        <ele>495.6</ele>
        <time>2022-08-20T13:19:30Z</time>
      </trkpt>
      <trkpt lat="46.60225" lon="5.51144">
        <ele>495.6</ele>
        <time>2022-08-20T13:19:31Z</time>
      </trkpt>
      <trkpt lat="46.60223" lon="5.51143">
        <ele>495.6</ele>
        <time>2022-08-20T13:19:32Z</time>
      </trkpt>
      <trkpt lat="46.60221" lon="5.51143">
        <ele>495.4</ele>
        <time>2022-08-20T13:19:33Z</time>
      </trkpt>
      <trkpt lat="46.60219" lon="5.51142">
        <ele>495.4</ele>
        <time>2022-08-20T13:19:34Z</time>
      </trkpt>
      <trkpt lat="46.60217" lon="5.51142">
        <ele>495.4</ele>
        <time>2022-08-20T13:19:35Z</time>
      </trkpt>
      <trkpt lat="46.60214" lon="5.51142">
        <ele>495.2</ele>
        <time>2022-08-20T13:19:36Z</time>
      </trkpt>
      <trkpt lat="46.60212" lon="5.51141">
        <ele>495.2</ele>
        <time>2022-08-20T13:19:37Z</time>
      </trkpt>
      <trkpt lat="46.60209" lon="5.5114">
        <ele>495.2</ele>
        <time>2022-08-20T13:19:38Z</time>
      </trkpt>
      <trkpt lat="46.60207" lon="5.5114">
        <ele>495.2</ele>
        <time>2022-08-20T13:19:39Z</time>
      </trkpt>
      <trkpt lat="46.60204" lon="5.51139">
        <ele>495.2</ele>
        <time>2022-08-20T13:19:40Z</time>
      </trkpt>
      <trkpt lat="46.60202" lon="5.51139">
        <ele>495.2</ele>
        <time>2022-08-20T13:19:41Z</time>
      </trkpt>
      <trkpt lat="46.602" lon="5.51138">
        <ele>495.2</ele>
        <time>2022-08-20T13:19:42Z</time>
      </trkpt>
      <trkpt lat="46.60197" lon="5.51137">
        <ele>495.2</ele>
        <time>2022-08-20T13:19:43Z</time>
      </trkpt>
      <trkpt lat="46.60195" lon="5.51136">
        <ele>495.2</ele>
        <time>2022-08-20T13:19:44Z</time>
      </trkpt>
      <trkpt lat="46.60193" lon="5.51135">
        <ele>495.4</ele>
        <time>2022-08-20T13:19:45Z</time>
      </trkpt>
      <trkpt lat="46.60191" lon="5.51134">
        <ele>495.4</ele>
        <time>2022-08-20T13:19:47Z</time>
      </trkpt>
      <trkpt lat="46.6019" lon="5.51131">
        <ele>495.6</ele>
        <time>2022-08-20T13:19:50Z</time>
      </trkpt>
      <trkpt lat="46.60189" lon="5.51129">
        <ele>495.8</ele>
        <time>2022-08-20T13:19:52Z</time>
      </trkpt>
      <trkpt lat="46.60186" lon="5.51128">
        <ele>496</ele>
        <time>2022-08-20T13:19:54Z</time>
      </trkpt>
      <trkpt lat="46.60184" lon="5.51126">
        <ele>496.2</ele>
        <time>2022-08-20T13:19:56Z</time>
      </trkpt>
      <trkpt lat="46.60182" lon="5.51125">
        <ele>496.4</ele>
        <time>2022-08-20T13:19:59Z</time>
      </trkpt>
      <trkpt lat="46.6018" lon="5.51123">
        <ele>496.6</ele>
        <time>2022-08-20T13:20:01Z</time>
      </trkpt>
      <trkpt lat="46.60177" lon="5.51122">
        <ele>496.8</ele>
        <time>2022-08-20T13:20:03Z</time>
      </trkpt>
      <trkpt lat="46.60175" lon="5.5112">
        <ele>496.8</ele>
        <time>2022-08-20T13:20:04Z</time>
      </trkpt>
      <trkpt lat="46.60172" lon="5.51119">
        <ele>497</ele>
        <time>2022-08-20T13:20:06Z</time>
      </trkpt>
      <trkpt lat="46.6017" lon="5.51118">
        <ele>497.2</ele>
        <time>2022-08-20T13:20:07Z</time>
      </trkpt>
      <trkpt lat="46.60168" lon="5.51116">
        <ele>497.2</ele>
        <time>2022-08-20T13:20:09Z</time>
      </trkpt>
      <trkpt lat="46.60165" lon="5.51115">
        <ele>497.4</ele>
        <time>2022-08-20T13:20:11Z</time>
      </trkpt>
      <trkpt lat="46.60164" lon="5.51114">
        <ele>497.4</ele>
        <time>2022-08-20T13:20:12Z</time>
      </trkpt>
      <trkpt lat="46.60161" lon="5.51114">
        <ele>497.4</ele>
        <time>2022-08-20T13:20:14Z</time>
      </trkpt>
      <trkpt lat="46.60158" lon="5.51114">
        <ele>497.4</ele>
        <time>2022-08-20T13:20:16Z</time>
      </trkpt>
      <trkpt lat="46.60156" lon="5.51114">
        <ele>497.6</ele>
        <time>2022-08-20T13:20:18Z</time>
      </trkpt>
      <trkpt lat="46.60153" lon="5.51114">
        <ele>497.8</ele>
        <time>2022-08-20T13:20:21Z</time>
      </trkpt>
      <trkpt lat="46.6015" lon="5.51114">
        <ele>497.8</ele>
        <time>2022-08-20T13:20:23Z</time>
      </trkpt>
      <trkpt lat="46.60148" lon="5.51114">
        <ele>498</ele>
        <time>2022-08-20T13:20:25Z</time>
      </trkpt>
      <trkpt lat="46.60146" lon="5.51114">
        <ele>498</ele>
        <time>2022-08-20T13:20:26Z</time>
      </trkpt>
      <trkpt lat="46.60143" lon="5.51115">
        <ele>498</ele>
        <time>2022-08-20T13:20:28Z</time>
      </trkpt>
      <trkpt lat="46.6014" lon="5.51114">
        <ele>498</ele>
        <time>2022-08-20T13:20:30Z</time>
      </trkpt>
      <trkpt lat="46.60138" lon="5.51112">
        <ele>498</ele>
        <time>2022-08-20T13:20:32Z</time>
      </trkpt>
      <trkpt lat="46.60135" lon="5.51111">
        <ele>498</ele>
        <time>2022-08-20T13:20:34Z</time>
      </trkpt>
      <trkpt lat="46.60133" lon="5.5111">
        <ele>498.2</ele>
        <time>2022-08-20T13:20:36Z</time>
      </trkpt>
      <trkpt lat="46.6013" lon="5.51109">
        <ele>498.2</ele>
        <time>2022-08-20T13:20:38Z</time>
      </trkpt>
      <trkpt lat="46.60128" lon="5.51108">
        <ele>498.4</ele>
        <time>2022-08-20T13:20:40Z</time>
      </trkpt>
      <trkpt lat="46.60126" lon="5.51107">
        <ele>498.6</ele>
        <time>2022-08-20T13:20:42Z</time>
      </trkpt>
      <trkpt lat="46.60124" lon="5.51106">
        <ele>499</ele>
        <time>2022-08-20T13:20:44Z</time>
      </trkpt>
      <trkpt lat="46.6012" lon="5.51105">
        <ele>499.2</ele>
        <time>2022-08-20T13:20:46Z</time>
      </trkpt>
      <trkpt lat="46.60117" lon="5.51106">
        <ele>499.4</ele>
        <time>2022-08-20T13:20:48Z</time>
      </trkpt>
      <trkpt lat="46.60116" lon="5.51107">
        <ele>499.6</ele>
        <time>2022-08-20T13:20:50Z</time>
      </trkpt>
      <trkpt lat="46.60114" lon="5.51107">
        <ele>500</ele>
        <time>2022-08-20T13:20:52Z</time>
      </trkpt>
      <trkpt lat="46.60111" lon="5.51108">
        <ele>500.4</ele>
        <time>2022-08-20T13:20:54Z</time>
      </trkpt>
      <trkpt lat="46.60109" lon="5.51108">
        <ele>500.8</ele>
        <time>2022-08-20T13:20:56Z</time>
      </trkpt>
      <trkpt lat="46.60106" lon="5.51109">
        <ele>501.2</ele>
        <time>2022-08-20T13:20:58Z</time>
      </trkpt>
      <trkpt lat="46.60103" lon="5.51109">
        <ele>501.4</ele>
        <time>2022-08-20T13:21:00Z</time>
      </trkpt>
      <trkpt lat="46.60101" lon="5.51109">
        <ele>501.8</ele>
        <time>2022-08-20T13:21:02Z</time>
      </trkpt>
      <trkpt lat="46.60099" lon="5.51109">
        <ele>502</ele>
        <time>2022-08-20T13:21:04Z</time>
      </trkpt>
      <trkpt lat="46.60096" lon="5.51111">
        <ele>502.2</ele>
        <time>2022-08-20T13:21:06Z</time>
      </trkpt>
      <trkpt lat="46.60094" lon="5.51115">
        <ele>502.6</ele>
        <time>2022-08-20T13:21:08Z</time>
      </trkpt>
      <trkpt lat="46.60093" lon="5.51117">
        <ele>502.8</ele>
        <time>2022-08-20T13:21:10Z</time>
      </trkpt>
      <trkpt lat="46.6009" lon="5.51116">
        <ele>503</ele>
        <time>2022-08-20T13:21:12Z</time>
      </trkpt>
      <trkpt lat="46.60087" lon="5.51115">
        <ele>503.4</ele>
        <time>2022-08-20T13:21:14Z</time>
      </trkpt>
      <trkpt lat="46.60084" lon="5.51114">
        <ele>503.8</ele>
        <time>2022-08-20T13:21:16Z</time>
      </trkpt>
      <trkpt lat="46.60082" lon="5.51113">
        <ele>504</ele>
        <time>2022-08-20T13:21:17Z</time>
      </trkpt>
      <trkpt lat="46.60079" lon="5.51112">
        <ele>504.4</ele>
        <time>2022-08-20T13:21:19Z</time>
      </trkpt>
      <trkpt lat="46.60076" lon="5.51111">
        <ele>504.8</ele>
        <time>2022-08-20T13:21:21Z</time>
      </trkpt>
      <trkpt lat="46.60074" lon="5.51109">
        <ele>505</ele>
        <time>2022-08-20T13:21:23Z</time>
      </trkpt>
      <trkpt lat="46.60071" lon="5.51109">
        <ele>505.4</ele>
        <time>2022-08-20T13:21:25Z</time>
      </trkpt>
      <trkpt lat="46.60069" lon="5.51109">
        <ele>505.8</ele>
        <time>2022-08-20T13:21:27Z</time>
      </trkpt>
      <trkpt lat="46.60067" lon="5.51109">
        <ele>506.2</ele>
        <time>2022-08-20T13:21:29Z</time>
      </trkpt>
      <trkpt lat="46.60064" lon="5.51109">
        <ele>506.6</ele>
        <time>2022-08-20T13:21:31Z</time>
      </trkpt>
      <trkpt lat="46.60062" lon="5.5111">
        <ele>506.8</ele>
        <time>2022-08-20T13:21:33Z</time>
      </trkpt>
      <trkpt lat="46.60059" lon="5.51109">
        <ele>507.2</ele>
        <time>2022-08-20T13:21:35Z</time>
      </trkpt>
      <trkpt lat="46.60057" lon="5.51109">
        <ele>507.6</ele>
        <time>2022-08-20T13:21:38Z</time>
      </trkpt>
      <trkpt lat="46.60055" lon="5.51109">
        <ele>507.8</ele>
        <time>2022-08-20T13:21:39Z</time>
      </trkpt>
      <trkpt lat="46.60053" lon="5.51107">
        <ele>507.8</ele>
        <time>2022-08-20T13:21:40Z</time>
      </trkpt>
      <trkpt lat="46.60051" lon="5.51106">
        <ele>508.2</ele>
        <time>2022-08-20T13:21:42Z</time>
      </trkpt>
      <trkpt lat="46.60049" lon="5.51106">
        <ele>508.4</ele>
        <time>2022-08-20T13:21:44Z</time>
      </trkpt>
      <trkpt lat="46.60047" lon="5.51106">
        <ele>508.8</ele>
        <time>2022-08-20T13:21:46Z</time>
      </trkpt>
      <trkpt lat="46.60046" lon="5.51108">
        <ele>509.4</ele>
        <time>2022-08-20T13:21:49Z</time>
      </trkpt>
      <trkpt lat="46.60045" lon="5.51111">
        <ele>510</ele>
        <time>2022-08-20T13:21:52Z</time>
      </trkpt>
      <trkpt lat="46.60043" lon="5.51112">
        <ele>511.4</ele>
        <time>2022-08-20T13:21:58Z</time>
      </trkpt>
      <trkpt lat="46.60045" lon="5.51111">
        <ele>523.2</ele>
        <time>2022-08-20T13:22:32Z</time>
      </trkpt>
      <trkpt lat="46.60046" lon="5.51111">
        <ele>523.4</ele>
        <time>2022-08-20T13:22:33Z</time>
      </trkpt>
      <trkpt lat="46.60049" lon="5.51111">
        <ele>523.6</ele>
        <time>2022-08-20T13:22:35Z</time>
      </trkpt>
      <trkpt lat="46.60052" lon="5.51111">
        <ele>523.8</ele>
        <time>2022-08-20T13:22:37Z</time>
      </trkpt>
      <trkpt lat="46.60054" lon="5.51111">
        <ele>524</ele>
        <time>2022-08-20T13:22:39Z</time>
      </trkpt>
      <trkpt lat="46.60052" lon="5.51109">
        <ele>519.2</ele>
        <time>2022-08-20T13:23:19Z</time>
      </trkpt>
      <trkpt lat="46.60049" lon="5.51107">
        <ele>519</ele>
        <time>2022-08-20T13:23:22Z</time>
      </trkpt>
      <trkpt lat="46.60047" lon="5.51106">
        <ele>518.8</ele>
        <time>2022-08-20T13:23:24Z</time>
      </trkpt>
      <trkpt lat="46.60046" lon="5.51104">
        <ele>518.8</ele>
        <time>2022-08-20T13:23:26Z</time>
      </trkpt>
      <trkpt lat="46.60046" lon="5.51101">
        <ele>518.6</ele>
        <time>2022-08-20T13:23:29Z</time>
      </trkpt>
      <trkpt lat="46.60048" lon="5.51101">
        <ele>518.4</ele>
        <time>2022-08-20T13:23:32Z</time>
      </trkpt>
      <trkpt lat="46.60051" lon="5.51101">
        <ele>518.4</ele>
        <time>2022-08-20T13:23:34Z</time>
      </trkpt>
      <trkpt lat="46.60053" lon="5.51101">
        <ele>518.4</ele>
        <time>2022-08-20T13:23:35Z</time>
      </trkpt>
      <trkpt lat="46.60056" lon="5.51103">
        <ele>518.2</ele>
        <time>2022-08-20T13:23:37Z</time>
      </trkpt>
      <trkpt lat="46.60058" lon="5.51103">
        <ele>518</ele>
        <time>2022-08-20T13:23:38Z</time>
      </trkpt>
      <trkpt lat="46.60061" lon="5.51104">
        <ele>517.8</ele>
        <time>2022-08-20T13:23:40Z</time>
      </trkpt>
      <trkpt lat="46.60064" lon="5.51104">
        <ele>517.6</ele>
        <time>2022-08-20T13:23:42Z</time>
      </trkpt>
      <trkpt lat="46.60066" lon="5.51104">
        <ele>517.4</ele>
        <time>2022-08-20T13:23:43Z</time>
      </trkpt>
      <trkpt lat="46.60068" lon="5.51104">
        <ele>517.4</ele>
        <time>2022-08-20T13:23:44Z</time>
      </trkpt>
      <trkpt lat="46.6007" lon="5.51104">
        <ele>517.2</ele>
        <time>2022-08-20T13:23:45Z</time>
      </trkpt>
      <trkpt lat="46.60073" lon="5.51104">
        <ele>517.2</ele>
        <time>2022-08-20T13:23:46Z</time>
      </trkpt>
      <trkpt lat="46.60076" lon="5.51104">
        <ele>517.2</ele>
        <time>2022-08-20T13:23:47Z</time>
      </trkpt>
      <trkpt lat="46.60079" lon="5.51104">
        <ele>517</ele>
        <time>2022-08-20T13:23:48Z</time>
      </trkpt>
      <trkpt lat="46.60081" lon="5.51106">
        <ele>516.8</ele>
        <time>2022-08-20T13:23:49Z</time>
      </trkpt>
      <trkpt lat="46.60084" lon="5.51108">
        <ele>516.6</ele>
        <time>2022-08-20T13:23:50Z</time>
      </trkpt>
      <trkpt lat="46.60086" lon="5.51109">
        <ele>516.6</ele>
        <time>2022-08-20T13:23:51Z</time>
      </trkpt>
      <trkpt lat="46.60089" lon="5.51111">
        <ele>516.4</ele>
        <time>2022-08-20T13:23:52Z</time>
      </trkpt>
      <trkpt lat="46.60092" lon="5.51113">
        <ele>516.2</ele>
        <time>2022-08-20T13:23:53Z</time>
      </trkpt>
      <trkpt lat="46.60094" lon="5.51114">
        <ele>516.2</ele>
        <time>2022-08-20T13:23:54Z</time>
      </trkpt>
      <trkpt lat="46.60097" lon="5.51115">
        <ele>516</ele>
        <time>2022-08-20T13:23:55Z</time>
      </trkpt>
      <trkpt lat="46.601" lon="5.51115">
        <ele>516</ele>
        <time>2022-08-20T13:23:56Z</time>
      </trkpt>
      <trkpt lat="46.60102" lon="5.51117">
        <ele>516</ele>
        <time>2022-08-20T13:23:57Z</time>
      </trkpt>
      <trkpt lat="46.60104" lon="5.51119">
        <ele>515.8</ele>
        <time>2022-08-20T13:23:58Z</time>
      </trkpt>
      <trkpt lat="46.60106" lon="5.51121">
        <ele>515.8</ele>
        <time>2022-08-20T13:23:59Z</time>
      </trkpt>
      <trkpt lat="46.60107" lon="5.51124">
        <ele>515.8</ele>
        <time>2022-08-20T13:24:00Z</time>
      </trkpt>
      <trkpt lat="46.60109" lon="5.51126">
        <ele>515.6</ele>
        <time>2022-08-20T13:24:01Z</time>
      </trkpt>
      <trkpt lat="46.6011" lon="5.51129">
        <ele>515.4</ele>
        <time>2022-08-20T13:24:03Z</time>
      </trkpt>
      <trkpt lat="46.60113" lon="5.51129">
        <ele>515.2</ele>
        <time>2022-08-20T13:24:05Z</time>
      </trkpt>
      <trkpt lat="46.60115" lon="5.51128">
        <ele>514.8</ele>
        <time>2022-08-20T13:24:09Z</time>
      </trkpt>
      <trkpt lat="46.60117" lon="5.51128">
        <ele>514.6</ele>
        <time>2022-08-20T13:24:12Z</time>
      </trkpt>
      <trkpt lat="46.60119" lon="5.51125">
        <ele>514.4</ele>
        <time>2022-08-20T13:24:14Z</time>
      </trkpt>
      <trkpt lat="46.60122" lon="5.51124">
        <ele>514.4</ele>
        <time>2022-08-20T13:24:16Z</time>
      </trkpt>
      <trkpt lat="46.60125" lon="5.51126">
        <ele>514.2</ele>
        <time>2022-08-20T13:24:18Z</time>
      </trkpt>
      <trkpt lat="46.60125" lon="5.5113">
        <ele>513.8</ele>
        <time>2022-08-20T13:24:21Z</time>
      </trkpt>
      <trkpt lat="46.60125" lon="5.51135">
        <ele>513.8</ele>
        <time>2022-08-20T13:24:23Z</time>
      </trkpt>
      <trkpt lat="46.60125" lon="5.51138">
        <ele>513.6</ele>
        <time>2022-08-20T13:24:24Z</time>
      </trkpt>
      <trkpt lat="46.60125" lon="5.51141">
        <ele>513.6</ele>
        <time>2022-08-20T13:24:25Z</time>
      </trkpt>
      <trkpt lat="46.60124" lon="5.51144">
        <ele>513.4</ele>
        <time>2022-08-20T13:24:26Z</time>
      </trkpt>
      <trkpt lat="46.60123" lon="5.51147">
        <ele>513.2</ele>
        <time>2022-08-20T13:24:27Z</time>
      </trkpt>
      <trkpt lat="46.60122" lon="5.5115">
        <ele>513</ele>
        <time>2022-08-20T13:24:28Z</time>
      </trkpt>
      <trkpt lat="46.60122" lon="5.51153">
        <ele>512.8</ele>
        <time>2022-08-20T13:24:29Z</time>
      </trkpt>
      <trkpt lat="46.60121" lon="5.51156">
        <ele>512.6</ele>
        <time>2022-08-20T13:24:30Z</time>
      </trkpt>
      <trkpt lat="46.6012" lon="5.51159">
        <ele>512.4</ele>
        <time>2022-08-20T13:24:31Z</time>
      </trkpt>
      <trkpt lat="46.60118" lon="5.51162">
        <ele>512</ele>
        <time>2022-08-20T13:24:32Z</time>
      </trkpt>
      <trkpt lat="46.60117" lon="5.51164">
        <ele>511.8</ele>
        <time>2022-08-20T13:24:33Z</time>
      </trkpt>
      <trkpt lat="46.60116" lon="5.51167">
        <ele>511.4</ele>
        <time>2022-08-20T13:24:34Z</time>
      </trkpt>
      <trkpt lat="46.60114" lon="5.51169">
        <ele>511.2</ele>
        <time>2022-08-20T13:24:35Z</time>
      </trkpt>
      <trkpt lat="46.60112" lon="5.51171">
        <ele>510.8</ele>
        <time>2022-08-20T13:24:36Z</time>
      </trkpt>
      <trkpt lat="46.6011" lon="5.51172">
        <ele>510.6</ele>
        <time>2022-08-20T13:24:37Z</time>
      </trkpt>
      <trkpt lat="46.60108" lon="5.51174">
        <ele>510.2</ele>
        <time>2022-08-20T13:24:38Z</time>
      </trkpt>
      <trkpt lat="46.60106" lon="5.51175">
        <ele>510</ele>
        <time>2022-08-20T13:24:39Z</time>
      </trkpt>
      <trkpt lat="46.60104" lon="5.51177">
        <ele>509.8</ele>
        <time>2022-08-20T13:24:40Z</time>
      </trkpt>
      <trkpt lat="46.60101" lon="5.51178">
        <ele>509.2</ele>
        <time>2022-08-20T13:24:42Z</time>
      </trkpt>
      <trkpt lat="46.60099" lon="5.51179">
        <ele>508.8</ele>
        <time>2022-08-20T13:24:43Z</time>
      </trkpt>
      <trkpt lat="46.60096" lon="5.51181">
        <ele>508.6</ele>
        <time>2022-08-20T13:24:44Z</time>
      </trkpt>
      <trkpt lat="46.60094" lon="5.51181">
        <ele>508</ele>
        <time>2022-08-20T13:24:46Z</time>
      </trkpt>
      <trkpt lat="46.60092" lon="5.51183">
        <ele>507.6</ele>
        <time>2022-08-20T13:24:49Z</time>
      </trkpt>
      <trkpt lat="46.60091" lon="5.51186">
        <ele>507.2</ele>
        <time>2022-08-20T13:24:51Z</time>
      </trkpt>
      <trkpt lat="46.60093" lon="5.51187">
        <ele>506.8</ele>
        <time>2022-08-20T13:24:53Z</time>
      </trkpt>
      <trkpt lat="46.60094" lon="5.51188">
        <ele>505.6</ele>
        <time>2022-08-20T13:24:58Z</time>
      </trkpt>
      <trkpt lat="46.60093" lon="5.51192">
        <ele>505.2</ele>
        <time>2022-08-20T13:25:00Z</time>
      </trkpt>
      <trkpt lat="46.60091" lon="5.51194">
        <ele>504.8</ele>
        <time>2022-08-20T13:25:02Z</time>
      </trkpt>
      <trkpt lat="46.60088" lon="5.51196">
        <ele>504.2</ele>
        <time>2022-08-20T13:25:04Z</time>
      </trkpt>
      <trkpt lat="46.60085" lon="5.51197">
        <ele>503.6</ele>
        <time>2022-08-20T13:25:06Z</time>
      </trkpt>
      <trkpt lat="46.60081" lon="5.51199">
        <ele>503.2</ele>
        <time>2022-08-20T13:25:08Z</time>
      </trkpt>
      <trkpt lat="46.6008" lon="5.51199">
        <ele>503</ele>
        <time>2022-08-20T13:25:09Z</time>
      </trkpt>
      <trkpt lat="46.60077" lon="5.512">
        <ele>503</ele>
        <time>2022-08-20T13:25:10Z</time>
      </trkpt>
      <trkpt lat="46.60075" lon="5.512">
        <ele>502.8</ele>
        <time>2022-08-20T13:25:11Z</time>
      </trkpt>
      <trkpt lat="46.60072" lon="5.51201">
        <ele>502.6</ele>
        <time>2022-08-20T13:25:12Z</time>
      </trkpt>
      <trkpt lat="46.60069" lon="5.51202">
        <ele>502.4</ele>
        <time>2022-08-20T13:25:13Z</time>
      </trkpt>
      <trkpt lat="46.60066" lon="5.51203">
        <ele>502.2</ele>
        <time>2022-08-20T13:25:14Z</time>
      </trkpt>
      <trkpt lat="46.60062" lon="5.51205">
        <ele>502</ele>
        <time>2022-08-20T13:25:15Z</time>
      </trkpt>
      <trkpt lat="46.60059" lon="5.51206">
        <ele>501.8</ele>
        <time>2022-08-20T13:25:16Z</time>
      </trkpt>
      <trkpt lat="46.60056" lon="5.51208">
        <ele>501.6</ele>
        <time>2022-08-20T13:25:17Z</time>
      </trkpt>
      <trkpt lat="46.60053" lon="5.51208">
        <ele>501.4</ele>
        <time>2022-08-20T13:25:18Z</time>
      </trkpt>
      <trkpt lat="46.6005" lon="5.51209">
        <ele>501.2</ele>
        <time>2022-08-20T13:25:19Z</time>
      </trkpt>
      <trkpt lat="46.60047" lon="5.51209">
        <ele>501</ele>
        <time>2022-08-20T13:25:20Z</time>
      </trkpt>
      <trkpt lat="46.60045" lon="5.5121">
        <ele>500.8</ele>
        <time>2022-08-20T13:25:21Z</time>
      </trkpt>
      <trkpt lat="46.60042" lon="5.5121">
        <ele>500.6</ele>
        <time>2022-08-20T13:25:22Z</time>
      </trkpt>
      <trkpt lat="46.60039" lon="5.51211">
        <ele>500.4</ele>
        <time>2022-08-20T13:25:23Z</time>
      </trkpt>
      <trkpt lat="46.60037" lon="5.51211">
        <ele>500.2</ele>
        <time>2022-08-20T13:25:24Z</time>
      </trkpt>
      <trkpt lat="46.60035" lon="5.51212">
        <ele>500</ele>
        <time>2022-08-20T13:25:25Z</time>
      </trkpt>
      <trkpt lat="46.60033" lon="5.51215">
        <ele>499.6</ele>
        <time>2022-08-20T13:25:26Z</time>
      </trkpt>
      <trkpt lat="46.60032" lon="5.51217">
        <ele>499.4</ele>
        <time>2022-08-20T13:25:27Z</time>
      </trkpt>
      <trkpt lat="46.60031" lon="5.5122">
        <ele>499.2</ele>
        <time>2022-08-20T13:25:28Z</time>
      </trkpt>
      <trkpt lat="46.6003" lon="5.51224">
        <ele>499</ele>
        <time>2022-08-20T13:25:29Z</time>
      </trkpt>
      <trkpt lat="46.60029" lon="5.51227">
        <ele>498.8</ele>
        <time>2022-08-20T13:25:30Z</time>
      </trkpt>
      <trkpt lat="46.60028" lon="5.51231">
        <ele>498.6</ele>
        <time>2022-08-20T13:25:31Z</time>
      </trkpt>
      <trkpt lat="46.60026" lon="5.51234">
        <ele>498.2</ele>
        <time>2022-08-20T13:25:32Z</time>
      </trkpt>
      <trkpt lat="46.60023" lon="5.51236">
        <ele>498</ele>
        <time>2022-08-20T13:25:33Z</time>
      </trkpt>
      <trkpt lat="46.60021" lon="5.51238">
        <ele>497.8</ele>
        <time>2022-08-20T13:25:34Z</time>
      </trkpt>
      <trkpt lat="46.60019" lon="5.5124">
        <ele>497.6</ele>
        <time>2022-08-20T13:25:35Z</time>
      </trkpt>
      <trkpt lat="46.60017" lon="5.51243">
        <ele>497.4</ele>
        <time>2022-08-20T13:25:36Z</time>
      </trkpt>
      <trkpt lat="46.60016" lon="5.51247">
        <ele>497</ele>
        <time>2022-08-20T13:25:37Z</time>
      </trkpt>
      <trkpt lat="46.60014" lon="5.5125">
        <ele>496.8</ele>
        <time>2022-08-20T13:25:38Z</time>
      </trkpt>
      <trkpt lat="46.60013" lon="5.51254">
        <ele>496.6</ele>
        <time>2022-08-20T13:25:39Z</time>
      </trkpt>
      <trkpt lat="46.6001" lon="5.51256">
        <ele>496.2</ele>
        <time>2022-08-20T13:25:40Z</time>
      </trkpt>
      <trkpt lat="46.60007" lon="5.51258">
        <ele>496</ele>
        <time>2022-08-20T13:25:41Z</time>
      </trkpt>
      <trkpt lat="46.60005" lon="5.51259">
        <ele>495.8</ele>
        <time>2022-08-20T13:25:42Z</time>
      </trkpt>
      <trkpt lat="46.60002" lon="5.51261">
        <ele>495.4</ele>
        <time>2022-08-20T13:25:43Z</time>
      </trkpt>
      <trkpt lat="46.59999" lon="5.51262">
        <ele>495.2</ele>
        <time>2022-08-20T13:25:44Z</time>
      </trkpt>
      <trkpt lat="46.59997" lon="5.51263">
        <ele>494.8</ele>
        <time>2022-08-20T13:25:45Z</time>
      </trkpt>
      <trkpt lat="46.59993" lon="5.51265">
        <ele>494.6</ele>
        <time>2022-08-20T13:25:46Z</time>
      </trkpt>
      <trkpt lat="46.59991" lon="5.51266">
        <ele>494.4</ele>
        <time>2022-08-20T13:25:47Z</time>
      </trkpt>
      <trkpt lat="46.59989" lon="5.51266">
        <ele>494</ele>
        <time>2022-08-20T13:25:48Z</time>
      </trkpt>
      <trkpt lat="46.59987" lon="5.51268">
        <ele>493.8</ele>
        <time>2022-08-20T13:25:49Z</time>
      </trkpt>
      <trkpt lat="46.59985" lon="5.51269">
        <ele>493.6</ele>
        <time>2022-08-20T13:25:50Z</time>
      </trkpt>
      <trkpt lat="46.59983" lon="5.51271">
        <ele>493.2</ele>
        <time>2022-08-20T13:25:51Z</time>
      </trkpt>
      <trkpt lat="46.59981" lon="5.51273">
        <ele>493</ele>
        <time>2022-08-20T13:25:52Z</time>
      </trkpt>
      <trkpt lat="46.59977" lon="5.51274">
        <ele>492.8</ele>
        <time>2022-08-20T13:25:53Z</time>
      </trkpt>
      <trkpt lat="46.59974" lon="5.51275">
        <ele>492.6</ele>
        <time>2022-08-20T13:25:54Z</time>
      </trkpt>
      <trkpt lat="46.59972" lon="5.51278">
        <ele>492.4</ele>
        <time>2022-08-20T13:25:55Z</time>
      </trkpt>
      <trkpt lat="46.59969" lon="5.51279">
        <ele>492.2</ele>
        <time>2022-08-20T13:25:56Z</time>
      </trkpt>
      <trkpt lat="46.59966" lon="5.51281">
        <ele>492</ele>
        <time>2022-08-20T13:25:57Z</time>
      </trkpt>
      <trkpt lat="46.59963" lon="5.51282">
        <ele>491.8</ele>
        <time>2022-08-20T13:25:58Z</time>
      </trkpt>
      <trkpt lat="46.59961" lon="5.51282">
        <ele>491.4</ele>
        <time>2022-08-20T13:25:59Z</time>
      </trkpt>
      <trkpt lat="46.59959" lon="5.51282">
        <ele>491.2</ele>
        <time>2022-08-20T13:26:00Z</time>
      </trkpt>
      <trkpt lat="46.59957" lon="5.51283">
        <ele>490.8</ele>
        <time>2022-08-20T13:26:02Z</time>
      </trkpt>
      <trkpt lat="46.59955" lon="5.51283">
        <ele>490.4</ele>
        <time>2022-08-20T13:26:04Z</time>
      </trkpt>
      <trkpt lat="46.59953" lon="5.51281">
        <ele>490</ele>
        <time>2022-08-20T13:26:06Z</time>
      </trkpt>
      <trkpt lat="46.59955" lon="5.51278">
        <ele>487.8</ele>
        <time>2022-08-20T13:26:15Z</time>
      </trkpt>
      <trkpt lat="46.59957" lon="5.51275">
        <ele>487.4</ele>
        <time>2022-08-20T13:26:17Z</time>
      </trkpt>
      <trkpt lat="46.59958" lon="5.51271">
        <ele>487</ele>
        <time>2022-08-20T13:26:19Z</time>
      </trkpt>
      <trkpt lat="46.59959" lon="5.51267">
        <ele>486.8</ele>
        <time>2022-08-20T13:26:20Z</time>
      </trkpt>
      <trkpt lat="46.59959" lon="5.51263">
        <ele>486.6</ele>
        <time>2022-08-20T13:26:21Z</time>
      </trkpt>
      <trkpt lat="46.5996" lon="5.51259">
        <ele>486.4</ele>
        <time>2022-08-20T13:26:22Z</time>
      </trkpt>
      <trkpt lat="46.59961" lon="5.51255">
        <ele>486.2</ele>
        <time>2022-08-20T13:26:23Z</time>
      </trkpt>
      <trkpt lat="46.59962" lon="5.51252">
        <ele>486</ele>
        <time>2022-08-20T13:26:24Z</time>
      </trkpt>
      <trkpt lat="46.59963" lon="5.51248">
        <ele>486</ele>
        <time>2022-08-20T13:26:25Z</time>
      </trkpt>
      <trkpt lat="46.59965" lon="5.51244">
        <ele>485.8</ele>
        <time>2022-08-20T13:26:26Z</time>
      </trkpt>
      <trkpt lat="46.59965" lon="5.51241">
        <ele>485.6</ele>
        <time>2022-08-20T13:26:27Z</time>
      </trkpt>
      <trkpt lat="46.59967" lon="5.51237">
        <ele>485.4</ele>
        <time>2022-08-20T13:26:28Z</time>
      </trkpt>
      <trkpt lat="46.59968" lon="5.51233">
        <ele>485.2</ele>
        <time>2022-08-20T13:26:29Z</time>
      </trkpt>
      <trkpt lat="46.59969" lon="5.5123">
        <ele>485</ele>
        <time>2022-08-20T13:26:30Z</time>
      </trkpt>
      <trkpt lat="46.59968" lon="5.51227">
        <ele>484.8</ele>
        <time>2022-08-20T13:26:31Z</time>
      </trkpt>
      <trkpt lat="46.59968" lon="5.51224">
        <ele>484.6</ele>
        <time>2022-08-20T13:26:32Z</time>
      </trkpt>
      <trkpt lat="46.59969" lon="5.51221">
        <ele>484.4</ele>
        <time>2022-08-20T13:26:33Z</time>
      </trkpt>
      <trkpt lat="46.59969" lon="5.51217">
        <ele>484</ele>
        <time>2022-08-20T13:26:34Z</time>
      </trkpt>
      <trkpt lat="46.5997" lon="5.51212">
        <ele>483.8</ele>
        <time>2022-08-20T13:26:35Z</time>
      </trkpt>
      <trkpt lat="46.59971" lon="5.51208">
        <ele>483.6</ele>
        <time>2022-08-20T13:26:36Z</time>
      </trkpt>
      <trkpt lat="46.59971" lon="5.51204">
        <ele>483.2</ele>
        <time>2022-08-20T13:26:37Z</time>
      </trkpt>
      <trkpt lat="46.59972" lon="5.512">
        <ele>483</ele>
        <time>2022-08-20T13:26:38Z</time>
      </trkpt>
      <trkpt lat="46.59973" lon="5.51196">
        <ele>482.6</ele>
        <time>2022-08-20T13:26:39Z</time>
      </trkpt>
      <trkpt lat="46.59973" lon="5.51192">
        <ele>482.4</ele>
        <time>2022-08-20T13:26:40Z</time>
      </trkpt>
      <trkpt lat="46.59973" lon="5.51188">
        <ele>482</ele>
        <time>2022-08-20T13:26:41Z</time>
      </trkpt>
      <trkpt lat="46.59973" lon="5.51184">
        <ele>481.8</ele>
        <time>2022-08-20T13:26:42Z</time>
      </trkpt>
      <trkpt lat="46.59973" lon="5.5118">
        <ele>481.6</ele>
        <time>2022-08-20T13:26:43Z</time>
      </trkpt>
      <trkpt lat="46.59973" lon="5.51176">
        <ele>481.2</ele>
        <time>2022-08-20T13:26:44Z</time>
      </trkpt>
      <trkpt lat="46.59973" lon="5.51171">
        <ele>481</ele>
        <time>2022-08-20T13:26:45Z</time>
      </trkpt>
      <trkpt lat="46.59973" lon="5.51167">
        <ele>480.6</ele>
        <time>2022-08-20T13:26:46Z</time>
      </trkpt>
      <trkpt lat="46.59973" lon="5.51163">
        <ele>480.4</ele>
        <time>2022-08-20T13:26:47Z</time>
      </trkpt>
      <trkpt lat="46.59973" lon="5.51159">
        <ele>480</ele>
        <time>2022-08-20T13:26:48Z</time>
      </trkpt>
      <trkpt lat="46.59973" lon="5.51155">
        <ele>479.8</ele>
        <time>2022-08-20T13:26:49Z</time>
      </trkpt>
      <trkpt lat="46.59972" lon="5.51152">
        <ele>479.6</ele>
        <time>2022-08-20T13:26:50Z</time>
      </trkpt>
      <trkpt lat="46.59971" lon="5.51147">
        <ele>479.2</ele>
        <time>2022-08-20T13:26:51Z</time>
      </trkpt>
      <trkpt lat="46.59971" lon="5.51143">
        <ele>479</ele>
        <time>2022-08-20T13:26:52Z</time>
      </trkpt>
      <trkpt lat="46.5997" lon="5.51138">
        <ele>478.8</ele>
        <time>2022-08-20T13:26:53Z</time>
      </trkpt>
      <trkpt lat="46.59969" lon="5.51134">
        <ele>478.6</ele>
        <time>2022-08-20T13:26:54Z</time>
      </trkpt>
      <trkpt lat="46.59969" lon="5.5113">
        <ele>478.4</ele>
        <time>2022-08-20T13:26:55Z</time>
      </trkpt>
      <trkpt lat="46.59969" lon="5.51126">
        <ele>478</ele>
        <time>2022-08-20T13:26:56Z</time>
      </trkpt>
      <trkpt lat="46.59969" lon="5.51122">
        <ele>477.8</ele>
        <time>2022-08-20T13:26:57Z</time>
      </trkpt>
      <trkpt lat="46.59969" lon="5.51118">
        <ele>477.6</ele>
        <time>2022-08-20T13:26:58Z</time>
      </trkpt>
      <trkpt lat="46.59969" lon="5.51114">
        <ele>477.4</ele>
        <time>2022-08-20T13:26:59Z</time>
      </trkpt>
      <trkpt lat="46.59968" lon="5.5111">
        <ele>477.2</ele>
        <time>2022-08-20T13:27:00Z</time>
      </trkpt>
      <trkpt lat="46.59968" lon="5.51106">
        <ele>477</ele>
        <time>2022-08-20T13:27:01Z</time>
      </trkpt>
      <trkpt lat="46.59968" lon="5.51103">
        <ele>476.8</ele>
        <time>2022-08-20T13:27:02Z</time>
      </trkpt>
      <trkpt lat="46.59968" lon="5.51099">
        <ele>476.6</ele>
        <time>2022-08-20T13:27:03Z</time>
      </trkpt>
      <trkpt lat="46.59969" lon="5.51095">
        <ele>476.2</ele>
        <time>2022-08-20T13:27:04Z</time>
      </trkpt>
      <trkpt lat="46.59969" lon="5.51092">
        <ele>476</ele>
        <time>2022-08-20T13:27:05Z</time>
      </trkpt>
      <trkpt lat="46.5997" lon="5.51088">
        <ele>475.8</ele>
        <time>2022-08-20T13:27:06Z</time>
      </trkpt>
      <trkpt lat="46.5997" lon="5.51085">
        <ele>475.4</ele>
        <time>2022-08-20T13:27:07Z</time>
      </trkpt>
      <trkpt lat="46.59971" lon="5.51081">
        <ele>475.2</ele>
        <time>2022-08-20T13:27:08Z</time>
      </trkpt>
      <trkpt lat="46.59971" lon="5.51077">
        <ele>474.8</ele>
        <time>2022-08-20T13:27:09Z</time>
      </trkpt>
      <trkpt lat="46.59973" lon="5.51074">
        <ele>474.6</ele>
        <time>2022-08-20T13:27:10Z</time>
      </trkpt>
      <trkpt lat="46.59973" lon="5.51071">
        <ele>474.2</ele>
        <time>2022-08-20T13:27:11Z</time>
      </trkpt>
      <trkpt lat="46.59975" lon="5.51068">
        <ele>474</ele>
        <time>2022-08-20T13:27:12Z</time>
      </trkpt>
      <trkpt lat="46.59976" lon="5.51065">
        <ele>473.8</ele>
        <time>2022-08-20T13:27:13Z</time>
      </trkpt>
      <trkpt lat="46.59977" lon="5.51063">
        <ele>473.6</ele>
        <time>2022-08-20T13:27:14Z</time>
      </trkpt>
      <trkpt lat="46.59978" lon="5.5106">
        <ele>473.2</ele>
        <time>2022-08-20T13:27:15Z</time>
      </trkpt>
      <trkpt lat="46.5998" lon="5.51057">
        <ele>473</ele>
        <time>2022-08-20T13:27:16Z</time>
      </trkpt>
      <trkpt lat="46.59981" lon="5.51054">
        <ele>472.8</ele>
        <time>2022-08-20T13:27:17Z</time>
      </trkpt>
      <trkpt lat="46.59983" lon="5.5105">
        <ele>472.4</ele>
        <time>2022-08-20T13:27:18Z</time>
      </trkpt>
      <trkpt lat="46.59984" lon="5.51047">
        <ele>472.2</ele>
        <time>2022-08-20T13:27:19Z</time>
      </trkpt>
      <trkpt lat="46.59986" lon="5.51044">
        <ele>472</ele>
        <time>2022-08-20T13:27:20Z</time>
      </trkpt>
      <trkpt lat="46.59987" lon="5.51039">
        <ele>471.8</ele>
        <time>2022-08-20T13:27:21Z</time>
      </trkpt>
      <trkpt lat="46.59989" lon="5.51035">
        <ele>471.6</ele>
        <time>2022-08-20T13:27:22Z</time>
      </trkpt>
      <trkpt lat="46.5999" lon="5.51032">
        <ele>471.4</ele>
        <time>2022-08-20T13:27:23Z</time>
      </trkpt>
      <trkpt lat="46.59991" lon="5.51028">
        <ele>471.2</ele>
        <time>2022-08-20T13:27:24Z</time>
      </trkpt>
      <trkpt lat="46.59993" lon="5.51025">
        <ele>471.2</ele>
        <time>2022-08-20T13:27:25Z</time>
      </trkpt>
      <trkpt lat="46.59994" lon="5.51021">
        <ele>471</ele>
        <time>2022-08-20T13:27:26Z</time>
      </trkpt>
      <trkpt lat="46.59996" lon="5.51018">
        <ele>470.8</ele>
        <time>2022-08-20T13:27:27Z</time>
      </trkpt>
      <trkpt lat="46.59997" lon="5.51014">
        <ele>470.4</ele>
        <time>2022-08-20T13:27:28Z</time>
      </trkpt>
      <trkpt lat="46.59999" lon="5.51011">
        <ele>470.2</ele>
        <time>2022-08-20T13:27:29Z</time>
      </trkpt>
      <trkpt lat="46.60001" lon="5.51008">
        <ele>470</ele>
        <time>2022-08-20T13:27:30Z</time>
      </trkpt>
      <trkpt lat="46.60003" lon="5.51006">
        <ele>469.8</ele>
        <time>2022-08-20T13:27:31Z</time>
      </trkpt>
      <trkpt lat="46.60005" lon="5.51003">
        <ele>469.6</ele>
        <time>2022-08-20T13:27:32Z</time>
      </trkpt>
      <trkpt lat="46.60006" lon="5.51">
        <ele>469.4</ele>
        <time>2022-08-20T13:27:33Z</time>
      </trkpt>
      <trkpt lat="46.60008" lon="5.50997">
        <ele>469.2</ele>
        <time>2022-08-20T13:27:34Z</time>
      </trkpt>
      <trkpt lat="46.60009" lon="5.50993">
        <ele>469</ele>
        <time>2022-08-20T13:27:35Z</time>
      </trkpt>
      <trkpt lat="46.60011" lon="5.50989">
        <ele>468.8</ele>
        <time>2022-08-20T13:27:36Z</time>
      </trkpt>
      <trkpt lat="46.60013" lon="5.50986">
        <ele>468.6</ele>
        <time>2022-08-20T13:27:37Z</time>
      </trkpt>
      <trkpt lat="46.60015" lon="5.50982">
        <ele>468.4</ele>
        <time>2022-08-20T13:27:38Z</time>
      </trkpt>
      <trkpt lat="46.60017" lon="5.50979">
        <ele>468</ele>
        <time>2022-08-20T13:27:39Z</time>
      </trkpt>
      <trkpt lat="46.60019" lon="5.50975">
        <ele>467.8</ele>
        <time>2022-08-20T13:27:40Z</time>
      </trkpt>
      <trkpt lat="46.6002" lon="5.50972">
        <ele>467.6</ele>
        <time>2022-08-20T13:27:41Z</time>
      </trkpt>
      <trkpt lat="46.60021" lon="5.50968">
        <ele>467.4</ele>
        <time>2022-08-20T13:27:42Z</time>
      </trkpt>
      <trkpt lat="46.60023" lon="5.50964">
        <ele>467.2</ele>
        <time>2022-08-20T13:27:43Z</time>
      </trkpt>
      <trkpt lat="46.60025" lon="5.50961">
        <ele>466.8</ele>
        <time>2022-08-20T13:27:44Z</time>
      </trkpt>
      <trkpt lat="46.60027" lon="5.50957">
        <ele>466.6</ele>
        <time>2022-08-20T13:27:45Z</time>
      </trkpt>
      <trkpt lat="46.60029" lon="5.50954">
        <ele>466.4</ele>
        <time>2022-08-20T13:27:46Z</time>
      </trkpt>
      <trkpt lat="46.6003" lon="5.50951">
        <ele>466.2</ele>
        <time>2022-08-20T13:27:47Z</time>
      </trkpt>
      <trkpt lat="46.60032" lon="5.50947">
        <ele>466</ele>
        <time>2022-08-20T13:27:48Z</time>
      </trkpt>
      <trkpt lat="46.60034" lon="5.50944">
        <ele>465.6</ele>
        <time>2022-08-20T13:27:49Z</time>
      </trkpt>
      <trkpt lat="46.60036" lon="5.5094">
        <ele>465.4</ele>
        <time>2022-08-20T13:27:50Z</time>
      </trkpt>
      <trkpt lat="46.60038" lon="5.50937">
        <ele>465</ele>
        <time>2022-08-20T13:27:51Z</time>
      </trkpt>
      <trkpt lat="46.6004" lon="5.50934">
        <ele>464.8</ele>
        <time>2022-08-20T13:27:52Z</time>
      </trkpt>
      <trkpt lat="46.60043" lon="5.50932">
        <ele>464.4</ele>
        <time>2022-08-20T13:27:53Z</time>
      </trkpt>
      <trkpt lat="46.60046" lon="5.5093">
        <ele>464.2</ele>
        <time>2022-08-20T13:27:54Z</time>
      </trkpt>
      <trkpt lat="46.60048" lon="5.50928">
        <ele>463.8</ele>
        <time>2022-08-20T13:27:55Z</time>
      </trkpt>
      <trkpt lat="46.60051" lon="5.50925">
        <ele>463.6</ele>
        <time>2022-08-20T13:27:56Z</time>
      </trkpt>
      <trkpt lat="46.60053" lon="5.50923">
        <ele>463.2</ele>
        <time>2022-08-20T13:27:57Z</time>
      </trkpt>
      <trkpt lat="46.60056" lon="5.50922">
        <ele>463</ele>
        <time>2022-08-20T13:27:58Z</time>
      </trkpt>
      <trkpt lat="46.60059" lon="5.50921">
        <ele>462.6</ele>
        <time>2022-08-20T13:27:59Z</time>
      </trkpt>
      <trkpt lat="46.60062" lon="5.50921">
        <ele>462.4</ele>
        <time>2022-08-20T13:28:00Z</time>
      </trkpt>
      <trkpt lat="46.60064" lon="5.5092">
        <ele>462</ele>
        <time>2022-08-20T13:28:01Z</time>
      </trkpt>
      <trkpt lat="46.60066" lon="5.5092">
        <ele>461.8</ele>
        <time>2022-08-20T13:28:02Z</time>
      </trkpt>
      <trkpt lat="46.60069" lon="5.50919">
        <ele>461.6</ele>
        <time>2022-08-20T13:28:03Z</time>
      </trkpt>
      <trkpt lat="46.60071" lon="5.50919">
        <ele>461.4</ele>
        <time>2022-08-20T13:28:04Z</time>
      </trkpt>
      <trkpt lat="46.60074" lon="5.50918">
        <ele>461.2</ele>
        <time>2022-08-20T13:28:05Z</time>
      </trkpt>
      <trkpt lat="46.60076" lon="5.50917">
        <ele>461</ele>
        <time>2022-08-20T13:28:06Z</time>
      </trkpt>
      <trkpt lat="46.60078" lon="5.50917">
        <ele>460.8</ele>
        <time>2022-08-20T13:28:07Z</time>
      </trkpt>
      <trkpt lat="46.60081" lon="5.50916">
        <ele>460.6</ele>
        <time>2022-08-20T13:28:08Z</time>
      </trkpt>
      <trkpt lat="46.60084" lon="5.50916">
        <ele>460.4</ele>
        <time>2022-08-20T13:28:09Z</time>
      </trkpt>
      <trkpt lat="46.60086" lon="5.50916">
        <ele>460.2</ele>
        <time>2022-08-20T13:28:10Z</time>
      </trkpt>
      <trkpt lat="46.6009" lon="5.50916">
        <ele>460</ele>
        <time>2022-08-20T13:28:11Z</time>
      </trkpt>
      <trkpt lat="46.60093" lon="5.50917">
        <ele>459.8</ele>
        <time>2022-08-20T13:28:12Z</time>
      </trkpt>
      <trkpt lat="46.60096" lon="5.50916">
        <ele>459.6</ele>
        <time>2022-08-20T13:28:13Z</time>
      </trkpt>
      <trkpt lat="46.60098" lon="5.50916">
        <ele>459.4</ele>
        <time>2022-08-20T13:28:14Z</time>
      </trkpt>
      <trkpt lat="46.60101" lon="5.50917">
        <ele>459.2</ele>
        <time>2022-08-20T13:28:15Z</time>
      </trkpt>
      <trkpt lat="46.60104" lon="5.50918">
        <ele>459</ele>
        <time>2022-08-20T13:28:16Z</time>
      </trkpt>
      <trkpt lat="46.60108" lon="5.5092">
        <ele>458.8</ele>
        <time>2022-08-20T13:28:17Z</time>
      </trkpt>
      <trkpt lat="46.60111" lon="5.50921">
        <ele>458.6</ele>
        <time>2022-08-20T13:28:18Z</time>
      </trkpt>
      <trkpt lat="46.60114" lon="5.50922">
        <ele>458.4</ele>
        <time>2022-08-20T13:28:19Z</time>
      </trkpt>
      <trkpt lat="46.60116" lon="5.50924">
        <ele>458.2</ele>
        <time>2022-08-20T13:28:20Z</time>
      </trkpt>
      <trkpt lat="46.60118" lon="5.50925">
        <ele>458</ele>
        <time>2022-08-20T13:28:21Z</time>
      </trkpt>
      <trkpt lat="46.60121" lon="5.50926">
        <ele>457.8</ele>
        <time>2022-08-20T13:28:22Z</time>
      </trkpt>
      <trkpt lat="46.60124" lon="5.50927">
        <ele>457.6</ele>
        <time>2022-08-20T13:28:23Z</time>
      </trkpt>
      <trkpt lat="46.60128" lon="5.50927">
        <ele>457.6</ele>
        <time>2022-08-20T13:28:24Z</time>
      </trkpt>
      <trkpt lat="46.60131" lon="5.50927">
        <ele>457.4</ele>
        <time>2022-08-20T13:28:25Z</time>
      </trkpt>
      <trkpt lat="46.60133" lon="5.50927">
        <ele>457.4</ele>
        <time>2022-08-20T13:28:26Z</time>
      </trkpt>
      <trkpt lat="46.60136" lon="5.50928">
        <ele>457.2</ele>
        <time>2022-08-20T13:28:27Z</time>
      </trkpt>
      <trkpt lat="46.60138" lon="5.50928">
        <ele>457</ele>
        <time>2022-08-20T13:28:28Z</time>
      </trkpt>
      <trkpt lat="46.60141" lon="5.50929">
        <ele>456.8</ele>
        <time>2022-08-20T13:28:29Z</time>
      </trkpt>
      <trkpt lat="46.60143" lon="5.5093">
        <ele>456.8</ele>
        <time>2022-08-20T13:28:30Z</time>
      </trkpt>
      <trkpt lat="46.60146" lon="5.50931">
        <ele>456.6</ele>
        <time>2022-08-20T13:28:31Z</time>
      </trkpt>
      <trkpt lat="46.60149" lon="5.50931">
        <ele>456.4</ele>
        <time>2022-08-20T13:28:32Z</time>
      </trkpt>
      <trkpt lat="46.60151" lon="5.50933">
        <ele>456.2</ele>
        <time>2022-08-20T13:28:33Z</time>
      </trkpt>
      <trkpt lat="46.60154" lon="5.50934">
        <ele>456</ele>
        <time>2022-08-20T13:28:34Z</time>
      </trkpt>
      <trkpt lat="46.60156" lon="5.50935">
        <ele>455.8</ele>
        <time>2022-08-20T13:28:35Z</time>
      </trkpt>
      <trkpt lat="46.60158" lon="5.50937">
        <ele>455.6</ele>
        <time>2022-08-20T13:28:36Z</time>
      </trkpt>
      <trkpt lat="46.60161" lon="5.50938">
        <ele>455.4</ele>
        <time>2022-08-20T13:28:37Z</time>
      </trkpt>
      <trkpt lat="46.60164" lon="5.50938">
        <ele>455.2</ele>
        <time>2022-08-20T13:28:38Z</time>
      </trkpt>
      <trkpt lat="46.60166" lon="5.50939">
        <ele>455</ele>
        <time>2022-08-20T13:28:39Z</time>
      </trkpt>
      <trkpt lat="46.60168" lon="5.5094">
        <ele>455</ele>
        <time>2022-08-20T13:28:40Z</time>
      </trkpt>
      <trkpt lat="46.6017" lon="5.50941">
        <ele>454.8</ele>
        <time>2022-08-20T13:28:41Z</time>
      </trkpt>
      <trkpt lat="46.60173" lon="5.50942">
        <ele>454.6</ele>
        <time>2022-08-20T13:28:42Z</time>
      </trkpt>
      <trkpt lat="46.60176" lon="5.50943">
        <ele>454.2</ele>
        <time>2022-08-20T13:28:43Z</time>
      </trkpt>
      <trkpt lat="46.60179" lon="5.50944">
        <ele>454</ele>
        <time>2022-08-20T13:28:44Z</time>
      </trkpt>
      <trkpt lat="46.60182" lon="5.50945">
        <ele>453.8</ele>
        <time>2022-08-20T13:28:45Z</time>
      </trkpt>
      <trkpt lat="46.60185" lon="5.50945">
        <ele>453.6</ele>
        <time>2022-08-20T13:28:46Z</time>
      </trkpt>
      <trkpt lat="46.60188" lon="5.50946">
        <ele>453.4</ele>
        <time>2022-08-20T13:28:47Z</time>
      </trkpt>
      <trkpt lat="46.60189" lon="5.50948">
        <ele>453.2</ele>
        <time>2022-08-20T13:28:48Z</time>
      </trkpt>
      <trkpt lat="46.60192" lon="5.50949">
        <ele>453</ele>
        <time>2022-08-20T13:28:49Z</time>
      </trkpt>
      <trkpt lat="46.60194" lon="5.5095">
        <ele>452.8</ele>
        <time>2022-08-20T13:28:50Z</time>
      </trkpt>
      <trkpt lat="46.60197" lon="5.50952">
        <ele>452.6</ele>
        <time>2022-08-20T13:28:51Z</time>
      </trkpt>
      <trkpt lat="46.60199" lon="5.50953">
        <ele>452.4</ele>
        <time>2022-08-20T13:28:52Z</time>
      </trkpt>
      <trkpt lat="46.60203" lon="5.50953">
        <ele>452.2</ele>
        <time>2022-08-20T13:28:53Z</time>
      </trkpt>
      <trkpt lat="46.60206" lon="5.50953">
        <ele>452</ele>
        <time>2022-08-20T13:28:54Z</time>
      </trkpt>
      <trkpt lat="46.6021" lon="5.50954">
        <ele>451.8</ele>
        <time>2022-08-20T13:28:55Z</time>
      </trkpt>
      <trkpt lat="46.60213" lon="5.50954">
        <ele>451.6</ele>
        <time>2022-08-20T13:28:56Z</time>
      </trkpt>
      <trkpt lat="46.60215" lon="5.50954">
        <ele>451.4</ele>
        <time>2022-08-20T13:28:57Z</time>
      </trkpt>
      <trkpt lat="46.60218" lon="5.50954">
        <ele>451.2</ele>
        <time>2022-08-20T13:28:58Z</time>
      </trkpt>
      <trkpt lat="46.60221" lon="5.50955">
        <ele>451</ele>
        <time>2022-08-20T13:28:59Z</time>
      </trkpt>
      <trkpt lat="46.60223" lon="5.50956">
        <ele>450.8</ele>
        <time>2022-08-20T13:29:00Z</time>
      </trkpt>
      <trkpt lat="46.60227" lon="5.50957">
        <ele>450.6</ele>
        <time>2022-08-20T13:29:01Z</time>
      </trkpt>
      <trkpt lat="46.60229" lon="5.50957">
        <ele>450.6</ele>
        <time>2022-08-20T13:29:02Z</time>
      </trkpt>
      <trkpt lat="46.60232" lon="5.50958">
        <ele>450.4</ele>
        <time>2022-08-20T13:29:03Z</time>
      </trkpt>
      <trkpt lat="46.60235" lon="5.50959">
        <ele>450.2</ele>
        <time>2022-08-20T13:29:04Z</time>
      </trkpt>
      <trkpt lat="46.60238" lon="5.5096">
        <ele>450</ele>
        <time>2022-08-20T13:29:05Z</time>
      </trkpt>
      <trkpt lat="46.6024" lon="5.50961">
        <ele>449.8</ele>
        <time>2022-08-20T13:29:06Z</time>
      </trkpt>
      <trkpt lat="46.60243" lon="5.50961">
        <ele>449.6</ele>
        <time>2022-08-20T13:29:07Z</time>
      </trkpt>
      <trkpt lat="46.60245" lon="5.50962">
        <ele>449.4</ele>
        <time>2022-08-20T13:29:08Z</time>
      </trkpt>
      <trkpt lat="46.60247" lon="5.50964">
        <ele>449.2</ele>
        <time>2022-08-20T13:29:09Z</time>
      </trkpt>
      <trkpt lat="46.60251" lon="5.50965">
        <ele>449</ele>
        <time>2022-08-20T13:29:10Z</time>
      </trkpt>
      <trkpt lat="46.60253" lon="5.50966">
        <ele>448.8</ele>
        <time>2022-08-20T13:29:11Z</time>
      </trkpt>
      <trkpt lat="46.60256" lon="5.50966">
        <ele>448.8</ele>
        <time>2022-08-20T13:29:12Z</time>
      </trkpt>
      <trkpt lat="46.60258" lon="5.50966">
        <ele>448.6</ele>
        <time>2022-08-20T13:29:13Z</time>
      </trkpt>
      <trkpt lat="46.60261" lon="5.50966">
        <ele>448.4</ele>
        <time>2022-08-20T13:29:14Z</time>
      </trkpt>
      <trkpt lat="46.60263" lon="5.50966">
        <ele>448.2</ele>
        <time>2022-08-20T13:29:15Z</time>
      </trkpt>
      <trkpt lat="46.60265" lon="5.50967">
        <ele>448</ele>
        <time>2022-08-20T13:29:16Z</time>
      </trkpt>
      <trkpt lat="46.60268" lon="5.50967">
        <ele>447.8</ele>
        <time>2022-08-20T13:29:17Z</time>
      </trkpt>
      <trkpt lat="46.60271" lon="5.50967">
        <ele>447.8</ele>
        <time>2022-08-20T13:29:18Z</time>
      </trkpt>
      <trkpt lat="46.60275" lon="5.50967">
        <ele>447.6</ele>
        <time>2022-08-20T13:29:19Z</time>
      </trkpt>
      <trkpt lat="46.60278" lon="5.50967">
        <ele>447.4</ele>
        <time>2022-08-20T13:29:20Z</time>
      </trkpt>
      <trkpt lat="46.60281" lon="5.50966">
        <ele>447.2</ele>
        <time>2022-08-20T13:29:21Z</time>
      </trkpt>
      <trkpt lat="46.60284" lon="5.50966">
        <ele>447.2</ele>
        <time>2022-08-20T13:29:22Z</time>
      </trkpt>
      <trkpt lat="46.60286" lon="5.50966">
        <ele>446.8</ele>
        <time>2022-08-20T13:29:24Z</time>
      </trkpt>
      <trkpt lat="46.60287" lon="5.50963">
        <ele>446</ele>
        <time>2022-08-20T13:29:31Z</time>
      </trkpt>
      <trkpt lat="46.60287" lon="5.50959">
        <ele>445.6</ele>
        <time>2022-08-20T13:29:33Z</time>
      </trkpt>
      <trkpt lat="46.60285" lon="5.50954">
        <ele>445.2</ele>
        <time>2022-08-20T13:29:35Z</time>
      </trkpt>
      <trkpt lat="46.60285" lon="5.50951">
        <ele>445</ele>
        <time>2022-08-20T13:29:36Z</time>
      </trkpt>
      <trkpt lat="46.60283" lon="5.50949">
        <ele>444.8</ele>
        <time>2022-08-20T13:29:37Z</time>
      </trkpt>
      <trkpt lat="46.60281" lon="5.50946">
        <ele>444.6</ele>
        <time>2022-08-20T13:29:38Z</time>
      </trkpt>
      <trkpt lat="46.6028" lon="5.50944">
        <ele>444.4</ele>
        <time>2022-08-20T13:29:39Z</time>
      </trkpt>
      <trkpt lat="46.60278" lon="5.50941">
        <ele>444.2</ele>
        <time>2022-08-20T13:29:40Z</time>
      </trkpt>
      <trkpt lat="46.60277" lon="5.50939">
        <ele>443.8</ele>
        <time>2022-08-20T13:29:41Z</time>
      </trkpt>
      <trkpt lat="46.60275" lon="5.50937">
        <ele>443.6</ele>
        <time>2022-08-20T13:29:42Z</time>
      </trkpt>
      <trkpt lat="46.60273" lon="5.50935">
        <ele>443.4</ele>
        <time>2022-08-20T13:29:43Z</time>
      </trkpt>
      <trkpt lat="46.60271" lon="5.50932">
        <ele>443</ele>
        <time>2022-08-20T13:29:44Z</time>
      </trkpt>
      <trkpt lat="46.60269" lon="5.50931">
        <ele>442.8</ele>
        <time>2022-08-20T13:29:45Z</time>
      </trkpt>
      <trkpt lat="46.60267" lon="5.50929">
        <ele>442.4</ele>
        <time>2022-08-20T13:29:46Z</time>
      </trkpt>
      <trkpt lat="46.60265" lon="5.50928">
        <ele>442.2</ele>
        <time>2022-08-20T13:29:47Z</time>
      </trkpt>
      <trkpt lat="46.60261" lon="5.50926">
        <ele>442</ele>
        <time>2022-08-20T13:29:48Z</time>
      </trkpt>
      <trkpt lat="46.60259" lon="5.50925">
        <ele>441.6</ele>
        <time>2022-08-20T13:29:49Z</time>
      </trkpt>
      <trkpt lat="46.60257" lon="5.50922">
        <ele>441.4</ele>
        <time>2022-08-20T13:29:50Z</time>
      </trkpt>
      <trkpt lat="46.60254" lon="5.5092">
        <ele>441.2</ele>
        <time>2022-08-20T13:29:51Z</time>
      </trkpt>
      <trkpt lat="46.60252" lon="5.50918">
        <ele>440.8</ele>
        <time>2022-08-20T13:29:52Z</time>
      </trkpt>
      <trkpt lat="46.6025" lon="5.50916">
        <ele>440.6</ele>
        <time>2022-08-20T13:29:53Z</time>
      </trkpt>
      <trkpt lat="46.60248" lon="5.50914">
        <ele>440.2</ele>
        <time>2022-08-20T13:29:54Z</time>
      </trkpt>
      <trkpt lat="46.60246" lon="5.50912">
        <ele>439.8</ele>
        <time>2022-08-20T13:29:55Z</time>
      </trkpt>
      <trkpt lat="46.60244" lon="5.5091">
        <ele>439.6</ele>
        <time>2022-08-20T13:29:56Z</time>
      </trkpt>
      <trkpt lat="46.6024" lon="5.50906">
        <ele>439.6</ele>
        <time>2022-08-20T13:29:57Z</time>
      </trkpt>
      <trkpt lat="46.60238" lon="5.50905">
        <ele>438.8</ele>
        <time>2022-08-20T13:29:58Z</time>
      </trkpt>
      <trkpt lat="46.60237" lon="5.50903">
        <ele>438.4</ele>
        <time>2022-08-20T13:29:59Z</time>
      </trkpt>
      <trkpt lat="46.60234" lon="5.50898">
        <ele>438.4</ele>
        <time>2022-08-20T13:30:00Z</time>
      </trkpt>
      <trkpt lat="46.60232" lon="5.50896">
        <ele>438.4</ele>
        <time>2022-08-20T13:30:01Z</time>
      </trkpt>
      <trkpt lat="46.60231" lon="5.50894">
        <ele>438.4</ele>
        <time>2022-08-20T13:30:02Z</time>
      </trkpt>
      <trkpt lat="46.60229" lon="5.50892">
        <ele>437</ele>
        <time>2022-08-20T13:30:03Z</time>
      </trkpt>
      <trkpt lat="46.60224" lon="5.50888">
        <ele>437</ele>
        <time>2022-08-20T13:30:04Z</time>
      </trkpt>
      <trkpt lat="46.60222" lon="5.50886">
        <ele>437</ele>
        <time>2022-08-20T13:30:05Z</time>
      </trkpt>
      <trkpt lat="46.60221" lon="5.50885">
        <ele>436</ele>
        <time>2022-08-20T13:30:06Z</time>
      </trkpt>
      <trkpt lat="46.60218" lon="5.50882">
        <ele>435.6</ele>
        <time>2022-08-20T13:30:07Z</time>
      </trkpt>
      <trkpt lat="46.60215" lon="5.50879">
        <ele>435.4</ele>
        <time>2022-08-20T13:30:08Z</time>
      </trkpt>
      <trkpt lat="46.60213" lon="5.50876">
        <ele>435</ele>
        <time>2022-08-20T13:30:09Z</time>
      </trkpt>
      <trkpt lat="46.6021" lon="5.50874">
        <ele>434.8</ele>
        <time>2022-08-20T13:30:10Z</time>
      </trkpt>
      <trkpt lat="46.60207" lon="5.50872">
        <ele>434.4</ele>
        <time>2022-08-20T13:30:11Z</time>
      </trkpt>
      <trkpt lat="46.60205" lon="5.5087">
        <ele>434.2</ele>
        <time>2022-08-20T13:30:12Z</time>
      </trkpt>
      <trkpt lat="46.60203" lon="5.50868">
        <ele>433.8</ele>
        <time>2022-08-20T13:30:13Z</time>
      </trkpt>
      <trkpt lat="46.602" lon="5.50866">
        <ele>433.6</ele>
        <time>2022-08-20T13:30:14Z</time>
      </trkpt>
      <trkpt lat="46.60198" lon="5.50864">
        <ele>433.4</ele>
        <time>2022-08-20T13:30:15Z</time>
      </trkpt>
      <trkpt lat="46.60197" lon="5.50862">
        <ele>433</ele>
        <time>2022-08-20T13:30:16Z</time>
      </trkpt>
      <trkpt lat="46.60194" lon="5.5086">
        <ele>432.8</ele>
        <time>2022-08-20T13:30:17Z</time>
      </trkpt>
      <trkpt lat="46.60191" lon="5.50857">
        <ele>432.6</ele>
        <time>2022-08-20T13:30:18Z</time>
      </trkpt>
      <trkpt lat="46.60189" lon="5.50855">
        <ele>432.2</ele>
        <time>2022-08-20T13:30:19Z</time>
      </trkpt>
      <trkpt lat="46.60188" lon="5.50851">
        <ele>432</ele>
        <time>2022-08-20T13:30:20Z</time>
      </trkpt>
      <trkpt lat="46.60186" lon="5.50849">
        <ele>431.8</ele>
        <time>2022-08-20T13:30:21Z</time>
      </trkpt>
      <trkpt lat="46.60185" lon="5.50846">
        <ele>431.6</ele>
        <time>2022-08-20T13:30:22Z</time>
      </trkpt>
      <trkpt lat="46.60182" lon="5.50844">
        <ele>431.4</ele>
        <time>2022-08-20T13:30:23Z</time>
      </trkpt>
      <trkpt lat="46.60179" lon="5.50842">
        <ele>431</ele>
        <time>2022-08-20T13:30:24Z</time>
      </trkpt>
      <trkpt lat="46.60177" lon="5.50839">
        <ele>430.8</ele>
        <time>2022-08-20T13:30:25Z</time>
      </trkpt>
      <trkpt lat="46.60173" lon="5.50835">
        <ele>430.8</ele>
        <time>2022-08-20T13:30:26Z</time>
      </trkpt>
      <trkpt lat="46.60172" lon="5.50834">
        <ele>430.4</ele>
        <time>2022-08-20T13:30:27Z</time>
      </trkpt>
      <trkpt lat="46.6017" lon="5.50832">
        <ele>430.2</ele>
        <time>2022-08-20T13:30:28Z</time>
      </trkpt>
      <trkpt lat="46.60167" lon="5.50828">
        <ele>430</ele>
        <time>2022-08-20T13:30:29Z</time>
      </trkpt>
      <trkpt lat="46.60165" lon="5.50826">
        <ele>429.8</ele>
        <time>2022-08-20T13:30:30Z</time>
      </trkpt>
      <trkpt lat="46.60164" lon="5.50822">
        <ele>429.6</ele>
        <time>2022-08-20T13:30:31Z</time>
      </trkpt>
      <trkpt lat="46.60162" lon="5.50819">
        <ele>429.4</ele>
        <time>2022-08-20T13:30:32Z</time>
      </trkpt>
      <trkpt lat="46.60161" lon="5.50817">
        <ele>429.2</ele>
        <time>2022-08-20T13:30:33Z</time>
      </trkpt>
      <trkpt lat="46.60159" lon="5.50815">
        <ele>428.8</ele>
        <time>2022-08-20T13:30:34Z</time>
      </trkpt>
      <trkpt lat="46.60157" lon="5.50812">
        <ele>428.6</ele>
        <time>2022-08-20T13:30:35Z</time>
      </trkpt>
      <trkpt lat="46.60155" lon="5.5081">
        <ele>428.4</ele>
        <time>2022-08-20T13:30:36Z</time>
      </trkpt>
      <trkpt lat="46.60153" lon="5.50808">
        <ele>428</ele>
        <time>2022-08-20T13:30:37Z</time>
      </trkpt>
      <trkpt lat="46.60151" lon="5.50805">
        <ele>427.8</ele>
        <time>2022-08-20T13:30:38Z</time>
      </trkpt>
      <trkpt lat="46.6015" lon="5.50803">
        <ele>427.6</ele>
        <time>2022-08-20T13:30:39Z</time>
      </trkpt>
      <trkpt lat="46.60148" lon="5.508">
        <ele>427.2</ele>
        <time>2022-08-20T13:30:40Z</time>
      </trkpt>
      <trkpt lat="46.60145" lon="5.50798">
        <ele>427</ele>
        <time>2022-08-20T13:30:41Z</time>
      </trkpt>
      <trkpt lat="46.60142" lon="5.50796">
        <ele>426.8</ele>
        <time>2022-08-20T13:30:42Z</time>
      </trkpt>
      <trkpt lat="46.60139" lon="5.50794">
        <ele>426.4</ele>
        <time>2022-08-20T13:30:43Z</time>
      </trkpt>
      <trkpt lat="46.60137" lon="5.50791">
        <ele>426.2</ele>
        <time>2022-08-20T13:30:44Z</time>
      </trkpt>
      <trkpt lat="46.60135" lon="5.50788">
        <ele>425.8</ele>
        <time>2022-08-20T13:30:45Z</time>
      </trkpt>
      <trkpt lat="46.60133" lon="5.50785">
        <ele>425.4</ele>
        <time>2022-08-20T13:30:46Z</time>
      </trkpt>
      <trkpt lat="46.60132" lon="5.50782">
        <ele>425.2</ele>
        <time>2022-08-20T13:30:47Z</time>
      </trkpt>
      <trkpt lat="46.6013" lon="5.5078">
        <ele>424.8</ele>
        <time>2022-08-20T13:30:48Z</time>
      </trkpt>
      <trkpt lat="46.60128" lon="5.50777">
        <ele>424.6</ele>
        <time>2022-08-20T13:30:49Z</time>
      </trkpt>
      <trkpt lat="46.60125" lon="5.50775">
        <ele>424.2</ele>
        <time>2022-08-20T13:30:50Z</time>
      </trkpt>
      <trkpt lat="46.60122" lon="5.50773">
        <ele>424</ele>
        <time>2022-08-20T13:30:51Z</time>
      </trkpt>
      <trkpt lat="46.60118" lon="5.50772">
        <ele>423.8</ele>
        <time>2022-08-20T13:30:52Z</time>
      </trkpt>
      <trkpt lat="46.60116" lon="5.50771">
        <ele>423.6</ele>
        <time>2022-08-20T13:30:53Z</time>
      </trkpt>
      <trkpt lat="46.60114" lon="5.50769">
        <ele>423.2</ele>
        <time>2022-08-20T13:30:54Z</time>
      </trkpt>
      <trkpt lat="46.6011" lon="5.50767">
        <ele>423</ele>
        <time>2022-08-20T13:30:55Z</time>
      </trkpt>
      <trkpt lat="46.60107" lon="5.50765">
        <ele>422.6</ele>
        <time>2022-08-20T13:30:56Z</time>
      </trkpt>
      <trkpt lat="46.60104" lon="5.50763">
        <ele>422.4</ele>
        <time>2022-08-20T13:30:57Z</time>
      </trkpt>
      <trkpt lat="46.60102" lon="5.50761">
        <ele>422</ele>
        <time>2022-08-20T13:30:58Z</time>
      </trkpt>
      <trkpt lat="46.60101" lon="5.50758">
        <ele>421.8</ele>
        <time>2022-08-20T13:30:59Z</time>
      </trkpt>
      <trkpt lat="46.601" lon="5.50755">
        <ele>421.6</ele>
        <time>2022-08-20T13:31:00Z</time>
      </trkpt>
      <trkpt lat="46.60098" lon="5.50752">
        <ele>421.2</ele>
        <time>2022-08-20T13:31:01Z</time>
      </trkpt>
      <trkpt lat="46.60097" lon="5.50749">
        <ele>421</ele>
        <time>2022-08-20T13:31:02Z</time>
      </trkpt>
      <trkpt lat="46.60095" lon="5.50747">
        <ele>420.8</ele>
        <time>2022-08-20T13:31:03Z</time>
      </trkpt>
      <trkpt lat="46.60093" lon="5.50744">
        <ele>420.4</ele>
        <time>2022-08-20T13:31:04Z</time>
      </trkpt>
      <trkpt lat="46.60091" lon="5.50742">
        <ele>420.2</ele>
        <time>2022-08-20T13:31:05Z</time>
      </trkpt>
      <trkpt lat="46.60088" lon="5.5074">
        <ele>420</ele>
        <time>2022-08-20T13:31:06Z</time>
      </trkpt>
      <trkpt lat="46.60086" lon="5.50738">
        <ele>419.6</ele>
        <time>2022-08-20T13:31:07Z</time>
      </trkpt>
      <trkpt lat="46.60085" lon="5.50735">
        <ele>419.4</ele>
        <time>2022-08-20T13:31:08Z</time>
      </trkpt>
      <trkpt lat="46.60083" lon="5.50733">
        <ele>419</ele>
        <time>2022-08-20T13:31:09Z</time>
      </trkpt>
      <trkpt lat="46.6008" lon="5.5073">
        <ele>418.8</ele>
        <time>2022-08-20T13:31:10Z</time>
      </trkpt>
      <trkpt lat="46.60078" lon="5.50728">
        <ele>418.6</ele>
        <time>2022-08-20T13:31:11Z</time>
      </trkpt>
      <trkpt lat="46.60076" lon="5.50726">
        <ele>418.2</ele>
        <time>2022-08-20T13:31:12Z</time>
      </trkpt>
      <trkpt lat="46.60073" lon="5.50723">
        <ele>418</ele>
        <time>2022-08-20T13:31:13Z</time>
      </trkpt>
      <trkpt lat="46.60071" lon="5.5072">
        <ele>417.8</ele>
        <time>2022-08-20T13:31:14Z</time>
      </trkpt>
      <trkpt lat="46.60069" lon="5.50717">
        <ele>417.4</ele>
        <time>2022-08-20T13:31:15Z</time>
      </trkpt>
      <trkpt lat="46.60066" lon="5.50714">
        <ele>417.2</ele>
        <time>2022-08-20T13:31:16Z</time>
      </trkpt>
      <trkpt lat="46.60063" lon="5.50713">
        <ele>417</ele>
        <time>2022-08-20T13:31:17Z</time>
      </trkpt>
      <trkpt lat="46.60059" lon="5.50711">
        <ele>416.6</ele>
        <time>2022-08-20T13:31:18Z</time>
      </trkpt>
      <trkpt lat="46.60056" lon="5.50709">
        <ele>416.4</ele>
        <time>2022-08-20T13:31:19Z</time>
      </trkpt>
      <trkpt lat="46.60053" lon="5.50708">
        <ele>416.2</ele>
        <time>2022-08-20T13:31:20Z</time>
      </trkpt>
      <trkpt lat="46.6005" lon="5.50706">
        <ele>415.8</ele>
        <time>2022-08-20T13:31:21Z</time>
      </trkpt>
      <trkpt lat="46.60048" lon="5.50703">
        <ele>415.6</ele>
        <time>2022-08-20T13:31:22Z</time>
      </trkpt>
      <trkpt lat="46.60046" lon="5.50701">
        <ele>415.2</ele>
        <time>2022-08-20T13:31:23Z</time>
      </trkpt>
      <trkpt lat="46.60043" lon="5.50698">
        <ele>414.8</ele>
        <time>2022-08-20T13:31:24Z</time>
      </trkpt>
      <trkpt lat="46.60041" lon="5.50694">
        <ele>414.6</ele>
        <time>2022-08-20T13:31:25Z</time>
      </trkpt>
      <trkpt lat="46.60039" lon="5.50691">
        <ele>414.2</ele>
        <time>2022-08-20T13:31:26Z</time>
      </trkpt>
      <trkpt lat="46.60038" lon="5.50688">
        <ele>413.8</ele>
        <time>2022-08-20T13:31:27Z</time>
      </trkpt>
      <trkpt lat="46.60036" lon="5.50685">
        <ele>413.4</ele>
        <time>2022-08-20T13:31:28Z</time>
      </trkpt>
      <trkpt lat="46.60034" lon="5.50683">
        <ele>413</ele>
        <time>2022-08-20T13:31:29Z</time>
      </trkpt>
      <trkpt lat="46.60032" lon="5.5068">
        <ele>412.6</ele>
        <time>2022-08-20T13:31:30Z</time>
      </trkpt>
      <trkpt lat="46.6003" lon="5.50677">
        <ele>412.2</ele>
        <time>2022-08-20T13:31:31Z</time>
      </trkpt>
      <trkpt lat="46.60028" lon="5.50675">
        <ele>411.8</ele>
        <time>2022-08-20T13:31:32Z</time>
      </trkpt>
      <trkpt lat="46.60026" lon="5.50673">
        <ele>411.4</ele>
        <time>2022-08-20T13:31:33Z</time>
      </trkpt>
      <trkpt lat="46.60024" lon="5.50671">
        <ele>411</ele>
        <time>2022-08-20T13:31:34Z</time>
      </trkpt>
      <trkpt lat="46.60021" lon="5.5067">
        <ele>410.6</ele>
        <time>2022-08-20T13:31:35Z</time>
      </trkpt>
      <trkpt lat="46.60018" lon="5.50667">
        <ele>410.2</ele>
        <time>2022-08-20T13:31:36Z</time>
      </trkpt>
      <trkpt lat="46.60015" lon="5.50664">
        <ele>410</ele>
        <time>2022-08-20T13:31:37Z</time>
      </trkpt>
      <trkpt lat="46.60013" lon="5.50662">
        <ele>409.6</ele>
        <time>2022-08-20T13:31:38Z</time>
      </trkpt>
      <trkpt lat="46.60011" lon="5.50658">
        <ele>409.2</ele>
        <time>2022-08-20T13:31:39Z</time>
      </trkpt>
      <trkpt lat="46.60009" lon="5.50655">
        <ele>408.8</ele>
        <time>2022-08-20T13:31:40Z</time>
      </trkpt>
      <trkpt lat="46.60007" lon="5.50651">
        <ele>408.4</ele>
        <time>2022-08-20T13:31:41Z</time>
      </trkpt>
      <trkpt lat="46.60006" lon="5.50647">
        <ele>408</ele>
        <time>2022-08-20T13:31:42Z</time>
      </trkpt>
      <trkpt lat="46.60005" lon="5.50643">
        <ele>407.6</ele>
        <time>2022-08-20T13:31:43Z</time>
      </trkpt>
      <trkpt lat="46.60003" lon="5.5064">
        <ele>407.4</ele>
        <time>2022-08-20T13:31:44Z</time>
      </trkpt>
      <trkpt lat="46.6" lon="5.50637">
        <ele>407</ele>
        <time>2022-08-20T13:31:45Z</time>
      </trkpt>
      <trkpt lat="46.59998" lon="5.50633">
        <ele>406.8</ele>
        <time>2022-08-20T13:31:46Z</time>
      </trkpt>
      <trkpt lat="46.59997" lon="5.50629">
        <ele>406.4</ele>
        <time>2022-08-20T13:31:47Z</time>
      </trkpt>
      <trkpt lat="46.59995" lon="5.50625">
        <ele>406.2</ele>
        <time>2022-08-20T13:31:48Z</time>
      </trkpt>
      <trkpt lat="46.59994" lon="5.50621">
        <ele>405.8</ele>
        <time>2022-08-20T13:31:49Z</time>
      </trkpt>
      <trkpt lat="46.59994" lon="5.50618">
        <ele>405.4</ele>
        <time>2022-08-20T13:31:50Z</time>
      </trkpt>
      <trkpt lat="46.59993" lon="5.50614">
        <ele>404.8</ele>
        <time>2022-08-20T13:31:52Z</time>
      </trkpt>
      <trkpt lat="46.59991" lon="5.50612">
        <ele>404.2</ele>
        <time>2022-08-20T13:31:54Z</time>
      </trkpt>
      <trkpt lat="46.59986" lon="5.5061">
        <ele>403.8</ele>
        <time>2022-08-20T13:31:56Z</time>
      </trkpt>
      <trkpt lat="46.59985" lon="5.5061">
        <ele>403.6</ele>
        <time>2022-08-20T13:31:57Z</time>
      </trkpt>
      <trkpt lat="46.59982" lon="5.5061">
        <ele>403.2</ele>
        <time>2022-08-20T13:31:59Z</time>
      </trkpt>
      <trkpt lat="46.59978" lon="5.5061">
        <ele>402.8</ele>
        <time>2022-08-20T13:32:01Z</time>
      </trkpt>
      <trkpt lat="46.59976" lon="5.5061">
        <ele>402.6</ele>
        <time>2022-08-20T13:32:02Z</time>
      </trkpt>
      <trkpt lat="46.59974" lon="5.5061">
        <ele>402.6</ele>
        <time>2022-08-20T13:32:03Z</time>
      </trkpt>
      <trkpt lat="46.59972" lon="5.50609">
        <ele>402.4</ele>
        <time>2022-08-20T13:32:05Z</time>
      </trkpt>
      <trkpt lat="46.5997" lon="5.50605">
        <ele>402.2</ele>
        <time>2022-08-20T13:32:07Z</time>
      </trkpt>
      <trkpt lat="46.59968" lon="5.50601">
        <ele>401.8</ele>
        <time>2022-08-20T13:32:09Z</time>
      </trkpt>
      <trkpt lat="46.59967" lon="5.50599">
        <ele>401.6</ele>
        <time>2022-08-20T13:32:10Z</time>
      </trkpt>
      <trkpt lat="46.59965" lon="5.50596">
        <ele>401.2</ele>
        <time>2022-08-20T13:32:12Z</time>
      </trkpt>
      <trkpt lat="46.59963" lon="5.50596">
        <ele>401</ele>
        <time>2022-08-20T13:32:13Z</time>
      </trkpt>
      <trkpt lat="46.5996" lon="5.50597">
        <ele>400.4</ele>
        <time>2022-08-20T13:32:15Z</time>
      </trkpt>
      <trkpt lat="46.59957" lon="5.50599">
        <ele>399.8</ele>
        <time>2022-08-20T13:32:17Z</time>
      </trkpt>
      <trkpt lat="46.59952" lon="5.506">
        <ele>399.4</ele>
        <time>2022-08-20T13:32:19Z</time>
      </trkpt>
      <trkpt lat="46.59951" lon="5.506">
        <ele>399.2</ele>
        <time>2022-08-20T13:32:20Z</time>
      </trkpt>
      <trkpt lat="46.59949" lon="5.506">
        <ele>399</ele>
        <time>2022-08-20T13:32:21Z</time>
      </trkpt>
      <trkpt lat="46.59947" lon="5.50601">
        <ele>398.6</ele>
        <time>2022-08-20T13:32:22Z</time>
      </trkpt>
      <trkpt lat="46.59946" lon="5.50602">
        <ele>398.4</ele>
        <time>2022-08-20T13:32:23Z</time>
      </trkpt>
      <trkpt lat="46.59943" lon="5.50606">
        <ele>397.8</ele>
        <time>2022-08-20T13:32:25Z</time>
      </trkpt>
      <trkpt lat="46.59941" lon="5.50603">
        <ele>397.2</ele>
        <time>2022-08-20T13:32:27Z</time>
      </trkpt>
      <trkpt lat="46.59939" lon="5.506">
        <ele>396.8</ele>
        <time>2022-08-20T13:32:28Z</time>
      </trkpt>
      <trkpt lat="46.59938" lon="5.50597">
        <ele>396.6</ele>
        <time>2022-08-20T13:32:29Z</time>
      </trkpt>
      <trkpt lat="46.59937" lon="5.50593">
        <ele>396.2</ele>
        <time>2022-08-20T13:32:30Z</time>
      </trkpt>
      <trkpt lat="46.59935" lon="5.50589">
        <ele>395.8</ele>
        <time>2022-08-20T13:32:31Z</time>
      </trkpt>
      <trkpt lat="46.59934" lon="5.50585">
        <ele>395.6</ele>
        <time>2022-08-20T13:32:32Z</time>
      </trkpt>
      <trkpt lat="46.59933" lon="5.50582">
        <ele>395.2</ele>
        <time>2022-08-20T13:32:33Z</time>
      </trkpt>
      <trkpt lat="46.59932" lon="5.50577">
        <ele>395</ele>
        <time>2022-08-20T13:32:34Z</time>
      </trkpt>
      <trkpt lat="46.59931" lon="5.50573">
        <ele>394.8</ele>
        <time>2022-08-20T13:32:35Z</time>
      </trkpt>
      <trkpt lat="46.59931" lon="5.50569">
        <ele>394.4</ele>
        <time>2022-08-20T13:32:36Z</time>
      </trkpt>
      <trkpt lat="46.59931" lon="5.50564">
        <ele>394.2</ele>
        <time>2022-08-20T13:32:37Z</time>
      </trkpt>
      <trkpt lat="46.59931" lon="5.5056">
        <ele>393.8</ele>
        <time>2022-08-20T13:32:38Z</time>
      </trkpt>
      <trkpt lat="46.59933" lon="5.50557">
        <ele>393.6</ele>
        <time>2022-08-20T13:32:39Z</time>
      </trkpt>
      <trkpt lat="46.59934" lon="5.50554">
        <ele>393.4</ele>
        <time>2022-08-20T13:32:40Z</time>
      </trkpt>
      <trkpt lat="46.59935" lon="5.50551">
        <ele>393</ele>
        <time>2022-08-20T13:32:41Z</time>
      </trkpt>
      <trkpt lat="46.59936" lon="5.50548">
        <ele>392.8</ele>
        <time>2022-08-20T13:32:42Z</time>
      </trkpt>
      <trkpt lat="46.59937" lon="5.50544">
        <ele>392.4</ele>
        <time>2022-08-20T13:32:43Z</time>
      </trkpt>
      <trkpt lat="46.59939" lon="5.50541">
        <ele>392.2</ele>
        <time>2022-08-20T13:32:44Z</time>
      </trkpt>
      <trkpt lat="46.5994" lon="5.50539">
        <ele>392</ele>
        <time>2022-08-20T13:32:45Z</time>
      </trkpt>
      <trkpt lat="46.59941" lon="5.50536">
        <ele>391.6</ele>
        <time>2022-08-20T13:32:46Z</time>
      </trkpt>
      <trkpt lat="46.59943" lon="5.50534">
        <ele>391.4</ele>
        <time>2022-08-20T13:32:47Z</time>
      </trkpt>
      <trkpt lat="46.59946" lon="5.50531">
        <ele>391.2</ele>
        <time>2022-08-20T13:32:48Z</time>
      </trkpt>
      <trkpt lat="46.59948" lon="5.50529">
        <ele>390.8</ele>
        <time>2022-08-20T13:32:49Z</time>
      </trkpt>
      <trkpt lat="46.5995" lon="5.50527">
        <ele>390.6</ele>
        <time>2022-08-20T13:32:50Z</time>
      </trkpt>
      <trkpt lat="46.59952" lon="5.50525">
        <ele>390.2</ele>
        <time>2022-08-20T13:32:51Z</time>
      </trkpt>
      <trkpt lat="46.59955" lon="5.50524">
        <ele>390</ele>
        <time>2022-08-20T13:32:52Z</time>
      </trkpt>
      <trkpt lat="46.59957" lon="5.50523">
        <ele>389.6</ele>
        <time>2022-08-20T13:32:53Z</time>
      </trkpt>
      <trkpt lat="46.59959" lon="5.50521">
        <ele>389.4</ele>
        <time>2022-08-20T13:32:54Z</time>
      </trkpt>
      <trkpt lat="46.59962" lon="5.5052">
        <ele>389</ele>
        <time>2022-08-20T13:32:55Z</time>
      </trkpt>
      <trkpt lat="46.59965" lon="5.50519">
        <ele>388.8</ele>
        <time>2022-08-20T13:32:56Z</time>
      </trkpt>
      <trkpt lat="46.59967" lon="5.50519">
        <ele>388.4</ele>
        <time>2022-08-20T13:32:57Z</time>
      </trkpt>
      <trkpt lat="46.5997" lon="5.50519">
        <ele>388.2</ele>
        <time>2022-08-20T13:32:58Z</time>
      </trkpt>
      <trkpt lat="46.59973" lon="5.5052">
        <ele>388</ele>
        <time>2022-08-20T13:32:59Z</time>
      </trkpt>
      <trkpt lat="46.59976" lon="5.5052">
        <ele>387.6</ele>
        <time>2022-08-20T13:33:00Z</time>
      </trkpt>
      <trkpt lat="46.59979" lon="5.50521">
        <ele>387.6</ele>
        <time>2022-08-20T13:33:01Z</time>
      </trkpt>
      <trkpt lat="46.59982" lon="5.50522">
        <ele>387.4</ele>
        <time>2022-08-20T13:33:02Z</time>
      </trkpt>
      <trkpt lat="46.59985" lon="5.50523">
        <ele>387.2</ele>
        <time>2022-08-20T13:33:03Z</time>
      </trkpt>
      <trkpt lat="46.59988" lon="5.50523">
        <ele>387</ele>
        <time>2022-08-20T13:33:04Z</time>
      </trkpt>
      <trkpt lat="46.5999" lon="5.50525">
        <ele>386.8</ele>
        <time>2022-08-20T13:33:05Z</time>
      </trkpt>
      <trkpt lat="46.59993" lon="5.50526">
        <ele>386.6</ele>
        <time>2022-08-20T13:33:06Z</time>
      </trkpt>
      <trkpt lat="46.59996" lon="5.50527">
        <ele>386.4</ele>
        <time>2022-08-20T13:33:07Z</time>
      </trkpt>
      <trkpt lat="46.59998" lon="5.50528">
        <ele>386.2</ele>
        <time>2022-08-20T13:33:08Z</time>
      </trkpt>
      <trkpt lat="46.60001" lon="5.50529">
        <ele>386</ele>
        <time>2022-08-20T13:33:09Z</time>
      </trkpt>
      <trkpt lat="46.60005" lon="5.5053">
        <ele>385.6</ele>
        <time>2022-08-20T13:33:10Z</time>
      </trkpt>
      <trkpt lat="46.60007" lon="5.50531">
        <ele>385.4</ele>
        <time>2022-08-20T13:33:11Z</time>
      </trkpt>
      <trkpt lat="46.60009" lon="5.50531">
        <ele>385.2</ele>
        <time>2022-08-20T13:33:12Z</time>
      </trkpt>
      <trkpt lat="46.60012" lon="5.50532">
        <ele>385</ele>
        <time>2022-08-20T13:33:13Z</time>
      </trkpt>
      <trkpt lat="46.60015" lon="5.50532">
        <ele>384.8</ele>
        <time>2022-08-20T13:33:14Z</time>
      </trkpt>
      <trkpt lat="46.60018" lon="5.50532">
        <ele>384.4</ele>
        <time>2022-08-20T13:33:15Z</time>
      </trkpt>
      <trkpt lat="46.60021" lon="5.50532">
        <ele>384.2</ele>
        <time>2022-08-20T13:33:16Z</time>
      </trkpt>
      <trkpt lat="46.60023" lon="5.50533">
        <ele>384</ele>
        <time>2022-08-20T13:33:17Z</time>
      </trkpt>
      <trkpt lat="46.60026" lon="5.50534">
        <ele>383.8</ele>
        <time>2022-08-20T13:33:18Z</time>
      </trkpt>
      <trkpt lat="46.60029" lon="5.50535">
        <ele>383.6</ele>
        <time>2022-08-20T13:33:19Z</time>
      </trkpt>
      <trkpt lat="46.60031" lon="5.50536">
        <ele>383.4</ele>
        <time>2022-08-20T13:33:20Z</time>
      </trkpt>
      <trkpt lat="46.60033" lon="5.50537">
        <ele>383</ele>
        <time>2022-08-20T13:33:21Z</time>
      </trkpt>
      <trkpt lat="46.60036" lon="5.50538">
        <ele>382.8</ele>
        <time>2022-08-20T13:33:22Z</time>
      </trkpt>
      <trkpt lat="46.60039" lon="5.50539">
        <ele>382.6</ele>
        <time>2022-08-20T13:33:23Z</time>
      </trkpt>
      <trkpt lat="46.60042" lon="5.5054">
        <ele>382.2</ele>
        <time>2022-08-20T13:33:24Z</time>
      </trkpt>
      <trkpt lat="46.60045" lon="5.50541">
        <ele>382</ele>
        <time>2022-08-20T13:33:25Z</time>
      </trkpt>
      <trkpt lat="46.60048" lon="5.50541">
        <ele>381.8</ele>
        <time>2022-08-20T13:33:26Z</time>
      </trkpt>
      <trkpt lat="46.60051" lon="5.50542">
        <ele>381.4</ele>
        <time>2022-08-20T13:33:27Z</time>
        <extensions>
          <visugpx:TrkExtension xmlns:visugpx="https://www.visugpx.com/editgpx/">
            <visugpx:node>9</visugpx:node>
            </visugpx:TrkExtension>
        </extensions>
      </trkpt>
      <trkpt lat="46.60047" lon="5.50546">
        <ele>365</ele>
      </trkpt>
      <trkpt lat="46.60042" lon="5.50544">
        <ele>365.6</ele>
      </trkpt>
      <trkpt lat="46.6004" lon="5.50537">
        <ele>364.6</ele>
      </trkpt>
      <trkpt lat="46.60035" lon="5.50532">
        <ele>364.6</ele>
      </trkpt>
      <trkpt lat="46.6003" lon="5.50523">
        <ele>363.7</ele>
      </trkpt>
      <trkpt lat="46.60027" lon="5.50521">
        <ele>363.9</ele>
      </trkpt>
      <trkpt lat="46.60023" lon="5.50517">
        <ele>364</ele>
      </trkpt>
      <trkpt lat="46.6002" lon="5.50511">
        <ele>363.5</ele>
      </trkpt>
      <trkpt lat="46.60015" lon="5.505">
        <ele>362.3</ele>
      </trkpt>
      <trkpt lat="46.60012" lon="5.50494">
        <ele>361.6</ele>
      </trkpt>
      <trkpt lat="46.60009" lon="5.50486">
        <ele>360.5</ele>
      </trkpt>
      <trkpt lat="46.60007" lon="5.5048">
        <ele>359.6</ele>
      </trkpt>
      <trkpt lat="46.60002" lon="5.50474">
        <ele>359.1</ele>
      </trkpt>
      <trkpt lat="46.59998" lon="5.50468">
        <ele>358.5</ele>
      </trkpt>
      <trkpt lat="46.59994" lon="5.50459">
        <ele>357.2</ele>
      </trkpt>
      <trkpt lat="46.59987" lon="5.50452">
        <ele>356.2</ele>
      </trkpt>
      <trkpt lat="46.59984" lon="5.50449">
        <ele>355.7</ele>
      </trkpt>
      <trkpt lat="46.59979" lon="5.50448">
        <ele>355.7</ele>
      </trkpt>
      <trkpt lat="46.59974" lon="5.50447">
        <ele>355.7</ele>
      </trkpt>
      <trkpt lat="46.59967" lon="5.50446">
        <ele>355.3</ele>
      </trkpt>
      <trkpt lat="46.5996" lon="5.50444">
        <ele>354.4</ele>
      </trkpt>
      <trkpt lat="46.59951" lon="5.50442">
        <ele>353.6</ele>
      </trkpt>
      <trkpt lat="46.59944" lon="5.5044">
        <ele>352.9</ele>
      </trkpt>
      <trkpt lat="46.59927" lon="5.50436">
        <ele>351.1</ele>
      </trkpt>
      <trkpt lat="46.5992" lon="5.50435">
        <ele>350.4</ele>
      </trkpt>
      <trkpt lat="46.59915" lon="5.50435">
        <ele>349.9</ele>
      </trkpt>
      <trkpt lat="46.59908" lon="5.50435">
        <ele>348.2</ele>
      </trkpt>
      <trkpt lat="46.59903" lon="5.50436">
        <ele>347.3</ele>
      </trkpt>
      <trkpt lat="46.59897" lon="5.50438">
        <ele>346.4</ele>
      </trkpt>
      <trkpt lat="46.59891" lon="5.50442">
        <ele>345.9</ele>
      </trkpt>
      <trkpt lat="46.59887" lon="5.50448">
        <ele>345.8</ele>
      </trkpt>
      <trkpt lat="46.59882" lon="5.50455">
        <ele>344.7</ele>
      </trkpt>
      <trkpt lat="46.59878" lon="5.50461">
        <ele>343.8</ele>
      </trkpt>
      <trkpt lat="46.59874" lon="5.50469">
        <ele>343</ele>
      </trkpt>
      <trkpt lat="46.59872" lon="5.50477">
        <ele>342.8</ele>
      </trkpt>
      <trkpt lat="46.5987" lon="5.50485">
        <ele>342.2</ele>
      </trkpt>
      <trkpt lat="46.59866" lon="5.50496">
        <ele>340.6</ele>
      </trkpt>
      <trkpt lat="46.59864" lon="5.50505">
        <ele>340</ele>
      </trkpt>
      <trkpt lat="46.59862" lon="5.50515">
        <ele>339.6</ele>
      </trkpt>
      <trkpt lat="46.59861" lon="5.50522">
        <ele>339.5</ele>
      </trkpt>
      <trkpt lat="46.59858" lon="5.5053">
        <ele>338.2</ele>
      </trkpt>
      <trkpt lat="46.59856" lon="5.50537">
        <ele>337.1</ele>
      </trkpt>
      <trkpt lat="46.59853" lon="5.5055">
        <ele>335.6</ele>
      </trkpt>
      <trkpt lat="46.59855" lon="5.50576">
        <ele>335.8</ele>
      </trkpt>
      <trkpt lat="46.59854" lon="5.50586">
        <ele>334.5</ele>
      </trkpt>
      <trkpt lat="46.59851" lon="5.50613">
        <ele>328.9</ele>
      </trkpt>
      <trkpt lat="46.59845" lon="5.50578">
        <ele>330</ele>
      </trkpt>
      <trkpt lat="46.59846" lon="5.50531">
        <ele>331.4</ele>
      </trkpt>
      <trkpt lat="46.59844" lon="5.50476">
        <ele>327.3</ele>
      </trkpt>
      <trkpt lat="46.5984" lon="5.50445">
        <ele>323.4</ele>
      </trkpt>
      <trkpt lat="46.59839" lon="5.50423">
        <ele>321</ele>
      </trkpt>
      <trkpt lat="46.5984" lon="5.50406">
        <ele>319.2</ele>
      </trkpt>
      <trkpt lat="46.59845" lon="5.50387">
        <ele>317.7</ele>
      </trkpt>
      <trkpt lat="46.59857" lon="5.50364">
        <ele>314.7</ele>
      </trkpt>
      <trkpt lat="46.59871" lon="5.50339">
        <ele>311.9</ele>
      </trkpt>
      <trkpt lat="46.59877" lon="5.50323">
        <ele>307.7</ele>
      </trkpt>
      <trkpt lat="46.59881" lon="5.50298">
        <ele>299.5</ele>
      </trkpt>
      <trkpt lat="46.5989" lon="5.50279">
        <ele>294.6</ele>
      </trkpt>
      <trkpt lat="46.59893" lon="5.50262">
        <ele>289.5</ele>
      </trkpt>
      <trkpt lat="46.59894" lon="5.50246">
        <ele>284.6</ele>
      </trkpt>
      <trkpt lat="46.59901" lon="5.50233">
        <ele>281.8</ele>
      </trkpt>
      <trkpt lat="46.59905" lon="5.50223">
        <ele>279.5</ele>
      </trkpt>
      <trkpt lat="46.59902" lon="5.50218">
        <ele>277.5</ele>
      </trkpt>
      <trkpt lat="46.59898" lon="5.50215">
        <ele>276.1</ele>
        <extensions>
          <visugpx:TrkExtension xmlns:visugpx="https://www.visugpx.com/editgpx/">
            <visugpx:node>10</visugpx:node>
            </visugpx:TrkExtension>
        </extensions>
      </trkpt>
      <trkpt lat="46.59894" lon="5.50194">
        <ele>281</ele>
        <time>2022-08-20T13:40:10Z</time>
        <extensions>
          <visugpx:TrkExtension xmlns:visugpx="https://www.visugpx.com/editgpx/">
            <visugpx:node>9</visugpx:node>
            </visugpx:TrkExtension>
        </extensions>
      </trkpt>
      <trkpt lat="46.59891" lon="5.50194">
        <ele>280.8</ele>
        <time>2022-08-20T13:40:11Z</time>
      </trkpt>
      <trkpt lat="46.59887" lon="5.50194">
        <ele>280.6</ele>
        <time>2022-08-20T13:40:12Z</time>
      </trkpt>
      <trkpt lat="46.59884" lon="5.50195">
        <ele>280.4</ele>
        <time>2022-08-20T13:40:13Z</time>
      </trkpt>
      <trkpt lat="46.59881" lon="5.50195">
        <ele>280.2</ele>
        <time>2022-08-20T13:40:14Z</time>
      </trkpt>
      <trkpt lat="46.59878" lon="5.50196">
        <ele>280</ele>
        <time>2022-08-20T13:40:15Z</time>
      </trkpt>
      <trkpt lat="46.59875" lon="5.50197">
        <ele>279.8</ele>
        <time>2022-08-20T13:40:16Z</time>
      </trkpt>
      <trkpt lat="46.59872" lon="5.50198">
        <ele>279.4</ele>
        <time>2022-08-20T13:40:17Z</time>
      </trkpt>
      <trkpt lat="46.59869" lon="5.50199">
        <ele>279.2</ele>
        <time>2022-08-20T13:40:18Z</time>
      </trkpt>
      <trkpt lat="46.59866" lon="5.502">
        <ele>279</ele>
        <time>2022-08-20T13:40:19Z</time>
      </trkpt>
      <trkpt lat="46.59863" lon="5.50201">
        <ele>278.6</ele>
        <time>2022-08-20T13:40:20Z</time>
      </trkpt>
      <trkpt lat="46.5986" lon="5.50202">
        <ele>278.4</ele>
        <time>2022-08-20T13:40:21Z</time>
      </trkpt>
      <trkpt lat="46.59857" lon="5.50202">
        <ele>278.2</ele>
        <time>2022-08-20T13:40:22Z</time>
      </trkpt>
      <trkpt lat="46.59854" lon="5.50204">
        <ele>277.8</ele>
        <time>2022-08-20T13:40:23Z</time>
      </trkpt>
      <trkpt lat="46.59852" lon="5.50205">
        <ele>277.6</ele>
        <time>2022-08-20T13:40:24Z</time>
      </trkpt>
      <trkpt lat="46.59849" lon="5.50206">
        <ele>277.4</ele>
        <time>2022-08-20T13:40:25Z</time>
      </trkpt>
      <trkpt lat="46.59846" lon="5.50207">
        <ele>277.2</ele>
        <time>2022-08-20T13:40:26Z</time>
      </trkpt>
      <trkpt lat="46.59843" lon="5.50208">
        <ele>277</ele>
        <time>2022-08-20T13:40:27Z</time>
      </trkpt>
      <trkpt lat="46.5984" lon="5.50209">
        <ele>276.8</ele>
        <time>2022-08-20T13:40:28Z</time>
      </trkpt>
      <trkpt lat="46.59837" lon="5.5021">
        <ele>276.6</ele>
        <time>2022-08-20T13:40:29Z</time>
      </trkpt>
      <trkpt lat="46.59835" lon="5.50211">
        <ele>276.4</ele>
        <time>2022-08-20T13:40:30Z</time>
      </trkpt>
      <trkpt lat="46.59832" lon="5.50212">
        <ele>276.4</ele>
        <time>2022-08-20T13:40:31Z</time>
      </trkpt>
      <trkpt lat="46.59829" lon="5.50214">
        <ele>276.2</ele>
        <time>2022-08-20T13:40:32Z</time>
      </trkpt>
      <trkpt lat="46.59826" lon="5.50215">
        <ele>276.2</ele>
        <time>2022-08-20T13:40:33Z</time>
      </trkpt>
      <trkpt lat="46.59823" lon="5.50217">
        <ele>276</ele>
        <time>2022-08-20T13:40:34Z</time>
      </trkpt>
      <trkpt lat="46.59821" lon="5.50218">
        <ele>276</ele>
        <time>2022-08-20T13:40:35Z</time>
      </trkpt>
      <trkpt lat="46.59818" lon="5.5022">
        <ele>275.8</ele>
        <time>2022-08-20T13:40:36Z</time>
      </trkpt>
      <trkpt lat="46.59815" lon="5.50222">
        <ele>275.8</ele>
        <time>2022-08-20T13:40:37Z</time>
      </trkpt>
      <trkpt lat="46.59812" lon="5.50224">
        <ele>275.8</ele>
        <time>2022-08-20T13:40:38Z</time>
      </trkpt>
      <trkpt lat="46.59809" lon="5.50225">
        <ele>275.6</ele>
        <time>2022-08-20T13:40:39Z</time>
      </trkpt>
      <trkpt lat="46.59806" lon="5.50227">
        <ele>275.6</ele>
        <time>2022-08-20T13:40:40Z</time>
      </trkpt>
      <trkpt lat="46.59803" lon="5.50229">
        <ele>275.6</ele>
        <time>2022-08-20T13:40:41Z</time>
      </trkpt>
      <trkpt lat="46.598" lon="5.50232">
        <ele>275.6</ele>
        <time>2022-08-20T13:40:42Z</time>
      </trkpt>
      <trkpt lat="46.59797" lon="5.50234">
        <ele>275.4</ele>
        <time>2022-08-20T13:40:43Z</time>
      </trkpt>
      <trkpt lat="46.59795" lon="5.50236">
        <ele>275.4</ele>
        <time>2022-08-20T13:40:44Z</time>
      </trkpt>
      <trkpt lat="46.59792" lon="5.50238">
        <ele>275.2</ele>
        <time>2022-08-20T13:40:45Z</time>
      </trkpt>
      <trkpt lat="46.59789" lon="5.50239">
        <ele>275.2</ele>
        <time>2022-08-20T13:40:46Z</time>
      </trkpt>
      <trkpt lat="46.59787" lon="5.50241">
        <ele>275</ele>
        <time>2022-08-20T13:40:47Z</time>
      </trkpt>
      <trkpt lat="46.59784" lon="5.50243">
        <ele>274.8</ele>
        <time>2022-08-20T13:40:48Z</time>
      </trkpt>
      <trkpt lat="46.59781" lon="5.50246">
        <ele>274.6</ele>
        <time>2022-08-20T13:40:49Z</time>
      </trkpt>
      <trkpt lat="46.59778" lon="5.50248">
        <ele>274.4</ele>
        <time>2022-08-20T13:40:50Z</time>
      </trkpt>
      <trkpt lat="46.59775" lon="5.5025">
        <ele>274.2</ele>
        <time>2022-08-20T13:40:51Z</time>
      </trkpt>
      <trkpt lat="46.59772" lon="5.50252">
        <ele>274.2</ele>
        <time>2022-08-20T13:40:52Z</time>
      </trkpt>
      <trkpt lat="46.59769" lon="5.50254">
        <ele>274</ele>
        <time>2022-08-20T13:40:53Z</time>
      </trkpt>
      <trkpt lat="46.59767" lon="5.50255">
        <ele>273.8</ele>
        <time>2022-08-20T13:40:54Z</time>
      </trkpt>
      <trkpt lat="46.59765" lon="5.50257">
        <ele>273.6</ele>
        <time>2022-08-20T13:40:55Z</time>
      </trkpt>
      <trkpt lat="46.59762" lon="5.5026">
        <ele>273.6</ele>
        <time>2022-08-20T13:40:56Z</time>
      </trkpt>
      <trkpt lat="46.59759" lon="5.50263">
        <ele>273.4</ele>
        <time>2022-08-20T13:40:57Z</time>
      </trkpt>
      <trkpt lat="46.59756" lon="5.50266">
        <ele>273.2</ele>
        <time>2022-08-20T13:40:58Z</time>
      </trkpt>
      <trkpt lat="46.59753" lon="5.50268">
        <ele>273</ele>
        <time>2022-08-20T13:40:59Z</time>
      </trkpt>
      <trkpt lat="46.5975" lon="5.5027">
        <ele>272.8</ele>
        <time>2022-08-20T13:41:00Z</time>
      </trkpt>
      <trkpt lat="46.59747" lon="5.50272">
        <ele>272.6</ele>
        <time>2022-08-20T13:41:01Z</time>
      </trkpt>
      <trkpt lat="46.59745" lon="5.50274">
        <ele>272.4</ele>
        <time>2022-08-20T13:41:02Z</time>
      </trkpt>
      <trkpt lat="46.59741" lon="5.50279">
        <ele>272.2</ele>
        <time>2022-08-20T13:41:03Z</time>
      </trkpt>
      <trkpt lat="46.59738" lon="5.50282">
        <ele>271.8</ele>
        <time>2022-08-20T13:41:04Z</time>
      </trkpt>
      <trkpt lat="46.59734" lon="5.50285">
        <ele>271.6</ele>
        <time>2022-08-20T13:41:05Z</time>
      </trkpt>
      <trkpt lat="46.59731" lon="5.50288">
        <ele>271.4</ele>
        <time>2022-08-20T13:41:06Z</time>
      </trkpt>
      <trkpt lat="46.59728" lon="5.50291">
        <ele>271.2</ele>
        <time>2022-08-20T13:41:07Z</time>
      </trkpt>
      <trkpt lat="46.59725" lon="5.50293">
        <ele>271</ele>
        <time>2022-08-20T13:41:08Z</time>
      </trkpt>
      <trkpt lat="46.59723" lon="5.50294">
        <ele>270.6</ele>
        <time>2022-08-20T13:41:09Z</time>
      </trkpt>
      <trkpt lat="46.5972" lon="5.50296">
        <ele>270.4</ele>
        <time>2022-08-20T13:41:10Z</time>
      </trkpt>
      <trkpt lat="46.59717" lon="5.50298">
        <ele>270.2</ele>
        <time>2022-08-20T13:41:11Z</time>
      </trkpt>
      <trkpt lat="46.59714" lon="5.50299">
        <ele>270</ele>
        <time>2022-08-20T13:41:12Z</time>
      </trkpt>
      <trkpt lat="46.59711" lon="5.503">
        <ele>269.8</ele>
        <time>2022-08-20T13:41:13Z</time>
      </trkpt>
      <trkpt lat="46.59708" lon="5.503">
        <ele>269.6</ele>
        <time>2022-08-20T13:41:14Z</time>
      </trkpt>
      <trkpt lat="46.59705" lon="5.503">
        <ele>269.4</ele>
        <time>2022-08-20T13:41:15Z</time>
      </trkpt>
      <trkpt lat="46.59702" lon="5.50299">
        <ele>269.2</ele>
        <time>2022-08-20T13:41:16Z</time>
      </trkpt>
      <trkpt lat="46.59699" lon="5.50298">
        <ele>269</ele>
        <time>2022-08-20T13:41:17Z</time>
      </trkpt>
      <trkpt lat="46.59696" lon="5.50296">
        <ele>269</ele>
        <time>2022-08-20T13:41:18Z</time>
      </trkpt>
      <trkpt lat="46.59694" lon="5.50294">
        <ele>268.8</ele>
        <time>2022-08-20T13:41:19Z</time>
      </trkpt>
      <trkpt lat="46.59692" lon="5.50291">
        <ele>268.8</ele>
        <time>2022-08-20T13:41:20Z</time>
      </trkpt>
      <trkpt lat="46.5969" lon="5.50286">
        <ele>268.6</ele>
        <time>2022-08-20T13:41:21Z</time>
      </trkpt>
      <trkpt lat="46.59689" lon="5.50283">
        <ele>268.2</ele>
        <time>2022-08-20T13:41:22Z</time>
      </trkpt>
      <trkpt lat="46.59688" lon="5.5028">
        <ele>268</ele>
        <time>2022-08-20T13:41:23Z</time>
      </trkpt>
      <trkpt lat="46.59689" lon="5.50276">
        <ele>267.6</ele>
        <time>2022-08-20T13:41:25Z</time>
      </trkpt>
      <trkpt lat="46.5969" lon="5.50273">
        <ele>267</ele>
        <time>2022-08-20T13:41:28Z</time>
      </trkpt>
      <trkpt lat="46.59691" lon="5.5027">
        <ele>264.6</ele>
        <time>2022-08-20T13:41:40Z</time>
      </trkpt>
      <trkpt lat="46.5969" lon="5.50267">
        <ele>262.4</ele>
        <time>2022-08-20T13:42:01Z</time>
      </trkpt>
      <trkpt lat="46.59687" lon="5.50265">
        <ele>257</ele>
        <time>2022-08-20T13:42:53Z</time>
      </trkpt>
      <trkpt lat="46.59684" lon="5.50263">
        <ele>256.8</ele>
        <time>2022-08-20T13:42:55Z</time>
      </trkpt>
      <trkpt lat="46.59681" lon="5.50261">
        <ele>256.6</ele>
        <time>2022-08-20T13:42:57Z</time>
      </trkpt>
      <trkpt lat="46.59679" lon="5.5026">
        <ele>256.6</ele>
        <time>2022-08-20T13:42:58Z</time>
      </trkpt>
      <trkpt lat="46.59677" lon="5.50259">
        <ele>256.6</ele>
        <time>2022-08-20T13:42:59Z</time>
      </trkpt>
      <trkpt lat="46.59674" lon="5.50258">
        <ele>256.4</ele>
        <time>2022-08-20T13:43:01Z</time>
      </trkpt>
      <trkpt lat="46.59671" lon="5.50257">
        <ele>256.2</ele>
        <time>2022-08-20T13:43:03Z</time>
      </trkpt>
      <trkpt lat="46.59669" lon="5.50258">
        <ele>256</ele>
        <time>2022-08-20T13:43:05Z</time>
      </trkpt>
      <trkpt lat="46.59667" lon="5.50258">
        <ele>255.8</ele>
        <time>2022-08-20T13:43:07Z</time>
      </trkpt>
      <trkpt lat="46.59665" lon="5.50259">
        <ele>255.6</ele>
        <time>2022-08-20T13:43:08Z</time>
      </trkpt>
      <trkpt lat="46.59662" lon="5.5026">
        <ele>255.6</ele>
        <time>2022-08-20T13:43:10Z</time>
      </trkpt>
      <trkpt lat="46.59661" lon="5.5026">
        <ele>255.4</ele>
        <time>2022-08-20T13:43:11Z</time>
      </trkpt>
      <trkpt lat="46.59658" lon="5.5026">
        <ele>255.4</ele>
        <time>2022-08-20T13:43:13Z</time>
      </trkpt>
      <trkpt lat="46.59655" lon="5.50261">
        <ele>255.4</ele>
        <time>2022-08-20T13:43:15Z</time>
      </trkpt>
      <trkpt lat="46.59653" lon="5.50262">
        <ele>255.4</ele>
        <time>2022-08-20T13:43:16Z</time>
      </trkpt>
      <trkpt lat="46.59652" lon="5.50263">
        <ele>255.4</ele>
        <time>2022-08-20T13:43:17Z</time>
      </trkpt>
      <trkpt lat="46.5965" lon="5.50264">
        <ele>255.4</ele>
        <time>2022-08-20T13:43:18Z</time>
      </trkpt>
      <trkpt lat="46.59647" lon="5.50264">
        <ele>255.4</ele>
        <time>2022-08-20T13:43:20Z</time>
      </trkpt>
      <trkpt lat="46.59644" lon="5.50265">
        <ele>255.4</ele>
        <time>2022-08-20T13:43:22Z</time>
      </trkpt>
      <trkpt lat="46.59641" lon="5.50267">
        <ele>255.2</ele>
        <time>2022-08-20T13:43:25Z</time>
      </trkpt>
      <trkpt lat="46.59639" lon="5.50267">
        <ele>255.2</ele>
        <time>2022-08-20T13:43:26Z</time>
      </trkpt>
      <trkpt lat="46.59636" lon="5.50268">
        <ele>255.2</ele>
        <time>2022-08-20T13:43:27Z</time>
      </trkpt>
      <trkpt lat="46.59634" lon="5.5027">
        <ele>255</ele>
        <time>2022-08-20T13:43:28Z</time>
      </trkpt>
      <trkpt lat="46.59631" lon="5.50271">
        <ele>255</ele>
        <time>2022-08-20T13:43:29Z</time>
      </trkpt>
      <trkpt lat="46.59628" lon="5.50272">
        <ele>254.8</ele>
        <time>2022-08-20T13:43:30Z</time>
      </trkpt>
      <trkpt lat="46.59626" lon="5.50273">
        <ele>254.6</ele>
        <time>2022-08-20T13:43:31Z</time>
      </trkpt>
      <trkpt lat="46.59622" lon="5.50273">
        <ele>254.6</ele>
        <time>2022-08-20T13:43:32Z</time>
      </trkpt>
      <trkpt lat="46.59619" lon="5.50273">
        <ele>254.6</ele>
        <time>2022-08-20T13:43:33Z</time>
      </trkpt>
      <trkpt lat="46.59615" lon="5.50274">
        <ele>254.4</ele>
        <time>2022-08-20T13:43:34Z</time>
      </trkpt>
      <trkpt lat="46.59613" lon="5.50275">
        <ele>254.4</ele>
        <time>2022-08-20T13:43:35Z</time>
      </trkpt>
      <trkpt lat="46.5961" lon="5.50277">
        <ele>254.4</ele>
        <time>2022-08-20T13:43:36Z</time>
      </trkpt>
      <trkpt lat="46.59608" lon="5.50278">
        <ele>254.4</ele>
        <time>2022-08-20T13:43:37Z</time>
      </trkpt>
      <trkpt lat="46.59605" lon="5.50279">
        <ele>254.4</ele>
        <time>2022-08-20T13:43:38Z</time>
      </trkpt>
      <trkpt lat="46.59603" lon="5.50279">
        <ele>254.4</ele>
        <time>2022-08-20T13:43:39Z</time>
      </trkpt>
      <trkpt lat="46.596" lon="5.5028">
        <ele>254.4</ele>
        <time>2022-08-20T13:43:40Z</time>
      </trkpt>
      <trkpt lat="46.59597" lon="5.50281">
        <ele>254.4</ele>
        <time>2022-08-20T13:43:41Z</time>
      </trkpt>
      <trkpt lat="46.59594" lon="5.50282">
        <ele>254.4</ele>
        <time>2022-08-20T13:43:42Z</time>
      </trkpt>
      <trkpt lat="46.59591" lon="5.50282">
        <ele>254.4</ele>
        <time>2022-08-20T13:43:43Z</time>
      </trkpt>
      <trkpt lat="46.59588" lon="5.50282">
        <ele>254.2</ele>
        <time>2022-08-20T13:43:44Z</time>
      </trkpt>
      <trkpt lat="46.59585" lon="5.50283">
        <ele>254.2</ele>
        <time>2022-08-20T13:43:45Z</time>
      </trkpt>
      <trkpt lat="46.59582" lon="5.50285">
        <ele>254.2</ele>
        <time>2022-08-20T13:43:46Z</time>
      </trkpt>
      <trkpt lat="46.5958" lon="5.50288">
        <ele>254.2</ele>
        <time>2022-08-20T13:43:47Z</time>
      </trkpt>
      <trkpt lat="46.59578" lon="5.50291">
        <ele>254</ele>
        <time>2022-08-20T13:43:48Z</time>
      </trkpt>
      <trkpt lat="46.59575" lon="5.50293">
        <ele>253.8</ele>
        <time>2022-08-20T13:43:49Z</time>
      </trkpt>
      <trkpt lat="46.59573" lon="5.50296">
        <ele>253.8</ele>
        <time>2022-08-20T13:43:50Z</time>
      </trkpt>
      <trkpt lat="46.5957" lon="5.503">
        <ele>253.6</ele>
        <time>2022-08-20T13:43:51Z</time>
      </trkpt>
      <trkpt lat="46.59568" lon="5.50304">
        <ele>253.4</ele>
        <time>2022-08-20T13:43:52Z</time>
      </trkpt>
      <trkpt lat="46.59566" lon="5.50307">
        <ele>253.2</ele>
        <time>2022-08-20T13:43:53Z</time>
      </trkpt>
      <trkpt lat="46.59564" lon="5.50311">
        <ele>252.8</ele>
        <time>2022-08-20T13:43:54Z</time>
      </trkpt>
      <trkpt lat="46.59561" lon="5.50314">
        <ele>252.6</ele>
        <time>2022-08-20T13:43:55Z</time>
      </trkpt>
      <trkpt lat="46.59559" lon="5.50317">
        <ele>252.4</ele>
        <time>2022-08-20T13:43:56Z</time>
      </trkpt>
      <trkpt lat="46.59557" lon="5.5032">
        <ele>252.2</ele>
        <time>2022-08-20T13:43:57Z</time>
      </trkpt>
      <trkpt lat="46.59554" lon="5.50323">
        <ele>252</ele>
        <time>2022-08-20T13:43:58Z</time>
      </trkpt>
      <trkpt lat="46.59551" lon="5.50324">
        <ele>251.8</ele>
        <time>2022-08-20T13:43:59Z</time>
      </trkpt>
      <trkpt lat="46.59548" lon="5.50325">
        <ele>251.6</ele>
        <time>2022-08-20T13:44:00Z</time>
      </trkpt>
      <trkpt lat="46.59546" lon="5.50326">
        <ele>251.4</ele>
        <time>2022-08-20T13:44:01Z</time>
      </trkpt>
      <trkpt lat="46.59544" lon="5.50326">
        <ele>251.2</ele>
        <time>2022-08-20T13:44:02Z</time>
      </trkpt>
      <trkpt lat="46.59541" lon="5.50326">
        <ele>251</ele>
        <time>2022-08-20T13:44:03Z</time>
      </trkpt>
      <trkpt lat="46.59538" lon="5.50325">
        <ele>250.8</ele>
        <time>2022-08-20T13:44:04Z</time>
      </trkpt>
      <trkpt lat="46.59535" lon="5.50324">
        <ele>250.6</ele>
        <time>2022-08-20T13:44:05Z</time>
      </trkpt>
      <trkpt lat="46.59532" lon="5.50322">
        <ele>250.4</ele>
        <time>2022-08-20T13:44:06Z</time>
      </trkpt>
      <trkpt lat="46.59529" lon="5.5032">
        <ele>250.4</ele>
        <time>2022-08-20T13:44:07Z</time>
      </trkpt>
      <trkpt lat="46.59525" lon="5.50319">
        <ele>250.2</ele>
        <time>2022-08-20T13:44:08Z</time>
      </trkpt>
      <trkpt lat="46.59523" lon="5.50317">
        <ele>250</ele>
        <time>2022-08-20T13:44:09Z</time>
      </trkpt>
      <trkpt lat="46.5952" lon="5.50314">
        <ele>249.8</ele>
        <time>2022-08-20T13:44:10Z</time>
      </trkpt>
      <trkpt lat="46.59517" lon="5.50311">
        <ele>249.6</ele>
        <time>2022-08-20T13:44:11Z</time>
      </trkpt>
      <trkpt lat="46.59514" lon="5.50308">
        <ele>249.4</ele>
        <time>2022-08-20T13:44:12Z</time>
      </trkpt>
      <trkpt lat="46.59512" lon="5.50304">
        <ele>249.4</ele>
        <time>2022-08-20T13:44:13Z</time>
      </trkpt>
      <trkpt lat="46.5951" lon="5.503">
        <ele>249.4</ele>
        <time>2022-08-20T13:44:14Z</time>
      </trkpt>
      <trkpt lat="46.59508" lon="5.50297">
        <ele>249.2</ele>
        <time>2022-08-20T13:44:15Z</time>
      </trkpt>
      <trkpt lat="46.59506" lon="5.50293">
        <ele>249.2</ele>
        <time>2022-08-20T13:44:16Z</time>
      </trkpt>
      <trkpt lat="46.59504" lon="5.50288">
        <ele>249</ele>
        <time>2022-08-20T13:44:17Z</time>
      </trkpt>
      <trkpt lat="46.59501" lon="5.50284">
        <ele>248.8</ele>
        <time>2022-08-20T13:44:18Z</time>
      </trkpt>
      <trkpt lat="46.59499" lon="5.50281">
        <ele>248.8</ele>
        <time>2022-08-20T13:44:19Z</time>
      </trkpt>
      <trkpt lat="46.59497" lon="5.50277">
        <ele>248.6</ele>
        <time>2022-08-20T13:44:20Z</time>
      </trkpt>
      <trkpt lat="46.59495" lon="5.50274">
        <ele>248.4</ele>
        <time>2022-08-20T13:44:21Z</time>
      </trkpt>
      <trkpt lat="46.59493" lon="5.5027">
        <ele>248.4</ele>
        <time>2022-08-20T13:44:22Z</time>
      </trkpt>
      <trkpt lat="46.59491" lon="5.50267">
        <ele>248.2</ele>
        <time>2022-08-20T13:44:23Z</time>
      </trkpt>
      <trkpt lat="46.59491" lon="5.50263">
        <ele>248.2</ele>
        <time>2022-08-20T13:44:24Z</time>
      </trkpt>
      <trkpt lat="46.5949" lon="5.5026">
        <ele>248</ele>
        <time>2022-08-20T13:44:25Z</time>
      </trkpt>
      <trkpt lat="46.59488" lon="5.50256">
        <ele>248</ele>
        <time>2022-08-20T13:44:26Z</time>
      </trkpt>
      <trkpt lat="46.59486" lon="5.50253">
        <ele>247.8</ele>
        <time>2022-08-20T13:44:27Z</time>
      </trkpt>
      <trkpt lat="46.59485" lon="5.5025">
        <ele>247.8</ele>
        <time>2022-08-20T13:44:28Z</time>
      </trkpt>
      <trkpt lat="46.59483" lon="5.50246">
        <ele>247.6</ele>
        <time>2022-08-20T13:44:29Z</time>
      </trkpt>
      <trkpt lat="46.59481" lon="5.50243">
        <ele>247.4</ele>
        <time>2022-08-20T13:44:30Z</time>
      </trkpt>
      <trkpt lat="46.59479" lon="5.50241">
        <ele>247.4</ele>
        <time>2022-08-20T13:44:31Z</time>
      </trkpt>
      <trkpt lat="46.59477" lon="5.50239">
        <ele>247.2</ele>
        <time>2022-08-20T13:44:32Z</time>
      </trkpt>
      <trkpt lat="46.59474" lon="5.50237">
        <ele>247</ele>
        <time>2022-08-20T13:44:33Z</time>
      </trkpt>
      <trkpt lat="46.59472" lon="5.50237">
        <ele>247</ele>
        <time>2022-08-20T13:44:34Z</time>
      </trkpt>
      <trkpt lat="46.5947" lon="5.50237">
        <ele>246.8</ele>
        <time>2022-08-20T13:44:35Z</time>
      </trkpt>
      <trkpt lat="46.59467" lon="5.50236">
        <ele>246.8</ele>
        <time>2022-08-20T13:44:36Z</time>
      </trkpt>
      <trkpt lat="46.59465" lon="5.50236">
        <ele>246.6</ele>
        <time>2022-08-20T13:44:37Z</time>
      </trkpt>
      <trkpt lat="46.59463" lon="5.50235">
        <ele>246.6</ele>
        <time>2022-08-20T13:44:38Z</time>
      </trkpt>
      <trkpt lat="46.5946" lon="5.50234">
        <ele>246.6</ele>
        <time>2022-08-20T13:44:39Z</time>
      </trkpt>
      <trkpt lat="46.59457" lon="5.50233">
        <ele>246.6</ele>
        <time>2022-08-20T13:44:40Z</time>
      </trkpt>
      <trkpt lat="46.59455" lon="5.50233">
        <ele>246.6</ele>
        <time>2022-08-20T13:44:41Z</time>
      </trkpt>
      <trkpt lat="46.59453" lon="5.50233">
        <ele>246.6</ele>
        <time>2022-08-20T13:44:42Z</time>
      </trkpt>
      <trkpt lat="46.5945" lon="5.50234">
        <ele>246.6</ele>
        <time>2022-08-20T13:44:43Z</time>
      </trkpt>
      <trkpt lat="46.59447" lon="5.50236">
        <ele>246.4</ele>
        <time>2022-08-20T13:44:45Z</time>
      </trkpt>
      <trkpt lat="46.59445" lon="5.50238">
        <ele>246.4</ele>
        <time>2022-08-20T13:44:47Z</time>
      </trkpt>
      <trkpt lat="46.59441" lon="5.50244">
        <ele>246.4</ele>
        <time>2022-08-20T13:44:49Z</time>
      </trkpt>
      <trkpt lat="46.5944" lon="5.50245">
        <ele>246.4</ele>
        <time>2022-08-20T13:44:50Z</time>
      </trkpt>
      <trkpt lat="46.59438" lon="5.50248">
        <ele>246.4</ele>
        <time>2022-08-20T13:44:51Z</time>
      </trkpt>
      <trkpt lat="46.59436" lon="5.50251">
        <ele>246.4</ele>
        <time>2022-08-20T13:44:53Z</time>
      </trkpt>
      <trkpt lat="46.59434" lon="5.50254">
        <ele>246.4</ele>
        <time>2022-08-20T13:44:55Z</time>
      </trkpt>
      <trkpt lat="46.59431" lon="5.50257">
        <ele>246.2</ele>
        <time>2022-08-20T13:44:57Z</time>
      </trkpt>
      <trkpt lat="46.59429" lon="5.5026">
        <ele>246</ele>
        <time>2022-08-20T13:44:59Z</time>
      </trkpt>
      <trkpt lat="46.59427" lon="5.50263">
        <ele>245.6</ele>
        <time>2022-08-20T13:45:01Z</time>
      </trkpt>
      <trkpt lat="46.59424" lon="5.50266">
        <ele>245.4</ele>
        <time>2022-08-20T13:45:03Z</time>
      </trkpt>
      <trkpt lat="46.59421" lon="5.5027">
        <ele>245.2</ele>
        <time>2022-08-20T13:45:05Z</time>
      </trkpt>
      <trkpt lat="46.59419" lon="5.50273">
        <ele>244.8</ele>
        <time>2022-08-20T13:45:07Z</time>
      </trkpt>
      <trkpt lat="46.59417" lon="5.50276">
        <ele>244.6</ele>
        <time>2022-08-20T13:45:09Z</time>
      </trkpt>
      <trkpt lat="46.59415" lon="5.5028">
        <ele>244.2</ele>
        <time>2022-08-20T13:45:11Z</time>
      </trkpt>
      <trkpt lat="46.59413" lon="5.50283">
        <ele>244</ele>
        <time>2022-08-20T13:45:13Z</time>
      </trkpt>
      <trkpt lat="46.59411" lon="5.50285">
        <ele>243.8</ele>
        <time>2022-08-20T13:45:15Z</time>
      </trkpt>
      <trkpt lat="46.59408" lon="5.50287">
        <ele>243.6</ele>
        <time>2022-08-20T13:45:17Z</time>
      </trkpt>
      <trkpt lat="46.59407" lon="5.5029">
        <ele>243.4</ele>
        <time>2022-08-20T13:45:20Z</time>
      </trkpt>
      <trkpt lat="46.59405" lon="5.50292">
        <ele>243.4</ele>
        <time>2022-08-20T13:45:21Z</time>
      </trkpt>
      <trkpt lat="46.59403" lon="5.50292">
        <ele>243.4</ele>
        <time>2022-08-20T13:45:22Z</time>
      </trkpt>
      <trkpt lat="46.594" lon="5.50293">
        <ele>243.4</ele>
        <time>2022-08-20T13:45:24Z</time>
      </trkpt>
      <trkpt lat="46.59397" lon="5.50294">
        <ele>243.4</ele>
        <time>2022-08-20T13:45:27Z</time>
      </trkpt>
      <trkpt lat="46.59395" lon="5.50295">
        <ele>243.2</ele>
        <time>2022-08-20T13:45:28Z</time>
      </trkpt>
      <trkpt lat="46.59393" lon="5.50296">
        <ele>243.2</ele>
        <time>2022-08-20T13:45:29Z</time>
      </trkpt>
      <trkpt lat="46.59391" lon="5.50297">
        <ele>243.2</ele>
        <time>2022-08-20T13:45:30Z</time>
      </trkpt>
      <trkpt lat="46.59389" lon="5.50297">
        <ele>243.2</ele>
        <time>2022-08-20T13:45:31Z</time>
      </trkpt>
      <trkpt lat="46.59385" lon="5.50296">
        <ele>243.2</ele>
        <time>2022-08-20T13:45:33Z</time>
      </trkpt>
      <trkpt lat="46.59383" lon="5.50293">
        <ele>243.2</ele>
        <time>2022-08-20T13:45:35Z</time>
      </trkpt>
      <trkpt lat="46.5938" lon="5.50291">
        <ele>243.2</ele>
        <time>2022-08-20T13:45:37Z</time>
      </trkpt>
      <trkpt lat="46.59377" lon="5.50288">
        <ele>243.4</ele>
        <time>2022-08-20T13:45:39Z</time>
      </trkpt>
      <trkpt lat="46.59375" lon="5.50286">
        <ele>243.6</ele>
        <time>2022-08-20T13:45:41Z</time>
      </trkpt>
      <trkpt lat="46.59373" lon="5.50285">
        <ele>243.6</ele>
        <time>2022-08-20T13:45:42Z</time>
      </trkpt>
      <trkpt lat="46.59372" lon="5.50284">
        <ele>243.6</ele>
        <time>2022-08-20T13:45:43Z</time>
      </trkpt>
      <trkpt lat="46.59371" lon="5.50281">
        <ele>243.8</ele>
        <time>2022-08-20T13:45:45Z</time>
      </trkpt>
      <trkpt lat="46.59371" lon="5.50279">
        <ele>244</ele>
        <time>2022-08-20T13:45:48Z</time>
      </trkpt>
      <trkpt lat="46.59371" lon="5.50275">
        <ele>244.4</ele>
        <time>2022-08-20T13:45:58Z</time>
      </trkpt>
      <trkpt lat="46.5937" lon="5.50272">
        <ele>245.4</ele>
        <time>2022-08-20T13:46:05Z</time>
      </trkpt>
      <trkpt lat="46.5937" lon="5.50269">
        <ele>245.6</ele>
        <time>2022-08-20T13:46:07Z</time>
      </trkpt>
      <trkpt lat="46.59371" lon="5.50266">
        <ele>245.6</ele>
        <time>2022-08-20T13:46:09Z</time>
      </trkpt>
      <trkpt lat="46.5937" lon="5.50261">
        <ele>245.6</ele>
        <time>2022-08-20T13:46:11Z</time>
      </trkpt>
      <trkpt lat="46.59371" lon="5.50257">
        <ele>245.8</ele>
        <time>2022-08-20T13:46:13Z</time>
      </trkpt>
      <trkpt lat="46.59372" lon="5.50252">
        <ele>245.8</ele>
        <time>2022-08-20T13:46:15Z</time>
      </trkpt>
      <trkpt lat="46.59373" lon="5.50249">
        <ele>245.8</ele>
        <time>2022-08-20T13:46:16Z</time>
      </trkpt>
      <trkpt lat="46.59373" lon="5.50245">
        <ele>246</ele>
        <time>2022-08-20T13:46:18Z</time>
      </trkpt>
      <trkpt lat="46.59373" lon="5.50239">
        <ele>246</ele>
        <time>2022-08-20T13:46:20Z</time>
      </trkpt>
      <trkpt lat="46.59373" lon="5.50235">
        <ele>246.2</ele>
        <time>2022-08-20T13:46:22Z</time>
      </trkpt>
      <trkpt lat="46.59374" lon="5.50232">
        <ele>246.2</ele>
        <time>2022-08-20T13:46:24Z</time>
      </trkpt>
      <trkpt lat="46.59374" lon="5.50229">
        <ele>246.2</ele>
        <time>2022-08-20T13:46:25Z</time>
      </trkpt>
      <trkpt lat="46.59374" lon="5.50226">
        <ele>246.2</ele>
        <time>2022-08-20T13:46:26Z</time>
      </trkpt>
      <trkpt lat="46.59375" lon="5.50223">
        <ele>246.2</ele>
        <time>2022-08-20T13:46:27Z</time>
      </trkpt>
      <trkpt lat="46.59375" lon="5.50219">
        <ele>246.4</ele>
        <time>2022-08-20T13:46:29Z</time>
      </trkpt>
      <trkpt lat="46.59375" lon="5.50214">
        <ele>246.4</ele>
        <time>2022-08-20T13:46:31Z</time>
      </trkpt>
      <trkpt lat="46.59375" lon="5.50211">
        <ele>246.6</ele>
        <time>2022-08-20T13:46:32Z</time>
      </trkpt>
      <trkpt lat="46.59375" lon="5.50208">
        <ele>246.6</ele>
        <time>2022-08-20T13:46:33Z</time>
      </trkpt>
      <trkpt lat="46.59374" lon="5.50206">
        <ele>246.6</ele>
        <time>2022-08-20T13:46:34Z</time>
      </trkpt>
      <trkpt lat="46.59374" lon="5.50201">
        <ele>246.6</ele>
        <time>2022-08-20T13:46:36Z</time>
      </trkpt>
      <trkpt lat="46.59373" lon="5.50197">
        <ele>246.6</ele>
        <time>2022-08-20T13:46:38Z</time>
      </trkpt>
      <trkpt lat="46.59373" lon="5.50193">
        <ele>246.6</ele>
        <time>2022-08-20T13:46:40Z</time>
      </trkpt>
      <trkpt lat="46.59373" lon="5.50189">
        <ele>246.4</ele>
        <time>2022-08-20T13:46:42Z</time>
      </trkpt>
      <trkpt lat="46.59373" lon="5.50185">
        <ele>246.4</ele>
        <time>2022-08-20T13:46:44Z</time>
      </trkpt>
      <trkpt lat="46.59373" lon="5.50182">
        <ele>246.4</ele>
        <time>2022-08-20T13:46:46Z</time>
      </trkpt>
      <trkpt lat="46.5937" lon="5.50178">
        <ele>246.4</ele>
        <time>2022-08-20T13:46:48Z</time>
      </trkpt>
      <trkpt lat="46.59369" lon="5.50175">
        <ele>246.6</ele>
        <time>2022-08-20T13:46:50Z</time>
      </trkpt>
      <trkpt lat="46.59367" lon="5.50173">
        <ele>246.6</ele>
        <time>2022-08-20T13:46:51Z</time>
      </trkpt>
      <trkpt lat="46.59365" lon="5.5017">
        <ele>246.6</ele>
        <time>2022-08-20T13:46:53Z</time>
      </trkpt>
      <trkpt lat="46.59363" lon="5.50167">
        <ele>246.6</ele>
        <time>2022-08-20T13:46:55Z</time>
      </trkpt>
      <trkpt lat="46.59361" lon="5.50165">
        <ele>246.6</ele>
        <time>2022-08-20T13:46:57Z</time>
      </trkpt>
      <trkpt lat="46.59358" lon="5.50162">
        <ele>246.8</ele>
        <time>2022-08-20T13:46:59Z</time>
      </trkpt>
      <trkpt lat="46.59355" lon="5.5016">
        <ele>247</ele>
        <time>2022-08-20T13:47:01Z</time>
      </trkpt>
      <trkpt lat="46.59352" lon="5.50159">
        <ele>247.2</ele>
        <time>2022-08-20T13:47:03Z</time>
      </trkpt>
      <trkpt lat="46.59349" lon="5.50158">
        <ele>247.6</ele>
        <time>2022-08-20T13:47:05Z</time>
      </trkpt>
      <trkpt lat="46.59345" lon="5.50158">
        <ele>248</ele>
        <time>2022-08-20T13:47:07Z</time>
      </trkpt>
      <trkpt lat="46.59343" lon="5.50158">
        <ele>248.4</ele>
        <time>2022-08-20T13:47:09Z</time>
      </trkpt>
      <trkpt lat="46.5934" lon="5.50157">
        <ele>248.8</ele>
        <time>2022-08-20T13:47:11Z</time>
      </trkpt>
      <trkpt lat="46.59337" lon="5.50157">
        <ele>249</ele>
        <time>2022-08-20T13:47:13Z</time>
      </trkpt>
      <trkpt lat="46.59335" lon="5.50158">
        <ele>249.2</ele>
        <time>2022-08-20T13:47:14Z</time>
      </trkpt>
      <trkpt lat="46.59333" lon="5.50158">
        <ele>249.4</ele>
        <time>2022-08-20T13:47:16Z</time>
      </trkpt>
      <trkpt lat="46.59331" lon="5.50158">
        <ele>249.4</ele>
        <time>2022-08-20T13:47:17Z</time>
      </trkpt>
      <trkpt lat="46.59329" lon="5.50157">
        <ele>249.6</ele>
        <time>2022-08-20T13:47:18Z</time>
      </trkpt>
      <trkpt lat="46.59325" lon="5.50157">
        <ele>249.8</ele>
        <time>2022-08-20T13:47:20Z</time>
      </trkpt>
      <trkpt lat="46.59324" lon="5.50156">
        <ele>250</ele>
        <time>2022-08-20T13:47:21Z</time>
      </trkpt>
      <trkpt lat="46.5932" lon="5.50154">
        <ele>250.2</ele>
        <time>2022-08-20T13:47:23Z</time>
      </trkpt>
      <trkpt lat="46.59317" lon="5.50152">
        <ele>250.6</ele>
        <time>2022-08-20T13:47:25Z</time>
      </trkpt>
      <trkpt lat="46.59315" lon="5.50151">
        <ele>250.8</ele>
        <time>2022-08-20T13:47:27Z</time>
      </trkpt>
      <trkpt lat="46.59312" lon="5.50149">
        <ele>251.2</ele>
        <time>2022-08-20T13:47:29Z</time>
      </trkpt>
      <trkpt lat="46.59309" lon="5.50147">
        <ele>251.4</ele>
        <time>2022-08-20T13:47:31Z</time>
      </trkpt>
      <trkpt lat="46.59306" lon="5.50144">
        <ele>251.8</ele>
        <time>2022-08-20T13:47:33Z</time>
      </trkpt>
      <trkpt lat="46.59304" lon="5.50143">
        <ele>252</ele>
        <time>2022-08-20T13:47:34Z</time>
      </trkpt>
      <trkpt lat="46.59302" lon="5.5014">
        <ele>252.2</ele>
        <time>2022-08-20T13:47:36Z</time>
      </trkpt>
      <trkpt lat="46.59301" lon="5.50138">
        <ele>252.4</ele>
        <time>2022-08-20T13:47:38Z</time>
      </trkpt>
      <trkpt lat="46.59298" lon="5.50136">
        <ele>252.6</ele>
        <time>2022-08-20T13:47:40Z</time>
      </trkpt>
      <trkpt lat="46.59297" lon="5.50135">
        <ele>252.6</ele>
        <time>2022-08-20T13:47:41Z</time>
      </trkpt>
      <trkpt lat="46.59294" lon="5.50132">
        <ele>252.8</ele>
        <time>2022-08-20T13:47:43Z</time>
      </trkpt>
      <trkpt lat="46.59293" lon="5.50129">
        <ele>253</ele>
        <time>2022-08-20T13:47:45Z</time>
      </trkpt>
      <trkpt lat="46.59291" lon="5.50127">
        <ele>253.2</ele>
        <time>2022-08-20T13:47:47Z</time>
      </trkpt>
      <trkpt lat="46.5929" lon="5.50124">
        <ele>253.4</ele>
        <time>2022-08-20T13:47:49Z</time>
      </trkpt>
      <trkpt lat="46.59288" lon="5.50122">
        <ele>253.6</ele>
        <time>2022-08-20T13:47:51Z</time>
      </trkpt>
      <trkpt lat="46.59285" lon="5.5012">
        <ele>253.8</ele>
        <time>2022-08-20T13:47:53Z</time>
      </trkpt>
      <trkpt lat="46.59283" lon="5.50118">
        <ele>254</ele>
        <time>2022-08-20T13:47:55Z</time>
      </trkpt>
      <trkpt lat="46.59281" lon="5.50117">
        <ele>254.2</ele>
        <time>2022-08-20T13:47:56Z</time>
      </trkpt>
      <trkpt lat="46.59278" lon="5.50115">
        <ele>254.6</ele>
        <time>2022-08-20T13:47:58Z</time>
      </trkpt>
      <trkpt lat="46.59275" lon="5.50112">
        <ele>255</ele>
        <time>2022-08-20T13:48:00Z</time>
      </trkpt>
      <trkpt lat="46.59272" lon="5.50109">
        <ele>255.6</ele>
        <time>2022-08-20T13:48:02Z</time>
      </trkpt>
      <trkpt lat="46.5927" lon="5.50106">
        <ele>256.2</ele>
        <time>2022-08-20T13:48:04Z</time>
      </trkpt>
      <trkpt lat="46.59268" lon="5.50104">
        <ele>256.6</ele>
        <time>2022-08-20T13:48:06Z</time>
      </trkpt>
      <trkpt lat="46.59266" lon="5.50102">
        <ele>257.2</ele>
        <time>2022-08-20T13:48:08Z</time>
      </trkpt>
      <trkpt lat="46.59264" lon="5.501">
        <ele>257.6</ele>
        <time>2022-08-20T13:48:10Z</time>
      </trkpt>
      <trkpt lat="46.59261" lon="5.50097">
        <ele>258.2</ele>
        <time>2022-08-20T13:48:12Z</time>
      </trkpt>
      <trkpt lat="46.59261" lon="5.50094">
        <ele>258.8</ele>
        <time>2022-08-20T13:48:14Z</time>
      </trkpt>
      <trkpt lat="46.59259" lon="5.50091">
        <ele>259.2</ele>
        <time>2022-08-20T13:48:16Z</time>
      </trkpt>
      <trkpt lat="46.59255" lon="5.50088">
        <ele>259.8</ele>
        <time>2022-08-20T13:48:18Z</time>
      </trkpt>
      <trkpt lat="46.59254" lon="5.50085">
        <ele>260.2</ele>
        <time>2022-08-20T13:48:20Z</time>
      </trkpt>
      <trkpt lat="46.59254" lon="5.50082">
        <ele>260.6</ele>
        <time>2022-08-20T13:48:22Z</time>
      </trkpt>
      <trkpt lat="46.59253" lon="5.50078">
        <ele>261</ele>
        <time>2022-08-20T13:48:24Z</time>
      </trkpt>
      <trkpt lat="46.59251" lon="5.50073">
        <ele>261.4</ele>
        <time>2022-08-20T13:48:26Z</time>
      </trkpt>
      <trkpt lat="46.5925" lon="5.5007">
        <ele>261.8</ele>
        <time>2022-08-20T13:48:28Z</time>
      </trkpt>
      <trkpt lat="46.59248" lon="5.50066">
        <ele>262</ele>
        <time>2022-08-20T13:48:30Z</time>
      </trkpt>
      <trkpt lat="46.59247" lon="5.50063">
        <ele>262.4</ele>
        <time>2022-08-20T13:48:32Z</time>
      </trkpt>
      <trkpt lat="46.59246" lon="5.5006">
        <ele>262.8</ele>
        <time>2022-08-20T13:48:34Z</time>
      </trkpt>
      <trkpt lat="46.59244" lon="5.50058">
        <ele>263</ele>
        <time>2022-08-20T13:48:36Z</time>
      </trkpt>
      <trkpt lat="46.59242" lon="5.50056">
        <ele>263.2</ele>
        <time>2022-08-20T13:48:38Z</time>
      </trkpt>
      <trkpt lat="46.59241" lon="5.50053">
        <ele>263.4</ele>
        <time>2022-08-20T13:48:40Z</time>
      </trkpt>
      <trkpt lat="46.5924" lon="5.50049">
        <ele>263.8</ele>
        <time>2022-08-20T13:48:42Z</time>
      </trkpt>
      <trkpt lat="46.59239" lon="5.50046">
        <ele>264</ele>
        <time>2022-08-20T13:48:43Z</time>
      </trkpt>
      <trkpt lat="46.59239" lon="5.50042">
        <ele>264.2</ele>
        <time>2022-08-20T13:48:45Z</time>
      </trkpt>
      <trkpt lat="46.59238" lon="5.50037">
        <ele>264.8</ele>
        <time>2022-08-20T13:48:47Z</time>
      </trkpt>
      <trkpt lat="46.59236" lon="5.50033">
        <ele>265.2</ele>
        <time>2022-08-20T13:48:49Z</time>
      </trkpt>
      <trkpt lat="46.59234" lon="5.5003">
        <ele>265.8</ele>
        <time>2022-08-20T13:48:51Z</time>
      </trkpt>
      <trkpt lat="46.5923" lon="5.50029">
        <ele>266.4</ele>
        <time>2022-08-20T13:48:53Z</time>
      </trkpt>
      <trkpt lat="46.59229" lon="5.50028">
        <ele>266.8</ele>
        <time>2022-08-20T13:48:54Z</time>
      </trkpt>
      <trkpt lat="46.59227" lon="5.50028">
        <ele>267</ele>
        <time>2022-08-20T13:48:55Z</time>
      </trkpt>
      <trkpt lat="46.59224" lon="5.50027">
        <ele>267.2</ele>
        <time>2022-08-20T13:48:56Z</time>
      </trkpt>
      <trkpt lat="46.59221" lon="5.50026">
        <ele>267.8</ele>
        <time>2022-08-20T13:48:58Z</time>
      </trkpt>
      <trkpt lat="46.59219" lon="5.50026">
        <ele>268.2</ele>
        <time>2022-08-20T13:48:59Z</time>
      </trkpt>
      <trkpt lat="46.59217" lon="5.50026">
        <ele>268.4</ele>
        <time>2022-08-20T13:49:00Z</time>
      </trkpt>
      <trkpt lat="46.59215" lon="5.50026">
        <ele>268.8</ele>
        <time>2022-08-20T13:49:01Z</time>
      </trkpt>
      <trkpt lat="46.59213" lon="5.50025">
        <ele>269</ele>
        <time>2022-08-20T13:49:02Z</time>
      </trkpt>
      <trkpt lat="46.5921" lon="5.50025">
        <ele>269.4</ele>
        <time>2022-08-20T13:49:04Z</time>
      </trkpt>
      <trkpt lat="46.59207" lon="5.50023">
        <ele>269.8</ele>
        <time>2022-08-20T13:49:06Z</time>
      </trkpt>
      <trkpt lat="46.59204" lon="5.50022">
        <ele>270.2</ele>
        <time>2022-08-20T13:49:08Z</time>
      </trkpt>
      <trkpt lat="46.59201" lon="5.50021">
        <ele>270.4</ele>
        <time>2022-08-20T13:49:10Z</time>
      </trkpt>
      <trkpt lat="46.59199" lon="5.5002">
        <ele>270.8</ele>
        <time>2022-08-20T13:49:12Z</time>
      </trkpt>
      <trkpt lat="46.59197" lon="5.50019">
        <ele>271.2</ele>
        <time>2022-08-20T13:49:14Z</time>
      </trkpt>
      <trkpt lat="46.59195" lon="5.50018">
        <ele>271.4</ele>
        <time>2022-08-20T13:49:15Z</time>
      </trkpt>
      <trkpt lat="46.59193" lon="5.50017">
        <ele>271.8</ele>
        <time>2022-08-20T13:49:17Z</time>
      </trkpt>
      <trkpt lat="46.5919" lon="5.50015">
        <ele>272.2</ele>
        <time>2022-08-20T13:49:19Z</time>
      </trkpt>
      <trkpt lat="46.59188" lon="5.50013">
        <ele>272.4</ele>
        <time>2022-08-20T13:49:20Z</time>
      </trkpt>
      <trkpt lat="46.59187" lon="5.50012">
        <ele>272.6</ele>
        <time>2022-08-20T13:49:21Z</time>
      </trkpt>
      <trkpt lat="46.59185" lon="5.50011">
        <ele>272.8</ele>
        <time>2022-08-20T13:49:22Z</time>
      </trkpt>
      <trkpt lat="46.59183" lon="5.5001">
        <ele>273</ele>
        <time>2022-08-20T13:49:23Z</time>
      </trkpt>
      <trkpt lat="46.59181" lon="5.5001">
        <ele>273.4</ele>
        <time>2022-08-20T13:49:24Z</time>
        <extensions>
          <visugpx:TrkExtension xmlns:visugpx="https://www.visugpx.com/editgpx/">
            <visugpx:node>1</visugpx:node>
            </visugpx:TrkExtension>
        </extensions>
      </trkpt>
      <trkpt lat="46.5918" lon="5.5001">
        <ele>278.9</ele>
      </trkpt>
      <trkpt lat="46.59169" lon="5.50006">
        <ele>279.3</ele>
      </trkpt>
      <trkpt lat="46.5916" lon="5.50003">
        <ele>279.9</ele>
      </trkpt>
      <trkpt lat="46.59153" lon="5.50001">
        <ele>280.5</ele>
      </trkpt>
      <trkpt lat="46.59146" lon="5.5">
        <ele>281.2</ele>
      </trkpt>
      <trkpt lat="46.59141" lon="5.5">
        <ele>281.8</ele>
      </trkpt>
      <trkpt lat="46.59132" lon="5.50002">
        <ele>282.5</ele>
      </trkpt>
      <trkpt lat="46.59124" lon="5.50004">
        <ele>283.1</ele>
      </trkpt>
      <trkpt lat="46.59117" lon="5.50007">
        <ele>283.8</ele>
      </trkpt>
      <trkpt lat="46.5911" lon="5.50008">
        <ele>284.4</ele>
      </trkpt>
      <trkpt lat="46.59102" lon="5.50007">
        <ele>285.2</ele>
      </trkpt>
      <trkpt lat="46.59092" lon="5.50005">
        <ele>286.1</ele>
      </trkpt>
      <trkpt lat="46.5907" lon="5.5">
        <ele>288.4</ele>
      </trkpt>
      <trkpt lat="46.59063" lon="5.49998">
        <ele>288.8</ele>
      </trkpt>
      <trkpt lat="46.59047" lon="5.49998">
        <ele>290.5</ele>
      </trkpt>
      <trkpt lat="46.5904" lon="5.49998">
        <ele>291.2</ele>
      </trkpt>
      <trkpt lat="46.59033" lon="5.49999">
        <ele>292.2</ele>
      </trkpt>
      <trkpt lat="46.59028" lon="5.50002">
        <ele>293.2</ele>
      </trkpt>
      <trkpt lat="46.59024" lon="5.50005">
        <ele>293.8</ele>
      </trkpt>
      <trkpt lat="46.59018" lon="5.50011">
        <ele>294.8</ele>
      </trkpt>
      <trkpt lat="46.59013" lon="5.50018">
        <ele>295.7</ele>
      </trkpt>
      <trkpt lat="46.59008" lon="5.50023">
        <ele>296.3</ele>
      </trkpt>
      <trkpt lat="46.59004" lon="5.50027">
        <ele>296.8</ele>
      </trkpt>
      <trkpt lat="46.59001" lon="5.5003">
        <ele>297.3</ele>
      </trkpt>
      <trkpt lat="46.58991" lon="5.50044">
        <ele>300</ele>
      </trkpt>
      <trkpt lat="46.58985" lon="5.50053">
        <ele>301.7</ele>
      </trkpt>
      <trkpt lat="46.58976" lon="5.50065">
        <ele>303.5</ele>
      </trkpt>
      <trkpt lat="46.58969" lon="5.50076">
        <ele>304.9</ele>
      </trkpt>
      <trkpt lat="46.58964" lon="5.50084">
        <ele>306.1</ele>
      </trkpt>
      <trkpt lat="46.5896" lon="5.50089">
        <ele>306.2</ele>
      </trkpt>
      <trkpt lat="46.58956" lon="5.50091">
        <ele>306.7</ele>
      </trkpt>
      <trkpt lat="46.58953" lon="5.50092">
        <ele>307</ele>
        <extensions>
          <visugpx:TrkExtension xmlns:visugpx="https://www.visugpx.com/editgpx/">
            <visugpx:node>2</visugpx:node>
            </visugpx:TrkExtension>
        </extensions>
      </trkpt>
      <trkpt lat="46.58951" lon="5.50093">
        <ele>307.3</ele>
      </trkpt>
      <trkpt lat="46.58942" lon="5.50094">
        <ele>308.6</ele>
      </trkpt>
      <trkpt lat="46.58931" lon="5.50094">
        <ele>310.2</ele>
      </trkpt>
      <trkpt lat="46.58921" lon="5.50094">
        <ele>311.6</ele>
      </trkpt>
      <trkpt lat="46.5891" lon="5.50096">
        <ele>313.2</ele>
      </trkpt>
      <trkpt lat="46.58901" lon="5.50096">
        <ele>314.6</ele>
      </trkpt>
      <trkpt lat="46.58892" lon="5.50098">
        <ele>316</ele>
      </trkpt>
      <trkpt lat="46.58868" lon="5.50104">
        <ele>319.8</ele>
      </trkpt>
      <trkpt lat="46.5885" lon="5.50106">
        <ele>323.1</ele>
      </trkpt>
      <trkpt lat="46.5884" lon="5.50105">
        <ele>325.1</ele>
      </trkpt>
      <trkpt lat="46.58826" lon="5.501">
        <ele>328</ele>
      </trkpt>
      <trkpt lat="46.58817" lon="5.50099">
        <ele>329.4</ele>
      </trkpt>
      <trkpt lat="46.58807" lon="5.50099">
        <ele>331</ele>
      </trkpt>
      <trkpt lat="46.58798" lon="5.50104">
        <ele>332.6</ele>
      </trkpt>
      <trkpt lat="46.58791" lon="5.5011">
        <ele>333.9</ele>
      </trkpt>
      <trkpt lat="46.58783" lon="5.5012">
        <ele>334.7</ele>
      </trkpt>
      <trkpt lat="46.58773" lon="5.50152">
        <ele>337.7</ele>
      </trkpt>
      <trkpt lat="46.58756" lon="5.50199">
        <ele>344.7</ele>
      </trkpt>
      <trkpt lat="46.58755" lon="5.50243">
        <ele>351.4</ele>
      </trkpt>
      <trkpt lat="46.58754" lon="5.50289">
        <ele>359.3</ele>
      </trkpt>
      <trkpt lat="46.58756" lon="5.50328">
        <ele>365.7</ele>
      </trkpt>
      <trkpt lat="46.58755" lon="5.50363">
        <ele>372.3</ele>
      </trkpt>
      <trkpt lat="46.5875" lon="5.50372">
        <ele>375.6</ele>
      </trkpt>
      <trkpt lat="46.58732" lon="5.50373">
        <ele>381.2</ele>
      </trkpt>
      <trkpt lat="46.58646" lon="5.50349">
        <ele>399.7</ele>
      </trkpt>
      <trkpt lat="46.58622" lon="5.50339">
        <ele>404.7</ele>
        <extensions>
          <visugpx:TrkExtension xmlns:visugpx="https://www.visugpx.com/editgpx/">
            <visugpx:node>3</visugpx:node>
            </visugpx:TrkExtension>
        </extensions>
      </trkpt>
      <trkpt lat="46.58584" lon="5.50324">
        <ele>412.1</ele>
      </trkpt>
      <trkpt lat="46.58487" lon="5.50289">
        <ele>430.4</ele>
      </trkpt>
      <trkpt lat="46.58427" lon="5.50222">
        <ele>432.6</ele>
      </trkpt>
      <trkpt lat="46.5837" lon="5.50208">
        <ele>447.4</ele>
      </trkpt>
      <trkpt lat="46.58284" lon="5.50182">
        <ele>467.6</ele>
      </trkpt>
      <trkpt lat="46.58191" lon="5.50136">
        <ele>485.5</ele>
      </trkpt>
      <trkpt lat="46.58152" lon="5.5012">
        <ele>496.1</ele>
      </trkpt>
      <trkpt lat="46.58074" lon="5.50084">
        <ele>504.4</ele>
      </trkpt>
      <trkpt lat="46.58063" lon="5.50085">
        <ele>504.8</ele>
      </trkpt>
      <trkpt lat="46.58053" lon="5.50089">
        <ele>504.8</ele>
      </trkpt>
      <trkpt lat="46.5805" lon="5.5009">
        <ele>504.6</ele>
        <extensions>
          <visugpx:TrkExtension xmlns:visugpx="https://www.visugpx.com/editgpx/">
            <visugpx:node>4</visugpx:node>
            </visugpx:TrkExtension>
        </extensions>
      </trkpt>
      <trkpt lat="46.58053" lon="5.50089">
        <ele>504.8</ele>
      </trkpt>
      <trkpt lat="46.58063" lon="5.50111">
        <ele>505.5</ele>
      </trkpt>
      <trkpt lat="46.58062" lon="5.50127">
        <ele>505.9</ele>
      </trkpt>
      <trkpt lat="46.58058" lon="5.50142">
        <ele>505.5</ele>
      </trkpt>
      <trkpt lat="46.58055" lon="5.50156">
        <ele>505.5</ele>
      </trkpt>
      <trkpt lat="46.58055" lon="5.50169">
        <ele>505.8</ele>
      </trkpt>
      <trkpt lat="46.58055" lon="5.50186">
        <ele>505.2</ele>
      </trkpt>
      <trkpt lat="46.58058" lon="5.50223">
        <ele>505.2</ele>
      </trkpt>
      <trkpt lat="46.58061" lon="5.50272">
        <ele>503.9</ele>
      </trkpt>
      <trkpt lat="46.58065" lon="5.5031">
        <ele>501.9</ele>
      </trkpt>
      <trkpt lat="46.58072" lon="5.50351">
        <ele>502.1</ele>
      </trkpt>
      <trkpt lat="46.58077" lon="5.50378">
        <ele>502.7</ele>
      </trkpt>
      <trkpt lat="46.58093" lon="5.50402">
        <ele>501.9</ele>
      </trkpt>
      <trkpt lat="46.58135" lon="5.50427">
        <ele>499.6</ele>
      </trkpt>
      <trkpt lat="46.58213" lon="5.50465">
        <ele>500.6</ele>
      </trkpt>
      <trkpt lat="46.58244" lon="5.50474">
        <ele>499.8</ele>
        <extensions>
          <visugpx:TrkExtension xmlns:visugpx="https://www.visugpx.com/editgpx/">
            <visugpx:node>5</visugpx:node>
            </visugpx:TrkExtension>
        </extensions>
      </trkpt>
      <trkpt lat="46.58258" lon="5.50477">
        <ele>499.8</ele>
      </trkpt>
      <trkpt lat="46.58308" lon="5.50493">
        <ele>498.1</ele>
      </trkpt>
      <trkpt lat="46.5838" lon="5.5052">
        <ele>500.1</ele>
      </trkpt>
      <trkpt lat="46.58446" lon="5.50531">
        <ele>501.4</ele>
      </trkpt>
      <trkpt lat="46.5847" lon="5.50536">
        <ele>499.5</ele>
      </trkpt>
      <trkpt lat="46.58512" lon="5.50544">
        <ele>498.3</ele>
      </trkpt>
      <trkpt lat="46.58583" lon="5.50556">
        <ele>493.9</ele>
      </trkpt>
      <trkpt lat="46.58618" lon="5.50562">
        <ele>488.5</ele>
      </trkpt>
      <trkpt lat="46.58647" lon="5.50574">
        <ele>485.3</ele>
      </trkpt>
      <trkpt lat="46.58669" lon="5.50587">
        <ele>483.2</ele>
      </trkpt>
      <trkpt lat="46.5869" lon="5.50609">
        <ele>480.2</ele>
      </trkpt>
      <trkpt lat="46.58705" lon="5.50646">
        <ele>478.3</ele>
      </trkpt>
      <trkpt lat="46.58708" lon="5.50694">
        <ele>475</ele>
      </trkpt>
      <trkpt lat="46.58708" lon="5.50758">
        <ele>465.7</ele>
      </trkpt>
      <trkpt lat="46.58713" lon="5.50783">
        <ele>463.3</ele>
        <extensions>
          <visugpx:TrkExtension xmlns:visugpx="https://www.visugpx.com/editgpx/">
            <visugpx:node>6</visugpx:node>
            </visugpx:TrkExtension>
        </extensions>
      </trkpt>
      <trkpt lat="46.58715" lon="5.50795">
        <ele>471.8</ele>
        <time>2022-08-20T14:42:23Z</time>
      </trkpt>
      <trkpt lat="46.58717" lon="5.50796">
        <ele>471.6</ele>
        <time>2022-08-20T14:42:24Z</time>
      </trkpt>
      <trkpt lat="46.58718" lon="5.50798">
        <ele>471.4</ele>
        <time>2022-08-20T14:42:25Z</time>
      </trkpt>
      <trkpt lat="46.5872" lon="5.50799">
        <ele>471.2</ele>
        <time>2022-08-20T14:42:26Z</time>
      </trkpt>
      <trkpt lat="46.58722" lon="5.50801">
        <ele>471.2</ele>
        <time>2022-08-20T14:42:27Z</time>
      </trkpt>
      <trkpt lat="46.58724" lon="5.50803">
        <ele>471</ele>
        <time>2022-08-20T14:42:28Z</time>
      </trkpt>
      <trkpt lat="46.58726" lon="5.50805">
        <ele>470.8</ele>
        <time>2022-08-20T14:42:29Z</time>
      </trkpt>
      <trkpt lat="46.58728" lon="5.50806">
        <ele>470.8</ele>
        <time>2022-08-20T14:42:30Z</time>
      </trkpt>
      <trkpt lat="46.58729" lon="5.50808">
        <ele>470.6</ele>
        <time>2022-08-20T14:42:31Z</time>
      </trkpt>
      <trkpt lat="46.58731" lon="5.5081">
        <ele>470.6</ele>
        <time>2022-08-20T14:42:32Z</time>
      </trkpt>
      <trkpt lat="46.58732" lon="5.50812">
        <ele>470.4</ele>
        <time>2022-08-20T14:42:33Z</time>
      </trkpt>
      <trkpt lat="46.58734" lon="5.50814">
        <ele>470.4</ele>
        <time>2022-08-20T14:42:34Z</time>
      </trkpt>
      <trkpt lat="46.58737" lon="5.50816">
        <ele>470.2</ele>
        <time>2022-08-20T14:42:35Z</time>
      </trkpt>
      <trkpt lat="46.5874" lon="5.50817">
        <ele>470.2</ele>
        <time>2022-08-20T14:42:36Z</time>
      </trkpt>
      <trkpt lat="46.58744" lon="5.5082">
        <ele>470</ele>
        <time>2022-08-20T14:42:37Z</time>
      </trkpt>
      <trkpt lat="46.58748" lon="5.50822">
        <ele>470</ele>
        <time>2022-08-20T14:42:38Z</time>
      </trkpt>
      <trkpt lat="46.58753" lon="5.50825">
        <ele>470</ele>
        <time>2022-08-20T14:42:39Z</time>
      </trkpt>
      <trkpt lat="46.58759" lon="5.50828">
        <ele>469.8</ele>
        <time>2022-08-20T14:42:40Z</time>
      </trkpt>
      <trkpt lat="46.58765" lon="5.50831">
        <ele>469.8</ele>
        <time>2022-08-20T14:42:41Z</time>
      </trkpt>
      <trkpt lat="46.5877" lon="5.50833">
        <ele>469.8</ele>
        <time>2022-08-20T14:42:42Z</time>
      </trkpt>
      <trkpt lat="46.58775" lon="5.50834">
        <ele>469.8</ele>
        <time>2022-08-20T14:42:43Z</time>
      </trkpt>
      <trkpt lat="46.5878" lon="5.50837">
        <ele>469.6</ele>
        <time>2022-08-20T14:42:44Z</time>
      </trkpt>
      <trkpt lat="46.58784" lon="5.5084">
        <ele>469.6</ele>
        <time>2022-08-20T14:42:45Z</time>
      </trkpt>
      <trkpt lat="46.58785" lon="5.50844">
        <ele>469.6</ele>
        <time>2022-08-20T14:42:46Z</time>
      </trkpt>
      <trkpt lat="46.58786" lon="5.50847">
        <ele>469.6</ele>
        <time>2022-08-20T14:42:47Z</time>
      </trkpt>
      <trkpt lat="46.58788" lon="5.50851">
        <ele>469.4</ele>
        <time>2022-08-20T14:42:48Z</time>
      </trkpt>
      <trkpt lat="46.58789" lon="5.50854">
        <ele>469.4</ele>
        <time>2022-08-20T14:42:49Z</time>
      </trkpt>
      <trkpt lat="46.58789" lon="5.50857">
        <ele>469.4</ele>
        <time>2022-08-20T14:42:50Z</time>
      </trkpt>
      <trkpt lat="46.5879" lon="5.50861">
        <ele>469.2</ele>
        <time>2022-08-20T14:42:51Z</time>
      </trkpt>
      <trkpt lat="46.58791" lon="5.50864">
        <ele>469.2</ele>
        <time>2022-08-20T14:42:52Z</time>
      </trkpt>
      <trkpt lat="46.58791" lon="5.50867">
        <ele>469</ele>
        <time>2022-08-20T14:42:53Z</time>
      </trkpt>
      <trkpt lat="46.58792" lon="5.50871">
        <ele>468.8</ele>
        <time>2022-08-20T14:42:54Z</time>
      </trkpt>
      <trkpt lat="46.58793" lon="5.50874">
        <ele>468.6</ele>
        <time>2022-08-20T14:42:55Z</time>
      </trkpt>
      <trkpt lat="46.58795" lon="5.50877">
        <ele>468.6</ele>
        <time>2022-08-20T14:42:56Z</time>
      </trkpt>
      <trkpt lat="46.58796" lon="5.5088">
        <ele>468.4</ele>
        <time>2022-08-20T14:42:57Z</time>
      </trkpt>
      <trkpt lat="46.58798" lon="5.50883">
        <ele>468.4</ele>
        <time>2022-08-20T14:42:58Z</time>
      </trkpt>
      <trkpt lat="46.588" lon="5.50885">
        <ele>468.2</ele>
        <time>2022-08-20T14:42:59Z</time>
      </trkpt>
      <trkpt lat="46.58802" lon="5.50886">
        <ele>468.2</ele>
        <time>2022-08-20T14:43:00Z</time>
      </trkpt>
      <trkpt lat="46.58805" lon="5.50891">
        <ele>468</ele>
        <time>2022-08-20T14:43:02Z</time>
      </trkpt>
      <trkpt lat="46.58807" lon="5.50893">
        <ele>467.8</ele>
        <time>2022-08-20T14:43:03Z</time>
      </trkpt>
      <trkpt lat="46.58809" lon="5.50895">
        <ele>467.8</ele>
        <time>2022-08-20T14:43:04Z</time>
      </trkpt>
      <trkpt lat="46.58811" lon="5.50897">
        <ele>467.6</ele>
        <time>2022-08-20T14:43:05Z</time>
      </trkpt>
      <trkpt lat="46.58813" lon="5.50899">
        <ele>467.6</ele>
        <time>2022-08-20T14:43:07Z</time>
      </trkpt>
      <trkpt lat="46.58815" lon="5.50901">
        <ele>467.6</ele>
        <time>2022-08-20T14:43:08Z</time>
      </trkpt>
      <trkpt lat="46.58817" lon="5.50903">
        <ele>467.6</ele>
        <time>2022-08-20T14:43:09Z</time>
      </trkpt>
      <trkpt lat="46.58819" lon="5.50905">
        <ele>467.6</ele>
        <time>2022-08-20T14:43:10Z</time>
      </trkpt>
      <trkpt lat="46.58821" lon="5.50906">
        <ele>467.6</ele>
        <time>2022-08-20T14:43:11Z</time>
      </trkpt>
      <trkpt lat="46.58824" lon="5.50909">
        <ele>467.6</ele>
        <time>2022-08-20T14:43:13Z</time>
      </trkpt>
      <trkpt lat="46.58826" lon="5.5091">
        <ele>467.6</ele>
        <time>2022-08-20T14:43:14Z</time>
      </trkpt>
      <trkpt lat="46.58827" lon="5.50912">
        <ele>467.6</ele>
        <time>2022-08-20T14:43:15Z</time>
      </trkpt>
      <trkpt lat="46.58829" lon="5.50913">
        <ele>467.6</ele>
        <time>2022-08-20T14:43:16Z</time>
      </trkpt>
      <trkpt lat="46.58831" lon="5.50915">
        <ele>467.4</ele>
        <time>2022-08-20T14:43:17Z</time>
      </trkpt>
      <trkpt lat="46.58833" lon="5.50916">
        <ele>467.4</ele>
        <time>2022-08-20T14:43:18Z</time>
      </trkpt>
      <trkpt lat="46.58836" lon="5.50918">
        <ele>467.4</ele>
        <time>2022-08-20T14:43:19Z</time>
      </trkpt>
      <trkpt lat="46.58838" lon="5.50919">
        <ele>467.4</ele>
        <time>2022-08-20T14:43:20Z</time>
      </trkpt>
      <trkpt lat="46.5884" lon="5.50921">
        <ele>467.4</ele>
        <time>2022-08-20T14:43:21Z</time>
      </trkpt>
      <trkpt lat="46.58846" lon="5.50924">
        <ele>467.4</ele>
        <time>2022-08-20T14:43:23Z</time>
      </trkpt>
      <trkpt lat="46.58848" lon="5.50925">
        <ele>467.2</ele>
        <time>2022-08-20T14:43:24Z</time>
      </trkpt>
      <trkpt lat="46.5885" lon="5.50926">
        <ele>467.2</ele>
        <time>2022-08-20T14:43:25Z</time>
      </trkpt>
      <trkpt lat="46.58853" lon="5.50926">
        <ele>467.2</ele>
        <time>2022-08-20T14:43:26Z</time>
      </trkpt>
      <trkpt lat="46.58855" lon="5.50927">
        <ele>467.2</ele>
        <time>2022-08-20T14:43:27Z</time>
      </trkpt>
      <trkpt lat="46.58857" lon="5.50929">
        <ele>467.2</ele>
        <time>2022-08-20T14:43:28Z</time>
      </trkpt>
      <trkpt lat="46.58861" lon="5.50929">
        <ele>467.2</ele>
        <time>2022-08-20T14:43:30Z</time>
      </trkpt>
      <trkpt lat="46.58863" lon="5.5093">
        <ele>467.2</ele>
        <time>2022-08-20T14:43:31Z</time>
      </trkpt>
      <trkpt lat="46.58865" lon="5.50931">
        <ele>467.2</ele>
        <time>2022-08-20T14:43:32Z</time>
      </trkpt>
      <trkpt lat="46.58867" lon="5.50931">
        <ele>467.4</ele>
        <time>2022-08-20T14:43:33Z</time>
      </trkpt>
      <trkpt lat="46.58869" lon="5.50932">
        <ele>467.4</ele>
        <time>2022-08-20T14:43:34Z</time>
      </trkpt>
      <trkpt lat="46.58871" lon="5.50932">
        <ele>467.4</ele>
        <time>2022-08-20T14:43:35Z</time>
      </trkpt>
      <trkpt lat="46.58873" lon="5.50932">
        <ele>467.4</ele>
        <time>2022-08-20T14:43:36Z</time>
      </trkpt>
      <trkpt lat="46.58876" lon="5.50933">
        <ele>467.4</ele>
        <time>2022-08-20T14:43:37Z</time>
      </trkpt>
      <trkpt lat="46.58879" lon="5.50933">
        <ele>467.6</ele>
        <time>2022-08-20T14:43:38Z</time>
      </trkpt>
      <trkpt lat="46.58882" lon="5.50934">
        <ele>467.6</ele>
        <time>2022-08-20T14:43:39Z</time>
      </trkpt>
      <trkpt lat="46.58885" lon="5.50934">
        <ele>467.6</ele>
        <time>2022-08-20T14:43:40Z</time>
      </trkpt>
      <trkpt lat="46.58887" lon="5.50934">
        <ele>467.6</ele>
        <time>2022-08-20T14:43:41Z</time>
      </trkpt>
      <trkpt lat="46.5889" lon="5.50935">
        <ele>467.6</ele>
        <time>2022-08-20T14:43:42Z</time>
      </trkpt>
      <trkpt lat="46.58892" lon="5.50935">
        <ele>467.6</ele>
        <time>2022-08-20T14:43:43Z</time>
      </trkpt>
      <trkpt lat="46.58894" lon="5.50934">
        <ele>467.6</ele>
        <time>2022-08-20T14:43:44Z</time>
      </trkpt>
      <trkpt lat="46.58897" lon="5.50934">
        <ele>467.6</ele>
        <time>2022-08-20T14:43:45Z</time>
      </trkpt>
      <trkpt lat="46.58899" lon="5.50933">
        <ele>467.6</ele>
        <time>2022-08-20T14:43:46Z</time>
      </trkpt>
      <trkpt lat="46.58902" lon="5.50932">
        <ele>467.6</ele>
        <time>2022-08-20T14:43:47Z</time>
      </trkpt>
      <trkpt lat="46.58908" lon="5.50929">
        <ele>467.6</ele>
        <time>2022-08-20T14:43:49Z</time>
      </trkpt>
      <trkpt lat="46.58909" lon="5.50929">
        <ele>467.6</ele>
        <time>2022-08-20T14:43:50Z</time>
      </trkpt>
      <trkpt lat="46.58912" lon="5.50929">
        <ele>467.8</ele>
        <time>2022-08-20T14:43:51Z</time>
      </trkpt>
      <trkpt lat="46.58915" lon="5.50929">
        <ele>467.8</ele>
        <time>2022-08-20T14:43:52Z</time>
      </trkpt>
      <trkpt lat="46.58918" lon="5.50929">
        <ele>467.8</ele>
        <time>2022-08-20T14:43:53Z</time>
      </trkpt>
      <trkpt lat="46.58921" lon="5.50927">
        <ele>467.8</ele>
        <time>2022-08-20T14:43:54Z</time>
      </trkpt>
      <trkpt lat="46.58923" lon="5.50926">
        <ele>467.8</ele>
        <time>2022-08-20T14:43:55Z</time>
      </trkpt>
      <trkpt lat="46.58928" lon="5.50926">
        <ele>467.8</ele>
        <time>2022-08-20T14:43:57Z</time>
      </trkpt>
      <trkpt lat="46.5893" lon="5.50925">
        <ele>467.8</ele>
        <time>2022-08-20T14:43:59Z</time>
      </trkpt>
      <trkpt lat="46.58932" lon="5.50927">
        <ele>467.8</ele>
        <time>2022-08-20T14:44:01Z</time>
      </trkpt>
      <trkpt lat="46.58934" lon="5.50929">
        <ele>467.8</ele>
        <time>2022-08-20T14:44:03Z</time>
      </trkpt>
      <trkpt lat="46.58936" lon="5.50931">
        <ele>467.8</ele>
        <time>2022-08-20T14:44:05Z</time>
      </trkpt>
      <trkpt lat="46.58938" lon="5.50932">
        <ele>468</ele>
        <time>2022-08-20T14:44:06Z</time>
      </trkpt>
      <trkpt lat="46.5894" lon="5.50934">
        <ele>468</ele>
        <time>2022-08-20T14:44:09Z</time>
      </trkpt>
      <trkpt lat="46.58938" lon="5.50937">
        <ele>469.8</ele>
        <time>2022-08-20T14:45:22Z</time>
      </trkpt>
      <trkpt lat="46.58938" lon="5.50942">
        <ele>469.8</ele>
        <time>2022-08-20T14:45:24Z</time>
      </trkpt>
      <trkpt lat="46.58937" lon="5.50945">
        <ele>469.8</ele>
        <time>2022-08-20T14:45:25Z</time>
      </trkpt>
      <trkpt lat="46.58935" lon="5.50948">
        <ele>470</ele>
        <time>2022-08-20T14:45:27Z</time>
      </trkpt>
      <trkpt lat="46.58934" lon="5.50952">
        <ele>470</ele>
        <time>2022-08-20T14:45:29Z</time>
      </trkpt>
      <trkpt lat="46.58932" lon="5.50955">
        <ele>469.8</ele>
        <time>2022-08-20T14:45:31Z</time>
      </trkpt>
      <trkpt lat="46.5893" lon="5.50956">
        <ele>469.8</ele>
        <time>2022-08-20T14:45:33Z</time>
      </trkpt>
      <trkpt lat="46.58927" lon="5.50956">
        <ele>469.6</ele>
        <time>2022-08-20T14:45:35Z</time>
      </trkpt>
      <trkpt lat="46.58925" lon="5.50958">
        <ele>469.6</ele>
        <time>2022-08-20T14:45:37Z</time>
      </trkpt>
      <trkpt lat="46.58921" lon="5.5096">
        <ele>469.6</ele>
        <time>2022-08-20T14:45:39Z</time>
      </trkpt>
      <trkpt lat="46.58918" lon="5.50961">
        <ele>469.8</ele>
        <time>2022-08-20T14:45:41Z</time>
      </trkpt>
      <trkpt lat="46.58917" lon="5.50962">
        <ele>470</ele>
        <time>2022-08-20T14:45:43Z</time>
      </trkpt>
      <trkpt lat="46.58914" lon="5.50964">
        <ele>470.2</ele>
        <time>2022-08-20T14:45:45Z</time>
      </trkpt>
      <trkpt lat="46.58911" lon="5.50966">
        <ele>470.6</ele>
        <time>2022-08-20T14:45:47Z</time>
      </trkpt>
      <trkpt lat="46.58909" lon="5.50968">
        <ele>470.8</ele>
        <time>2022-08-20T14:45:49Z</time>
      </trkpt>
      <trkpt lat="46.58907" lon="5.5097">
        <ele>470.8</ele>
        <time>2022-08-20T14:45:51Z</time>
      </trkpt>
      <trkpt lat="46.58904" lon="5.5097">
        <ele>471</ele>
        <time>2022-08-20T14:45:53Z</time>
      </trkpt>
      <trkpt lat="46.58901" lon="5.50972">
        <ele>471.2</ele>
        <time>2022-08-20T14:45:55Z</time>
      </trkpt>
      <trkpt lat="46.58898" lon="5.50975">
        <ele>471.4</ele>
        <time>2022-08-20T14:45:57Z</time>
      </trkpt>
      <trkpt lat="46.58895" lon="5.50978">
        <ele>471.4</ele>
        <time>2022-08-20T14:45:59Z</time>
      </trkpt>
      <trkpt lat="46.58893" lon="5.50979">
        <ele>471.6</ele>
        <time>2022-08-20T14:46:00Z</time>
      </trkpt>
      <trkpt lat="46.58891" lon="5.5098">
        <ele>471.6</ele>
        <time>2022-08-20T14:46:01Z</time>
      </trkpt>
      <trkpt lat="46.58889" lon="5.50981">
        <ele>471.6</ele>
        <time>2022-08-20T14:46:02Z</time>
      </trkpt>
      <trkpt lat="46.58887" lon="5.50984">
        <ele>471.8</ele>
        <time>2022-08-20T14:46:04Z</time>
      </trkpt>
      <trkpt lat="46.58886" lon="5.50988">
        <ele>471.8</ele>
        <time>2022-08-20T14:46:06Z</time>
      </trkpt>
      <trkpt lat="46.58884" lon="5.5099">
        <ele>472</ele>
        <time>2022-08-20T14:46:08Z</time>
      </trkpt>
      <trkpt lat="46.58882" lon="5.5099">
        <ele>472</ele>
        <time>2022-08-20T14:46:09Z</time>
      </trkpt>
      <trkpt lat="46.58879" lon="5.50992">
        <ele>472</ele>
        <time>2022-08-20T14:46:11Z</time>
      </trkpt>
      <trkpt lat="46.58877" lon="5.50994">
        <ele>472.2</ele>
        <time>2022-08-20T14:46:13Z</time>
      </trkpt>
      <trkpt lat="46.58876" lon="5.50996">
        <ele>472.2</ele>
        <time>2022-08-20T14:46:14Z</time>
      </trkpt>
      <trkpt lat="46.58873" lon="5.50998">
        <ele>472.2</ele>
        <time>2022-08-20T14:46:16Z</time>
      </trkpt>
      <trkpt lat="46.58869" lon="5.51">
        <ele>472.6</ele>
        <time>2022-08-20T14:46:18Z</time>
      </trkpt>
      <trkpt lat="46.58868" lon="5.51">
        <ele>472.6</ele>
        <time>2022-08-20T14:46:19Z</time>
      </trkpt>
      <trkpt lat="46.58865" lon="5.51001">
        <ele>473</ele>
        <time>2022-08-20T14:46:21Z</time>
      </trkpt>
      <trkpt lat="46.58863" lon="5.51002">
        <ele>473</ele>
        <time>2022-08-20T14:46:22Z</time>
      </trkpt>
      <trkpt lat="46.5886" lon="5.51005">
        <ele>473.4</ele>
        <time>2022-08-20T14:46:24Z</time>
      </trkpt>
      <trkpt lat="46.58859" lon="5.51007">
        <ele>473.6</ele>
        <time>2022-08-20T14:46:26Z</time>
      </trkpt>
      <trkpt lat="46.58856" lon="5.51009">
        <ele>473.8</ele>
        <time>2022-08-20T14:46:29Z</time>
      </trkpt>
      <trkpt lat="46.58854" lon="5.51013">
        <ele>474</ele>
        <time>2022-08-20T14:46:31Z</time>
      </trkpt>
      <trkpt lat="46.58852" lon="5.51017">
        <ele>474.2</ele>
        <time>2022-08-20T14:46:33Z</time>
      </trkpt>
      <trkpt lat="46.58849" lon="5.51019">
        <ele>474.2</ele>
        <time>2022-08-20T14:46:35Z</time>
      </trkpt>
      <trkpt lat="46.58847" lon="5.51021">
        <ele>474.2</ele>
        <time>2022-08-20T14:46:36Z</time>
      </trkpt>
      <trkpt lat="46.58845" lon="5.51022">
        <ele>474.2</ele>
        <time>2022-08-20T14:46:38Z</time>
      </trkpt>
      <trkpt lat="46.58843" lon="5.51023">
        <ele>474.4</ele>
        <time>2022-08-20T14:46:41Z</time>
      </trkpt>
      <trkpt lat="46.58842" lon="5.51026">
        <ele>474.6</ele>
        <time>2022-08-20T14:46:43Z</time>
      </trkpt>
      <trkpt lat="46.58838" lon="5.51029">
        <ele>474.8</ele>
        <time>2022-08-20T14:46:45Z</time>
      </trkpt>
      <trkpt lat="46.58836" lon="5.5103">
        <ele>474.8</ele>
        <time>2022-08-20T14:46:47Z</time>
      </trkpt>
      <trkpt lat="46.58833" lon="5.51032">
        <ele>475</ele>
        <time>2022-08-20T14:46:49Z</time>
      </trkpt>
      <trkpt lat="46.58831" lon="5.51034">
        <ele>475.2</ele>
        <time>2022-08-20T14:46:51Z</time>
      </trkpt>
      <trkpt lat="46.58829" lon="5.51035">
        <ele>475.4</ele>
        <time>2022-08-20T14:46:54Z</time>
      </trkpt>
      <trkpt lat="46.58827" lon="5.51037">
        <ele>475.6</ele>
        <time>2022-08-20T14:46:56Z</time>
      </trkpt>
      <trkpt lat="46.58824" lon="5.51037">
        <ele>475.8</ele>
        <time>2022-08-20T14:46:59Z</time>
      </trkpt>
      <trkpt lat="46.58821" lon="5.5104">
        <ele>476</ele>
        <time>2022-08-20T14:47:01Z</time>
      </trkpt>
      <trkpt lat="46.58819" lon="5.51042">
        <ele>476</ele>
        <time>2022-08-20T14:47:03Z</time>
      </trkpt>
      <trkpt lat="46.58817" lon="5.51044">
        <ele>476.2</ele>
        <time>2022-08-20T14:47:05Z</time>
      </trkpt>
      <trkpt lat="46.58815" lon="5.51047">
        <ele>476.4</ele>
        <time>2022-08-20T14:47:07Z</time>
      </trkpt>
      <trkpt lat="46.58813" lon="5.51049">
        <ele>476.6</ele>
        <time>2022-08-20T14:47:09Z</time>
      </trkpt>
      <trkpt lat="46.58812" lon="5.5105">
        <ele>476.8</ele>
        <time>2022-08-20T14:47:10Z</time>
      </trkpt>
      <trkpt lat="46.58809" lon="5.51054">
        <ele>477</ele>
        <time>2022-08-20T14:47:12Z</time>
      </trkpt>
      <trkpt lat="46.58807" lon="5.51055">
        <ele>477.2</ele>
        <time>2022-08-20T14:47:13Z</time>
      </trkpt>
      <trkpt lat="46.58806" lon="5.51057">
        <ele>477.2</ele>
        <time>2022-08-20T14:47:14Z</time>
      </trkpt>
      <trkpt lat="46.58804" lon="5.51061">
        <ele>477.4</ele>
        <time>2022-08-20T14:47:16Z</time>
      </trkpt>
      <trkpt lat="46.58802" lon="5.51063">
        <ele>477.8</ele>
        <time>2022-08-20T14:47:18Z</time>
      </trkpt>
      <trkpt lat="46.58799" lon="5.51064">
        <ele>478</ele>
        <time>2022-08-20T14:47:20Z</time>
      </trkpt>
      <trkpt lat="46.58793" lon="5.51068">
        <ele>478.2</ele>
        <time>2022-08-20T14:47:22Z</time>
      </trkpt>
      <trkpt lat="46.5879" lon="5.5107">
        <ele>478.4</ele>
        <time>2022-08-20T14:47:23Z</time>
      </trkpt>
      <trkpt lat="46.58785" lon="5.51073">
        <ele>478.6</ele>
        <time>2022-08-20T14:47:24Z</time>
      </trkpt>
      <trkpt lat="46.58779" lon="5.51076">
        <ele>478.6</ele>
        <time>2022-08-20T14:47:25Z</time>
      </trkpt>
      <trkpt lat="46.58774" lon="5.51081">
        <ele>478.8</ele>
        <time>2022-08-20T14:47:26Z</time>
      </trkpt>
      <trkpt lat="46.58772" lon="5.51083">
        <ele>479</ele>
        <time>2022-08-20T14:47:27Z</time>
      </trkpt>
      <trkpt lat="46.58767" lon="5.51084">
        <ele>479</ele>
        <time>2022-08-20T14:47:28Z</time>
      </trkpt>
      <trkpt lat="46.58764" lon="5.51086">
        <ele>479.2</ele>
        <time>2022-08-20T14:47:29Z</time>
      </trkpt>
      <trkpt lat="46.58761" lon="5.51088">
        <ele>479.2</ele>
        <time>2022-08-20T14:47:30Z</time>
      </trkpt>
      <trkpt lat="46.58757" lon="5.5109">
        <ele>479.4</ele>
        <time>2022-08-20T14:47:31Z</time>
      </trkpt>
      <trkpt lat="46.58759" lon="5.51089">
        <ele>479.6</ele>
        <time>2022-08-20T14:47:33Z</time>
      </trkpt>
      <trkpt lat="46.58758" lon="5.51087">
        <ele>480.2</ele>
        <time>2022-08-20T14:47:38Z</time>
      </trkpt>
      <trkpt lat="46.58756" lon="5.51086">
        <ele>480.6</ele>
        <time>2022-08-20T14:47:42Z</time>
      </trkpt>
      <trkpt lat="46.58752" lon="5.51084">
        <ele>480.8</ele>
        <time>2022-08-20T14:47:44Z</time>
      </trkpt>
      <trkpt lat="46.5875" lon="5.51084">
        <ele>481</ele>
        <time>2022-08-20T14:47:45Z</time>
      </trkpt>
      <trkpt lat="46.58747" lon="5.51084">
        <ele>481.4</ele>
        <time>2022-08-20T14:47:47Z</time>
      </trkpt>
      <trkpt lat="46.58745" lon="5.51085">
        <ele>481.6</ele>
        <time>2022-08-20T14:47:49Z</time>
      </trkpt>
      <trkpt lat="46.58742" lon="5.51086">
        <ele>481.8</ele>
        <time>2022-08-20T14:47:51Z</time>
      </trkpt>
      <trkpt lat="46.5874" lon="5.51086">
        <ele>482</ele>
        <time>2022-08-20T14:47:53Z</time>
      </trkpt>
      <trkpt lat="46.58737" lon="5.51089">
        <ele>482</ele>
        <time>2022-08-20T14:47:55Z</time>
      </trkpt>
      <trkpt lat="46.58736" lon="5.51092">
        <ele>481.8</ele>
        <time>2022-08-20T14:47:57Z</time>
      </trkpt>
      <trkpt lat="46.58738" lon="5.51094">
        <ele>481.8</ele>
        <time>2022-08-20T14:48:00Z</time>
      </trkpt>
      <trkpt lat="46.5874" lon="5.51096">
        <ele>481.8</ele>
        <time>2022-08-20T14:48:02Z</time>
      </trkpt>
      <trkpt lat="46.58742" lon="5.51096">
        <ele>482</ele>
        <time>2022-08-20T14:48:04Z</time>
      </trkpt>
      <trkpt lat="46.58745" lon="5.51095">
        <ele>482.4</ele>
        <time>2022-08-20T14:48:07Z</time>
      </trkpt>
      <trkpt lat="46.58748" lon="5.51093">
        <ele>482.6</ele>
        <time>2022-08-20T14:48:09Z</time>
      </trkpt>
      <trkpt lat="46.58749" lon="5.51092">
        <ele>483</ele>
        <time>2022-08-20T14:48:11Z</time>
      </trkpt>
      <trkpt lat="46.58752" lon="5.51092">
        <ele>483.4</ele>
        <time>2022-08-20T14:48:13Z</time>
      </trkpt>
      <trkpt lat="46.58755" lon="5.51092">
        <ele>483.8</ele>
        <time>2022-08-20T14:48:15Z</time>
      </trkpt>
      <trkpt lat="46.58758" lon="5.51091">
        <ele>484.2</ele>
        <time>2022-08-20T14:48:17Z</time>
      </trkpt>
      <trkpt lat="46.58764" lon="5.5109">
        <ele>484.4</ele>
        <time>2022-08-20T14:48:19Z</time>
      </trkpt>
      <trkpt lat="46.58765" lon="5.51091">
        <ele>484.6</ele>
        <time>2022-08-20T14:48:20Z</time>
      </trkpt>
      <trkpt lat="46.58768" lon="5.51091">
        <ele>484.8</ele>
        <time>2022-08-20T14:48:22Z</time>
      </trkpt>
      <trkpt lat="46.5877" lon="5.51092">
        <ele>485.2</ele>
        <time>2022-08-20T14:48:24Z</time>
      </trkpt>
      <trkpt lat="46.58772" lon="5.51092">
        <ele>485.4</ele>
        <time>2022-08-20T14:48:25Z</time>
      </trkpt>
      <trkpt lat="46.58775" lon="5.51093">
        <ele>485.6</ele>
        <time>2022-08-20T14:48:27Z</time>
      </trkpt>
      <trkpt lat="46.58778" lon="5.51094">
        <ele>486.2</ele>
        <time>2022-08-20T14:48:30Z</time>
      </trkpt>
      <trkpt lat="46.5878" lon="5.51093">
        <ele>486.6</ele>
        <time>2022-08-20T14:48:32Z</time>
      </trkpt>
      <trkpt lat="46.58783" lon="5.51093">
        <ele>486.8</ele>
        <time>2022-08-20T14:48:34Z</time>
      </trkpt>
      <trkpt lat="46.58785" lon="5.51092">
        <ele>487.2</ele>
        <time>2022-08-20T14:48:37Z</time>
      </trkpt>
      <trkpt lat="46.58788" lon="5.51092">
        <ele>487.6</ele>
        <time>2022-08-20T14:48:39Z</time>
      </trkpt>
      <trkpt lat="46.5879" lon="5.51093">
        <ele>487.8</ele>
        <time>2022-08-20T14:48:41Z</time>
      </trkpt>
      <trkpt lat="46.58793" lon="5.51093">
        <ele>488</ele>
        <time>2022-08-20T14:48:43Z</time>
      </trkpt>
      <trkpt lat="46.58795" lon="5.51094">
        <ele>488</ele>
        <time>2022-08-20T14:48:45Z</time>
      </trkpt>
      <trkpt lat="46.58799" lon="5.51094">
        <ele>488.2</ele>
        <time>2022-08-20T14:48:47Z</time>
      </trkpt>
      <trkpt lat="46.58802" lon="5.51093">
        <ele>488.2</ele>
        <time>2022-08-20T14:48:49Z</time>
      </trkpt>
      <trkpt lat="46.58805" lon="5.51094">
        <ele>488.6</ele>
        <time>2022-08-20T14:48:51Z</time>
      </trkpt>
      <trkpt lat="46.58807" lon="5.51094">
        <ele>488.6</ele>
        <time>2022-08-20T14:48:53Z</time>
      </trkpt>
      <trkpt lat="46.58809" lon="5.51095">
        <ele>488.8</ele>
        <time>2022-08-20T14:48:55Z</time>
      </trkpt>
      <trkpt lat="46.58811" lon="5.51096">
        <ele>489</ele>
        <time>2022-08-20T14:48:57Z</time>
      </trkpt>
      <trkpt lat="46.58813" lon="5.51097">
        <ele>489</ele>
        <time>2022-08-20T14:48:58Z</time>
      </trkpt>
      <trkpt lat="46.58815" lon="5.51096">
        <ele>489.2</ele>
        <time>2022-08-20T14:49:00Z</time>
      </trkpt>
      <trkpt lat="46.58818" lon="5.51097">
        <ele>489.4</ele>
        <time>2022-08-20T14:49:02Z</time>
      </trkpt>
      <trkpt lat="46.58821" lon="5.51097">
        <ele>489.4</ele>
        <time>2022-08-20T14:49:04Z</time>
      </trkpt>
      <trkpt lat="46.58823" lon="5.51097">
        <ele>489.6</ele>
        <time>2022-08-20T14:49:06Z</time>
      </trkpt>
      <trkpt lat="46.58825" lon="5.51099">
        <ele>489.8</ele>
        <time>2022-08-20T14:49:08Z</time>
      </trkpt>
      <trkpt lat="46.58827" lon="5.511">
        <ele>490</ele>
        <time>2022-08-20T14:49:10Z</time>
      </trkpt>
      <trkpt lat="46.58829" lon="5.511">
        <ele>490.2</ele>
        <time>2022-08-20T14:49:12Z</time>
      </trkpt>
      <trkpt lat="46.58831" lon="5.511">
        <ele>490.4</ele>
        <time>2022-08-20T14:49:14Z</time>
      </trkpt>
      <trkpt lat="46.58837" lon="5.51101">
        <ele>490.6</ele>
        <time>2022-08-20T14:49:16Z</time>
      </trkpt>
      <trkpt lat="46.58838" lon="5.51101">
        <ele>490.6</ele>
        <time>2022-08-20T14:49:17Z</time>
      </trkpt>
      <trkpt lat="46.5884" lon="5.51102">
        <ele>490.8</ele>
        <time>2022-08-20T14:49:18Z</time>
      </trkpt>
      <trkpt lat="46.58843" lon="5.51104">
        <ele>490.8</ele>
        <time>2022-08-20T14:49:19Z</time>
      </trkpt>
      <trkpt lat="46.58845" lon="5.51104">
        <ele>491</ele>
        <time>2022-08-20T14:49:20Z</time>
      </trkpt>
      <trkpt lat="46.58848" lon="5.51105">
        <ele>491.2</ele>
        <time>2022-08-20T14:49:22Z</time>
      </trkpt>
      <trkpt lat="46.5885" lon="5.51105">
        <ele>491.2</ele>
        <time>2022-08-20T14:49:23Z</time>
      </trkpt>
      <trkpt lat="46.58852" lon="5.51105">
        <ele>491.4</ele>
        <time>2022-08-20T14:49:24Z</time>
      </trkpt>
      <trkpt lat="46.58853" lon="5.51105">
        <ele>491.4</ele>
        <time>2022-08-20T14:49:25Z</time>
      </trkpt>
      <trkpt lat="46.58857" lon="5.51105">
        <ele>491.6</ele>
        <time>2022-08-20T14:49:27Z</time>
      </trkpt>
      <trkpt lat="46.5886" lon="5.51107">
        <ele>491.8</ele>
        <time>2022-08-20T14:49:29Z</time>
      </trkpt>
      <trkpt lat="46.58863" lon="5.51107">
        <ele>491.8</ele>
        <time>2022-08-20T14:49:31Z</time>
      </trkpt>
      <trkpt lat="46.58866" lon="5.51107">
        <ele>492</ele>
        <time>2022-08-20T14:49:33Z</time>
      </trkpt>
      <trkpt lat="46.58869" lon="5.51108">
        <ele>492.2</ele>
        <time>2022-08-20T14:49:35Z</time>
      </trkpt>
      <trkpt lat="46.58873" lon="5.51107">
        <ele>492.2</ele>
        <time>2022-08-20T14:49:37Z</time>
      </trkpt>
      <trkpt lat="46.58875" lon="5.51106">
        <ele>492.4</ele>
        <time>2022-08-20T14:49:39Z</time>
      </trkpt>
      <trkpt lat="46.58878" lon="5.51105">
        <ele>492.4</ele>
        <time>2022-08-20T14:49:41Z</time>
      </trkpt>
      <trkpt lat="46.58881" lon="5.51106">
        <ele>492.6</ele>
        <time>2022-08-20T14:49:42Z</time>
      </trkpt>
      <trkpt lat="46.58884" lon="5.51107">
        <ele>492.8</ele>
        <time>2022-08-20T14:49:43Z</time>
      </trkpt>
      <trkpt lat="46.58892" lon="5.51109">
        <ele>492.8</ele>
        <time>2022-08-20T14:49:44Z</time>
      </trkpt>
      <trkpt lat="46.58897" lon="5.5111">
        <ele>493</ele>
        <time>2022-08-20T14:49:45Z</time>
      </trkpt>
      <trkpt lat="46.589" lon="5.51109">
        <ele>493</ele>
        <time>2022-08-20T14:49:46Z</time>
      </trkpt>
      <trkpt lat="46.58903" lon="5.51107">
        <ele>493</ele>
        <time>2022-08-20T14:49:47Z</time>
      </trkpt>
      <trkpt lat="46.58904" lon="5.51105">
        <ele>493.2</ele>
        <time>2022-08-20T14:49:48Z</time>
      </trkpt>
      <trkpt lat="46.58906" lon="5.51103">
        <ele>493.2</ele>
        <time>2022-08-20T14:49:49Z</time>
      </trkpt>
      <trkpt lat="46.58908" lon="5.51102">
        <ele>493.4</ele>
        <time>2022-08-20T14:49:50Z</time>
      </trkpt>
      <trkpt lat="46.5891" lon="5.51101">
        <ele>493.6</ele>
        <time>2022-08-20T14:49:51Z</time>
      </trkpt>
      <trkpt lat="46.58915" lon="5.51102">
        <ele>493.8</ele>
        <time>2022-08-20T14:49:53Z</time>
      </trkpt>
      <trkpt lat="46.58917" lon="5.51102">
        <ele>493.8</ele>
        <time>2022-08-20T14:49:54Z</time>
      </trkpt>
      <trkpt lat="46.58919" lon="5.51101">
        <ele>494</ele>
        <time>2022-08-20T14:49:55Z</time>
      </trkpt>
      <trkpt lat="46.58922" lon="5.51101">
        <ele>494.2</ele>
        <time>2022-08-20T14:49:57Z</time>
      </trkpt>
      <trkpt lat="46.58923" lon="5.51106">
        <ele>494.4</ele>
        <time>2022-08-20T14:50:00Z</time>
      </trkpt>
      <trkpt lat="46.58925" lon="5.5111">
        <ele>494.6</ele>
        <time>2022-08-20T14:50:01Z</time>
      </trkpt>
      <trkpt lat="46.58926" lon="5.51115">
        <ele>494.8</ele>
        <time>2022-08-20T14:50:03Z</time>
      </trkpt>
      <trkpt lat="46.58925" lon="5.51117">
        <ele>495</ele>
        <time>2022-08-20T14:50:04Z</time>
      </trkpt>
      <trkpt lat="46.58926" lon="5.5112">
        <ele>495</ele>
        <time>2022-08-20T14:50:05Z</time>
      </trkpt>
      <trkpt lat="46.58925" lon="5.51125">
        <ele>495.2</ele>
        <time>2022-08-20T14:50:07Z</time>
      </trkpt>
      <trkpt lat="46.58925" lon="5.51128">
        <ele>495.4</ele>
        <time>2022-08-20T14:50:08Z</time>
      </trkpt>
      <trkpt lat="46.58925" lon="5.51131">
        <ele>495.6</ele>
        <time>2022-08-20T14:50:09Z</time>
      </trkpt>
      <trkpt lat="46.58925" lon="5.51134">
        <ele>495.8</ele>
        <time>2022-08-20T14:50:11Z</time>
      </trkpt>
      <trkpt lat="46.58927" lon="5.51139">
        <ele>496.2</ele>
        <time>2022-08-20T14:50:13Z</time>
      </trkpt>
      <trkpt lat="46.58928" lon="5.51142">
        <ele>496.4</ele>
        <time>2022-08-20T14:50:14Z</time>
      </trkpt>
      <trkpt lat="46.5893" lon="5.51146">
        <ele>496.6</ele>
        <time>2022-08-20T14:50:15Z</time>
      </trkpt>
      <trkpt lat="46.58931" lon="5.5115">
        <ele>496.6</ele>
        <time>2022-08-20T14:50:16Z</time>
      </trkpt>
      <trkpt lat="46.58931" lon="5.51153">
        <ele>496.8</ele>
        <time>2022-08-20T14:50:17Z</time>
      </trkpt>
      <trkpt lat="46.58931" lon="5.51157">
        <ele>496.8</ele>
        <time>2022-08-20T14:50:18Z</time>
      </trkpt>
      <trkpt lat="46.58931" lon="5.51161">
        <ele>497</ele>
        <time>2022-08-20T14:50:19Z</time>
      </trkpt>
      <trkpt lat="46.58932" lon="5.51164">
        <ele>497</ele>
        <time>2022-08-20T14:50:20Z</time>
      </trkpt>
      <trkpt lat="46.58932" lon="5.51168">
        <ele>497</ele>
        <time>2022-08-20T14:50:21Z</time>
      </trkpt>
      <trkpt lat="46.58933" lon="5.51171">
        <ele>497</ele>
        <time>2022-08-20T14:50:22Z</time>
      </trkpt>
      <trkpt lat="46.58933" lon="5.51175">
        <ele>497.2</ele>
        <time>2022-08-20T14:50:23Z</time>
      </trkpt>
      <trkpt lat="46.58935" lon="5.51178">
        <ele>497.2</ele>
        <time>2022-08-20T14:50:24Z</time>
      </trkpt>
      <trkpt lat="46.58936" lon="5.51182">
        <ele>497.2</ele>
        <time>2022-08-20T14:50:25Z</time>
      </trkpt>
      <trkpt lat="46.58938" lon="5.51184">
        <ele>497.2</ele>
        <time>2022-08-20T14:50:26Z</time>
      </trkpt>
      <trkpt lat="46.58939" lon="5.51187">
        <ele>497.2</ele>
        <time>2022-08-20T14:50:27Z</time>
      </trkpt>
      <trkpt lat="46.5894" lon="5.5119">
        <ele>497.4</ele>
        <time>2022-08-20T14:50:29Z</time>
      </trkpt>
      <trkpt lat="46.58941" lon="5.51193">
        <ele>497.4</ele>
        <time>2022-08-20T14:50:30Z</time>
      </trkpt>
      <trkpt lat="46.58944" lon="5.51196">
        <ele>497.4</ele>
        <time>2022-08-20T14:50:32Z</time>
      </trkpt>
      <trkpt lat="46.58946" lon="5.51197">
        <ele>497.6</ele>
        <time>2022-08-20T14:50:33Z</time>
      </trkpt>
      <trkpt lat="46.58948" lon="5.51197">
        <ele>497.6</ele>
        <time>2022-08-20T14:50:34Z</time>
      </trkpt>
      <trkpt lat="46.5895" lon="5.51198">
        <ele>497.6</ele>
        <time>2022-08-20T14:50:35Z</time>
      </trkpt>
      <trkpt lat="46.58952" lon="5.51198">
        <ele>497.8</ele>
        <time>2022-08-20T14:50:36Z</time>
      </trkpt>
      <trkpt lat="46.58955" lon="5.51198">
        <ele>497.8</ele>
        <time>2022-08-20T14:50:37Z</time>
      </trkpt>
      <trkpt lat="46.58957" lon="5.51198">
        <ele>498</ele>
        <time>2022-08-20T14:50:39Z</time>
      </trkpt>
      <trkpt lat="46.5896" lon="5.51198">
        <ele>498.2</ele>
        <time>2022-08-20T14:50:41Z</time>
      </trkpt>
      <trkpt lat="46.58965" lon="5.51201">
        <ele>498.4</ele>
        <time>2022-08-20T14:50:43Z</time>
      </trkpt>
      <trkpt lat="46.58966" lon="5.51201">
        <ele>498.4</ele>
        <time>2022-08-20T14:50:44Z</time>
      </trkpt>
      <trkpt lat="46.58968" lon="5.51202">
        <ele>498.6</ele>
        <time>2022-08-20T14:50:45Z</time>
      </trkpt>
      <trkpt lat="46.5897" lon="5.51203">
        <ele>498.6</ele>
        <time>2022-08-20T14:50:46Z</time>
      </trkpt>
      <trkpt lat="46.58973" lon="5.51204">
        <ele>498.8</ele>
        <time>2022-08-20T14:50:48Z</time>
      </trkpt>
      <trkpt lat="46.58976" lon="5.51206">
        <ele>498.8</ele>
        <time>2022-08-20T14:50:50Z</time>
      </trkpt>
      <trkpt lat="46.58978" lon="5.51207">
        <ele>499</ele>
        <time>2022-08-20T14:50:51Z</time>
      </trkpt>
      <trkpt lat="46.58981" lon="5.51207">
        <ele>499</ele>
        <time>2022-08-20T14:50:52Z</time>
      </trkpt>
      <trkpt lat="46.58983" lon="5.51206">
        <ele>499</ele>
        <time>2022-08-20T14:50:53Z</time>
      </trkpt>
      <trkpt lat="46.58985" lon="5.51206">
        <ele>499</ele>
        <time>2022-08-20T14:50:54Z</time>
      </trkpt>
      <trkpt lat="46.58987" lon="5.51206">
        <ele>499</ele>
        <time>2022-08-20T14:50:55Z</time>
      </trkpt>
      <trkpt lat="46.5899" lon="5.51205">
        <ele>499.2</ele>
        <time>2022-08-20T14:50:57Z</time>
      </trkpt>
      <trkpt lat="46.58992" lon="5.51204">
        <ele>499.2</ele>
        <time>2022-08-20T14:50:58Z</time>
      </trkpt>
      <trkpt lat="46.58996" lon="5.51202">
        <ele>499.4</ele>
        <time>2022-08-20T14:51:00Z</time>
      </trkpt>
      <trkpt lat="46.58998" lon="5.51201">
        <ele>499.4</ele>
        <time>2022-08-20T14:51:01Z</time>
      </trkpt>
      <trkpt lat="46.59001" lon="5.512">
        <ele>499.4</ele>
        <time>2022-08-20T14:51:02Z</time>
      </trkpt>
      <trkpt lat="46.59004" lon="5.51199">
        <ele>499.4</ele>
        <time>2022-08-20T14:51:03Z</time>
      </trkpt>
      <trkpt lat="46.59007" lon="5.51199">
        <ele>499.4</ele>
        <time>2022-08-20T14:51:04Z</time>
      </trkpt>
      <trkpt lat="46.5901" lon="5.51199">
        <ele>499.4</ele>
        <time>2022-08-20T14:51:05Z</time>
      </trkpt>
      <trkpt lat="46.59013" lon="5.512">
        <ele>499.4</ele>
        <time>2022-08-20T14:51:06Z</time>
      </trkpt>
      <trkpt lat="46.59016" lon="5.51201">
        <ele>499.4</ele>
        <time>2022-08-20T14:51:07Z</time>
      </trkpt>
      <trkpt lat="46.59019" lon="5.51201">
        <ele>499.2</ele>
        <time>2022-08-20T14:51:08Z</time>
      </trkpt>
      <trkpt lat="46.59021" lon="5.51201">
        <ele>499.2</ele>
        <time>2022-08-20T14:51:09Z</time>
      </trkpt>
      <trkpt lat="46.59023" lon="5.512">
        <ele>499</ele>
        <time>2022-08-20T14:51:10Z</time>
      </trkpt>
      <trkpt lat="46.59026" lon="5.51201">
        <ele>499</ele>
        <time>2022-08-20T14:51:11Z</time>
      </trkpt>
      <trkpt lat="46.59029" lon="5.51202">
        <ele>499</ele>
        <time>2022-08-20T14:51:12Z</time>
      </trkpt>
      <trkpt lat="46.59032" lon="5.51203">
        <ele>498.8</ele>
        <time>2022-08-20T14:51:13Z</time>
      </trkpt>
      <trkpt lat="46.59035" lon="5.51204">
        <ele>498.8</ele>
        <time>2022-08-20T14:51:14Z</time>
      </trkpt>
      <trkpt lat="46.59037" lon="5.51205">
        <ele>498.6</ele>
        <time>2022-08-20T14:51:15Z</time>
      </trkpt>
      <trkpt lat="46.59039" lon="5.51206">
        <ele>498.6</ele>
        <time>2022-08-20T14:51:16Z</time>
      </trkpt>
      <trkpt lat="46.59042" lon="5.51206">
        <ele>498.6</ele>
        <time>2022-08-20T14:51:17Z</time>
      </trkpt>
      <trkpt lat="46.59045" lon="5.51207">
        <ele>498.6</ele>
        <time>2022-08-20T14:51:18Z</time>
      </trkpt>
      <trkpt lat="46.59048" lon="5.51209">
        <ele>498.4</ele>
        <time>2022-08-20T14:51:20Z</time>
      </trkpt>
      <trkpt lat="46.5905" lon="5.5121">
        <ele>498.4</ele>
        <time>2022-08-20T14:51:21Z</time>
      </trkpt>
      <trkpt lat="46.59053" lon="5.51211">
        <ele>498.4</ele>
        <time>2022-08-20T14:51:23Z</time>
      </trkpt>
      <trkpt lat="46.59056" lon="5.51213">
        <ele>498.2</ele>
        <time>2022-08-20T14:51:25Z</time>
      </trkpt>
      <trkpt lat="46.59058" lon="5.51216">
        <ele>498</ele>
        <time>2022-08-20T14:51:27Z</time>
      </trkpt>
      <trkpt lat="46.59061" lon="5.51218">
        <ele>497.8</ele>
        <time>2022-08-20T14:51:28Z</time>
      </trkpt>
      <trkpt lat="46.59063" lon="5.5122">
        <ele>497.8</ele>
        <time>2022-08-20T14:51:29Z</time>
      </trkpt>
      <trkpt lat="46.59066" lon="5.51221">
        <ele>497.6</ele>
        <time>2022-08-20T14:51:30Z</time>
      </trkpt>
      <trkpt lat="46.59068" lon="5.51221">
        <ele>497.6</ele>
        <time>2022-08-20T14:51:32Z</time>
      </trkpt>
      <trkpt lat="46.59071" lon="5.51222">
        <ele>497.4</ele>
        <time>2022-08-20T14:51:34Z</time>
      </trkpt>
      <trkpt lat="46.59074" lon="5.51222">
        <ele>497.4</ele>
        <time>2022-08-20T14:51:35Z</time>
      </trkpt>
      <trkpt lat="46.59076" lon="5.51223">
        <ele>497.4</ele>
        <time>2022-08-20T14:51:36Z</time>
      </trkpt>
      <trkpt lat="46.59079" lon="5.51225">
        <ele>497.2</ele>
        <time>2022-08-20T14:51:37Z</time>
      </trkpt>
      <trkpt lat="46.59082" lon="5.51227">
        <ele>497.2</ele>
        <time>2022-08-20T14:51:38Z</time>
      </trkpt>
      <trkpt lat="46.59086" lon="5.51229">
        <ele>497</ele>
        <time>2022-08-20T14:51:39Z</time>
      </trkpt>
      <trkpt lat="46.59091" lon="5.51232">
        <ele>497</ele>
        <time>2022-08-20T14:51:40Z</time>
      </trkpt>
      <trkpt lat="46.59096" lon="5.51235">
        <ele>497</ele>
        <time>2022-08-20T14:51:41Z</time>
      </trkpt>
      <trkpt lat="46.59102" lon="5.51238">
        <ele>496.8</ele>
        <time>2022-08-20T14:51:42Z</time>
      </trkpt>
      <trkpt lat="46.59109" lon="5.5124">
        <ele>496.8</ele>
        <time>2022-08-20T14:51:43Z</time>
      </trkpt>
      <trkpt lat="46.59117" lon="5.51242">
        <ele>496.8</ele>
        <time>2022-08-20T14:51:44Z</time>
      </trkpt>
      <trkpt lat="46.59125" lon="5.51243">
        <ele>496.8</ele>
        <time>2022-08-20T14:51:45Z</time>
      </trkpt>
      <trkpt lat="46.59128" lon="5.51245">
        <ele>496.6</ele>
        <time>2022-08-20T14:51:46Z</time>
      </trkpt>
      <trkpt lat="46.59132" lon="5.51248">
        <ele>496.6</ele>
        <time>2022-08-20T14:51:47Z</time>
      </trkpt>
      <trkpt lat="46.59134" lon="5.51251">
        <ele>496.4</ele>
        <time>2022-08-20T14:51:48Z</time>
      </trkpt>
      <trkpt lat="46.59135" lon="5.51255">
        <ele>496.2</ele>
        <time>2022-08-20T14:51:49Z</time>
      </trkpt>
      <trkpt lat="46.59137" lon="5.51259">
        <ele>496.2</ele>
        <time>2022-08-20T14:51:50Z</time>
      </trkpt>
      <trkpt lat="46.59138" lon="5.51263">
        <ele>496</ele>
        <time>2022-08-20T14:51:51Z</time>
      </trkpt>
      <trkpt lat="46.59139" lon="5.51266">
        <ele>495.8</ele>
        <time>2022-08-20T14:51:52Z</time>
      </trkpt>
      <trkpt lat="46.59141" lon="5.51268">
        <ele>495.8</ele>
        <time>2022-08-20T14:51:53Z</time>
      </trkpt>
      <trkpt lat="46.59142" lon="5.51271">
        <ele>495.6</ele>
        <time>2022-08-20T14:51:54Z</time>
      </trkpt>
      <trkpt lat="46.59144" lon="5.51273">
        <ele>495.4</ele>
        <time>2022-08-20T14:51:55Z</time>
      </trkpt>
      <trkpt lat="46.59146" lon="5.51276">
        <ele>495.4</ele>
        <time>2022-08-20T14:51:56Z</time>
      </trkpt>
      <trkpt lat="46.59148" lon="5.51278">
        <ele>495.2</ele>
        <time>2022-08-20T14:51:57Z</time>
      </trkpt>
      <trkpt lat="46.5915" lon="5.51281">
        <ele>495</ele>
        <time>2022-08-20T14:51:58Z</time>
      </trkpt>
      <trkpt lat="46.59152" lon="5.51283">
        <ele>494.6</ele>
        <time>2022-08-20T14:51:59Z</time>
      </trkpt>
      <trkpt lat="46.59154" lon="5.51287">
        <ele>494.4</ele>
        <time>2022-08-20T14:52:00Z</time>
      </trkpt>
      <trkpt lat="46.59156" lon="5.51289">
        <ele>494.2</ele>
        <time>2022-08-20T14:52:01Z</time>
      </trkpt>
      <trkpt lat="46.59157" lon="5.51291">
        <ele>494</ele>
        <time>2022-08-20T14:52:02Z</time>
      </trkpt>
      <trkpt lat="46.59159" lon="5.51293">
        <ele>493.8</ele>
        <time>2022-08-20T14:52:03Z</time>
      </trkpt>
      <trkpt lat="46.59161" lon="5.51294">
        <ele>493.6</ele>
        <time>2022-08-20T14:52:04Z</time>
      </trkpt>
      <trkpt lat="46.59163" lon="5.51296">
        <ele>493.4</ele>
        <time>2022-08-20T14:52:05Z</time>
      </trkpt>
      <trkpt lat="46.59165" lon="5.51297">
        <ele>493</ele>
        <time>2022-08-20T14:52:06Z</time>
      </trkpt>
      <trkpt lat="46.59167" lon="5.513">
        <ele>492.6</ele>
        <time>2022-08-20T14:52:08Z</time>
      </trkpt>
      <trkpt lat="46.59171" lon="5.51303">
        <ele>492.4</ele>
        <time>2022-08-20T14:52:09Z</time>
      </trkpt>
      <trkpt lat="46.59173" lon="5.51305">
        <ele>492.2</ele>
        <time>2022-08-20T14:52:10Z</time>
      </trkpt>
      <trkpt lat="46.59175" lon="5.51307">
        <ele>491.8</ele>
        <time>2022-08-20T14:52:11Z</time>
      </trkpt>
      <trkpt lat="46.59177" lon="5.51309">
        <ele>491.6</ele>
        <time>2022-08-20T14:52:12Z</time>
      </trkpt>
      <trkpt lat="46.59179" lon="5.5131">
        <ele>491.4</ele>
        <time>2022-08-20T14:52:13Z</time>
      </trkpt>
      <trkpt lat="46.59181" lon="5.51311">
        <ele>491.2</ele>
        <time>2022-08-20T14:52:14Z</time>
      </trkpt>
      <trkpt lat="46.59183" lon="5.51312">
        <ele>491</ele>
        <time>2022-08-20T14:52:15Z</time>
      </trkpt>
      <trkpt lat="46.59186" lon="5.51314">
        <ele>490.8</ele>
        <time>2022-08-20T14:52:16Z</time>
      </trkpt>
      <trkpt lat="46.59189" lon="5.51314">
        <ele>490.4</ele>
        <time>2022-08-20T14:52:18Z</time>
      </trkpt>
      <trkpt lat="46.59191" lon="5.51314">
        <ele>490.2</ele>
        <time>2022-08-20T14:52:19Z</time>
      </trkpt>
      <trkpt lat="46.59195" lon="5.51315">
        <ele>489.6</ele>
        <time>2022-08-20T14:52:21Z</time>
      </trkpt>
      <trkpt lat="46.59197" lon="5.51315">
        <ele>489.2</ele>
        <time>2022-08-20T14:52:22Z</time>
      </trkpt>
      <trkpt lat="46.592" lon="5.51315">
        <ele>489</ele>
        <time>2022-08-20T14:52:23Z</time>
      </trkpt>
      <trkpt lat="46.59202" lon="5.51315">
        <ele>488.8</ele>
        <time>2022-08-20T14:52:24Z</time>
      </trkpt>
      <trkpt lat="46.59205" lon="5.51315">
        <ele>488.4</ele>
        <time>2022-08-20T14:52:25Z</time>
      </trkpt>
      <trkpt lat="46.59208" lon="5.51315">
        <ele>488.2</ele>
        <time>2022-08-20T14:52:26Z</time>
      </trkpt>
      <trkpt lat="46.59211" lon="5.51316">
        <ele>487.8</ele>
        <time>2022-08-20T14:52:27Z</time>
      </trkpt>
      <trkpt lat="46.59214" lon="5.51316">
        <ele>487.6</ele>
        <time>2022-08-20T14:52:28Z</time>
      </trkpt>
      <trkpt lat="46.59216" lon="5.51315">
        <ele>487.2</ele>
        <time>2022-08-20T14:52:29Z</time>
      </trkpt>
      <trkpt lat="46.5922" lon="5.51315">
        <ele>486.8</ele>
        <time>2022-08-20T14:52:30Z</time>
      </trkpt>
      <trkpt lat="46.59222" lon="5.51315">
        <ele>486.4</ele>
        <time>2022-08-20T14:52:31Z</time>
      </trkpt>
      <trkpt lat="46.59225" lon="5.51315">
        <ele>486</ele>
        <time>2022-08-20T14:52:32Z</time>
      </trkpt>
      <trkpt lat="46.59228" lon="5.51315">
        <ele>485.6</ele>
        <time>2022-08-20T14:52:33Z</time>
      </trkpt>
      <trkpt lat="46.59231" lon="5.51315">
        <ele>485.2</ele>
        <time>2022-08-20T14:52:34Z</time>
      </trkpt>
      <trkpt lat="46.59234" lon="5.51315">
        <ele>484.8</ele>
        <time>2022-08-20T14:52:35Z</time>
      </trkpt>
      <trkpt lat="46.59236" lon="5.51314">
        <ele>484.4</ele>
        <time>2022-08-20T14:52:36Z</time>
      </trkpt>
      <trkpt lat="46.59239" lon="5.51314">
        <ele>484</ele>
        <time>2022-08-20T14:52:37Z</time>
      </trkpt>
      <trkpt lat="46.59243" lon="5.51313">
        <ele>483.6</ele>
        <time>2022-08-20T14:52:38Z</time>
      </trkpt>
      <trkpt lat="46.59246" lon="5.51312">
        <ele>483</ele>
        <time>2022-08-20T14:52:39Z</time>
      </trkpt>
      <trkpt lat="46.59248" lon="5.51311">
        <ele>482.6</ele>
        <time>2022-08-20T14:52:40Z</time>
      </trkpt>
      <trkpt lat="46.59252" lon="5.5131">
        <ele>482.2</ele>
        <time>2022-08-20T14:52:41Z</time>
      </trkpt>
      <trkpt lat="46.59255" lon="5.51308">
        <ele>481.6</ele>
        <time>2022-08-20T14:52:42Z</time>
      </trkpt>
      <trkpt lat="46.59258" lon="5.51307">
        <ele>481.2</ele>
        <time>2022-08-20T14:52:43Z</time>
      </trkpt>
      <trkpt lat="46.59261" lon="5.51306">
        <ele>480.8</ele>
        <time>2022-08-20T14:52:44Z</time>
      </trkpt>
      <trkpt lat="46.59264" lon="5.51305">
        <ele>480.2</ele>
        <time>2022-08-20T14:52:45Z</time>
      </trkpt>
      <trkpt lat="46.59267" lon="5.51304">
        <ele>479.8</ele>
        <time>2022-08-20T14:52:46Z</time>
      </trkpt>
      <trkpt lat="46.59269" lon="5.51303">
        <ele>479.2</ele>
        <time>2022-08-20T14:52:47Z</time>
      </trkpt>
      <trkpt lat="46.59272" lon="5.51302">
        <ele>478.6</ele>
        <time>2022-08-20T14:52:48Z</time>
      </trkpt>
      <trkpt lat="46.59274" lon="5.51301">
        <ele>478.2</ele>
        <time>2022-08-20T14:52:49Z</time>
      </trkpt>
      <trkpt lat="46.59277" lon="5.513">
        <ele>477.6</ele>
        <time>2022-08-20T14:52:50Z</time>
      </trkpt>
      <trkpt lat="46.5928" lon="5.51301">
        <ele>477.2</ele>
        <time>2022-08-20T14:52:51Z</time>
      </trkpt>
      <trkpt lat="46.59284" lon="5.51301">
        <ele>476</ele>
        <time>2022-08-20T14:52:53Z</time>
      </trkpt>
      <trkpt lat="46.59285" lon="5.513">
        <ele>475.4</ele>
        <time>2022-08-20T14:52:54Z</time>
      </trkpt>
      <trkpt lat="46.59288" lon="5.51297">
        <ele>474.6</ele>
        <time>2022-08-20T14:52:56Z</time>
      </trkpt>
      <trkpt lat="46.59291" lon="5.51296">
        <ele>474</ele>
        <time>2022-08-20T14:52:57Z</time>
      </trkpt>
      <trkpt lat="46.59293" lon="5.51296">
        <ele>473.6</ele>
        <time>2022-08-20T14:52:58Z</time>
      </trkpt>
      <trkpt lat="46.59295" lon="5.51295">
        <ele>473</ele>
        <time>2022-08-20T14:52:59Z</time>
      </trkpt>
      <trkpt lat="46.59298" lon="5.51294">
        <ele>472.6</ele>
        <time>2022-08-20T14:53:00Z</time>
      </trkpt>
      <trkpt lat="46.593" lon="5.51293">
        <ele>472</ele>
        <time>2022-08-20T14:53:01Z</time>
      </trkpt>
      <trkpt lat="46.59302" lon="5.51291">
        <ele>471.6</ele>
        <time>2022-08-20T14:53:02Z</time>
      </trkpt>
      <trkpt lat="46.59305" lon="5.5129">
        <ele>471.2</ele>
        <time>2022-08-20T14:53:03Z</time>
      </trkpt>
      <trkpt lat="46.59308" lon="5.51289">
        <ele>470.8</ele>
        <time>2022-08-20T14:53:04Z</time>
      </trkpt>
      <trkpt lat="46.5931" lon="5.51289">
        <ele>470.4</ele>
        <time>2022-08-20T14:53:05Z</time>
      </trkpt>
      <trkpt lat="46.59313" lon="5.51288">
        <ele>470</ele>
        <time>2022-08-20T14:53:06Z</time>
      </trkpt>
      <trkpt lat="46.59315" lon="5.51287">
        <ele>469.6</ele>
        <time>2022-08-20T14:53:07Z</time>
      </trkpt>
      <trkpt lat="46.59317" lon="5.51287">
        <ele>469.2</ele>
        <time>2022-08-20T14:53:08Z</time>
      </trkpt>
      <trkpt lat="46.59319" lon="5.51288">
        <ele>468.6</ele>
        <time>2022-08-20T14:53:09Z</time>
      </trkpt>
      <trkpt lat="46.59321" lon="5.51289">
        <ele>468.2</ele>
        <time>2022-08-20T14:53:10Z</time>
      </trkpt>
      <trkpt lat="46.59324" lon="5.5129">
        <ele>467.8</ele>
        <time>2022-08-20T14:53:11Z</time>
      </trkpt>
      <trkpt lat="46.59325" lon="5.51291">
        <ele>467.6</ele>
        <time>2022-08-20T14:53:12Z</time>
      </trkpt>
      <trkpt lat="46.59327" lon="5.51287">
        <ele>466.4</ele>
        <time>2022-08-20T14:53:15Z</time>
      </trkpt>
      <trkpt lat="46.59329" lon="5.51283">
        <ele>465.6</ele>
        <time>2022-08-20T14:53:17Z</time>
      </trkpt>
      <trkpt lat="46.59331" lon="5.51282">
        <ele>465.4</ele>
        <time>2022-08-20T14:53:18Z</time>
      </trkpt>
      <trkpt lat="46.59333" lon="5.51282">
        <ele>465</ele>
        <time>2022-08-20T14:53:19Z</time>
      </trkpt>
      <trkpt lat="46.59335" lon="5.51282">
        <ele>464.4</ele>
        <time>2022-08-20T14:53:21Z</time>
      </trkpt>
      <trkpt lat="46.59337" lon="5.51282">
        <ele>464</ele>
        <time>2022-08-20T14:53:22Z</time>
      </trkpt>
      <trkpt lat="46.5934" lon="5.51282">
        <ele>463.4</ele>
        <time>2022-08-20T14:53:24Z</time>
      </trkpt>
      <trkpt lat="46.59343" lon="5.51282">
        <ele>463</ele>
        <time>2022-08-20T14:53:26Z</time>
      </trkpt>
      <trkpt lat="46.59346" lon="5.51281">
        <ele>462.6</ele>
        <time>2022-08-20T14:53:28Z</time>
      </trkpt>
      <trkpt lat="46.59348" lon="5.5128">
        <ele>462.4</ele>
        <time>2022-08-20T14:53:29Z</time>
      </trkpt>
      <trkpt lat="46.59351" lon="5.5128">
        <ele>462.2</ele>
        <time>2022-08-20T14:53:30Z</time>
      </trkpt>
      <trkpt lat="46.59354" lon="5.5128">
        <ele>462</ele>
        <time>2022-08-20T14:53:31Z</time>
      </trkpt>
      <trkpt lat="46.59357" lon="5.5128">
        <ele>461.8</ele>
        <time>2022-08-20T14:53:32Z</time>
      </trkpt>
      <trkpt lat="46.5936" lon="5.51279">
        <ele>461.6</ele>
        <time>2022-08-20T14:53:33Z</time>
      </trkpt>
      <trkpt lat="46.59363" lon="5.51279">
        <ele>461.4</ele>
        <time>2022-08-20T14:53:34Z</time>
      </trkpt>
      <trkpt lat="46.59365" lon="5.51279">
        <ele>461.2</ele>
        <time>2022-08-20T14:53:35Z</time>
      </trkpt>
      <trkpt lat="46.59367" lon="5.5128">
        <ele>461</ele>
        <time>2022-08-20T14:53:36Z</time>
      </trkpt>
      <trkpt lat="46.5937" lon="5.5128">
        <ele>460.8</ele>
        <time>2022-08-20T14:53:37Z</time>
      </trkpt>
      <trkpt lat="46.59373" lon="5.5128">
        <ele>460.6</ele>
        <time>2022-08-20T14:53:38Z</time>
      </trkpt>
      <trkpt lat="46.59375" lon="5.5128">
        <ele>460.4</ele>
        <time>2022-08-20T14:53:39Z</time>
      </trkpt>
      <trkpt lat="46.59378" lon="5.5128">
        <ele>460.2</ele>
        <time>2022-08-20T14:53:40Z</time>
      </trkpt>
      <trkpt lat="46.59381" lon="5.5128">
        <ele>460</ele>
        <time>2022-08-20T14:53:41Z</time>
      </trkpt>
      <trkpt lat="46.59384" lon="5.5128">
        <ele>459.8</ele>
        <time>2022-08-20T14:53:42Z</time>
      </trkpt>
      <trkpt lat="46.59387" lon="5.5128">
        <ele>459.6</ele>
        <time>2022-08-20T14:53:43Z</time>
      </trkpt>
      <trkpt lat="46.59389" lon="5.51281">
        <ele>459.6</ele>
        <time>2022-08-20T14:53:44Z</time>
      </trkpt>
      <trkpt lat="46.59393" lon="5.51281">
        <ele>459.4</ele>
        <time>2022-08-20T14:53:45Z</time>
      </trkpt>
      <trkpt lat="46.59395" lon="5.51282">
        <ele>459.2</ele>
        <time>2022-08-20T14:53:46Z</time>
      </trkpt>
      <trkpt lat="46.59398" lon="5.51282">
        <ele>459.2</ele>
        <time>2022-08-20T14:53:47Z</time>
      </trkpt>
      <trkpt lat="46.59401" lon="5.51283">
        <ele>459</ele>
        <time>2022-08-20T14:53:48Z</time>
      </trkpt>
      <trkpt lat="46.59404" lon="5.51283">
        <ele>458.8</ele>
        <time>2022-08-20T14:53:49Z</time>
      </trkpt>
      <trkpt lat="46.59407" lon="5.51283">
        <ele>458.6</ele>
        <time>2022-08-20T14:53:50Z</time>
      </trkpt>
      <trkpt lat="46.5941" lon="5.51284">
        <ele>458.4</ele>
        <time>2022-08-20T14:53:51Z</time>
      </trkpt>
      <trkpt lat="46.59413" lon="5.51285">
        <ele>458.2</ele>
        <time>2022-08-20T14:53:52Z</time>
      </trkpt>
      <trkpt lat="46.59416" lon="5.51285">
        <ele>458</ele>
        <time>2022-08-20T14:53:53Z</time>
      </trkpt>
      <trkpt lat="46.5942" lon="5.51286">
        <ele>458</ele>
        <time>2022-08-20T14:53:54Z</time>
      </trkpt>
      <trkpt lat="46.59423" lon="5.51287">
        <ele>457.8</ele>
        <time>2022-08-20T14:53:55Z</time>
      </trkpt>
      <trkpt lat="46.59426" lon="5.51287">
        <ele>457.8</ele>
        <time>2022-08-20T14:53:56Z</time>
      </trkpt>
      <trkpt lat="46.59429" lon="5.51288">
        <ele>457.6</ele>
        <time>2022-08-20T14:53:57Z</time>
      </trkpt>
      <trkpt lat="46.59431" lon="5.51289">
        <ele>457.6</ele>
        <time>2022-08-20T14:53:58Z</time>
      </trkpt>
      <trkpt lat="46.59434" lon="5.51291">
        <ele>457.6</ele>
        <time>2022-08-20T14:53:59Z</time>
      </trkpt>
      <trkpt lat="46.59436" lon="5.51291">
        <ele>457.6</ele>
        <time>2022-08-20T14:54:00Z</time>
      </trkpt>
      <trkpt lat="46.59438" lon="5.51293">
        <ele>457.6</ele>
        <time>2022-08-20T14:54:01Z</time>
      </trkpt>
      <trkpt lat="46.59441" lon="5.51296">
        <ele>457.6</ele>
        <time>2022-08-20T14:54:02Z</time>
      </trkpt>
      <trkpt lat="46.59443" lon="5.51299">
        <ele>457.6</ele>
        <time>2022-08-20T14:54:03Z</time>
      </trkpt>
      <trkpt lat="46.59445" lon="5.51302">
        <ele>457.6</ele>
        <time>2022-08-20T14:54:04Z</time>
      </trkpt>
      <trkpt lat="46.59447" lon="5.51304">
        <ele>457.6</ele>
        <time>2022-08-20T14:54:05Z</time>
      </trkpt>
      <trkpt lat="46.59449" lon="5.51306">
        <ele>457.6</ele>
        <time>2022-08-20T14:54:06Z</time>
      </trkpt>
      <trkpt lat="46.59451" lon="5.5131">
        <ele>457.6</ele>
        <time>2022-08-20T14:54:07Z</time>
      </trkpt>
      <trkpt lat="46.59453" lon="5.51313">
        <ele>457.6</ele>
        <time>2022-08-20T14:54:08Z</time>
      </trkpt>
      <trkpt lat="46.59454" lon="5.51316">
        <ele>457.6</ele>
        <time>2022-08-20T14:54:09Z</time>
      </trkpt>
      <trkpt lat="46.59456" lon="5.51319">
        <ele>457.6</ele>
        <time>2022-08-20T14:54:10Z</time>
      </trkpt>
      <trkpt lat="46.59457" lon="5.51321">
        <ele>457.6</ele>
        <time>2022-08-20T14:54:11Z</time>
      </trkpt>
      <trkpt lat="46.59459" lon="5.51323">
        <ele>457.6</ele>
        <time>2022-08-20T14:54:12Z</time>
      </trkpt>
      <trkpt lat="46.59461" lon="5.51324">
        <ele>457.6</ele>
        <time>2022-08-20T14:54:13Z</time>
      </trkpt>
      <trkpt lat="46.59462" lon="5.51326">
        <ele>457.6</ele>
        <time>2022-08-20T14:54:15Z</time>
      </trkpt>
      <trkpt lat="46.59465" lon="5.51329">
        <ele>457.6</ele>
        <time>2022-08-20T14:54:17Z</time>
      </trkpt>
      <trkpt lat="46.5947" lon="5.51334">
        <ele>457.8</ele>
        <time>2022-08-20T14:54:19Z</time>
      </trkpt>
      <trkpt lat="46.59471" lon="5.51335">
        <ele>457.8</ele>
        <time>2022-08-20T14:54:20Z</time>
      </trkpt>
      <trkpt lat="46.59474" lon="5.51337">
        <ele>457.8</ele>
        <time>2022-08-20T14:54:21Z</time>
      </trkpt>
      <trkpt lat="46.59477" lon="5.5134">
        <ele>457.8</ele>
        <time>2022-08-20T14:54:23Z</time>
      </trkpt>
      <trkpt lat="46.59478" lon="5.51342">
        <ele>458</ele>
        <time>2022-08-20T14:54:24Z</time>
      </trkpt>
      <trkpt lat="46.5948" lon="5.51344">
        <ele>458</ele>
        <time>2022-08-20T14:54:25Z</time>
      </trkpt>
      <trkpt lat="46.59482" lon="5.51347">
        <ele>458</ele>
        <time>2022-08-20T14:54:27Z</time>
      </trkpt>
      <trkpt lat="46.59484" lon="5.51348">
        <ele>458</ele>
        <time>2022-08-20T14:54:28Z</time>
      </trkpt>
      <trkpt lat="46.59486" lon="5.51351">
        <ele>458.2</ele>
        <time>2022-08-20T14:54:30Z</time>
      </trkpt>
      <trkpt lat="46.59489" lon="5.51354">
        <ele>458.4</ele>
        <time>2022-08-20T14:54:32Z</time>
      </trkpt>
      <trkpt lat="46.59491" lon="5.51356">
        <ele>458.4</ele>
        <time>2022-08-20T14:54:33Z</time>
      </trkpt>
      <trkpt lat="46.59492" lon="5.51359">
        <ele>458.4</ele>
        <time>2022-08-20T14:54:35Z</time>
      </trkpt>
      <trkpt lat="46.59494" lon="5.51361">
        <ele>458.4</ele>
        <time>2022-08-20T14:54:37Z</time>
      </trkpt>
      <trkpt lat="46.59496" lon="5.51364">
        <ele>458.6</ele>
        <time>2022-08-20T14:54:39Z</time>
      </trkpt>
      <trkpt lat="46.59498" lon="5.51366">
        <ele>458.8</ele>
        <time>2022-08-20T14:54:40Z</time>
      </trkpt>
      <trkpt lat="46.595" lon="5.51367">
        <ele>459</ele>
        <time>2022-08-20T14:54:42Z</time>
      </trkpt>
      <trkpt lat="46.59503" lon="5.51368">
        <ele>459.2</ele>
        <time>2022-08-20T14:54:44Z</time>
      </trkpt>
      <trkpt lat="46.59506" lon="5.51369">
        <ele>459.2</ele>
        <time>2022-08-20T14:54:45Z</time>
      </trkpt>
      <trkpt lat="46.59509" lon="5.5137">
        <ele>459.2</ele>
        <time>2022-08-20T14:54:46Z</time>
      </trkpt>
      <trkpt lat="46.59511" lon="5.51372">
        <ele>459.2</ele>
        <time>2022-08-20T14:54:47Z</time>
      </trkpt>
      <trkpt lat="46.59513" lon="5.51373">
        <ele>459.2</ele>
        <time>2022-08-20T14:54:48Z</time>
      </trkpt>
      <trkpt lat="46.59515" lon="5.51374">
        <ele>459.2</ele>
        <time>2022-08-20T14:54:49Z</time>
      </trkpt>
      <trkpt lat="46.59518" lon="5.51376">
        <ele>459.2</ele>
        <time>2022-08-20T14:54:50Z</time>
      </trkpt>
      <trkpt lat="46.5952" lon="5.51377">
        <ele>459.2</ele>
        <time>2022-08-20T14:54:51Z</time>
      </trkpt>
      <trkpt lat="46.59523" lon="5.51378">
        <ele>459.2</ele>
        <time>2022-08-20T14:54:52Z</time>
      </trkpt>
      <trkpt lat="46.59525" lon="5.51379">
        <ele>459.2</ele>
        <time>2022-08-20T14:54:53Z</time>
      </trkpt>
      <trkpt lat="46.59527" lon="5.51379">
        <ele>459</ele>
        <time>2022-08-20T14:54:54Z</time>
      </trkpt>
      <trkpt lat="46.59529" lon="5.5138">
        <ele>459</ele>
        <time>2022-08-20T14:54:55Z</time>
      </trkpt>
      <trkpt lat="46.59532" lon="5.51381">
        <ele>459</ele>
        <time>2022-08-20T14:54:56Z</time>
      </trkpt>
      <trkpt lat="46.59535" lon="5.51382">
        <ele>458.8</ele>
        <time>2022-08-20T14:54:57Z</time>
      </trkpt>
      <trkpt lat="46.59538" lon="5.51383">
        <ele>458.8</ele>
        <time>2022-08-20T14:54:58Z</time>
      </trkpt>
      <trkpt lat="46.5954" lon="5.51383">
        <ele>458.6</ele>
        <time>2022-08-20T14:54:59Z</time>
      </trkpt>
      <trkpt lat="46.59543" lon="5.51385">
        <ele>458.6</ele>
        <time>2022-08-20T14:55:00Z</time>
      </trkpt>
      <trkpt lat="46.59546" lon="5.51386">
        <ele>458.4</ele>
        <time>2022-08-20T14:55:01Z</time>
      </trkpt>
      <trkpt lat="46.59548" lon="5.51387">
        <ele>458.4</ele>
        <time>2022-08-20T14:55:02Z</time>
      </trkpt>
      <trkpt lat="46.59551" lon="5.51388">
        <ele>458.2</ele>
        <time>2022-08-20T14:55:03Z</time>
      </trkpt>
      <trkpt lat="46.59554" lon="5.5139">
        <ele>458.2</ele>
        <time>2022-08-20T14:55:04Z</time>
      </trkpt>
      <trkpt lat="46.59556" lon="5.51391">
        <ele>458.2</ele>
        <time>2022-08-20T14:55:05Z</time>
      </trkpt>
      <trkpt lat="46.59559" lon="5.51392">
        <ele>458</ele>
        <time>2022-08-20T14:55:06Z</time>
      </trkpt>
      <trkpt lat="46.59562" lon="5.51391">
        <ele>458</ele>
        <time>2022-08-20T14:55:07Z</time>
      </trkpt>
      <trkpt lat="46.59565" lon="5.51392">
        <ele>458</ele>
        <time>2022-08-20T14:55:08Z</time>
      </trkpt>
      <trkpt lat="46.59567" lon="5.51392">
        <ele>457.8</ele>
        <time>2022-08-20T14:55:09Z</time>
      </trkpt>
      <trkpt lat="46.59569" lon="5.51392">
        <ele>457.8</ele>
        <time>2022-08-20T14:55:10Z</time>
      </trkpt>
      <trkpt lat="46.59572" lon="5.51392">
        <ele>457.8</ele>
        <time>2022-08-20T14:55:11Z</time>
      </trkpt>
      <trkpt lat="46.59575" lon="5.51392">
        <ele>457.6</ele>
        <time>2022-08-20T14:55:12Z</time>
      </trkpt>
      <trkpt lat="46.59578" lon="5.51391">
        <ele>457.6</ele>
        <time>2022-08-20T14:55:13Z</time>
      </trkpt>
      <trkpt lat="46.5958" lon="5.51391">
        <ele>457.4</ele>
        <time>2022-08-20T14:55:14Z</time>
      </trkpt>
      <trkpt lat="46.59583" lon="5.51391">
        <ele>457.2</ele>
        <time>2022-08-20T14:55:15Z</time>
      </trkpt>
      <trkpt lat="46.59586" lon="5.51391">
        <ele>457.2</ele>
        <time>2022-08-20T14:55:16Z</time>
      </trkpt>
      <trkpt lat="46.59588" lon="5.51392">
        <ele>457</ele>
        <time>2022-08-20T14:55:17Z</time>
      </trkpt>
      <trkpt lat="46.59591" lon="5.51393">
        <ele>457</ele>
        <time>2022-08-20T14:55:18Z</time>
      </trkpt>
      <trkpt lat="46.59594" lon="5.51394">
        <ele>456.8</ele>
        <time>2022-08-20T14:55:19Z</time>
      </trkpt>
      <trkpt lat="46.59597" lon="5.51395">
        <ele>456.8</ele>
        <time>2022-08-20T14:55:20Z</time>
      </trkpt>
      <trkpt lat="46.596" lon="5.51395">
        <ele>456.6</ele>
        <time>2022-08-20T14:55:21Z</time>
      </trkpt>
      <trkpt lat="46.59603" lon="5.51396">
        <ele>456.4</ele>
        <time>2022-08-20T14:55:22Z</time>
      </trkpt>
      <trkpt lat="46.59606" lon="5.51398">
        <ele>456.2</ele>
        <time>2022-08-20T14:55:23Z</time>
      </trkpt>
      <trkpt lat="46.59608" lon="5.51399">
        <ele>456.2</ele>
        <time>2022-08-20T14:55:24Z</time>
      </trkpt>
      <trkpt lat="46.5961" lon="5.51399">
        <ele>456.2</ele>
        <time>2022-08-20T14:55:25Z</time>
      </trkpt>
      <trkpt lat="46.59613" lon="5.514">
        <ele>456</ele>
        <time>2022-08-20T14:55:26Z</time>
      </trkpt>
      <trkpt lat="46.59615" lon="5.51402">
        <ele>455.8</ele>
        <time>2022-08-20T14:55:27Z</time>
      </trkpt>
      <trkpt lat="46.59618" lon="5.51403">
        <ele>455.8</ele>
        <time>2022-08-20T14:55:28Z</time>
      </trkpt>
      <trkpt lat="46.5962" lon="5.51405">
        <ele>455.6</ele>
        <time>2022-08-20T14:55:29Z</time>
      </trkpt>
      <trkpt lat="46.59623" lon="5.51407">
        <ele>455.6</ele>
        <time>2022-08-20T14:55:30Z</time>
      </trkpt>
      <trkpt lat="46.59625" lon="5.51409">
        <ele>455.6</ele>
        <time>2022-08-20T14:55:31Z</time>
      </trkpt>
      <trkpt lat="46.59628" lon="5.5141">
        <ele>455.4</ele>
        <time>2022-08-20T14:55:32Z</time>
      </trkpt>
      <trkpt lat="46.5963" lon="5.51413">
        <ele>455.4</ele>
        <time>2022-08-20T14:55:33Z</time>
      </trkpt>
      <trkpt lat="46.59633" lon="5.51416">
        <ele>455.4</ele>
        <time>2022-08-20T14:55:34Z</time>
      </trkpt>
      <trkpt lat="46.59634" lon="5.51418">
        <ele>455.2</ele>
        <time>2022-08-20T14:55:35Z</time>
      </trkpt>
      <trkpt lat="46.59636" lon="5.51419">
        <ele>455.2</ele>
        <time>2022-08-20T14:55:36Z</time>
      </trkpt>
      <trkpt lat="46.59639" lon="5.51422">
        <ele>455</ele>
        <time>2022-08-20T14:55:38Z</time>
      </trkpt>
      <trkpt lat="46.59642" lon="5.51425">
        <ele>454.8</ele>
        <time>2022-08-20T14:55:40Z</time>
      </trkpt>
      <trkpt lat="46.59645" lon="5.51427">
        <ele>454.4</ele>
        <time>2022-08-20T14:55:42Z</time>
      </trkpt>
      <trkpt lat="46.59647" lon="5.51429">
        <ele>454.4</ele>
        <time>2022-08-20T14:55:44Z</time>
      </trkpt>
      <trkpt lat="46.59649" lon="5.51431">
        <ele>454.2</ele>
        <time>2022-08-20T14:55:45Z</time>
      </trkpt>
      <trkpt lat="46.59651" lon="5.51433">
        <ele>454.2</ele>
        <time>2022-08-20T14:55:47Z</time>
      </trkpt>
      <trkpt lat="46.59653" lon="5.51435">
        <ele>454</ele>
        <time>2022-08-20T14:55:49Z</time>
      </trkpt>
      <trkpt lat="46.59655" lon="5.51438">
        <ele>453.8</ele>
        <time>2022-08-20T14:55:51Z</time>
      </trkpt>
      <trkpt lat="46.59657" lon="5.51439">
        <ele>453.6</ele>
        <time>2022-08-20T14:55:53Z</time>
      </trkpt>
      <trkpt lat="46.5966" lon="5.51441">
        <ele>453.4</ele>
        <time>2022-08-20T14:55:55Z</time>
      </trkpt>
      <trkpt lat="46.59662" lon="5.51443">
        <ele>453.4</ele>
        <time>2022-08-20T14:55:57Z</time>
      </trkpt>
      <trkpt lat="46.59665" lon="5.51444">
        <ele>453.4</ele>
        <time>2022-08-20T14:55:59Z</time>
      </trkpt>
      <trkpt lat="46.59667" lon="5.51445">
        <ele>453.4</ele>
        <time>2022-08-20T14:56:01Z</time>
      </trkpt>
      <trkpt lat="46.59669" lon="5.51446">
        <ele>453.4</ele>
        <time>2022-08-20T14:56:03Z</time>
      </trkpt>
      <trkpt lat="46.59672" lon="5.51447">
        <ele>453.4</ele>
        <time>2022-08-20T14:56:05Z</time>
      </trkpt>
      <trkpt lat="46.59675" lon="5.51448">
        <ele>453.4</ele>
        <time>2022-08-20T14:56:07Z</time>
      </trkpt>
      <trkpt lat="46.59678" lon="5.51449">
        <ele>453.4</ele>
        <time>2022-08-20T14:56:09Z</time>
      </trkpt>
      <trkpt lat="46.5968" lon="5.5145">
        <ele>453.4</ele>
        <time>2022-08-20T14:56:10Z</time>
      </trkpt>
      <trkpt lat="46.59683" lon="5.51451">
        <ele>453.4</ele>
        <time>2022-08-20T14:56:12Z</time>
      </trkpt>
      <trkpt lat="46.59686" lon="5.51451">
        <ele>453.6</ele>
        <time>2022-08-20T14:56:14Z</time>
      </trkpt>
      <trkpt lat="46.59689" lon="5.51451">
        <ele>453.8</ele>
        <time>2022-08-20T14:56:16Z</time>
      </trkpt>
      <trkpt lat="46.59693" lon="5.51453">
        <ele>454</ele>
        <time>2022-08-20T14:56:18Z</time>
      </trkpt>
      <trkpt lat="46.59696" lon="5.51456">
        <ele>454.2</ele>
        <time>2022-08-20T14:56:20Z</time>
      </trkpt>
      <trkpt lat="46.59697" lon="5.51457">
        <ele>454.2</ele>
        <time>2022-08-20T14:56:21Z</time>
      </trkpt>
      <trkpt lat="46.59699" lon="5.51458">
        <ele>454.4</ele>
        <time>2022-08-20T14:56:22Z</time>
      </trkpt>
      <trkpt lat="46.59703" lon="5.5146">
        <ele>454.4</ele>
        <time>2022-08-20T14:56:24Z</time>
      </trkpt>
      <trkpt lat="46.59704" lon="5.51461">
        <ele>454.6</ele>
        <time>2022-08-20T14:56:25Z</time>
      </trkpt>
      <trkpt lat="46.59708" lon="5.51464">
        <ele>454.6</ele>
        <time>2022-08-20T14:56:27Z</time>
      </trkpt>
      <trkpt lat="46.59711" lon="5.51465">
        <ele>454.8</ele>
        <time>2022-08-20T14:56:29Z</time>
      </trkpt>
      <trkpt lat="46.59714" lon="5.51465">
        <ele>454.8</ele>
        <time>2022-08-20T14:56:31Z</time>
      </trkpt>
      <trkpt lat="46.59717" lon="5.51466">
        <ele>455</ele>
        <time>2022-08-20T14:56:33Z</time>
      </trkpt>
      <trkpt lat="46.59718" lon="5.51466">
        <ele>455</ele>
        <time>2022-08-20T14:56:34Z</time>
      </trkpt>
      <trkpt lat="46.59722" lon="5.51467">
        <ele>455.2</ele>
        <time>2022-08-20T14:56:36Z</time>
      </trkpt>
      <trkpt lat="46.59724" lon="5.51468">
        <ele>455.2</ele>
        <time>2022-08-20T14:56:37Z</time>
      </trkpt>
      <trkpt lat="46.59725" lon="5.51469">
        <ele>455.2</ele>
        <time>2022-08-20T14:56:38Z</time>
      </trkpt>
      <trkpt lat="46.59727" lon="5.51469">
        <ele>455.4</ele>
        <time>2022-08-20T14:56:39Z</time>
      </trkpt>
      <trkpt lat="46.59729" lon="5.51469">
        <ele>455.4</ele>
        <time>2022-08-20T14:56:40Z</time>
      </trkpt>
      <trkpt lat="46.59732" lon="5.51469">
        <ele>455.6</ele>
        <time>2022-08-20T14:56:41Z</time>
      </trkpt>
      <trkpt lat="46.59733" lon="5.5147">
        <ele>455.8</ele>
        <time>2022-08-20T14:56:42Z</time>
      </trkpt>
      <trkpt lat="46.59736" lon="5.51471">
        <ele>456</ele>
        <time>2022-08-20T14:56:43Z</time>
      </trkpt>
      <trkpt lat="46.59739" lon="5.51472">
        <ele>456.2</ele>
        <time>2022-08-20T14:56:44Z</time>
      </trkpt>
      <trkpt lat="46.59741" lon="5.51474">
        <ele>456.4</ele>
        <time>2022-08-20T14:56:45Z</time>
      </trkpt>
      <trkpt lat="46.59744" lon="5.51475">
        <ele>456.6</ele>
        <time>2022-08-20T14:56:46Z</time>
      </trkpt>
      <trkpt lat="46.59746" lon="5.51475">
        <ele>456.8</ele>
        <time>2022-08-20T14:56:47Z</time>
      </trkpt>
      <trkpt lat="46.59749" lon="5.51476">
        <ele>457</ele>
        <time>2022-08-20T14:56:48Z</time>
      </trkpt>
      <trkpt lat="46.59751" lon="5.51477">
        <ele>457.2</ele>
        <time>2022-08-20T14:56:49Z</time>
      </trkpt>
      <trkpt lat="46.59754" lon="5.51478">
        <ele>457.2</ele>
        <time>2022-08-20T14:56:50Z</time>
      </trkpt>
      <trkpt lat="46.59757" lon="5.5148">
        <ele>457.4</ele>
        <time>2022-08-20T14:56:51Z</time>
      </trkpt>
      <trkpt lat="46.5976" lon="5.51481">
        <ele>457.4</ele>
        <time>2022-08-20T14:56:52Z</time>
      </trkpt>
      <trkpt lat="46.59763" lon="5.51482">
        <ele>457.6</ele>
        <time>2022-08-20T14:56:53Z</time>
      </trkpt>
      <trkpt lat="46.59766" lon="5.51484">
        <ele>457.8</ele>
        <time>2022-08-20T14:56:54Z</time>
      </trkpt>
      <trkpt lat="46.59768" lon="5.51488">
        <ele>458</ele>
        <time>2022-08-20T14:56:55Z</time>
      </trkpt>
      <trkpt lat="46.59769" lon="5.51491">
        <ele>458</ele>
        <time>2022-08-20T14:56:56Z</time>
      </trkpt>
      <trkpt lat="46.59769" lon="5.51495">
        <ele>458.2</ele>
        <time>2022-08-20T14:56:57Z</time>
      </trkpt>
      <trkpt lat="46.5977" lon="5.51499">
        <ele>458.2</ele>
        <time>2022-08-20T14:56:58Z</time>
      </trkpt>
      <trkpt lat="46.59769" lon="5.51503">
        <ele>458.4</ele>
        <time>2022-08-20T14:56:59Z</time>
      </trkpt>
      <trkpt lat="46.59769" lon="5.51505">
        <ele>458.4</ele>
        <time>2022-08-20T14:57:00Z</time>
      </trkpt>
      <trkpt lat="46.59771" lon="5.5151">
        <ele>458.6</ele>
        <time>2022-08-20T14:57:02Z</time>
      </trkpt>
      <trkpt lat="46.59771" lon="5.51513">
        <ele>458.6</ele>
        <time>2022-08-20T14:57:03Z</time>
      </trkpt>
      <trkpt lat="46.59771" lon="5.51516">
        <ele>458.6</ele>
        <time>2022-08-20T14:57:04Z</time>
      </trkpt>
      <trkpt lat="46.59773" lon="5.5152">
        <ele>458.8</ele>
        <time>2022-08-20T14:57:06Z</time>
      </trkpt>
      <trkpt lat="46.59774" lon="5.51524">
        <ele>459</ele>
        <time>2022-08-20T14:57:08Z</time>
      </trkpt>
      <trkpt lat="46.59775" lon="5.51527">
        <ele>459.2</ele>
        <time>2022-08-20T14:57:10Z</time>
      </trkpt>
      <trkpt lat="46.59777" lon="5.51529">
        <ele>459.4</ele>
        <time>2022-08-20T14:57:11Z</time>
      </trkpt>
      <trkpt lat="46.59778" lon="5.51532">
        <ele>459.6</ele>
        <time>2022-08-20T14:57:12Z</time>
      </trkpt>
      <trkpt lat="46.59779" lon="5.51534">
        <ele>459.8</ele>
        <time>2022-08-20T14:57:13Z</time>
      </trkpt>
      <trkpt lat="46.5978" lon="5.51537">
        <ele>459.8</ele>
        <time>2022-08-20T14:57:14Z</time>
      </trkpt>
      <trkpt lat="46.59781" lon="5.51539">
        <ele>460</ele>
        <time>2022-08-20T14:57:15Z</time>
      </trkpt>
      <trkpt lat="46.59782" lon="5.51541">
        <ele>460.2</ele>
        <time>2022-08-20T14:57:16Z</time>
      </trkpt>
      <trkpt lat="46.59783" lon="5.51545">
        <ele>460.4</ele>
        <time>2022-08-20T14:57:18Z</time>
      </trkpt>
      <trkpt lat="46.59784" lon="5.51548">
        <ele>460.6</ele>
        <time>2022-08-20T14:57:20Z</time>
      </trkpt>
      <trkpt lat="46.59785" lon="5.51552">
        <ele>460.6</ele>
        <time>2022-08-20T14:57:22Z</time>
      </trkpt>
      <trkpt lat="46.59786" lon="5.51554">
        <ele>460.6</ele>
        <time>2022-08-20T14:57:23Z</time>
      </trkpt>
      <trkpt lat="46.59788" lon="5.51558">
        <ele>460.6</ele>
        <time>2022-08-20T14:57:25Z</time>
      </trkpt>
      <trkpt lat="46.5979" lon="5.51562">
        <ele>460.4</ele>
        <time>2022-08-20T14:57:27Z</time>
      </trkpt>
      <trkpt lat="46.59792" lon="5.51564">
        <ele>460.4</ele>
        <time>2022-08-20T14:57:29Z</time>
      </trkpt>
      <trkpt lat="46.59794" lon="5.51565">
        <ele>460.4</ele>
        <time>2022-08-20T14:57:31Z</time>
      </trkpt>
      <trkpt lat="46.59797" lon="5.51566">
        <ele>460.2</ele>
        <time>2022-08-20T14:57:33Z</time>
      </trkpt>
      <trkpt lat="46.598" lon="5.51567">
        <ele>460.2</ele>
        <time>2022-08-20T14:57:35Z</time>
      </trkpt>
      <trkpt lat="46.59802" lon="5.51568">
        <ele>460.2</ele>
        <time>2022-08-20T14:57:36Z</time>
      </trkpt>
      <trkpt lat="46.59804" lon="5.51568">
        <ele>460.2</ele>
        <time>2022-08-20T14:57:37Z</time>
      </trkpt>
      <trkpt lat="46.59806" lon="5.51567">
        <ele>460.4</ele>
        <time>2022-08-20T14:57:39Z</time>
      </trkpt>
      <trkpt lat="46.59808" lon="5.51566">
        <ele>460.6</ele>
        <time>2022-08-20T14:57:40Z</time>
      </trkpt>
      <trkpt lat="46.59811" lon="5.51565">
        <ele>460.6</ele>
        <time>2022-08-20T14:57:42Z</time>
      </trkpt>
      <trkpt lat="46.59814" lon="5.51565">
        <ele>460.8</ele>
        <time>2022-08-20T14:57:44Z</time>
      </trkpt>
      <trkpt lat="46.59815" lon="5.51567">
        <ele>461</ele>
        <time>2022-08-20T14:57:46Z</time>
      </trkpt>
      <trkpt lat="46.59817" lon="5.51569">
        <ele>461</ele>
        <time>2022-08-20T14:57:48Z</time>
      </trkpt>
      <trkpt lat="46.59818" lon="5.51573">
        <ele>461.2</ele>
        <time>2022-08-20T14:57:50Z</time>
      </trkpt>
      <trkpt lat="46.59819" lon="5.51577">
        <ele>461.4</ele>
        <time>2022-08-20T14:57:52Z</time>
      </trkpt>
      <trkpt lat="46.59819" lon="5.51581">
        <ele>461.6</ele>
        <time>2022-08-20T14:57:54Z</time>
      </trkpt>
      <trkpt lat="46.59818" lon="5.51585">
        <ele>461.6</ele>
        <time>2022-08-20T14:57:56Z</time>
      </trkpt>
      <trkpt lat="46.59818" lon="5.51589">
        <ele>461.8</ele>
        <time>2022-08-20T14:57:58Z</time>
      </trkpt>
      <trkpt lat="46.59817" lon="5.51593">
        <ele>461.8</ele>
        <time>2022-08-20T14:58:00Z</time>
      </trkpt>
      <trkpt lat="46.59816" lon="5.51595">
        <ele>461.8</ele>
        <time>2022-08-20T14:58:01Z</time>
      </trkpt>
      <trkpt lat="46.59816" lon="5.51598">
        <ele>461.8</ele>
        <time>2022-08-20T14:58:02Z</time>
      </trkpt>
      <trkpt lat="46.59815" lon="5.51601">
        <ele>462</ele>
        <time>2022-08-20T14:58:03Z</time>
      </trkpt>
      <trkpt lat="46.59814" lon="5.51606">
        <ele>462</ele>
        <time>2022-08-20T14:58:05Z</time>
      </trkpt>
      <trkpt lat="46.59813" lon="5.5161">
        <ele>462.2</ele>
        <time>2022-08-20T14:58:07Z</time>
      </trkpt>
      <trkpt lat="46.59813" lon="5.51613">
        <ele>462.4</ele>
        <time>2022-08-20T14:58:08Z</time>
      </trkpt>
      <trkpt lat="46.59812" lon="5.51618">
        <ele>462.4</ele>
        <time>2022-08-20T14:58:10Z</time>
      </trkpt>
      <trkpt lat="46.59812" lon="5.51622">
        <ele>462.6</ele>
        <time>2022-08-20T14:58:12Z</time>
      </trkpt>
      <trkpt lat="46.59811" lon="5.51626">
        <ele>462.8</ele>
        <time>2022-08-20T14:58:14Z</time>
      </trkpt>
      <trkpt lat="46.5981" lon="5.51631">
        <ele>463</ele>
        <time>2022-08-20T14:58:16Z</time>
      </trkpt>
      <trkpt lat="46.59808" lon="5.51636">
        <ele>463</ele>
        <time>2022-08-20T14:58:18Z</time>
      </trkpt>
      <trkpt lat="46.59809" lon="5.51639">
        <ele>463.2</ele>
        <time>2022-08-20T14:58:20Z</time>
      </trkpt>
      <trkpt lat="46.59809" lon="5.51643">
        <ele>463.2</ele>
        <time>2022-08-20T14:58:22Z</time>
      </trkpt>
      <trkpt lat="46.59808" lon="5.51647">
        <ele>463.4</ele>
        <time>2022-08-20T14:58:24Z</time>
      </trkpt>
      <trkpt lat="46.59808" lon="5.51652">
        <ele>463.6</ele>
        <time>2022-08-20T14:58:26Z</time>
      </trkpt>
      <trkpt lat="46.59808" lon="5.51654">
        <ele>463.6</ele>
        <time>2022-08-20T14:58:27Z</time>
      </trkpt>
      <trkpt lat="46.59808" lon="5.5166">
        <ele>463.8</ele>
        <time>2022-08-20T14:58:29Z</time>
      </trkpt>
      <trkpt lat="46.59808" lon="5.51664">
        <ele>463.8</ele>
        <time>2022-08-20T14:58:31Z</time>
      </trkpt>
      <trkpt lat="46.59808" lon="5.51667">
        <ele>463.8</ele>
        <time>2022-08-20T14:58:32Z</time>
      </trkpt>
      <trkpt lat="46.59808" lon="5.5167">
        <ele>463.8</ele>
        <time>2022-08-20T14:58:33Z</time>
      </trkpt>
      <trkpt lat="46.59807" lon="5.51672">
        <ele>463.8</ele>
        <time>2022-08-20T14:58:34Z</time>
      </trkpt>
      <trkpt lat="46.59807" lon="5.51678">
        <ele>463.8</ele>
        <time>2022-08-20T14:58:36Z</time>
      </trkpt>
      <trkpt lat="46.59808" lon="5.51681">
        <ele>463.8</ele>
        <time>2022-08-20T14:58:37Z</time>
      </trkpt>
      <trkpt lat="46.59808" lon="5.51683">
        <ele>463.8</ele>
        <time>2022-08-20T14:58:38Z</time>
      </trkpt>
      <trkpt lat="46.59807" lon="5.51686">
        <ele>463.8</ele>
        <time>2022-08-20T14:58:39Z</time>
      </trkpt>
      <trkpt lat="46.59807" lon="5.51689">
        <ele>463.8</ele>
        <time>2022-08-20T14:58:40Z</time>
      </trkpt>
      <trkpt lat="46.59807" lon="5.51691">
        <ele>464</ele>
        <time>2022-08-20T14:58:41Z</time>
      </trkpt>
      <trkpt lat="46.59807" lon="5.51696">
        <ele>464</ele>
        <time>2022-08-20T14:58:43Z</time>
      </trkpt>
      <trkpt lat="46.59806" lon="5.517">
        <ele>464</ele>
        <time>2022-08-20T14:58:44Z</time>
      </trkpt>
      <trkpt lat="46.59806" lon="5.51703">
        <ele>464.2</ele>
        <time>2022-08-20T14:58:45Z</time>
      </trkpt>
      <trkpt lat="46.59806" lon="5.51707">
        <ele>464.2</ele>
        <time>2022-08-20T14:58:46Z</time>
      </trkpt>
      <trkpt lat="46.59806" lon="5.51711">
        <ele>464.2</ele>
        <time>2022-08-20T14:58:47Z</time>
      </trkpt>
      <trkpt lat="46.59806" lon="5.51715">
        <ele>464.2</ele>
        <time>2022-08-20T14:58:48Z</time>
      </trkpt>
      <trkpt lat="46.59806" lon="5.51719">
        <ele>464.2</ele>
        <time>2022-08-20T14:58:49Z</time>
      </trkpt>
      <trkpt lat="46.59806" lon="5.51723">
        <ele>464.2</ele>
        <time>2022-08-20T14:58:50Z</time>
      </trkpt>
      <trkpt lat="46.59806" lon="5.51726">
        <ele>464.4</ele>
        <time>2022-08-20T14:58:51Z</time>
      </trkpt>
      <trkpt lat="46.59807" lon="5.5173">
        <ele>464.4</ele>
        <time>2022-08-20T14:58:52Z</time>
      </trkpt>
      <trkpt lat="46.59808" lon="5.51733">
        <ele>464.4</ele>
        <time>2022-08-20T14:58:53Z</time>
      </trkpt>
      <trkpt lat="46.5981" lon="5.51736">
        <ele>464.4</ele>
        <time>2022-08-20T14:58:54Z</time>
      </trkpt>
      <trkpt lat="46.59811" lon="5.5174">
        <ele>464.6</ele>
        <time>2022-08-20T14:58:55Z</time>
      </trkpt>
      <trkpt lat="46.59813" lon="5.51744">
        <ele>464.6</ele>
        <time>2022-08-20T14:58:56Z</time>
      </trkpt>
      <trkpt lat="46.59814" lon="5.51747">
        <ele>464.6</ele>
        <time>2022-08-20T14:58:57Z</time>
      </trkpt>
      <trkpt lat="46.59815" lon="5.5175">
        <ele>464.8</ele>
        <time>2022-08-20T14:58:58Z</time>
      </trkpt>
      <trkpt lat="46.59817" lon="5.51754">
        <ele>464.8</ele>
        <time>2022-08-20T14:58:59Z</time>
      </trkpt>
      <trkpt lat="46.59818" lon="5.51757">
        <ele>465</ele>
        <time>2022-08-20T14:59:00Z</time>
      </trkpt>
      <trkpt lat="46.5982" lon="5.51761">
        <ele>465</ele>
        <time>2022-08-20T14:59:01Z</time>
      </trkpt>
      <trkpt lat="46.59821" lon="5.51764">
        <ele>465</ele>
        <time>2022-08-20T14:59:02Z</time>
      </trkpt>
      <trkpt lat="46.59822" lon="5.51768">
        <ele>465.2</ele>
        <time>2022-08-20T14:59:03Z</time>
      </trkpt>
      <trkpt lat="46.59823" lon="5.51772">
        <ele>465.2</ele>
        <time>2022-08-20T14:59:04Z</time>
      </trkpt>
      <trkpt lat="46.59824" lon="5.51776">
        <ele>465.2</ele>
        <time>2022-08-20T14:59:05Z</time>
      </trkpt>
      <trkpt lat="46.59826" lon="5.5178">
        <ele>465.2</ele>
        <time>2022-08-20T14:59:06Z</time>
      </trkpt>
      <trkpt lat="46.59826" lon="5.51784">
        <ele>465.2</ele>
        <time>2022-08-20T14:59:07Z</time>
      </trkpt>
      <trkpt lat="46.59826" lon="5.51789">
        <ele>465.4</ele>
        <time>2022-08-20T14:59:08Z</time>
      </trkpt>
      <trkpt lat="46.59827" lon="5.51793">
        <ele>465.4</ele>
        <time>2022-08-20T14:59:09Z</time>
      </trkpt>
      <trkpt lat="46.59827" lon="5.51797">
        <ele>465.4</ele>
        <time>2022-08-20T14:59:10Z</time>
      </trkpt>
      <trkpt lat="46.59828" lon="5.51801">
        <ele>465.4</ele>
        <time>2022-08-20T14:59:11Z</time>
      </trkpt>
      <trkpt lat="46.59829" lon="5.51804">
        <ele>465.4</ele>
        <time>2022-08-20T14:59:12Z</time>
      </trkpt>
      <trkpt lat="46.59829" lon="5.51807">
        <ele>465.4</ele>
        <time>2022-08-20T14:59:13Z</time>
      </trkpt>
      <trkpt lat="46.59829" lon="5.51811">
        <ele>465.4</ele>
        <time>2022-08-20T14:59:15Z</time>
      </trkpt>
      <trkpt lat="46.59828" lon="5.51813">
        <ele>465.4</ele>
        <time>2022-08-20T14:59:16Z</time>
      </trkpt>
      <trkpt lat="46.59827" lon="5.51817">
        <ele>465.4</ele>
        <time>2022-08-20T14:59:18Z</time>
      </trkpt>
      <trkpt lat="46.59825" lon="5.5182">
        <ele>465.6</ele>
        <time>2022-08-20T14:59:20Z</time>
      </trkpt>
      <trkpt lat="46.59824" lon="5.51825">
        <ele>465.8</ele>
        <time>2022-08-20T14:59:22Z</time>
      </trkpt>
      <trkpt lat="46.59825" lon="5.51829">
        <ele>466</ele>
        <time>2022-08-20T14:59:24Z</time>
      </trkpt>
      <trkpt lat="46.59827" lon="5.51833">
        <ele>466.2</ele>
        <time>2022-08-20T14:59:26Z</time>
      </trkpt>
      <trkpt lat="46.59829" lon="5.51836">
        <ele>466.4</ele>
        <time>2022-08-20T14:59:28Z</time>
      </trkpt>
      <trkpt lat="46.59831" lon="5.51838">
        <ele>466.4</ele>
        <time>2022-08-20T14:59:30Z</time>
      </trkpt>
      <trkpt lat="46.59834" lon="5.51837">
        <ele>466.4</ele>
        <time>2022-08-20T14:59:32Z</time>
      </trkpt>
      <trkpt lat="46.59837" lon="5.51836">
        <ele>466.4</ele>
        <time>2022-08-20T14:59:34Z</time>
      </trkpt>
      <trkpt lat="46.5984" lon="5.51835">
        <ele>466.4</ele>
        <time>2022-08-20T14:59:36Z</time>
      </trkpt>
      <trkpt lat="46.59842" lon="5.51834">
        <ele>466.4</ele>
        <time>2022-08-20T14:59:37Z</time>
      </trkpt>
      <trkpt lat="46.59844" lon="5.51832">
        <ele>466.4</ele>
        <time>2022-08-20T14:59:39Z</time>
      </trkpt>
      <trkpt lat="46.59847" lon="5.51831">
        <ele>466.4</ele>
        <time>2022-08-20T14:59:41Z</time>
      </trkpt>
      <trkpt lat="46.59849" lon="5.51831">
        <ele>466.4</ele>
        <time>2022-08-20T14:59:42Z</time>
      </trkpt>
      <trkpt lat="46.59852" lon="5.5183">
        <ele>466.4</ele>
        <time>2022-08-20T14:59:44Z</time>
      </trkpt>
      <trkpt lat="46.59854" lon="5.51829">
        <ele>466.2</ele>
        <time>2022-08-20T14:59:46Z</time>
      </trkpt>
      <trkpt lat="46.59856" lon="5.51829">
        <ele>466.2</ele>
        <time>2022-08-20T14:59:47Z</time>
      </trkpt>
      <trkpt lat="46.59859" lon="5.51829">
        <ele>466.2</ele>
        <time>2022-08-20T14:59:49Z</time>
      </trkpt>
      <trkpt lat="46.59862" lon="5.5183">
        <ele>466.4</ele>
        <time>2022-08-20T14:59:51Z</time>
      </trkpt>
      <trkpt lat="46.59864" lon="5.51833">
        <ele>466.6</ele>
        <time>2022-08-20T14:59:53Z</time>
      </trkpt>
      <trkpt lat="46.59866" lon="5.51837">
        <ele>466.8</ele>
        <time>2022-08-20T14:59:55Z</time>
      </trkpt>
      <trkpt lat="46.59865" lon="5.51841">
        <ele>467</ele>
        <time>2022-08-20T14:59:57Z</time>
      </trkpt>
      <trkpt lat="46.59864" lon="5.51846">
        <ele>467.4</ele>
        <time>2022-08-20T14:59:59Z</time>
      </trkpt>
      <trkpt lat="46.59863" lon="5.51851">
        <ele>467.8</ele>
        <time>2022-08-20T15:00:01Z</time>
      </trkpt>
      <trkpt lat="46.59866" lon="5.51852">
        <ele>468.4</ele>
        <time>2022-08-20T15:00:06Z</time>
      </trkpt>
      <trkpt lat="46.59868" lon="5.51853">
        <ele>468.8</ele>
        <time>2022-08-20T15:00:08Z</time>
      </trkpt>
      <trkpt lat="46.5987" lon="5.51854">
        <ele>469.2</ele>
        <time>2022-08-20T15:00:10Z</time>
      </trkpt>
      <trkpt lat="46.59872" lon="5.51855">
        <ele>469.6</ele>
        <time>2022-08-20T15:00:12Z</time>
      </trkpt>
      <trkpt lat="46.59875" lon="5.51857">
        <ele>470</ele>
        <time>2022-08-20T15:00:14Z</time>
      </trkpt>
      <trkpt lat="46.59876" lon="5.51862">
        <ele>470.4</ele>
        <time>2022-08-20T15:00:16Z</time>
      </trkpt>
      <trkpt lat="46.59876" lon="5.51866">
        <ele>470.8</ele>
        <time>2022-08-20T15:00:18Z</time>
      </trkpt>
      <trkpt lat="46.59874" lon="5.51871">
        <ele>471</ele>
        <time>2022-08-20T15:00:20Z</time>
      </trkpt>
      <trkpt lat="46.59873" lon="5.51875">
        <ele>471.6</ele>
        <time>2022-08-20T15:00:22Z</time>
      </trkpt>
      <trkpt lat="46.59872" lon="5.5188">
        <ele>472</ele>
        <time>2022-08-20T15:00:24Z</time>
      </trkpt>
      <trkpt lat="46.59872" lon="5.51884">
        <ele>472.2</ele>
        <time>2022-08-20T15:00:26Z</time>
      </trkpt>
      <trkpt lat="46.5987" lon="5.51885">
        <ele>472.4</ele>
        <time>2022-08-20T15:00:27Z</time>
      </trkpt>
      <trkpt lat="46.59868" lon="5.51888">
        <ele>472.8</ele>
        <time>2022-08-20T15:00:29Z</time>
      </trkpt>
      <trkpt lat="46.59866" lon="5.51891">
        <ele>473.2</ele>
        <time>2022-08-20T15:00:31Z</time>
      </trkpt>
      <trkpt lat="46.59865" lon="5.51895">
        <ele>473.4</ele>
        <time>2022-08-20T15:00:33Z</time>
      </trkpt>
      <trkpt lat="46.59863" lon="5.51898">
        <ele>473.8</ele>
        <time>2022-08-20T15:00:35Z</time>
      </trkpt>
      <trkpt lat="46.59861" lon="5.51902">
        <ele>474</ele>
        <time>2022-08-20T15:00:37Z</time>
      </trkpt>
      <trkpt lat="46.59861" lon="5.51905">
        <ele>474.2</ele>
        <time>2022-08-20T15:00:38Z</time>
      </trkpt>
      <trkpt lat="46.5986" lon="5.51909">
        <ele>474.6</ele>
        <time>2022-08-20T15:00:40Z</time>
      </trkpt>
      <trkpt lat="46.59859" lon="5.51913">
        <ele>475</ele>
        <time>2022-08-20T15:00:42Z</time>
      </trkpt>
      <trkpt lat="46.59858" lon="5.51916">
        <ele>475.4</ele>
        <time>2022-08-20T15:00:44Z</time>
      </trkpt>
      <trkpt lat="46.59858" lon="5.5192">
        <ele>475.6</ele>
        <time>2022-08-20T15:00:46Z</time>
      </trkpt>
      <trkpt lat="46.59856" lon="5.51924">
        <ele>476</ele>
        <time>2022-08-20T15:00:48Z</time>
      </trkpt>
      <trkpt lat="46.59854" lon="5.51929">
        <ele>476.4</ele>
        <time>2022-08-20T15:00:50Z</time>
      </trkpt>
      <trkpt lat="46.59853" lon="5.51933">
        <ele>476.8</ele>
        <time>2022-08-20T15:00:52Z</time>
      </trkpt>
      <trkpt lat="46.59852" lon="5.51937">
        <ele>477.2</ele>
        <time>2022-08-20T15:00:54Z</time>
      </trkpt>
      <trkpt lat="46.5985" lon="5.5194">
        <ele>477.4</ele>
        <time>2022-08-20T15:00:56Z</time>
      </trkpt>
      <trkpt lat="46.59848" lon="5.51943">
        <ele>477.6</ele>
        <time>2022-08-20T15:00:58Z</time>
      </trkpt>
      <trkpt lat="46.59846" lon="5.51946">
        <ele>477.8</ele>
        <time>2022-08-20T15:01:00Z</time>
      </trkpt>
      <trkpt lat="46.59844" lon="5.51949">
        <ele>478</ele>
        <time>2022-08-20T15:01:02Z</time>
      </trkpt>
      <trkpt lat="46.59844" lon="5.51952">
        <ele>478.4</ele>
        <time>2022-08-20T15:01:04Z</time>
      </trkpt>
      <trkpt lat="46.59844" lon="5.51955">
        <ele>478.8</ele>
        <time>2022-08-20T15:01:06Z</time>
      </trkpt>
      <trkpt lat="46.59843" lon="5.51959">
        <ele>479.2</ele>
        <time>2022-08-20T15:01:08Z</time>
      </trkpt>
      <trkpt lat="46.59841" lon="5.5196">
        <ele>479.4</ele>
        <time>2022-08-20T15:01:09Z</time>
      </trkpt>
      <trkpt lat="46.59838" lon="5.51961">
        <ele>479.6</ele>
        <time>2022-08-20T15:01:10Z</time>
      </trkpt>
      <trkpt lat="46.59836" lon="5.51963">
        <ele>479.8</ele>
        <time>2022-08-20T15:01:11Z</time>
      </trkpt>
      <trkpt lat="46.59834" lon="5.51963">
        <ele>480</ele>
        <time>2022-08-20T15:01:12Z</time>
      </trkpt>
      <trkpt lat="46.59831" lon="5.51964">
        <ele>480.2</ele>
        <time>2022-08-20T15:01:13Z</time>
      </trkpt>
      <trkpt lat="46.59829" lon="5.51965">
        <ele>480.4</ele>
        <time>2022-08-20T15:01:14Z</time>
      </trkpt>
      <trkpt lat="46.59827" lon="5.51964">
        <ele>480.6</ele>
        <time>2022-08-20T15:01:15Z</time>
      </trkpt>
      <trkpt lat="46.59824" lon="5.51964">
        <ele>480.8</ele>
        <time>2022-08-20T15:01:16Z</time>
      </trkpt>
      <trkpt lat="46.59822" lon="5.51964">
        <ele>480.8</ele>
        <time>2022-08-20T15:01:17Z</time>
      </trkpt>
      <trkpt lat="46.5982" lon="5.51964">
        <ele>481</ele>
        <time>2022-08-20T15:01:18Z</time>
      </trkpt>
      <trkpt lat="46.59816" lon="5.51964">
        <ele>481</ele>
        <time>2022-08-20T15:01:19Z</time>
      </trkpt>
      <trkpt lat="46.59814" lon="5.51965">
        <ele>481.2</ele>
        <time>2022-08-20T15:01:20Z</time>
      </trkpt>
      <trkpt lat="46.59811" lon="5.51965">
        <ele>481.2</ele>
        <time>2022-08-20T15:01:21Z</time>
      </trkpt>
      <trkpt lat="46.59808" lon="5.51965">
        <ele>481.2</ele>
        <time>2022-08-20T15:01:22Z</time>
      </trkpt>
      <trkpt lat="46.59806" lon="5.51964">
        <ele>481.4</ele>
        <time>2022-08-20T15:01:23Z</time>
      </trkpt>
      <trkpt lat="46.59803" lon="5.51964">
        <ele>481.4</ele>
        <time>2022-08-20T15:01:24Z</time>
      </trkpt>
      <trkpt lat="46.59801" lon="5.51966">
        <ele>481.6</ele>
        <time>2022-08-20T15:01:26Z</time>
      </trkpt>
      <trkpt lat="46.598" lon="5.51969">
        <ele>481.8</ele>
        <time>2022-08-20T15:01:28Z</time>
      </trkpt>
      <trkpt lat="46.598" lon="5.51973">
        <ele>481.8</ele>
        <time>2022-08-20T15:01:30Z</time>
      </trkpt>
      <trkpt lat="46.598" lon="5.51978">
        <ele>482</ele>
        <time>2022-08-20T15:01:32Z</time>
      </trkpt>
      <trkpt lat="46.59799" lon="5.5198">
        <ele>482</ele>
        <time>2022-08-20T15:01:33Z</time>
      </trkpt>
      <trkpt lat="46.598" lon="5.51984">
        <ele>482.2</ele>
        <time>2022-08-20T15:01:35Z</time>
      </trkpt>
      <trkpt lat="46.598" lon="5.51987">
        <ele>482.2</ele>
        <time>2022-08-20T15:01:37Z</time>
      </trkpt>
      <trkpt lat="46.598" lon="5.51992">
        <ele>482.4</ele>
        <time>2022-08-20T15:01:39Z</time>
      </trkpt>
      <trkpt lat="46.598" lon="5.51997">
        <ele>482.8</ele>
        <time>2022-08-20T15:01:41Z</time>
      </trkpt>
      <trkpt lat="46.59801" lon="5.52002">
        <ele>482.8</ele>
        <time>2022-08-20T15:01:43Z</time>
      </trkpt>
      <trkpt lat="46.59801" lon="5.52005">
        <ele>483</ele>
        <time>2022-08-20T15:01:45Z</time>
      </trkpt>
      <trkpt lat="46.59801" lon="5.5201">
        <ele>483.2</ele>
        <time>2022-08-20T15:01:47Z</time>
      </trkpt>
      <trkpt lat="46.59801" lon="5.52014">
        <ele>483.4</ele>
        <time>2022-08-20T15:01:49Z</time>
      </trkpt>
      <trkpt lat="46.598" lon="5.52018">
        <ele>483.8</ele>
        <time>2022-08-20T15:01:51Z</time>
      </trkpt>
      <trkpt lat="46.598" lon="5.52023">
        <ele>484.2</ele>
        <time>2022-08-20T15:01:53Z</time>
      </trkpt>
      <trkpt lat="46.59798" lon="5.52027">
        <ele>484.6</ele>
        <time>2022-08-20T15:01:55Z</time>
      </trkpt>
      <trkpt lat="46.59797" lon="5.5203">
        <ele>484.8</ele>
        <time>2022-08-20T15:01:57Z</time>
      </trkpt>
      <trkpt lat="46.59793" lon="5.52032">
        <ele>485</ele>
        <time>2022-08-20T15:01:59Z</time>
      </trkpt>
      <trkpt lat="46.59791" lon="5.52032">
        <ele>485.2</ele>
        <time>2022-08-20T15:02:00Z</time>
      </trkpt>
      <trkpt lat="46.59788" lon="5.52032">
        <ele>485.4</ele>
        <time>2022-08-20T15:02:02Z</time>
      </trkpt>
      <trkpt lat="46.59784" lon="5.52033">
        <ele>485.8</ele>
        <time>2022-08-20T15:02:04Z</time>
      </trkpt>
      <trkpt lat="46.59781" lon="5.52034">
        <ele>486</ele>
        <time>2022-08-20T15:02:06Z</time>
      </trkpt>
      <trkpt lat="46.59779" lon="5.52034">
        <ele>486.2</ele>
        <time>2022-08-20T15:02:07Z</time>
      </trkpt>
      <trkpt lat="46.59777" lon="5.52034">
        <ele>486.4</ele>
        <time>2022-08-20T15:02:08Z</time>
      </trkpt>
      <trkpt lat="46.59775" lon="5.52033">
        <ele>486.6</ele>
        <time>2022-08-20T15:02:09Z</time>
      </trkpt>
      <trkpt lat="46.59771" lon="5.52035">
        <ele>487</ele>
        <time>2022-08-20T15:02:11Z</time>
      </trkpt>
      <trkpt lat="46.59769" lon="5.52036">
        <ele>487.2</ele>
        <time>2022-08-20T15:02:13Z</time>
      </trkpt>
      <trkpt lat="46.59767" lon="5.52037">
        <ele>487.6</ele>
        <time>2022-08-20T15:02:14Z</time>
      </trkpt>
      <trkpt lat="46.59765" lon="5.52038">
        <ele>487.8</ele>
        <time>2022-08-20T15:02:15Z</time>
      </trkpt>
      <trkpt lat="46.59763" lon="5.52039">
        <ele>488</ele>
        <time>2022-08-20T15:02:16Z</time>
      </trkpt>
      <trkpt lat="46.59761" lon="5.52039">
        <ele>488</ele>
        <time>2022-08-20T15:02:17Z</time>
      </trkpt>
      <trkpt lat="46.59758" lon="5.5204">
        <ele>488.2</ele>
        <time>2022-08-20T15:02:18Z</time>
      </trkpt>
      <trkpt lat="46.59755" lon="5.52041">
        <ele>488.4</ele>
        <time>2022-08-20T15:02:19Z</time>
      </trkpt>
      <trkpt lat="46.59752" lon="5.52042">
        <ele>488.6</ele>
        <time>2022-08-20T15:02:20Z</time>
      </trkpt>
      <trkpt lat="46.59749" lon="5.52043">
        <ele>488.8</ele>
        <time>2022-08-20T15:02:21Z</time>
      </trkpt>
      <trkpt lat="46.59746" lon="5.52044">
        <ele>489</ele>
        <time>2022-08-20T15:02:22Z</time>
      </trkpt>
      <trkpt lat="46.59743" lon="5.52043">
        <ele>489.2</ele>
        <time>2022-08-20T15:02:23Z</time>
      </trkpt>
      <trkpt lat="46.5974" lon="5.52043">
        <ele>489.4</ele>
        <time>2022-08-20T15:02:24Z</time>
      </trkpt>
      <trkpt lat="46.59736" lon="5.52043">
        <ele>489.4</ele>
        <time>2022-08-20T15:02:25Z</time>
      </trkpt>
      <trkpt lat="46.59734" lon="5.52043">
        <ele>489.6</ele>
        <time>2022-08-20T15:02:26Z</time>
      </trkpt>
      <trkpt lat="46.59731" lon="5.52044">
        <ele>489.6</ele>
        <time>2022-08-20T15:02:27Z</time>
      </trkpt>
      <trkpt lat="46.59728" lon="5.52044">
        <ele>489.6</ele>
        <time>2022-08-20T15:02:28Z</time>
      </trkpt>
      <trkpt lat="46.59725" lon="5.52045">
        <ele>489.6</ele>
        <time>2022-08-20T15:02:29Z</time>
      </trkpt>
      <trkpt lat="46.59723" lon="5.52045">
        <ele>489.4</ele>
        <time>2022-08-20T15:02:30Z</time>
      </trkpt>
      <trkpt lat="46.5972" lon="5.52045">
        <ele>489.4</ele>
        <time>2022-08-20T15:02:31Z</time>
      </trkpt>
      <trkpt lat="46.59717" lon="5.52045">
        <ele>489.4</ele>
        <time>2022-08-20T15:02:32Z</time>
      </trkpt>
      <trkpt lat="46.59715" lon="5.52044">
        <ele>489.2</ele>
        <time>2022-08-20T15:02:33Z</time>
      </trkpt>
      <trkpt lat="46.59713" lon="5.52043">
        <ele>489.2</ele>
        <time>2022-08-20T15:02:34Z</time>
      </trkpt>
      <trkpt lat="46.5971" lon="5.52042">
        <ele>489</ele>
        <time>2022-08-20T15:02:35Z</time>
      </trkpt>
      <trkpt lat="46.59708" lon="5.52042">
        <ele>488.8</ele>
        <time>2022-08-20T15:02:36Z</time>
      </trkpt>
      <trkpt lat="46.59705" lon="5.52043">
        <ele>488.8</ele>
        <time>2022-08-20T15:02:37Z</time>
      </trkpt>
      <trkpt lat="46.59702" lon="5.52044">
        <ele>488.6</ele>
        <time>2022-08-20T15:02:38Z</time>
      </trkpt>
      <trkpt lat="46.597" lon="5.52045">
        <ele>488.6</ele>
        <time>2022-08-20T15:02:39Z</time>
      </trkpt>
      <trkpt lat="46.59697" lon="5.52047">
        <ele>488.6</ele>
        <time>2022-08-20T15:02:40Z</time>
      </trkpt>
      <trkpt lat="46.59695" lon="5.52048">
        <ele>488.4</ele>
        <time>2022-08-20T15:02:41Z</time>
      </trkpt>
      <trkpt lat="46.59692" lon="5.5205">
        <ele>488.4</ele>
        <time>2022-08-20T15:02:42Z</time>
      </trkpt>
      <trkpt lat="46.59689" lon="5.52052">
        <ele>488.2</ele>
        <time>2022-08-20T15:02:43Z</time>
      </trkpt>
      <trkpt lat="46.59687" lon="5.52054">
        <ele>488.2</ele>
        <time>2022-08-20T15:02:44Z</time>
      </trkpt>
      <trkpt lat="46.59685" lon="5.52056">
        <ele>488.2</ele>
        <time>2022-08-20T15:02:45Z</time>
      </trkpt>
      <trkpt lat="46.59682" lon="5.52058">
        <ele>488</ele>
        <time>2022-08-20T15:02:46Z</time>
      </trkpt>
      <trkpt lat="46.59679" lon="5.52059">
        <ele>488</ele>
        <time>2022-08-20T15:02:47Z</time>
      </trkpt>
      <trkpt lat="46.59676" lon="5.52059">
        <ele>488</ele>
        <time>2022-08-20T15:02:48Z</time>
      </trkpt>
      <trkpt lat="46.59673" lon="5.52059">
        <ele>488</ele>
        <time>2022-08-20T15:02:49Z</time>
      </trkpt>
      <trkpt lat="46.59671" lon="5.52059">
        <ele>488</ele>
        <time>2022-08-20T15:02:50Z</time>
      </trkpt>
      <trkpt lat="46.59668" lon="5.52059">
        <ele>487.8</ele>
        <time>2022-08-20T15:02:51Z</time>
      </trkpt>
      <trkpt lat="46.59664" lon="5.52061">
        <ele>487.8</ele>
        <time>2022-08-20T15:02:52Z</time>
      </trkpt>
      <trkpt lat="46.59661" lon="5.52062">
        <ele>487.8</ele>
        <time>2022-08-20T15:02:53Z</time>
      </trkpt>
      <trkpt lat="46.59657" lon="5.52063">
        <ele>487.6</ele>
        <time>2022-08-20T15:02:54Z</time>
      </trkpt>
      <trkpt lat="46.59654" lon="5.52064">
        <ele>487.6</ele>
        <time>2022-08-20T15:02:55Z</time>
      </trkpt>
      <trkpt lat="46.59651" lon="5.52065">
        <ele>487.6</ele>
        <time>2022-08-20T15:02:56Z</time>
      </trkpt>
      <trkpt lat="46.59648" lon="5.52066">
        <ele>487.6</ele>
        <time>2022-08-20T15:02:57Z</time>
      </trkpt>
      <trkpt lat="46.59645" lon="5.52066">
        <ele>487.6</ele>
        <time>2022-08-20T15:02:58Z</time>
      </trkpt>
      <trkpt lat="46.59643" lon="5.52066">
        <ele>487.6</ele>
        <time>2022-08-20T15:02:59Z</time>
      </trkpt>
      <trkpt lat="46.5964" lon="5.52065">
        <ele>487.6</ele>
        <time>2022-08-20T15:03:00Z</time>
      </trkpt>
      <trkpt lat="46.59637" lon="5.52067">
        <ele>487.6</ele>
        <time>2022-08-20T15:03:02Z</time>
      </trkpt>
      <trkpt lat="46.59636" lon="5.52069">
        <ele>487.6</ele>
        <time>2022-08-20T15:03:03Z</time>
      </trkpt>
      <trkpt lat="46.59635" lon="5.52072">
        <ele>487.6</ele>
        <time>2022-08-20T15:03:04Z</time>
      </trkpt>
      <trkpt lat="46.59635" lon="5.52075">
        <ele>487.6</ele>
        <time>2022-08-20T15:03:05Z</time>
      </trkpt>
      <trkpt lat="46.59636" lon="5.52078">
        <ele>487.6</ele>
        <time>2022-08-20T15:03:06Z</time>
      </trkpt>
      <trkpt lat="46.59638" lon="5.52081">
        <ele>487.6</ele>
        <time>2022-08-20T15:03:07Z</time>
      </trkpt>
      <trkpt lat="46.59638" lon="5.52085">
        <ele>487.6</ele>
        <time>2022-08-20T15:03:08Z</time>
      </trkpt>
      <trkpt lat="46.59639" lon="5.5209">
        <ele>487.4</ele>
        <time>2022-08-20T15:03:09Z</time>
      </trkpt>
      <trkpt lat="46.59637" lon="5.52093">
        <ele>487.4</ele>
        <time>2022-08-20T15:03:10Z</time>
      </trkpt>
      <trkpt lat="46.59635" lon="5.52096">
        <ele>487.4</ele>
        <time>2022-08-20T15:03:11Z</time>
      </trkpt>
      <trkpt lat="46.59631" lon="5.52099">
        <ele>487.4</ele>
        <time>2022-08-20T15:03:12Z</time>
      </trkpt>
      <trkpt lat="46.59629" lon="5.52101">
        <ele>487.2</ele>
        <time>2022-08-20T15:03:13Z</time>
      </trkpt>
      <trkpt lat="46.59628" lon="5.52103">
        <ele>487.2</ele>
        <time>2022-08-20T15:03:14Z</time>
      </trkpt>
      <trkpt lat="46.59626" lon="5.52104">
        <ele>487</ele>
        <time>2022-08-20T15:03:15Z</time>
      </trkpt>
      <trkpt lat="46.59624" lon="5.52105">
        <ele>487</ele>
        <time>2022-08-20T15:03:16Z</time>
      </trkpt>
      <trkpt lat="46.59622" lon="5.52107">
        <ele>486.8</ele>
        <time>2022-08-20T15:03:17Z</time>
      </trkpt>
      <trkpt lat="46.5962" lon="5.52109">
        <ele>486.6</ele>
        <time>2022-08-20T15:03:18Z</time>
      </trkpt>
      <trkpt lat="46.59618" lon="5.52111">
        <ele>486.4</ele>
        <time>2022-08-20T15:03:19Z</time>
      </trkpt>
      <trkpt lat="46.59616" lon="5.52114">
        <ele>486.2</ele>
        <time>2022-08-20T15:03:20Z</time>
      </trkpt>
      <trkpt lat="46.59614" lon="5.52117">
        <ele>486</ele>
        <time>2022-08-20T15:03:21Z</time>
      </trkpt>
      <trkpt lat="46.59612" lon="5.5212">
        <ele>485.6</ele>
        <time>2022-08-20T15:03:22Z</time>
      </trkpt>
      <trkpt lat="46.59611" lon="5.52124">
        <ele>485.4</ele>
        <time>2022-08-20T15:03:23Z</time>
      </trkpt>
      <trkpt lat="46.59609" lon="5.52126">
        <ele>485</ele>
        <time>2022-08-20T15:03:24Z</time>
      </trkpt>
      <trkpt lat="46.59607" lon="5.52129">
        <ele>484.8</ele>
        <time>2022-08-20T15:03:25Z</time>
      </trkpt>
      <trkpt lat="46.59606" lon="5.52133">
        <ele>484.4</ele>
        <time>2022-08-20T15:03:27Z</time>
      </trkpt>
      <trkpt lat="46.59605" lon="5.52137">
        <ele>484</ele>
        <time>2022-08-20T15:03:29Z</time>
      </trkpt>
      <trkpt lat="46.59603" lon="5.52141">
        <ele>483.6</ele>
        <time>2022-08-20T15:03:31Z</time>
      </trkpt>
      <trkpt lat="46.59602" lon="5.52145">
        <ele>483.4</ele>
        <time>2022-08-20T15:03:33Z</time>
      </trkpt>
      <trkpt lat="46.59601" lon="5.52148">
        <ele>483</ele>
        <time>2022-08-20T15:03:35Z</time>
      </trkpt>
      <trkpt lat="46.596" lon="5.5215">
        <ele>482.8</ele>
        <time>2022-08-20T15:03:36Z</time>
      </trkpt>
      <trkpt lat="46.59599" lon="5.52153">
        <ele>482.4</ele>
        <time>2022-08-20T15:03:38Z</time>
      </trkpt>
      <trkpt lat="46.59597" lon="5.52156">
        <ele>482.2</ele>
        <time>2022-08-20T15:03:40Z</time>
      </trkpt>
      <trkpt lat="46.59596" lon="5.52159">
        <ele>481.8</ele>
        <time>2022-08-20T15:03:42Z</time>
      </trkpt>
      <trkpt lat="46.59595" lon="5.52163">
        <ele>481.4</ele>
        <time>2022-08-20T15:03:44Z</time>
      </trkpt>
      <trkpt lat="46.59593" lon="5.52167">
        <ele>481</ele>
        <time>2022-08-20T15:03:46Z</time>
      </trkpt>
      <trkpt lat="46.59592" lon="5.52171">
        <ele>480.6</ele>
        <time>2022-08-20T15:03:48Z</time>
      </trkpt>
      <trkpt lat="46.5959" lon="5.52175">
        <ele>480.2</ele>
        <time>2022-08-20T15:03:50Z</time>
      </trkpt>
      <trkpt lat="46.59589" lon="5.52178">
        <ele>480</ele>
        <time>2022-08-20T15:03:52Z</time>
      </trkpt>
      <trkpt lat="46.59588" lon="5.52181">
        <ele>479.8</ele>
        <time>2022-08-20T15:03:54Z</time>
      </trkpt>
      <trkpt lat="46.59586" lon="5.52184">
        <ele>479.8</ele>
        <time>2022-08-20T15:03:56Z</time>
      </trkpt>
      <trkpt lat="46.59584" lon="5.52187">
        <ele>479.6</ele>
        <time>2022-08-20T15:03:58Z</time>
      </trkpt>
      <trkpt lat="46.59581" lon="5.52191">
        <ele>479.6</ele>
        <time>2022-08-20T15:04:00Z</time>
      </trkpt>
      <trkpt lat="46.59579" lon="5.52195">
        <ele>479.6</ele>
        <time>2022-08-20T15:04:02Z</time>
      </trkpt>
      <trkpt lat="46.59577" lon="5.52198">
        <ele>479.6</ele>
        <time>2022-08-20T15:04:04Z</time>
      </trkpt>
      <trkpt lat="46.59576" lon="5.52201">
        <ele>479.6</ele>
        <time>2022-08-20T15:04:07Z</time>
      </trkpt>
      <trkpt lat="46.59574" lon="5.52204">
        <ele>479.6</ele>
        <time>2022-08-20T15:04:09Z</time>
      </trkpt>
      <trkpt lat="46.59573" lon="5.52208">
        <ele>479.6</ele>
        <time>2022-08-20T15:04:11Z</time>
      </trkpt>
      <trkpt lat="46.59571" lon="5.52212">
        <ele>479.6</ele>
        <time>2022-08-20T15:04:13Z</time>
      </trkpt>
      <trkpt lat="46.59568" lon="5.52214">
        <ele>479.8</ele>
        <time>2022-08-20T15:04:15Z</time>
      </trkpt>
      <trkpt lat="46.59566" lon="5.52216">
        <ele>479.8</ele>
        <time>2022-08-20T15:04:17Z</time>
      </trkpt>
      <trkpt lat="46.59565" lon="5.52219">
        <ele>480</ele>
        <time>2022-08-20T15:04:19Z</time>
      </trkpt>
      <trkpt lat="46.59563" lon="5.52223">
        <ele>480.4</ele>
        <time>2022-08-20T15:04:21Z</time>
      </trkpt>
      <trkpt lat="46.5956" lon="5.52225">
        <ele>480.6</ele>
        <time>2022-08-20T15:04:23Z</time>
      </trkpt>
      <trkpt lat="46.59559" lon="5.52229">
        <ele>480.8</ele>
        <time>2022-08-20T15:04:25Z</time>
      </trkpt>
      <trkpt lat="46.59557" lon="5.52232">
        <ele>481</ele>
        <time>2022-08-20T15:04:27Z</time>
      </trkpt>
      <trkpt lat="46.59556" lon="5.52234">
        <ele>481.2</ele>
        <time>2022-08-20T15:04:29Z</time>
      </trkpt>
      <trkpt lat="46.59553" lon="5.52237">
        <ele>481.6</ele>
        <time>2022-08-20T15:04:31Z</time>
      </trkpt>
      <trkpt lat="46.59552" lon="5.52237">
        <ele>481.6</ele>
        <time>2022-08-20T15:04:32Z</time>
      </trkpt>
      <trkpt lat="46.59551" lon="5.52238">
        <ele>481.6</ele>
        <time>2022-08-20T15:04:33Z</time>
      </trkpt>
      <trkpt lat="46.59551" lon="5.52239">
        <ele>481.8</ele>
        <time>2022-08-20T15:04:34Z</time>
      </trkpt>
      <trkpt lat="46.59548" lon="5.52241">
        <ele>481.8</ele>
        <time>2022-08-20T15:04:35Z</time>
      </trkpt>
      <trkpt lat="46.59545" lon="5.52243">
        <ele>482</ele>
        <time>2022-08-20T15:04:37Z</time>
      </trkpt>
      <trkpt lat="46.59543" lon="5.52245">
        <ele>482.2</ele>
        <time>2022-08-20T15:04:38Z</time>
      </trkpt>
      <trkpt lat="46.59542" lon="5.52247">
        <ele>482.2</ele>
        <time>2022-08-20T15:04:39Z</time>
      </trkpt>
      <trkpt lat="46.5954" lon="5.5225">
        <ele>482.4</ele>
        <time>2022-08-20T15:04:41Z</time>
      </trkpt>
      <trkpt lat="46.59537" lon="5.52251">
        <ele>482.6</ele>
        <time>2022-08-20T15:04:43Z</time>
      </trkpt>
      <trkpt lat="46.59534" lon="5.5225">
        <ele>483</ele>
        <time>2022-08-20T15:04:45Z</time>
      </trkpt>
      <trkpt lat="46.5953" lon="5.52251">
        <ele>483.4</ele>
        <time>2022-08-20T15:04:47Z</time>
      </trkpt>
      <trkpt lat="46.59527" lon="5.52252">
        <ele>483.8</ele>
        <time>2022-08-20T15:04:49Z</time>
      </trkpt>
      <trkpt lat="46.59525" lon="5.52254">
        <ele>484.2</ele>
        <time>2022-08-20T15:04:51Z</time>
      </trkpt>
      <trkpt lat="46.59522" lon="5.52255">
        <ele>484.4</ele>
        <time>2022-08-20T15:04:53Z</time>
      </trkpt>
      <trkpt lat="46.5952" lon="5.52256">
        <ele>484.6</ele>
        <time>2022-08-20T15:04:54Z</time>
      </trkpt>
      <trkpt lat="46.59517" lon="5.52258">
        <ele>484.6</ele>
        <time>2022-08-20T15:04:56Z</time>
      </trkpt>
      <trkpt lat="46.59516" lon="5.52261">
        <ele>484.8</ele>
        <time>2022-08-20T15:04:58Z</time>
      </trkpt>
      <trkpt lat="46.59517" lon="5.52264">
        <ele>485</ele>
        <time>2022-08-20T15:05:04Z</time>
      </trkpt>
      <trkpt lat="46.59518" lon="5.52265">
        <ele>485.2</ele>
        <time>2022-08-20T15:05:06Z</time>
      </trkpt>
      <trkpt lat="46.5952" lon="5.52266">
        <ele>485.2</ele>
        <time>2022-08-20T15:05:07Z</time>
      </trkpt>
      <trkpt lat="46.59522" lon="5.52268">
        <ele>485.4</ele>
        <time>2022-08-20T15:05:09Z</time>
      </trkpt>
      <trkpt lat="46.59524" lon="5.52271">
        <ele>485.6</ele>
        <time>2022-08-20T15:05:11Z</time>
      </trkpt>
      <trkpt lat="46.59526" lon="5.52274">
        <ele>485.6</ele>
        <time>2022-08-20T15:05:13Z</time>
      </trkpt>
      <trkpt lat="46.59528" lon="5.52275">
        <ele>486</ele>
        <time>2022-08-20T15:05:15Z</time>
      </trkpt>
      <trkpt lat="46.59531" lon="5.52278">
        <ele>486.2</ele>
        <time>2022-08-20T15:05:18Z</time>
      </trkpt>
      <trkpt lat="46.59533" lon="5.52281">
        <ele>486.6</ele>
        <time>2022-08-20T15:05:20Z</time>
      </trkpt>
      <trkpt lat="46.59535" lon="5.52284">
        <ele>487</ele>
        <time>2022-08-20T15:05:22Z</time>
      </trkpt>
      <trkpt lat="46.59538" lon="5.52286">
        <ele>487.4</ele>
        <time>2022-08-20T15:05:24Z</time>
      </trkpt>
      <trkpt lat="46.5954" lon="5.5229">
        <ele>487.8</ele>
        <time>2022-08-20T15:05:26Z</time>
      </trkpt>
      <trkpt lat="46.59542" lon="5.52293">
        <ele>488.2</ele>
        <time>2022-08-20T15:05:28Z</time>
      </trkpt>
      <trkpt lat="46.59543" lon="5.52295">
        <ele>488.4</ele>
        <time>2022-08-20T15:05:29Z</time>
      </trkpt>
      <trkpt lat="46.59546" lon="5.52298">
        <ele>489</ele>
        <time>2022-08-20T15:05:31Z</time>
      </trkpt>
      <trkpt lat="46.59547" lon="5.52301">
        <ele>489.4</ele>
        <time>2022-08-20T15:05:33Z</time>
      </trkpt>
      <trkpt lat="46.59549" lon="5.52302">
        <ele>489.8</ele>
        <time>2022-08-20T15:05:35Z</time>
      </trkpt>
      <trkpt lat="46.5955" lon="5.52305">
        <ele>490.2</ele>
        <time>2022-08-20T15:05:37Z</time>
      </trkpt>
      <trkpt lat="46.59553" lon="5.52307">
        <ele>490.8</ele>
        <time>2022-08-20T15:05:39Z</time>
      </trkpt>
      <trkpt lat="46.59556" lon="5.5231">
        <ele>491.2</ele>
        <time>2022-08-20T15:05:41Z</time>
      </trkpt>
      <trkpt lat="46.59557" lon="5.52313">
        <ele>492</ele>
        <time>2022-08-20T15:05:44Z</time>
      </trkpt>
      <trkpt lat="46.59558" lon="5.52316">
        <ele>492.6</ele>
        <time>2022-08-20T15:05:46Z</time>
      </trkpt>
      <trkpt lat="46.5956" lon="5.52318">
        <ele>493</ele>
        <time>2022-08-20T15:05:47Z</time>
      </trkpt>
      <trkpt lat="46.59562" lon="5.52319">
        <ele>493.2</ele>
        <time>2022-08-20T15:05:48Z</time>
      </trkpt>
      <trkpt lat="46.59564" lon="5.52321">
        <ele>493.4</ele>
        <time>2022-08-20T15:05:49Z</time>
      </trkpt>
      <trkpt lat="46.59565" lon="5.52323">
        <ele>493.6</ele>
        <time>2022-08-20T15:05:50Z</time>
      </trkpt>
      <trkpt lat="46.59567" lon="5.52325">
        <ele>493.8</ele>
        <time>2022-08-20T15:05:51Z</time>
      </trkpt>
      <trkpt lat="46.59569" lon="5.52328">
        <ele>494.2</ele>
        <time>2022-08-20T15:05:53Z</time>
      </trkpt>
      <trkpt lat="46.59571" lon="5.52331">
        <ele>494.4</ele>
        <time>2022-08-20T15:05:55Z</time>
      </trkpt>
      <trkpt lat="46.59572" lon="5.52335">
        <ele>494.8</ele>
        <time>2022-08-20T15:05:57Z</time>
      </trkpt>
      <trkpt lat="46.59573" lon="5.52337">
        <ele>495</ele>
        <time>2022-08-20T15:05:58Z</time>
      </trkpt>
      <trkpt lat="46.59575" lon="5.52338">
        <ele>495.2</ele>
        <time>2022-08-20T15:06:00Z</time>
      </trkpt>
      <trkpt lat="46.59577" lon="5.52341">
        <ele>495.6</ele>
        <time>2022-08-20T15:06:02Z</time>
      </trkpt>
      <trkpt lat="46.59578" lon="5.52345">
        <ele>495.8</ele>
        <time>2022-08-20T15:06:04Z</time>
      </trkpt>
      <trkpt lat="46.59581" lon="5.52348">
        <ele>496.2</ele>
        <time>2022-08-20T15:06:06Z</time>
      </trkpt>
      <trkpt lat="46.59582" lon="5.52351">
        <ele>496.2</ele>
        <time>2022-08-20T15:06:07Z</time>
      </trkpt>
      <trkpt lat="46.59584" lon="5.52353">
        <ele>496.4</ele>
        <time>2022-08-20T15:06:08Z</time>
      </trkpt>
      <trkpt lat="46.59585" lon="5.52355">
        <ele>496.4</ele>
        <time>2022-08-20T15:06:09Z</time>
      </trkpt>
      <trkpt lat="46.59586" lon="5.52358">
        <ele>496.6</ele>
        <time>2022-08-20T15:06:11Z</time>
      </trkpt>
      <trkpt lat="46.59588" lon="5.52361">
        <ele>496.8</ele>
        <time>2022-08-20T15:06:13Z</time>
      </trkpt>
      <trkpt lat="46.5959" lon="5.52364">
        <ele>496.8</ele>
        <time>2022-08-20T15:06:15Z</time>
      </trkpt>
      <trkpt lat="46.59592" lon="5.52367">
        <ele>497.2</ele>
        <time>2022-08-20T15:06:17Z</time>
      </trkpt>
      <trkpt lat="46.59593" lon="5.52371">
        <ele>497.4</ele>
        <time>2022-08-20T15:06:19Z</time>
      </trkpt>
      <trkpt lat="46.59595" lon="5.52374">
        <ele>497.6</ele>
        <time>2022-08-20T15:06:21Z</time>
      </trkpt>
      <trkpt lat="46.59597" lon="5.52376">
        <ele>498</ele>
        <time>2022-08-20T15:06:23Z</time>
      </trkpt>
      <trkpt lat="46.59598" lon="5.52378">
        <ele>498.2</ele>
        <time>2022-08-20T15:06:24Z</time>
      </trkpt>
      <trkpt lat="46.596" lon="5.5238">
        <ele>498.4</ele>
        <time>2022-08-20T15:06:25Z</time>
      </trkpt>
      <trkpt lat="46.59602" lon="5.52383">
        <ele>498.8</ele>
        <time>2022-08-20T15:06:27Z</time>
      </trkpt>
      <trkpt lat="46.59603" lon="5.52386">
        <ele>499.2</ele>
        <time>2022-08-20T15:06:29Z</time>
      </trkpt>
      <trkpt lat="46.59604" lon="5.52389">
        <ele>499.4</ele>
        <time>2022-08-20T15:06:31Z</time>
      </trkpt>
      <trkpt lat="46.59605" lon="5.52392">
        <ele>499.8</ele>
        <time>2022-08-20T15:06:33Z</time>
      </trkpt>
      <trkpt lat="46.59607" lon="5.52395">
        <ele>500.2</ele>
        <time>2022-08-20T15:06:35Z</time>
      </trkpt>
      <trkpt lat="46.59609" lon="5.52398">
        <ele>500.6</ele>
        <time>2022-08-20T15:06:37Z</time>
      </trkpt>
      <trkpt lat="46.59611" lon="5.52401">
        <ele>501</ele>
        <time>2022-08-20T15:06:39Z</time>
      </trkpt>
      <trkpt lat="46.59612" lon="5.52404">
        <ele>501.4</ele>
        <time>2022-08-20T15:06:41Z</time>
      </trkpt>
      <trkpt lat="46.59614" lon="5.52407">
        <ele>502</ele>
        <time>2022-08-20T15:06:43Z</time>
      </trkpt>
      <trkpt lat="46.59615" lon="5.52411">
        <ele>502.4</ele>
        <time>2022-08-20T15:06:45Z</time>
      </trkpt>
      <trkpt lat="46.59618" lon="5.52413">
        <ele>503</ele>
        <time>2022-08-20T15:06:47Z</time>
      </trkpt>
      <trkpt lat="46.59619" lon="5.52416">
        <ele>503.4</ele>
        <time>2022-08-20T15:06:49Z</time>
      </trkpt>
      <trkpt lat="46.5962" lon="5.52419">
        <ele>503.8</ele>
        <time>2022-08-20T15:06:51Z</time>
      </trkpt>
      <trkpt lat="46.59621" lon="5.52422">
        <ele>504</ele>
        <time>2022-08-20T15:06:53Z</time>
      </trkpt>
      <trkpt lat="46.59623" lon="5.52425">
        <ele>504.4</ele>
        <time>2022-08-20T15:06:55Z</time>
      </trkpt>
      <trkpt lat="46.59624" lon="5.52427">
        <ele>504.8</ele>
        <time>2022-08-20T15:06:57Z</time>
      </trkpt>
      <trkpt lat="46.59625" lon="5.52431">
        <ele>505.4</ele>
        <time>2022-08-20T15:07:00Z</time>
      </trkpt>
      <trkpt lat="46.59627" lon="5.52434">
        <ele>505.8</ele>
        <time>2022-08-20T15:07:02Z</time>
      </trkpt>
      <trkpt lat="46.59628" lon="5.52438">
        <ele>506.2</ele>
        <time>2022-08-20T15:07:04Z</time>
      </trkpt>
      <trkpt lat="46.59629" lon="5.52441">
        <ele>506.6</ele>
        <time>2022-08-20T15:07:06Z</time>
      </trkpt>
      <trkpt lat="46.5963" lon="5.52445">
        <ele>506.8</ele>
        <time>2022-08-20T15:07:08Z</time>
      </trkpt>
      <trkpt lat="46.59631" lon="5.52448">
        <ele>507.2</ele>
        <time>2022-08-20T15:07:10Z</time>
      </trkpt>
      <trkpt lat="46.59633" lon="5.52452">
        <ele>507.4</ele>
        <time>2022-08-20T15:07:12Z</time>
      </trkpt>
      <trkpt lat="46.59634" lon="5.52454">
        <ele>507.6</ele>
        <time>2022-08-20T15:07:13Z</time>
      </trkpt>
      <trkpt lat="46.59636" lon="5.52457">
        <ele>508</ele>
        <time>2022-08-20T15:07:16Z</time>
      </trkpt>
      <trkpt lat="46.59636" lon="5.5246">
        <ele>508.2</ele>
        <time>2022-08-20T15:07:18Z</time>
      </trkpt>
      <trkpt lat="46.59637" lon="5.52464">
        <ele>508.4</ele>
        <time>2022-08-20T15:07:20Z</time>
      </trkpt>
      <trkpt lat="46.59639" lon="5.52469">
        <ele>508.6</ele>
        <time>2022-08-20T15:07:22Z</time>
      </trkpt>
      <trkpt lat="46.5964" lon="5.52471">
        <ele>508.6</ele>
        <time>2022-08-20T15:07:23Z</time>
      </trkpt>
      <trkpt lat="46.59641" lon="5.52475">
        <ele>508.8</ele>
        <time>2022-08-20T15:07:25Z</time>
      </trkpt>
      <trkpt lat="46.59643" lon="5.52478">
        <ele>509</ele>
        <time>2022-08-20T15:07:27Z</time>
      </trkpt>
      <trkpt lat="46.59644" lon="5.52483">
        <ele>509.2</ele>
        <time>2022-08-20T15:07:29Z</time>
      </trkpt>
      <trkpt lat="46.59646" lon="5.52487">
        <ele>509.4</ele>
        <time>2022-08-20T15:07:31Z</time>
      </trkpt>
      <trkpt lat="46.59648" lon="5.5249">
        <ele>509.8</ele>
        <time>2022-08-20T15:07:33Z</time>
      </trkpt>
      <trkpt lat="46.5965" lon="5.52494">
        <ele>510</ele>
        <time>2022-08-20T15:07:35Z</time>
      </trkpt>
      <trkpt lat="46.59651" lon="5.52498">
        <ele>510.2</ele>
        <time>2022-08-20T15:07:37Z</time>
      </trkpt>
      <trkpt lat="46.59652" lon="5.52501">
        <ele>510.4</ele>
        <time>2022-08-20T15:07:39Z</time>
      </trkpt>
      <trkpt lat="46.59653" lon="5.52505">
        <ele>510.8</ele>
        <time>2022-08-20T15:07:41Z</time>
      </trkpt>
      <trkpt lat="46.59654" lon="5.52509">
        <ele>511</ele>
        <time>2022-08-20T15:07:43Z</time>
      </trkpt>
      <trkpt lat="46.59655" lon="5.52513">
        <ele>511.4</ele>
        <time>2022-08-20T15:07:45Z</time>
      </trkpt>
      <trkpt lat="46.59657" lon="5.52515">
        <ele>511.4</ele>
        <time>2022-08-20T15:07:46Z</time>
      </trkpt>
      <trkpt lat="46.59659" lon="5.52517">
        <ele>511.4</ele>
        <time>2022-08-20T15:07:47Z</time>
      </trkpt>
      <trkpt lat="46.5966" lon="5.5252">
        <ele>511.6</ele>
        <time>2022-08-20T15:07:49Z</time>
      </trkpt>
      <trkpt lat="46.59662" lon="5.52523">
        <ele>512</ele>
        <time>2022-08-20T15:07:51Z</time>
      </trkpt>
      <trkpt lat="46.59664" lon="5.52527">
        <ele>512.4</ele>
        <time>2022-08-20T15:07:53Z</time>
      </trkpt>
      <trkpt lat="46.59665" lon="5.52529">
        <ele>512.6</ele>
        <time>2022-08-20T15:07:55Z</time>
      </trkpt>
      <trkpt lat="46.59666" lon="5.52533">
        <ele>513</ele>
        <time>2022-08-20T15:07:57Z</time>
      </trkpt>
      <trkpt lat="46.59668" lon="5.52537">
        <ele>513.4</ele>
        <time>2022-08-20T15:07:59Z</time>
      </trkpt>
      <trkpt lat="46.5967" lon="5.52539">
        <ele>513.6</ele>
        <time>2022-08-20T15:08:01Z</time>
      </trkpt>
      <trkpt lat="46.59671" lon="5.52542">
        <ele>514</ele>
        <time>2022-08-20T15:08:03Z</time>
      </trkpt>
      <trkpt lat="46.59673" lon="5.52545">
        <ele>514.2</ele>
        <time>2022-08-20T15:08:05Z</time>
      </trkpt>
      <trkpt lat="46.59674" lon="5.52549">
        <ele>514.4</ele>
        <time>2022-08-20T15:08:07Z</time>
      </trkpt>
      <trkpt lat="46.59676" lon="5.52553">
        <ele>514.6</ele>
        <time>2022-08-20T15:08:09Z</time>
      </trkpt>
      <trkpt lat="46.59677" lon="5.52555">
        <ele>514.8</ele>
        <time>2022-08-20T15:08:10Z</time>
      </trkpt>
      <trkpt lat="46.59679" lon="5.5256">
        <ele>515</ele>
        <time>2022-08-20T15:08:12Z</time>
      </trkpt>
      <trkpt lat="46.59681" lon="5.52562">
        <ele>515</ele>
        <time>2022-08-20T15:08:13Z</time>
      </trkpt>
      <trkpt lat="46.59682" lon="5.52565">
        <ele>515.2</ele>
        <time>2022-08-20T15:08:14Z</time>
      </trkpt>
      <trkpt lat="46.59685" lon="5.52568">
        <ele>515.4</ele>
        <time>2022-08-20T15:08:16Z</time>
      </trkpt>
      <trkpt lat="46.59685" lon="5.5257">
        <ele>515.4</ele>
        <time>2022-08-20T15:08:17Z</time>
      </trkpt>
      <trkpt lat="46.59686" lon="5.52573">
        <ele>515.6</ele>
        <time>2022-08-20T15:08:18Z</time>
      </trkpt>
      <trkpt lat="46.59687" lon="5.52576">
        <ele>515.8</ele>
        <time>2022-08-20T15:08:20Z</time>
      </trkpt>
      <trkpt lat="46.59688" lon="5.52581">
        <ele>516.2</ele>
        <time>2022-08-20T15:08:22Z</time>
      </trkpt>
      <trkpt lat="46.59688" lon="5.52583">
        <ele>516.4</ele>
        <time>2022-08-20T15:08:23Z</time>
      </trkpt>
      <trkpt lat="46.59689" lon="5.52586">
        <ele>516.6</ele>
        <time>2022-08-20T15:08:24Z</time>
      </trkpt>
      <trkpt lat="46.59689" lon="5.52591">
        <ele>517</ele>
        <time>2022-08-20T15:08:26Z</time>
      </trkpt>
      <trkpt lat="46.59688" lon="5.52594">
        <ele>517.6</ele>
        <time>2022-08-20T15:08:28Z</time>
      </trkpt>
      <trkpt lat="46.59687" lon="5.52598">
        <ele>518.2</ele>
        <time>2022-08-20T15:08:30Z</time>
      </trkpt>
      <trkpt lat="46.59687" lon="5.52601">
        <ele>518.8</ele>
        <time>2022-08-20T15:08:32Z</time>
      </trkpt>
      <trkpt lat="46.59687" lon="5.52605">
        <ele>519.2</ele>
        <time>2022-08-20T15:08:34Z</time>
      </trkpt>
      <trkpt lat="46.59685" lon="5.52608">
        <ele>519.8</ele>
        <time>2022-08-20T15:08:36Z</time>
      </trkpt>
      <trkpt lat="46.59684" lon="5.52612">
        <ele>520.2</ele>
        <time>2022-08-20T15:08:38Z</time>
      </trkpt>
      <trkpt lat="46.59682" lon="5.52614">
        <ele>520.8</ele>
        <time>2022-08-20T15:08:40Z</time>
      </trkpt>
      <trkpt lat="46.59681" lon="5.52617">
        <ele>521.4</ele>
        <time>2022-08-20T15:08:42Z</time>
      </trkpt>
      <trkpt lat="46.59681" lon="5.52621">
        <ele>521.8</ele>
        <time>2022-08-20T15:08:44Z</time>
      </trkpt>
      <trkpt lat="46.5968" lon="5.52625">
        <ele>522.2</ele>
        <time>2022-08-20T15:08:46Z</time>
      </trkpt>
      <trkpt lat="46.59679" lon="5.52629">
        <ele>522.6</ele>
        <time>2022-08-20T15:08:48Z</time>
      </trkpt>
      <trkpt lat="46.59678" lon="5.52632">
        <ele>522.8</ele>
        <time>2022-08-20T15:08:49Z</time>
      </trkpt>
      <trkpt lat="46.59678" lon="5.52635">
        <ele>523</ele>
        <time>2022-08-20T15:08:50Z</time>
      </trkpt>
      <trkpt lat="46.59678" lon="5.52638">
        <ele>523.2</ele>
        <time>2022-08-20T15:08:51Z</time>
      </trkpt>
      <trkpt lat="46.59677" lon="5.5264">
        <ele>523.4</ele>
        <time>2022-08-20T15:08:52Z</time>
      </trkpt>
      <trkpt lat="46.59676" lon="5.52644">
        <ele>523.8</ele>
        <time>2022-08-20T15:08:54Z</time>
      </trkpt>
      <trkpt lat="46.59675" lon="5.52646">
        <ele>524</ele>
        <time>2022-08-20T15:08:55Z</time>
      </trkpt>
      <trkpt lat="46.59674" lon="5.52648">
        <ele>524</ele>
        <time>2022-08-20T15:08:56Z</time>
      </trkpt>
      <trkpt lat="46.59671" lon="5.52652">
        <ele>524.2</ele>
        <time>2022-08-20T15:08:58Z</time>
      </trkpt>
      <trkpt lat="46.59669" lon="5.52653">
        <ele>524.2</ele>
        <time>2022-08-20T15:09:00Z</time>
      </trkpt>
      <trkpt lat="46.59663" lon="5.52655">
        <ele>524.2</ele>
        <time>2022-08-20T15:09:02Z</time>
      </trkpt>
      <trkpt lat="46.59661" lon="5.52656">
        <ele>524.2</ele>
        <time>2022-08-20T15:09:03Z</time>
      </trkpt>
      <trkpt lat="46.59659" lon="5.52656">
        <ele>524.2</ele>
        <time>2022-08-20T15:09:04Z</time>
      </trkpt>
      <trkpt lat="46.59656" lon="5.52657">
        <ele>524.2</ele>
        <time>2022-08-20T15:09:05Z</time>
      </trkpt>
      <trkpt lat="46.59654" lon="5.52657">
        <ele>524.4</ele>
        <time>2022-08-20T15:09:06Z</time>
      </trkpt>
      <trkpt lat="46.59652" lon="5.52656">
        <ele>524.4</ele>
        <time>2022-08-20T15:09:07Z</time>
      </trkpt>
      <trkpt lat="46.59649" lon="5.52655">
        <ele>524.4</ele>
        <time>2022-08-20T15:09:08Z</time>
      </trkpt>
      <trkpt lat="46.59646" lon="5.52655">
        <ele>524.4</ele>
        <time>2022-08-20T15:09:09Z</time>
      </trkpt>
      <trkpt lat="46.59644" lon="5.52655">
        <ele>524.4</ele>
        <time>2022-08-20T15:09:10Z</time>
      </trkpt>
      <trkpt lat="46.59641" lon="5.52655">
        <ele>524.4</ele>
        <time>2022-08-20T15:09:11Z</time>
      </trkpt>
      <trkpt lat="46.59637" lon="5.52655">
        <ele>524.4</ele>
        <time>2022-08-20T15:09:12Z</time>
      </trkpt>
      <trkpt lat="46.59633" lon="5.52656">
        <ele>524.6</ele>
        <time>2022-08-20T15:09:13Z</time>
      </trkpt>
      <trkpt lat="46.5963" lon="5.52655">
        <ele>524.6</ele>
        <time>2022-08-20T15:09:14Z</time>
      </trkpt>
      <trkpt lat="46.59627" lon="5.52656">
        <ele>524.6</ele>
        <time>2022-08-20T15:09:15Z</time>
      </trkpt>
      <trkpt lat="46.59624" lon="5.52656">
        <ele>524.6</ele>
        <time>2022-08-20T15:09:16Z</time>
      </trkpt>
      <trkpt lat="46.5962" lon="5.52656">
        <ele>524.8</ele>
        <time>2022-08-20T15:09:17Z</time>
      </trkpt>
      <trkpt lat="46.59617" lon="5.52656">
        <ele>524.8</ele>
        <time>2022-08-20T15:09:18Z</time>
      </trkpt>
      <trkpt lat="46.59614" lon="5.52657">
        <ele>524.8</ele>
        <time>2022-08-20T15:09:19Z</time>
      </trkpt>
      <trkpt lat="46.5961" lon="5.52658">
        <ele>524.8</ele>
        <time>2022-08-20T15:09:20Z</time>
      </trkpt>
      <trkpt lat="46.59607" lon="5.52659">
        <ele>524.8</ele>
        <time>2022-08-20T15:09:21Z</time>
      </trkpt>
      <trkpt lat="46.59604" lon="5.5266">
        <ele>524.8</ele>
        <time>2022-08-20T15:09:22Z</time>
      </trkpt>
      <trkpt lat="46.59601" lon="5.52661">
        <ele>524.8</ele>
        <time>2022-08-20T15:09:23Z</time>
      </trkpt>
      <trkpt lat="46.59598" lon="5.52661">
        <ele>524.8</ele>
        <time>2022-08-20T15:09:24Z</time>
      </trkpt>
      <trkpt lat="46.59596" lon="5.52661">
        <ele>524.8</ele>
        <time>2022-08-20T15:09:25Z</time>
      </trkpt>
      <trkpt lat="46.59593" lon="5.52661">
        <ele>524.8</ele>
        <time>2022-08-20T15:09:26Z</time>
      </trkpt>
      <trkpt lat="46.5959" lon="5.52661">
        <ele>524.8</ele>
        <time>2022-08-20T15:09:27Z</time>
      </trkpt>
      <trkpt lat="46.59588" lon="5.52662">
        <ele>524.8</ele>
        <time>2022-08-20T15:09:28Z</time>
      </trkpt>
      <trkpt lat="46.59584" lon="5.52663">
        <ele>524.8</ele>
        <time>2022-08-20T15:09:30Z</time>
      </trkpt>
      <trkpt lat="46.59582" lon="5.52663">
        <ele>524.8</ele>
        <time>2022-08-20T15:09:31Z</time>
      </trkpt>
      <trkpt lat="46.59579" lon="5.52665">
        <ele>524.8</ele>
        <time>2022-08-20T15:09:32Z</time>
      </trkpt>
      <trkpt lat="46.59575" lon="5.52667">
        <ele>524.8</ele>
        <time>2022-08-20T15:09:33Z</time>
      </trkpt>
      <trkpt lat="46.59573" lon="5.52669">
        <ele>524.8</ele>
        <time>2022-08-20T15:09:34Z</time>
      </trkpt>
      <trkpt lat="46.5957" lon="5.5267">
        <ele>524.8</ele>
        <time>2022-08-20T15:09:35Z</time>
      </trkpt>
      <trkpt lat="46.59568" lon="5.52672">
        <ele>524.8</ele>
        <time>2022-08-20T15:09:36Z</time>
      </trkpt>
      <trkpt lat="46.59565" lon="5.52673">
        <ele>524.8</ele>
        <time>2022-08-20T15:09:37Z</time>
      </trkpt>
      <trkpt lat="46.59563" lon="5.52677">
        <ele>524.8</ele>
        <time>2022-08-20T15:09:39Z</time>
      </trkpt>
      <trkpt lat="46.59562" lon="5.5268">
        <ele>524.8</ele>
        <time>2022-08-20T15:09:40Z</time>
      </trkpt>
      <trkpt lat="46.5956" lon="5.52684">
        <ele>524.8</ele>
        <time>2022-08-20T15:09:41Z</time>
      </trkpt>
      <trkpt lat="46.59559" lon="5.52687">
        <ele>524.8</ele>
        <time>2022-08-20T15:09:42Z</time>
      </trkpt>
      <trkpt lat="46.59558" lon="5.52691">
        <ele>524.8</ele>
        <time>2022-08-20T15:09:43Z</time>
      </trkpt>
      <trkpt lat="46.59557" lon="5.52694">
        <ele>524.6</ele>
        <time>2022-08-20T15:09:44Z</time>
      </trkpt>
      <trkpt lat="46.59557" lon="5.52697">
        <ele>524.6</ele>
        <time>2022-08-20T15:09:45Z</time>
      </trkpt>
      <trkpt lat="46.59556" lon="5.527">
        <ele>524.6</ele>
        <time>2022-08-20T15:09:46Z</time>
      </trkpt>
      <trkpt lat="46.59555" lon="5.52704">
        <ele>524.6</ele>
        <time>2022-08-20T15:09:47Z</time>
      </trkpt>
      <trkpt lat="46.59554" lon="5.52708">
        <ele>524.4</ele>
        <time>2022-08-20T15:09:48Z</time>
      </trkpt>
      <trkpt lat="46.59552" lon="5.52714">
        <ele>524.4</ele>
        <time>2022-08-20T15:09:49Z</time>
      </trkpt>
      <trkpt lat="46.5955" lon="5.5272">
        <ele>524.4</ele>
        <time>2022-08-20T15:09:50Z</time>
      </trkpt>
      <trkpt lat="46.59549" lon="5.52726">
        <ele>524.2</ele>
        <time>2022-08-20T15:09:51Z</time>
      </trkpt>
      <trkpt lat="46.59548" lon="5.52733">
        <ele>524.2</ele>
        <time>2022-08-20T15:09:52Z</time>
      </trkpt>
      <trkpt lat="46.59548" lon="5.5274">
        <ele>524</ele>
        <time>2022-08-20T15:09:53Z</time>
      </trkpt>
      <trkpt lat="46.59546" lon="5.52748">
        <ele>524</ele>
        <time>2022-08-20T15:09:54Z</time>
      </trkpt>
      <trkpt lat="46.59544" lon="5.52755">
        <ele>523.8</ele>
        <time>2022-08-20T15:09:55Z</time>
      </trkpt>
      <trkpt lat="46.59544" lon="5.52762">
        <ele>523.8</ele>
        <time>2022-08-20T15:09:56Z</time>
      </trkpt>
      <trkpt lat="46.59543" lon="5.52766">
        <ele>523.6</ele>
        <time>2022-08-20T15:09:57Z</time>
      </trkpt>
      <trkpt lat="46.59542" lon="5.52771">
        <ele>523.6</ele>
        <time>2022-08-20T15:09:58Z</time>
      </trkpt>
      <trkpt lat="46.59541" lon="5.52776">
        <ele>523.4</ele>
        <time>2022-08-20T15:09:59Z</time>
      </trkpt>
      <trkpt lat="46.5954" lon="5.52779">
        <ele>523.4</ele>
        <time>2022-08-20T15:10:00Z</time>
      </trkpt>
      <trkpt lat="46.59539" lon="5.52782">
        <ele>523.2</ele>
        <time>2022-08-20T15:10:01Z</time>
      </trkpt>
      <trkpt lat="46.59538" lon="5.52784">
        <ele>523</ele>
        <time>2022-08-20T15:10:02Z</time>
      </trkpt>
      <trkpt lat="46.59536" lon="5.52789">
        <ele>523</ele>
        <time>2022-08-20T15:10:04Z</time>
      </trkpt>
      <trkpt lat="46.59536" lon="5.52791">
        <ele>522.8</ele>
        <time>2022-08-20T15:10:05Z</time>
      </trkpt>
      <trkpt lat="46.59534" lon="5.52795">
        <ele>522.8</ele>
        <time>2022-08-20T15:10:06Z</time>
      </trkpt>
      <trkpt lat="46.59533" lon="5.52798">
        <ele>522.8</ele>
        <time>2022-08-20T15:10:07Z</time>
      </trkpt>
      <trkpt lat="46.59532" lon="5.52802">
        <ele>522.6</ele>
        <time>2022-08-20T15:10:08Z</time>
      </trkpt>
      <trkpt lat="46.59531" lon="5.52806">
        <ele>522.6</ele>
        <time>2022-08-20T15:10:09Z</time>
      </trkpt>
      <trkpt lat="46.5953" lon="5.52809">
        <ele>522.4</ele>
        <time>2022-08-20T15:10:10Z</time>
      </trkpt>
      <trkpt lat="46.59528" lon="5.52812">
        <ele>522.4</ele>
        <time>2022-08-20T15:10:11Z</time>
      </trkpt>
      <trkpt lat="46.59526" lon="5.52814">
        <ele>522.2</ele>
        <time>2022-08-20T15:10:13Z</time>
      </trkpt>
      <trkpt lat="46.59526" lon="5.5281">
        <ele>521.8</ele>
        <time>2022-08-20T15:10:19Z</time>
      </trkpt>
      <trkpt lat="46.59526" lon="5.52808">
        <ele>521.6</ele>
        <time>2022-08-20T15:10:21Z</time>
      </trkpt>
      <trkpt lat="46.59528" lon="5.52806">
        <ele>521.4</ele>
        <time>2022-08-20T15:10:23Z</time>
      </trkpt>
      <trkpt lat="46.5953" lon="5.52806">
        <ele>521.4</ele>
        <time>2022-08-20T15:10:25Z</time>
      </trkpt>
      <trkpt lat="46.59533" lon="5.52807">
        <ele>521.4</ele>
        <time>2022-08-20T15:10:27Z</time>
      </trkpt>
      <trkpt lat="46.59534" lon="5.52809">
        <ele>521.2</ele>
        <time>2022-08-20T15:10:29Z</time>
      </trkpt>
      <trkpt lat="46.59536" lon="5.52811">
        <ele>521.2</ele>
        <time>2022-08-20T15:10:31Z</time>
      </trkpt>
      <trkpt lat="46.59539" lon="5.52812">
        <ele>521</ele>
        <time>2022-08-20T15:10:33Z</time>
      </trkpt>
      <trkpt lat="46.59542" lon="5.52813">
        <ele>521</ele>
        <time>2022-08-20T15:10:35Z</time>
      </trkpt>
      <trkpt lat="46.59544" lon="5.52812">
        <ele>521</ele>
        <time>2022-08-20T15:10:37Z</time>
      </trkpt>
      <trkpt lat="46.59546" lon="5.52812">
        <ele>521</ele>
        <time>2022-08-20T15:10:39Z</time>
      </trkpt>
      <trkpt lat="46.59548" lon="5.52813">
        <ele>521.2</ele>
        <time>2022-08-20T15:10:42Z</time>
      </trkpt>
      <trkpt lat="46.5955" lon="5.52814">
        <ele>521.2</ele>
        <time>2022-08-20T15:10:45Z</time>
      </trkpt>
      <trkpt lat="46.59552" lon="5.52816">
        <ele>521.4</ele>
        <time>2022-08-20T15:10:47Z</time>
      </trkpt>
      <trkpt lat="46.59554" lon="5.52817">
        <ele>521.2</ele>
        <time>2022-08-20T15:10:49Z</time>
      </trkpt>
      <trkpt lat="46.59556" lon="5.52817">
        <ele>521.4</ele>
        <time>2022-08-20T15:10:53Z</time>
      </trkpt>
      <trkpt lat="46.59558" lon="5.52818">
        <ele>521.4</ele>
        <time>2022-08-20T15:10:55Z</time>
      </trkpt>
      <trkpt lat="46.59561" lon="5.52819">
        <ele>521.4</ele>
        <time>2022-08-20T15:10:57Z</time>
      </trkpt>
      <trkpt lat="46.59564" lon="5.52819">
        <ele>521.6</ele>
        <time>2022-08-20T15:11:00Z</time>
      </trkpt>
      <trkpt lat="46.59565" lon="5.52818">
        <ele>521.8</ele>
        <time>2022-08-20T15:11:03Z</time>
      </trkpt>
      <trkpt lat="46.59568" lon="5.52817">
        <ele>521.6</ele>
        <time>2022-08-20T15:11:06Z</time>
      </trkpt>
      <trkpt lat="46.5957" lon="5.52817">
        <ele>521.4</ele>
        <time>2022-08-20T15:11:08Z</time>
      </trkpt>
      <trkpt lat="46.59573" lon="5.52816">
        <ele>521.2</ele>
        <time>2022-08-20T15:11:10Z</time>
      </trkpt>
      <trkpt lat="46.59576" lon="5.52816">
        <ele>521</ele>
        <time>2022-08-20T15:11:12Z</time>
      </trkpt>
      <trkpt lat="46.59578" lon="5.52815">
        <ele>520.2</ele>
        <time>2022-08-20T15:11:21Z</time>
      </trkpt>
      <trkpt lat="46.59581" lon="5.52816">
        <ele>520.2</ele>
        <time>2022-08-20T15:11:23Z</time>
      </trkpt>
      <trkpt lat="46.59583" lon="5.52816">
        <ele>520.2</ele>
        <time>2022-08-20T15:11:24Z</time>
      </trkpt>
      <trkpt lat="46.59586" lon="5.52817">
        <ele>520</ele>
        <time>2022-08-20T15:11:26Z</time>
      </trkpt>
      <trkpt lat="46.59588" lon="5.52816">
        <ele>519.8</ele>
        <time>2022-08-20T15:11:28Z</time>
      </trkpt>
      <trkpt lat="46.59591" lon="5.52816">
        <ele>519.6</ele>
        <time>2022-08-20T15:11:30Z</time>
      </trkpt>
      <trkpt lat="46.59593" lon="5.52815">
        <ele>519.4</ele>
        <time>2022-08-20T15:11:32Z</time>
      </trkpt>
      <trkpt lat="46.59595" lon="5.52816">
        <ele>519.2</ele>
        <time>2022-08-20T15:11:34Z</time>
      </trkpt>
      <trkpt lat="46.59598" lon="5.52815">
        <ele>519</ele>
        <time>2022-08-20T15:11:36Z</time>
      </trkpt>
      <trkpt lat="46.59601" lon="5.52814">
        <ele>518.8</ele>
        <time>2022-08-20T15:11:38Z</time>
      </trkpt>
      <trkpt lat="46.59605" lon="5.52814">
        <ele>518.4</ele>
        <time>2022-08-20T15:11:40Z</time>
      </trkpt>
      <trkpt lat="46.59607" lon="5.52815">
        <ele>518.2</ele>
        <time>2022-08-20T15:11:41Z</time>
      </trkpt>
      <trkpt lat="46.5961" lon="5.52815">
        <ele>518.2</ele>
        <time>2022-08-20T15:11:42Z</time>
      </trkpt>
      <trkpt lat="46.59613" lon="5.52815">
        <ele>518</ele>
        <time>2022-08-20T15:11:43Z</time>
      </trkpt>
      <trkpt lat="46.59615" lon="5.52816">
        <ele>518</ele>
        <time>2022-08-20T15:11:44Z</time>
      </trkpt>
      <trkpt lat="46.59618" lon="5.52816">
        <ele>517.8</ele>
        <time>2022-08-20T15:11:45Z</time>
      </trkpt>
      <trkpt lat="46.5962" lon="5.52816">
        <ele>517.8</ele>
        <time>2022-08-20T15:11:46Z</time>
      </trkpt>
      <trkpt lat="46.59623" lon="5.52816">
        <ele>517.6</ele>
        <time>2022-08-20T15:11:47Z</time>
      </trkpt>
      <trkpt lat="46.59626" lon="5.52816">
        <ele>517.4</ele>
        <time>2022-08-20T15:11:48Z</time>
      </trkpt>
      <trkpt lat="46.59628" lon="5.52816">
        <ele>517.2</ele>
        <time>2022-08-20T15:11:49Z</time>
      </trkpt>
      <trkpt lat="46.5963" lon="5.52814">
        <ele>517</ele>
        <time>2022-08-20T15:11:50Z</time>
      </trkpt>
      <trkpt lat="46.59633" lon="5.52814">
        <ele>517</ele>
        <time>2022-08-20T15:11:51Z</time>
      </trkpt>
      <trkpt lat="46.59635" lon="5.52814">
        <ele>516.8</ele>
        <time>2022-08-20T15:11:52Z</time>
      </trkpt>
      <trkpt lat="46.59638" lon="5.52814">
        <ele>516.6</ele>
        <time>2022-08-20T15:11:53Z</time>
      </trkpt>
      <trkpt lat="46.59642" lon="5.52815">
        <ele>516.6</ele>
        <time>2022-08-20T15:11:54Z</time>
      </trkpt>
      <trkpt lat="46.59645" lon="5.52815">
        <ele>516.4</ele>
        <time>2022-08-20T15:11:55Z</time>
      </trkpt>
      <trkpt lat="46.59648" lon="5.52817">
        <ele>516.2</ele>
        <time>2022-08-20T15:11:56Z</time>
      </trkpt>
      <trkpt lat="46.59652" lon="5.52818">
        <ele>515.8</ele>
        <time>2022-08-20T15:11:58Z</time>
      </trkpt>
      <trkpt lat="46.59654" lon="5.5282">
        <ele>515.6</ele>
        <time>2022-08-20T15:11:59Z</time>
      </trkpt>
      <trkpt lat="46.59657" lon="5.5282">
        <ele>515.4</ele>
        <time>2022-08-20T15:12:00Z</time>
      </trkpt>
      <trkpt lat="46.59659" lon="5.52821">
        <ele>515.2</ele>
        <time>2022-08-20T15:12:01Z</time>
      </trkpt>
      <trkpt lat="46.59661" lon="5.52822">
        <ele>515</ele>
        <time>2022-08-20T15:12:02Z</time>
      </trkpt>
      <trkpt lat="46.59663" lon="5.52824">
        <ele>514.8</ele>
        <time>2022-08-20T15:12:03Z</time>
      </trkpt>
      <trkpt lat="46.59665" lon="5.52825">
        <ele>514.8</ele>
        <time>2022-08-20T15:12:04Z</time>
      </trkpt>
      <trkpt lat="46.59667" lon="5.52826">
        <ele>514.6</ele>
        <time>2022-08-20T15:12:05Z</time>
      </trkpt>
      <trkpt lat="46.59669" lon="5.52827">
        <ele>514.6</ele>
        <time>2022-08-20T15:12:06Z</time>
      </trkpt>
      <trkpt lat="46.59672" lon="5.52828">
        <ele>514.4</ele>
        <time>2022-08-20T15:12:07Z</time>
      </trkpt>
      <trkpt lat="46.59675" lon="5.52829">
        <ele>514.2</ele>
        <time>2022-08-20T15:12:08Z</time>
      </trkpt>
      <trkpt lat="46.59678" lon="5.52831">
        <ele>514.2</ele>
        <time>2022-08-20T15:12:09Z</time>
      </trkpt>
      <trkpt lat="46.59682" lon="5.52832">
        <ele>514</ele>
        <time>2022-08-20T15:12:10Z</time>
      </trkpt>
      <trkpt lat="46.59685" lon="5.52834">
        <ele>514</ele>
        <time>2022-08-20T15:12:11Z</time>
      </trkpt>
      <trkpt lat="46.59689" lon="5.52836">
        <ele>514</ele>
        <time>2022-08-20T15:12:12Z</time>
      </trkpt>
      <trkpt lat="46.59692" lon="5.52838">
        <ele>513.8</ele>
        <time>2022-08-20T15:12:13Z</time>
      </trkpt>
      <trkpt lat="46.59694" lon="5.5284">
        <ele>513.8</ele>
        <time>2022-08-20T15:12:14Z</time>
      </trkpt>
      <trkpt lat="46.59697" lon="5.52842">
        <ele>513.6</ele>
        <time>2022-08-20T15:12:15Z</time>
      </trkpt>
      <trkpt lat="46.59699" lon="5.52844">
        <ele>513.6</ele>
        <time>2022-08-20T15:12:16Z</time>
      </trkpt>
      <trkpt lat="46.59701" lon="5.52847">
        <ele>513.6</ele>
        <time>2022-08-20T15:12:17Z</time>
      </trkpt>
      <trkpt lat="46.59704" lon="5.52849">
        <ele>513.4</ele>
        <time>2022-08-20T15:12:18Z</time>
      </trkpt>
      <trkpt lat="46.59706" lon="5.52852">
        <ele>513.2</ele>
        <time>2022-08-20T15:12:19Z</time>
      </trkpt>
      <trkpt lat="46.59709" lon="5.52855">
        <ele>513.2</ele>
        <time>2022-08-20T15:12:20Z</time>
      </trkpt>
      <trkpt lat="46.5971" lon="5.52859">
        <ele>513</ele>
        <time>2022-08-20T15:12:21Z</time>
      </trkpt>
      <trkpt lat="46.59711" lon="5.52861">
        <ele>512.8</ele>
        <time>2022-08-20T15:12:22Z</time>
      </trkpt>
      <trkpt lat="46.59714" lon="5.52865">
        <ele>512.8</ele>
        <time>2022-08-20T15:12:23Z</time>
      </trkpt>
      <trkpt lat="46.59717" lon="5.52868">
        <ele>512.6</ele>
        <time>2022-08-20T15:12:24Z</time>
      </trkpt>
      <trkpt lat="46.59718" lon="5.52871">
        <ele>512.4</ele>
        <time>2022-08-20T15:12:25Z</time>
      </trkpt>
      <trkpt lat="46.59721" lon="5.52874">
        <ele>512.4</ele>
        <time>2022-08-20T15:12:26Z</time>
      </trkpt>
      <trkpt lat="46.59722" lon="5.52877">
        <ele>512.2</ele>
        <time>2022-08-20T15:12:27Z</time>
      </trkpt>
      <trkpt lat="46.59724" lon="5.52881">
        <ele>512</ele>
        <time>2022-08-20T15:12:28Z</time>
      </trkpt>
      <trkpt lat="46.59725" lon="5.52885">
        <ele>511.8</ele>
        <time>2022-08-20T15:12:29Z</time>
      </trkpt>
      <trkpt lat="46.59727" lon="5.52889">
        <ele>511.8</ele>
        <time>2022-08-20T15:12:30Z</time>
      </trkpt>
      <trkpt lat="46.59729" lon="5.52893">
        <ele>511.6</ele>
        <time>2022-08-20T15:12:31Z</time>
      </trkpt>
      <trkpt lat="46.59731" lon="5.52896">
        <ele>511.4</ele>
        <time>2022-08-20T15:12:32Z</time>
      </trkpt>
      <trkpt lat="46.59732" lon="5.52899">
        <ele>511.4</ele>
        <time>2022-08-20T15:12:33Z</time>
      </trkpt>
      <trkpt lat="46.59733" lon="5.52903">
        <ele>511.2</ele>
        <time>2022-08-20T15:12:34Z</time>
      </trkpt>
      <trkpt lat="46.59734" lon="5.52906">
        <ele>511</ele>
        <time>2022-08-20T15:12:35Z</time>
      </trkpt>
      <trkpt lat="46.59735" lon="5.52909">
        <ele>511</ele>
        <time>2022-08-20T15:12:36Z</time>
      </trkpt>
      <trkpt lat="46.59736" lon="5.52911">
        <ele>510.8</ele>
        <time>2022-08-20T15:12:37Z</time>
      </trkpt>
      <trkpt lat="46.59739" lon="5.52914">
        <ele>510.6</ele>
        <time>2022-08-20T15:12:39Z</time>
      </trkpt>
      <trkpt lat="46.59741" lon="5.52915">
        <ele>510.4</ele>
        <time>2022-08-20T15:12:40Z</time>
      </trkpt>
      <trkpt lat="46.59743" lon="5.52916">
        <ele>510.4</ele>
        <time>2022-08-20T15:12:41Z</time>
      </trkpt>
      <trkpt lat="46.59745" lon="5.52919">
        <ele>510.2</ele>
        <time>2022-08-20T15:12:42Z</time>
      </trkpt>
      <trkpt lat="46.59747" lon="5.52921">
        <ele>510.2</ele>
        <time>2022-08-20T15:12:43Z</time>
      </trkpt>
      <trkpt lat="46.59749" lon="5.52922">
        <ele>510</ele>
        <time>2022-08-20T15:12:44Z</time>
      </trkpt>
      <trkpt lat="46.59751" lon="5.52924">
        <ele>509.8</ele>
        <time>2022-08-20T15:12:46Z</time>
      </trkpt>
      <trkpt lat="46.59754" lon="5.52925">
        <ele>509.8</ele>
        <time>2022-08-20T15:12:47Z</time>
      </trkpt>
      <trkpt lat="46.59756" lon="5.52927">
        <ele>509.6</ele>
        <time>2022-08-20T15:12:48Z</time>
      </trkpt>
      <trkpt lat="46.59758" lon="5.52928">
        <ele>509.6</ele>
        <time>2022-08-20T15:12:49Z</time>
      </trkpt>
      <trkpt lat="46.59761" lon="5.52929">
        <ele>509.4</ele>
        <time>2022-08-20T15:12:50Z</time>
      </trkpt>
      <trkpt lat="46.59763" lon="5.52931">
        <ele>509.4</ele>
        <time>2022-08-20T15:12:51Z</time>
      </trkpt>
      <trkpt lat="46.59766" lon="5.52932">
        <ele>509.2</ele>
        <time>2022-08-20T15:12:52Z</time>
      </trkpt>
      <trkpt lat="46.59769" lon="5.52935">
        <ele>509</ele>
        <time>2022-08-20T15:12:53Z</time>
      </trkpt>
      <trkpt lat="46.59771" lon="5.52937">
        <ele>508.8</ele>
        <time>2022-08-20T15:12:54Z</time>
      </trkpt>
      <trkpt lat="46.59773" lon="5.52939">
        <ele>508.8</ele>
        <time>2022-08-20T15:12:55Z</time>
      </trkpt>
      <trkpt lat="46.59775" lon="5.5294">
        <ele>508.6</ele>
        <time>2022-08-20T15:12:56Z</time>
      </trkpt>
      <trkpt lat="46.59777" lon="5.52941">
        <ele>508.4</ele>
        <time>2022-08-20T15:12:57Z</time>
      </trkpt>
      <trkpt lat="46.59779" lon="5.52943">
        <ele>508.2</ele>
        <time>2022-08-20T15:12:58Z</time>
      </trkpt>
      <trkpt lat="46.59782" lon="5.52944">
        <ele>508</ele>
        <time>2022-08-20T15:12:59Z</time>
      </trkpt>
      <trkpt lat="46.59786" lon="5.52949">
        <ele>507.8</ele>
        <time>2022-08-20T15:13:01Z</time>
      </trkpt>
      <trkpt lat="46.59787" lon="5.52951">
        <ele>507.6</ele>
        <time>2022-08-20T15:13:02Z</time>
      </trkpt>
      <trkpt lat="46.59789" lon="5.52954">
        <ele>507.4</ele>
        <time>2022-08-20T15:13:03Z</time>
      </trkpt>
      <trkpt lat="46.5979" lon="5.52957">
        <ele>507.2</ele>
        <time>2022-08-20T15:13:04Z</time>
      </trkpt>
      <trkpt lat="46.59791" lon="5.5296">
        <ele>507.2</ele>
        <time>2022-08-20T15:13:05Z</time>
      </trkpt>
      <trkpt lat="46.59793" lon="5.52963">
        <ele>507</ele>
        <time>2022-08-20T15:13:06Z</time>
      </trkpt>
      <trkpt lat="46.59795" lon="5.52967">
        <ele>506.8</ele>
        <time>2022-08-20T15:13:07Z</time>
      </trkpt>
      <trkpt lat="46.59796" lon="5.5297">
        <ele>506.6</ele>
        <time>2022-08-20T15:13:08Z</time>
      </trkpt>
      <trkpt lat="46.59797" lon="5.52974">
        <ele>506.4</ele>
        <time>2022-08-20T15:13:09Z</time>
      </trkpt>
      <trkpt lat="46.59797" lon="5.52977">
        <ele>506.2</ele>
        <time>2022-08-20T15:13:10Z</time>
      </trkpt>
      <trkpt lat="46.59798" lon="5.5298">
        <ele>506</ele>
        <time>2022-08-20T15:13:11Z</time>
      </trkpt>
      <trkpt lat="46.59799" lon="5.52984">
        <ele>505.8</ele>
        <time>2022-08-20T15:13:12Z</time>
      </trkpt>
      <trkpt lat="46.598" lon="5.52986">
        <ele>505.6</ele>
        <time>2022-08-20T15:13:13Z</time>
      </trkpt>
      <trkpt lat="46.59802" lon="5.5299">
        <ele>505.6</ele>
        <time>2022-08-20T15:13:14Z</time>
      </trkpt>
      <trkpt lat="46.59802" lon="5.52993">
        <ele>505.4</ele>
        <time>2022-08-20T15:13:15Z</time>
      </trkpt>
      <trkpt lat="46.59804" lon="5.52995">
        <ele>505.2</ele>
        <time>2022-08-20T15:13:16Z</time>
      </trkpt>
      <trkpt lat="46.59805" lon="5.52999">
        <ele>505</ele>
        <time>2022-08-20T15:13:17Z</time>
      </trkpt>
      <trkpt lat="46.59808" lon="5.53004">
        <ele>505</ele>
        <time>2022-08-20T15:13:18Z</time>
      </trkpt>
      <trkpt lat="46.59809" lon="5.53007">
        <ele>504.8</ele>
        <time>2022-08-20T15:13:19Z</time>
      </trkpt>
      <trkpt lat="46.5981" lon="5.53013">
        <ele>504.6</ele>
        <time>2022-08-20T15:13:21Z</time>
      </trkpt>
      <trkpt lat="46.5981" lon="5.53015">
        <ele>504.6</ele>
        <time>2022-08-20T15:13:22Z</time>
      </trkpt>
      <trkpt lat="46.59811" lon="5.5302">
        <ele>504.4</ele>
        <time>2022-08-20T15:13:24Z</time>
      </trkpt>
      <trkpt lat="46.59812" lon="5.53022">
        <ele>504.4</ele>
        <time>2022-08-20T15:13:25Z</time>
      </trkpt>
      <trkpt lat="46.59813" lon="5.53025">
        <ele>504.2</ele>
        <time>2022-08-20T15:13:26Z</time>
      </trkpt>
      <trkpt lat="46.59819" lon="5.53028">
        <ele>504.2</ele>
        <time>2022-08-20T15:13:28Z</time>
      </trkpt>
      <trkpt lat="46.5982" lon="5.53029">
        <ele>504</ele>
        <time>2022-08-20T15:13:29Z</time>
      </trkpt>
      <trkpt lat="46.59822" lon="5.5303">
        <ele>504</ele>
        <time>2022-08-20T15:13:30Z</time>
      </trkpt>
      <trkpt lat="46.59824" lon="5.53032">
        <ele>503.8</ele>
        <time>2022-08-20T15:13:31Z</time>
      </trkpt>
      <trkpt lat="46.59826" lon="5.53033">
        <ele>503.8</ele>
        <time>2022-08-20T15:13:32Z</time>
      </trkpt>
      <trkpt lat="46.59828" lon="5.53036">
        <ele>503.6</ele>
        <time>2022-08-20T15:13:34Z</time>
      </trkpt>
      <trkpt lat="46.59831" lon="5.53038">
        <ele>503.4</ele>
        <time>2022-08-20T15:13:37Z</time>
      </trkpt>
      <trkpt lat="46.59833" lon="5.53038">
        <ele>503.2</ele>
        <time>2022-08-20T15:13:39Z</time>
      </trkpt>
      <trkpt lat="46.59836" lon="5.53036">
        <ele>502.8</ele>
        <time>2022-08-20T15:13:41Z</time>
      </trkpt>
      <trkpt lat="46.59837" lon="5.53034">
        <ele>502.6</ele>
        <time>2022-08-20T15:13:42Z</time>
      </trkpt>
      <trkpt lat="46.59838" lon="5.53032">
        <ele>502.4</ele>
        <time>2022-08-20T15:13:43Z</time>
      </trkpt>
      <trkpt lat="46.5984" lon="5.53031">
        <ele>502.2</ele>
        <time>2022-08-20T15:13:44Z</time>
      </trkpt>
      <trkpt lat="46.59843" lon="5.53023">
        <ele>501.6</ele>
        <time>2022-08-20T15:13:46Z</time>
      </trkpt>
      <trkpt lat="46.59843" lon="5.53021">
        <ele>501.4</ele>
        <time>2022-08-20T15:13:47Z</time>
      </trkpt>
      <trkpt lat="46.59845" lon="5.53019">
        <ele>501.2</ele>
        <time>2022-08-20T15:13:48Z</time>
      </trkpt>
      <trkpt lat="46.59846" lon="5.53017">
        <ele>501</ele>
        <time>2022-08-20T15:13:49Z</time>
      </trkpt>
      <trkpt lat="46.59848" lon="5.53015">
        <ele>500.8</ele>
        <time>2022-08-20T15:13:50Z</time>
      </trkpt>
      <trkpt lat="46.5985" lon="5.53014">
        <ele>500.6</ele>
        <time>2022-08-20T15:13:51Z</time>
      </trkpt>
      <trkpt lat="46.59852" lon="5.53013">
        <ele>500</ele>
        <time>2022-08-20T15:13:53Z</time>
      </trkpt>
      <trkpt lat="46.59855" lon="5.53011">
        <ele>499.6</ele>
        <time>2022-08-20T15:13:55Z</time>
      </trkpt>
      <trkpt lat="46.59857" lon="5.53011">
        <ele>499.4</ele>
        <time>2022-08-20T15:13:56Z</time>
      </trkpt>
      <trkpt lat="46.59859" lon="5.53008">
        <ele>498.8</ele>
        <time>2022-08-20T15:13:58Z</time>
      </trkpt>
      <trkpt lat="46.59862" lon="5.53006">
        <ele>498.4</ele>
        <time>2022-08-20T15:14:00Z</time>
      </trkpt>
      <trkpt lat="46.59864" lon="5.53007">
        <ele>498.4</ele>
        <time>2022-08-20T15:14:01Z</time>
      </trkpt>
      <trkpt lat="46.59867" lon="5.53009">
        <ele>498.2</ele>
        <time>2022-08-20T15:14:02Z</time>
      </trkpt>
      <trkpt lat="46.59869" lon="5.53011">
        <ele>498</ele>
        <time>2022-08-20T15:14:03Z</time>
      </trkpt>
      <trkpt lat="46.59871" lon="5.53012">
        <ele>498</ele>
        <time>2022-08-20T15:14:04Z</time>
      </trkpt>
      <trkpt lat="46.59873" lon="5.53013">
        <ele>498</ele>
        <time>2022-08-20T15:14:05Z</time>
      </trkpt>
      <trkpt lat="46.59876" lon="5.53015">
        <ele>497.8</ele>
        <time>2022-08-20T15:14:07Z</time>
      </trkpt>
      <trkpt lat="46.59878" lon="5.53016">
        <ele>497.6</ele>
        <time>2022-08-20T15:14:08Z</time>
      </trkpt>
      <trkpt lat="46.59882" lon="5.53017">
        <ele>497.4</ele>
        <time>2022-08-20T15:14:10Z</time>
      </trkpt>
      <trkpt lat="46.59885" lon="5.53018">
        <ele>497.2</ele>
        <time>2022-08-20T15:14:12Z</time>
      </trkpt>
      <trkpt lat="46.59887" lon="5.5302">
        <ele>497</ele>
        <time>2022-08-20T15:14:14Z</time>
      </trkpt>
      <trkpt lat="46.5989" lon="5.53022">
        <ele>496.8</ele>
        <time>2022-08-20T15:14:16Z</time>
      </trkpt>
      <trkpt lat="46.59892" lon="5.53023">
        <ele>496.8</ele>
        <time>2022-08-20T15:14:17Z</time>
      </trkpt>
      <trkpt lat="46.59894" lon="5.53024">
        <ele>496.8</ele>
        <time>2022-08-20T15:14:18Z</time>
      </trkpt>
      <trkpt lat="46.59896" lon="5.53026">
        <ele>496.8</ele>
        <time>2022-08-20T15:14:19Z</time>
      </trkpt>
      <trkpt lat="46.59898" lon="5.53026">
        <ele>496.6</ele>
        <time>2022-08-20T15:14:21Z</time>
      </trkpt>
      <trkpt lat="46.59901" lon="5.53026">
        <ele>496.6</ele>
        <time>2022-08-20T15:14:23Z</time>
      </trkpt>
      <trkpt lat="46.59903" lon="5.53027">
        <ele>496.6</ele>
        <time>2022-08-20T15:14:25Z</time>
      </trkpt>
      <trkpt lat="46.59905" lon="5.53027">
        <ele>496.6</ele>
        <time>2022-08-20T15:14:26Z</time>
      </trkpt>
      <trkpt lat="46.59909" lon="5.53026">
        <ele>496.4</ele>
        <time>2022-08-20T15:14:28Z</time>
      </trkpt>
      <trkpt lat="46.59911" lon="5.53026">
        <ele>496.2</ele>
        <time>2022-08-20T15:14:30Z</time>
      </trkpt>
      <trkpt lat="46.59914" lon="5.53027">
        <ele>496.4</ele>
        <time>2022-08-20T15:14:31Z</time>
      </trkpt>
      <trkpt lat="46.59916" lon="5.53029">
        <ele>496.6</ele>
        <time>2022-08-20T15:14:33Z</time>
      </trkpt>
      <trkpt lat="46.59918" lon="5.5303">
        <ele>496.8</ele>
        <time>2022-08-20T15:14:35Z</time>
      </trkpt>
      <trkpt lat="46.59921" lon="5.53031">
        <ele>496.8</ele>
        <time>2022-08-20T15:14:37Z</time>
      </trkpt>
      <trkpt lat="46.59923" lon="5.53031">
        <ele>496.8</ele>
        <time>2022-08-20T15:14:38Z</time>
      </trkpt>
      <trkpt lat="46.59926" lon="5.53031">
        <ele>497.2</ele>
        <time>2022-08-20T15:14:40Z</time>
      </trkpt>
      <trkpt lat="46.59928" lon="5.53031">
        <ele>497.2</ele>
        <time>2022-08-20T15:14:41Z</time>
      </trkpt>
      <trkpt lat="46.59931" lon="5.53032">
        <ele>497.6</ele>
        <time>2022-08-20T15:14:43Z</time>
      </trkpt>
      <trkpt lat="46.59933" lon="5.53031">
        <ele>497.8</ele>
        <time>2022-08-20T15:14:45Z</time>
      </trkpt>
      <trkpt lat="46.59937" lon="5.5303">
        <ele>498</ele>
        <time>2022-08-20T15:14:47Z</time>
      </trkpt>
      <trkpt lat="46.5994" lon="5.53029">
        <ele>498.2</ele>
        <time>2022-08-20T15:14:49Z</time>
      </trkpt>
      <trkpt lat="46.59943" lon="5.53029">
        <ele>498.4</ele>
        <time>2022-08-20T15:14:51Z</time>
      </trkpt>
      <trkpt lat="46.59945" lon="5.53029">
        <ele>498.4</ele>
        <time>2022-08-20T15:14:53Z</time>
      </trkpt>
      <trkpt lat="46.59948" lon="5.53028">
        <ele>498.6</ele>
        <time>2022-08-20T15:14:55Z</time>
      </trkpt>
      <trkpt lat="46.59949" lon="5.53027">
        <ele>499</ele>
        <time>2022-08-20T15:14:57Z</time>
      </trkpt>
      <trkpt lat="46.59952" lon="5.53026">
        <ele>499.4</ele>
        <time>2022-08-20T15:15:00Z</time>
      </trkpt>
      <trkpt lat="46.59955" lon="5.53026">
        <ele>499.8</ele>
        <time>2022-08-20T15:15:03Z</time>
      </trkpt>
      <trkpt lat="46.59957" lon="5.53025">
        <ele>500</ele>
        <time>2022-08-20T15:15:04Z</time>
      </trkpt>
      <trkpt lat="46.5996" lon="5.53024">
        <ele>500.2</ele>
        <time>2022-08-20T15:15:06Z</time>
      </trkpt>
      <trkpt lat="46.59963" lon="5.53023">
        <ele>500.6</ele>
        <time>2022-08-20T15:15:08Z</time>
      </trkpt>
      <trkpt lat="46.59965" lon="5.53022">
        <ele>501</ele>
        <time>2022-08-20T15:15:10Z</time>
      </trkpt>
      <trkpt lat="46.59968" lon="5.53023">
        <ele>501.2</ele>
        <time>2022-08-20T15:15:11Z</time>
      </trkpt>
      <trkpt lat="46.5997" lon="5.53023">
        <ele>501.4</ele>
        <time>2022-08-20T15:15:12Z</time>
      </trkpt>
      <trkpt lat="46.59973" lon="5.53023">
        <ele>501.6</ele>
        <time>2022-08-20T15:15:14Z</time>
      </trkpt>
      <trkpt lat="46.59975" lon="5.53019">
        <ele>502</ele>
        <time>2022-08-20T15:15:17Z</time>
      </trkpt>
      <trkpt lat="46.59977" lon="5.53017">
        <ele>502.2</ele>
        <time>2022-08-20T15:15:19Z</time>
      </trkpt>
      <trkpt lat="46.5998" lon="5.53016">
        <ele>502.4</ele>
        <time>2022-08-20T15:15:21Z</time>
      </trkpt>
      <trkpt lat="46.59983" lon="5.53014">
        <ele>502.8</ele>
        <time>2022-08-20T15:15:23Z</time>
      </trkpt>
      <trkpt lat="46.59985" lon="5.53013">
        <ele>502.8</ele>
        <time>2022-08-20T15:15:24Z</time>
      </trkpt>
      <trkpt lat="46.59987" lon="5.53013">
        <ele>503</ele>
        <time>2022-08-20T15:15:25Z</time>
      </trkpt>
      <trkpt lat="46.59989" lon="5.53012">
        <ele>503</ele>
        <time>2022-08-20T15:15:26Z</time>
      </trkpt>
      <trkpt lat="46.59992" lon="5.53012">
        <ele>503</ele>
        <time>2022-08-20T15:15:27Z</time>
      </trkpt>
      <trkpt lat="46.59995" lon="5.53011">
        <ele>503.2</ele>
        <time>2022-08-20T15:15:29Z</time>
      </trkpt>
      <trkpt lat="46.59997" lon="5.53009">
        <ele>503.4</ele>
        <time>2022-08-20T15:15:31Z</time>
      </trkpt>
      <trkpt lat="46.59999" lon="5.53009">
        <ele>503.6</ele>
        <time>2022-08-20T15:15:32Z</time>
      </trkpt>
      <trkpt lat="46.60001" lon="5.53009">
        <ele>503.6</ele>
        <time>2022-08-20T15:15:33Z</time>
      </trkpt>
      <trkpt lat="46.60004" lon="5.53008">
        <ele>504.2</ele>
        <time>2022-08-20T15:15:35Z</time>
      </trkpt>
      <trkpt lat="46.60007" lon="5.53007">
        <ele>504.4</ele>
        <time>2022-08-20T15:15:37Z</time>
      </trkpt>
      <trkpt lat="46.60009" lon="5.53007">
        <ele>504.8</ele>
        <time>2022-08-20T15:15:39Z</time>
      </trkpt>
      <trkpt lat="46.60012" lon="5.53006">
        <ele>505</ele>
        <time>2022-08-20T15:15:41Z</time>
      </trkpt>
      <trkpt lat="46.60014" lon="5.53005">
        <ele>505</ele>
        <time>2022-08-20T15:15:43Z</time>
      </trkpt>
      <trkpt lat="46.60017" lon="5.53005">
        <ele>505.2</ele>
        <time>2022-08-20T15:15:45Z</time>
      </trkpt>
      <trkpt lat="46.6002" lon="5.53005">
        <ele>505.4</ele>
        <time>2022-08-20T15:15:47Z</time>
      </trkpt>
      <trkpt lat="46.60022" lon="5.53005">
        <ele>505.6</ele>
        <time>2022-08-20T15:15:49Z</time>
      </trkpt>
      <trkpt lat="46.60026" lon="5.53004">
        <ele>505.8</ele>
        <time>2022-08-20T15:15:51Z</time>
      </trkpt>
      <trkpt lat="46.60029" lon="5.53002">
        <ele>505.8</ele>
        <time>2022-08-20T15:15:53Z</time>
      </trkpt>
      <trkpt lat="46.60031" lon="5.53">
        <ele>506</ele>
        <time>2022-08-20T15:15:55Z</time>
      </trkpt>
      <trkpt lat="46.60033" lon="5.52998">
        <ele>506</ele>
        <time>2022-08-20T15:15:56Z</time>
      </trkpt>
      <trkpt lat="46.60035" lon="5.52997">
        <ele>506</ele>
        <time>2022-08-20T15:15:57Z</time>
      </trkpt>
      <trkpt lat="46.60037" lon="5.52997">
        <ele>506</ele>
        <time>2022-08-20T15:15:58Z</time>
      </trkpt>
      <trkpt lat="46.60039" lon="5.52997">
        <ele>506.2</ele>
        <time>2022-08-20T15:15:59Z</time>
      </trkpt>
      <trkpt lat="46.60041" lon="5.52997">
        <ele>506.2</ele>
        <time>2022-08-20T15:16:00Z</time>
      </trkpt>
      <trkpt lat="46.60043" lon="5.52997">
        <ele>506.2</ele>
        <time>2022-08-20T15:16:01Z</time>
      </trkpt>
      <trkpt lat="46.60047" lon="5.52995">
        <ele>506.4</ele>
        <time>2022-08-20T15:16:03Z</time>
      </trkpt>
      <trkpt lat="46.60049" lon="5.52994">
        <ele>506.4</ele>
        <time>2022-08-20T15:16:04Z</time>
      </trkpt>
      <trkpt lat="46.60051" lon="5.52994">
        <ele>506.4</ele>
        <time>2022-08-20T15:16:05Z</time>
      </trkpt>
      <trkpt lat="46.60054" lon="5.52993">
        <ele>506.2</ele>
        <time>2022-08-20T15:16:07Z</time>
      </trkpt>
      <trkpt lat="46.60057" lon="5.52992">
        <ele>506.2</ele>
        <time>2022-08-20T15:16:09Z</time>
      </trkpt>
      <trkpt lat="46.60059" lon="5.52991">
        <ele>506.4</ele>
        <time>2022-08-20T15:16:11Z</time>
      </trkpt>
      <trkpt lat="46.60062" lon="5.52989">
        <ele>506.4</ele>
        <time>2022-08-20T15:16:13Z</time>
      </trkpt>
      <trkpt lat="46.60065" lon="5.52987">
        <ele>506.4</ele>
        <time>2022-08-20T15:16:15Z</time>
      </trkpt>
      <trkpt lat="46.60067" lon="5.52987">
        <ele>506.6</ele>
        <time>2022-08-20T15:16:16Z</time>
      </trkpt>
      <trkpt lat="46.6007" lon="5.52987">
        <ele>506.6</ele>
        <time>2022-08-20T15:16:18Z</time>
      </trkpt>
      <trkpt lat="46.60072" lon="5.52988">
        <ele>506.8</ele>
        <time>2022-08-20T15:16:19Z</time>
      </trkpt>
      <trkpt lat="46.60075" lon="5.52987">
        <ele>506.8</ele>
        <time>2022-08-20T15:16:20Z</time>
      </trkpt>
      <trkpt lat="46.60077" lon="5.52987">
        <ele>507</ele>
        <time>2022-08-20T15:16:21Z</time>
      </trkpt>
      <trkpt lat="46.60078" lon="5.52987">
        <ele>507</ele>
        <time>2022-08-20T15:16:22Z</time>
      </trkpt>
      <trkpt lat="46.6008" lon="5.52987">
        <ele>507.2</ele>
        <time>2022-08-20T15:16:23Z</time>
      </trkpt>
      <trkpt lat="46.60084" lon="5.52987">
        <ele>507.4</ele>
        <time>2022-08-20T15:16:25Z</time>
      </trkpt>
      <trkpt lat="46.60086" lon="5.52987">
        <ele>507.4</ele>
        <time>2022-08-20T15:16:27Z</time>
      </trkpt>
      <trkpt lat="46.6009" lon="5.52987">
        <ele>507.6</ele>
        <time>2022-08-20T15:16:29Z</time>
      </trkpt>
      <trkpt lat="46.60092" lon="5.52986">
        <ele>507.6</ele>
        <time>2022-08-20T15:16:31Z</time>
      </trkpt>
      <trkpt lat="46.60094" lon="5.52986">
        <ele>507.6</ele>
        <time>2022-08-20T15:16:33Z</time>
      </trkpt>
      <trkpt lat="46.60098" lon="5.52987">
        <ele>507.8</ele>
        <time>2022-08-20T15:16:35Z</time>
      </trkpt>
      <trkpt lat="46.601" lon="5.52987">
        <ele>507.8</ele>
        <time>2022-08-20T15:16:36Z</time>
      </trkpt>
      <trkpt lat="46.60103" lon="5.52987">
        <ele>507.8</ele>
        <time>2022-08-20T15:16:38Z</time>
      </trkpt>
      <trkpt lat="46.60106" lon="5.52988">
        <ele>507.8</ele>
        <time>2022-08-20T15:16:40Z</time>
      </trkpt>
      <trkpt lat="46.60109" lon="5.52987">
        <ele>507.8</ele>
        <time>2022-08-20T15:16:42Z</time>
      </trkpt>
      <trkpt lat="46.60112" lon="5.52987">
        <ele>507.8</ele>
        <time>2022-08-20T15:16:44Z</time>
      </trkpt>
      <trkpt lat="46.60114" lon="5.52987">
        <ele>507.6</ele>
        <time>2022-08-20T15:16:45Z</time>
      </trkpt>
      <trkpt lat="46.60116" lon="5.52987">
        <ele>507.6</ele>
        <time>2022-08-20T15:16:46Z</time>
      </trkpt>
      <trkpt lat="46.60118" lon="5.52987">
        <ele>507.6</ele>
        <time>2022-08-20T15:16:47Z</time>
      </trkpt>
      <trkpt lat="46.6012" lon="5.52986">
        <ele>507.6</ele>
        <time>2022-08-20T15:16:48Z</time>
      </trkpt>
      <trkpt lat="46.60123" lon="5.52986">
        <ele>507.6</ele>
        <time>2022-08-20T15:16:49Z</time>
      </trkpt>
      <trkpt lat="46.60126" lon="5.52986">
        <ele>507.8</ele>
        <time>2022-08-20T15:16:50Z</time>
      </trkpt>
      <trkpt lat="46.60128" lon="5.52986">
        <ele>507.8</ele>
        <time>2022-08-20T15:16:51Z</time>
      </trkpt>
      <trkpt lat="46.60131" lon="5.52986">
        <ele>508</ele>
        <time>2022-08-20T15:16:52Z</time>
      </trkpt>
      <trkpt lat="46.60133" lon="5.52986">
        <ele>508</ele>
        <time>2022-08-20T15:16:53Z</time>
      </trkpt>
      <trkpt lat="46.60136" lon="5.52986">
        <ele>508</ele>
        <time>2022-08-20T15:16:54Z</time>
      </trkpt>
      <trkpt lat="46.60138" lon="5.52986">
        <ele>508.2</ele>
        <time>2022-08-20T15:16:55Z</time>
      </trkpt>
      <trkpt lat="46.60141" lon="5.52985">
        <ele>508.2</ele>
        <time>2022-08-20T15:16:56Z</time>
      </trkpt>
      <trkpt lat="46.60143" lon="5.52985">
        <ele>508.2</ele>
        <time>2022-08-20T15:16:57Z</time>
      </trkpt>
      <trkpt lat="46.60146" lon="5.52986">
        <ele>508.2</ele>
        <time>2022-08-20T15:16:58Z</time>
      </trkpt>
      <trkpt lat="46.60149" lon="5.52986">
        <ele>508.2</ele>
        <time>2022-08-20T15:16:59Z</time>
      </trkpt>
      <trkpt lat="46.60151" lon="5.52985">
        <ele>508.2</ele>
        <time>2022-08-20T15:17:00Z</time>
      </trkpt>
      <trkpt lat="46.60153" lon="5.52985">
        <ele>508.2</ele>
        <time>2022-08-20T15:17:01Z</time>
      </trkpt>
      <trkpt lat="46.60156" lon="5.52985">
        <ele>508.4</ele>
        <time>2022-08-20T15:17:02Z</time>
      </trkpt>
      <trkpt lat="46.60158" lon="5.52986">
        <ele>508.4</ele>
        <time>2022-08-20T15:17:03Z</time>
      </trkpt>
      <trkpt lat="46.6016" lon="5.52986">
        <ele>508.4</ele>
        <time>2022-08-20T15:17:04Z</time>
      </trkpt>
      <trkpt lat="46.60164" lon="5.52986">
        <ele>508.4</ele>
        <time>2022-08-20T15:17:05Z</time>
      </trkpt>
      <trkpt lat="46.60167" lon="5.52986">
        <ele>508.4</ele>
        <time>2022-08-20T15:17:06Z</time>
      </trkpt>
      <trkpt lat="46.6017" lon="5.52987">
        <ele>508.4</ele>
        <time>2022-08-20T15:17:07Z</time>
      </trkpt>
      <trkpt lat="46.60173" lon="5.52988">
        <ele>508.6</ele>
        <time>2022-08-20T15:17:08Z</time>
      </trkpt>
      <trkpt lat="46.60176" lon="5.52989">
        <ele>508.6</ele>
        <time>2022-08-20T15:17:09Z</time>
      </trkpt>
      <trkpt lat="46.6018" lon="5.5299">
        <ele>508.8</ele>
        <time>2022-08-20T15:17:10Z</time>
      </trkpt>
      <trkpt lat="46.60183" lon="5.5299">
        <ele>508.8</ele>
        <time>2022-08-20T15:17:11Z</time>
      </trkpt>
      <trkpt lat="46.60187" lon="5.52991">
        <ele>509</ele>
        <time>2022-08-20T15:17:12Z</time>
      </trkpt>
      <trkpt lat="46.60191" lon="5.5299">
        <ele>509.2</ele>
        <time>2022-08-20T15:17:13Z</time>
      </trkpt>
      <trkpt lat="46.60194" lon="5.5299">
        <ele>509.2</ele>
        <time>2022-08-20T15:17:14Z</time>
      </trkpt>
      <trkpt lat="46.60197" lon="5.52991">
        <ele>509.4</ele>
        <time>2022-08-20T15:17:15Z</time>
      </trkpt>
      <trkpt lat="46.602" lon="5.52991">
        <ele>509.4</ele>
        <time>2022-08-20T15:17:16Z</time>
      </trkpt>
      <trkpt lat="46.60203" lon="5.52992">
        <ele>509.6</ele>
        <time>2022-08-20T15:17:17Z</time>
      </trkpt>
      <trkpt lat="46.60205" lon="5.52993">
        <ele>509.6</ele>
        <time>2022-08-20T15:17:18Z</time>
      </trkpt>
      <trkpt lat="46.60208" lon="5.52994">
        <ele>509.8</ele>
        <time>2022-08-20T15:17:19Z</time>
      </trkpt>
      <trkpt lat="46.60211" lon="5.52995">
        <ele>509.8</ele>
        <time>2022-08-20T15:17:20Z</time>
      </trkpt>
      <trkpt lat="46.60215" lon="5.52996">
        <ele>509.8</ele>
        <time>2022-08-20T15:17:21Z</time>
      </trkpt>
      <trkpt lat="46.60219" lon="5.52997">
        <ele>510</ele>
        <time>2022-08-20T15:17:22Z</time>
      </trkpt>
      <trkpt lat="46.60222" lon="5.52999">
        <ele>510</ele>
        <time>2022-08-20T15:17:23Z</time>
      </trkpt>
      <trkpt lat="46.60225" lon="5.53">
        <ele>510</ele>
        <time>2022-08-20T15:17:24Z</time>
      </trkpt>
      <trkpt lat="46.60228" lon="5.53001">
        <ele>510.2</ele>
        <time>2022-08-20T15:17:25Z</time>
      </trkpt>
      <trkpt lat="46.60229" lon="5.53001">
        <ele>510.2</ele>
        <time>2022-08-20T15:17:26Z</time>
      </trkpt>
      <trkpt lat="46.60232" lon="5.53">
        <ele>510.6</ele>
        <time>2022-08-20T15:17:28Z</time>
      </trkpt>
      <trkpt lat="46.60236" lon="5.53001">
        <ele>510.8</ele>
        <time>2022-08-20T15:17:30Z</time>
      </trkpt>
      <trkpt lat="46.60238" lon="5.53002">
        <ele>510.8</ele>
        <time>2022-08-20T15:17:31Z</time>
      </trkpt>
      <trkpt lat="46.60241" lon="5.53003">
        <ele>511</ele>
        <time>2022-08-20T15:17:32Z</time>
      </trkpt>
      <trkpt lat="46.60243" lon="5.53003">
        <ele>511.2</ele>
        <time>2022-08-20T15:17:33Z</time>
      </trkpt>
      <trkpt lat="46.60245" lon="5.53002">
        <ele>511.2</ele>
        <time>2022-08-20T15:17:34Z</time>
      </trkpt>
      <trkpt lat="46.60247" lon="5.53001">
        <ele>511.4</ele>
        <time>2022-08-20T15:17:36Z</time>
      </trkpt>
      <trkpt lat="46.60249" lon="5.52999">
        <ele>511.6</ele>
        <time>2022-08-20T15:17:38Z</time>
      </trkpt>
      <trkpt lat="46.60252" lon="5.52996">
        <ele>511.6</ele>
        <time>2022-08-20T15:17:40Z</time>
      </trkpt>
      <trkpt lat="46.60254" lon="5.52996">
        <ele>511.8</ele>
        <time>2022-08-20T15:17:41Z</time>
      </trkpt>
      <trkpt lat="46.60257" lon="5.52993">
        <ele>512</ele>
        <time>2022-08-20T15:17:43Z</time>
      </trkpt>
      <trkpt lat="46.60259" lon="5.52992">
        <ele>512.2</ele>
        <time>2022-08-20T15:17:45Z</time>
      </trkpt>
      <trkpt lat="46.60261" lon="5.5299">
        <ele>512.2</ele>
        <time>2022-08-20T15:17:47Z</time>
      </trkpt>
      <trkpt lat="46.60263" lon="5.52987">
        <ele>512.4</ele>
        <time>2022-08-20T15:17:49Z</time>
      </trkpt>
      <trkpt lat="46.60264" lon="5.52985">
        <ele>512.4</ele>
        <time>2022-08-20T15:17:51Z</time>
      </trkpt>
      <trkpt lat="46.60267" lon="5.52984">
        <ele>512.6</ele>
        <time>2022-08-20T15:17:53Z</time>
      </trkpt>
      <trkpt lat="46.60269" lon="5.52984">
        <ele>512.8</ele>
        <time>2022-08-20T15:17:54Z</time>
      </trkpt>
      <trkpt lat="46.60272" lon="5.52983">
        <ele>512.8</ele>
        <time>2022-08-20T15:17:56Z</time>
      </trkpt>
      <trkpt lat="46.60274" lon="5.52984">
        <ele>512.8</ele>
        <time>2022-08-20T15:17:57Z</time>
      </trkpt>
      <trkpt lat="46.60276" lon="5.52985">
        <ele>512.8</ele>
        <time>2022-08-20T15:17:58Z</time>
      </trkpt>
      <trkpt lat="46.60278" lon="5.52986">
        <ele>513</ele>
        <time>2022-08-20T15:17:59Z</time>
      </trkpt>
      <trkpt lat="46.6028" lon="5.52987">
        <ele>513</ele>
        <time>2022-08-20T15:18:01Z</time>
      </trkpt>
      <trkpt lat="46.60283" lon="5.52985">
        <ele>513.4</ele>
        <time>2022-08-20T15:18:04Z</time>
      </trkpt>
      <trkpt lat="46.60285" lon="5.52984">
        <ele>513.6</ele>
        <time>2022-08-20T15:18:06Z</time>
      </trkpt>
      <trkpt lat="46.60286" lon="5.52982">
        <ele>513.6</ele>
        <time>2022-08-20T15:18:08Z</time>
      </trkpt>
      <trkpt lat="46.60288" lon="5.52981">
        <ele>513.6</ele>
        <time>2022-08-20T15:18:09Z</time>
      </trkpt>
      <trkpt lat="46.60289" lon="5.52979">
        <ele>513.6</ele>
        <time>2022-08-20T15:18:11Z</time>
      </trkpt>
      <trkpt lat="46.60291" lon="5.52976">
        <ele>513.4</ele>
        <time>2022-08-20T15:18:13Z</time>
      </trkpt>
      <trkpt lat="46.60293" lon="5.52975">
        <ele>513.6</ele>
        <time>2022-08-20T15:18:15Z</time>
      </trkpt>
      <trkpt lat="46.60295" lon="5.52975">
        <ele>513.8</ele>
        <time>2022-08-20T15:18:16Z</time>
      </trkpt>
      <trkpt lat="46.60297" lon="5.52976">
        <ele>513.8</ele>
        <time>2022-08-20T15:18:17Z</time>
      </trkpt>
      <trkpt lat="46.60301" lon="5.52976">
        <ele>514</ele>
        <time>2022-08-20T15:18:18Z</time>
      </trkpt>
      <trkpt lat="46.60303" lon="5.52977">
        <ele>514</ele>
        <time>2022-08-20T15:18:19Z</time>
      </trkpt>
      <trkpt lat="46.60305" lon="5.52977">
        <ele>514</ele>
        <time>2022-08-20T15:18:20Z</time>
      </trkpt>
      <trkpt lat="46.60307" lon="5.52975">
        <ele>514</ele>
        <time>2022-08-20T15:18:22Z</time>
      </trkpt>
      <trkpt lat="46.60309" lon="5.52972">
        <ele>514</ele>
        <time>2022-08-20T15:18:24Z</time>
      </trkpt>
      <trkpt lat="46.60311" lon="5.52972">
        <ele>514</ele>
        <time>2022-08-20T15:18:26Z</time>
      </trkpt>
      <trkpt lat="46.60315" lon="5.52974">
        <ele>513.8</ele>
        <time>2022-08-20T15:18:28Z</time>
      </trkpt>
      <trkpt lat="46.60317" lon="5.52975">
        <ele>513.8</ele>
        <time>2022-08-20T15:18:29Z</time>
      </trkpt>
      <trkpt lat="46.60319" lon="5.52976">
        <ele>513.6</ele>
        <time>2022-08-20T15:18:30Z</time>
      </trkpt>
      <trkpt lat="46.60321" lon="5.52976">
        <ele>513.4</ele>
        <time>2022-08-20T15:18:32Z</time>
      </trkpt>
      <trkpt lat="46.60324" lon="5.52976">
        <ele>513.2</ele>
        <time>2022-08-20T15:18:34Z</time>
      </trkpt>
      <trkpt lat="46.60327" lon="5.52974">
        <ele>513</ele>
        <time>2022-08-20T15:18:36Z</time>
      </trkpt>
      <trkpt lat="46.60329" lon="5.52974">
        <ele>513</ele>
        <time>2022-08-20T15:18:37Z</time>
      </trkpt>
      <trkpt lat="46.60331" lon="5.52973">
        <ele>513</ele>
        <time>2022-08-20T15:18:38Z</time>
      </trkpt>
      <trkpt lat="46.60333" lon="5.52972">
        <ele>513</ele>
        <time>2022-08-20T15:18:40Z</time>
      </trkpt>
      <trkpt lat="46.60336" lon="5.52972">
        <ele>513</ele>
        <time>2022-08-20T15:18:42Z</time>
      </trkpt>
      <trkpt lat="46.60338" lon="5.52971">
        <ele>513</ele>
        <time>2022-08-20T15:18:45Z</time>
      </trkpt>
      <trkpt lat="46.60341" lon="5.52971">
        <ele>513.2</ele>
        <time>2022-08-20T15:18:47Z</time>
      </trkpt>
      <trkpt lat="46.60344" lon="5.52972">
        <ele>513</ele>
        <time>2022-08-20T15:18:49Z</time>
      </trkpt>
      <trkpt lat="46.60348" lon="5.52972">
        <ele>513</ele>
        <time>2022-08-20T15:18:51Z</time>
      </trkpt>
      <trkpt lat="46.6035" lon="5.52972">
        <ele>512.8</ele>
        <time>2022-08-20T15:18:52Z</time>
      </trkpt>
      <trkpt lat="46.60352" lon="5.52972">
        <ele>512.8</ele>
        <time>2022-08-20T15:18:53Z</time>
      </trkpt>
      <trkpt lat="46.60354" lon="5.52973">
        <ele>512.6</ele>
        <time>2022-08-20T15:18:54Z</time>
      </trkpt>
      <trkpt lat="46.60356" lon="5.52974">
        <ele>512.6</ele>
        <time>2022-08-20T15:18:55Z</time>
      </trkpt>
      <trkpt lat="46.60362" lon="5.52976">
        <ele>512.4</ele>
        <time>2022-08-20T15:18:57Z</time>
      </trkpt>
      <trkpt lat="46.60363" lon="5.52976">
        <ele>512.4</ele>
        <time>2022-08-20T15:18:58Z</time>
      </trkpt>
      <trkpt lat="46.60366" lon="5.52977">
        <ele>512.4</ele>
        <time>2022-08-20T15:18:59Z</time>
      </trkpt>
      <trkpt lat="46.60369" lon="5.52979">
        <ele>512.2</ele>
        <time>2022-08-20T15:19:00Z</time>
      </trkpt>
      <trkpt lat="46.60371" lon="5.5298">
        <ele>512.2</ele>
        <time>2022-08-20T15:19:01Z</time>
      </trkpt>
      <trkpt lat="46.60374" lon="5.52982">
        <ele>512</ele>
        <time>2022-08-20T15:19:02Z</time>
      </trkpt>
      <trkpt lat="46.60376" lon="5.52984">
        <ele>512</ele>
        <time>2022-08-20T15:19:03Z</time>
      </trkpt>
      <trkpt lat="46.6038" lon="5.52986">
        <ele>512</ele>
        <time>2022-08-20T15:19:04Z</time>
      </trkpt>
      <trkpt lat="46.60382" lon="5.52989">
        <ele>512</ele>
        <time>2022-08-20T15:19:05Z</time>
      </trkpt>
      <trkpt lat="46.60384" lon="5.52991">
        <ele>512</ele>
        <time>2022-08-20T15:19:06Z</time>
      </trkpt>
      <trkpt lat="46.60387" lon="5.52993">
        <ele>512</ele>
        <time>2022-08-20T15:19:07Z</time>
      </trkpt>
      <trkpt lat="46.60389" lon="5.52994">
        <ele>512</ele>
        <time>2022-08-20T15:19:08Z</time>
      </trkpt>
      <trkpt lat="46.60391" lon="5.52995">
        <ele>512</ele>
        <time>2022-08-20T15:19:09Z</time>
      </trkpt>
      <trkpt lat="46.60394" lon="5.52997">
        <ele>512.2</ele>
        <time>2022-08-20T15:19:10Z</time>
      </trkpt>
      <trkpt lat="46.60396" lon="5.52999">
        <ele>512.2</ele>
        <time>2022-08-20T15:19:11Z</time>
      </trkpt>
      <trkpt lat="46.60399" lon="5.53001">
        <ele>512.2</ele>
        <time>2022-08-20T15:19:12Z</time>
      </trkpt>
      <trkpt lat="46.60401" lon="5.53004">
        <ele>512.2</ele>
        <time>2022-08-20T15:19:13Z</time>
      </trkpt>
      <trkpt lat="46.60403" lon="5.53007">
        <ele>512.2</ele>
        <time>2022-08-20T15:19:14Z</time>
      </trkpt>
      <trkpt lat="46.60406" lon="5.5301">
        <ele>512.2</ele>
        <time>2022-08-20T15:19:15Z</time>
      </trkpt>
      <trkpt lat="46.6041" lon="5.53012">
        <ele>512.2</ele>
        <time>2022-08-20T15:19:16Z</time>
      </trkpt>
      <trkpt lat="46.60412" lon="5.53013">
        <ele>512.2</ele>
        <time>2022-08-20T15:19:17Z</time>
      </trkpt>
      <trkpt lat="46.60414" lon="5.53014">
        <ele>512.2</ele>
        <time>2022-08-20T15:19:18Z</time>
      </trkpt>
      <trkpt lat="46.60417" lon="5.53016">
        <ele>512.2</ele>
        <time>2022-08-20T15:19:19Z</time>
      </trkpt>
      <trkpt lat="46.60419" lon="5.53018">
        <ele>512.2</ele>
        <time>2022-08-20T15:19:20Z</time>
      </trkpt>
      <trkpt lat="46.60421" lon="5.5302">
        <ele>512.2</ele>
        <time>2022-08-20T15:19:21Z</time>
      </trkpt>
      <trkpt lat="46.60423" lon="5.5302">
        <ele>512</ele>
        <time>2022-08-20T15:19:22Z</time>
      </trkpt>
      <trkpt lat="46.60425" lon="5.5302">
        <ele>512</ele>
        <time>2022-08-20T15:19:23Z</time>
      </trkpt>
      <trkpt lat="46.60431" lon="5.53023">
        <ele>512</ele>
        <time>2022-08-20T15:19:25Z</time>
      </trkpt>
      <trkpt lat="46.60432" lon="5.53023">
        <ele>511.8</ele>
        <time>2022-08-20T15:19:26Z</time>
      </trkpt>
      <trkpt lat="46.60436" lon="5.53024">
        <ele>511.8</ele>
        <time>2022-08-20T15:19:27Z</time>
      </trkpt>
      <trkpt lat="46.6044" lon="5.53024">
        <ele>511.8</ele>
        <time>2022-08-20T15:19:28Z</time>
      </trkpt>
      <trkpt lat="46.60443" lon="5.53025">
        <ele>511.6</ele>
        <time>2022-08-20T15:19:29Z</time>
      </trkpt>
      <trkpt lat="46.60446" lon="5.53026">
        <ele>511.6</ele>
        <time>2022-08-20T15:19:30Z</time>
      </trkpt>
      <trkpt lat="46.60449" lon="5.53026">
        <ele>511.4</ele>
        <time>2022-08-20T15:19:31Z</time>
      </trkpt>
      <trkpt lat="46.60453" lon="5.53027">
        <ele>511.4</ele>
        <time>2022-08-20T15:19:32Z</time>
      </trkpt>
      <trkpt lat="46.60456" lon="5.53028">
        <ele>511.2</ele>
        <time>2022-08-20T15:19:33Z</time>
      </trkpt>
      <trkpt lat="46.60459" lon="5.53028">
        <ele>511</ele>
        <time>2022-08-20T15:19:34Z</time>
      </trkpt>
      <trkpt lat="46.60462" lon="5.53028">
        <ele>510.8</ele>
        <time>2022-08-20T15:19:35Z</time>
      </trkpt>
      <trkpt lat="46.60464" lon="5.53028">
        <ele>510.8</ele>
        <time>2022-08-20T15:19:36Z</time>
      </trkpt>
      <trkpt lat="46.60467" lon="5.53029">
        <ele>510.6</ele>
        <time>2022-08-20T15:19:37Z</time>
      </trkpt>
      <trkpt lat="46.60471" lon="5.53029">
        <ele>510.4</ele>
        <time>2022-08-20T15:19:38Z</time>
      </trkpt>
      <trkpt lat="46.60474" lon="5.5303">
        <ele>510.2</ele>
        <time>2022-08-20T15:19:39Z</time>
      </trkpt>
      <trkpt lat="46.60477" lon="5.53031">
        <ele>510.2</ele>
        <time>2022-08-20T15:19:40Z</time>
      </trkpt>
      <trkpt lat="46.60481" lon="5.53031">
        <ele>510</ele>
        <time>2022-08-20T15:19:41Z</time>
      </trkpt>
      <trkpt lat="46.60485" lon="5.53032">
        <ele>509.8</ele>
        <time>2022-08-20T15:19:42Z</time>
      </trkpt>
      <trkpt lat="46.60489" lon="5.53031">
        <ele>509.6</ele>
        <time>2022-08-20T15:19:43Z</time>
      </trkpt>
      <trkpt lat="46.60493" lon="5.53031">
        <ele>509.6</ele>
        <time>2022-08-20T15:19:44Z</time>
      </trkpt>
      <trkpt lat="46.60497" lon="5.53031">
        <ele>509.4</ele>
        <time>2022-08-20T15:19:45Z</time>
      </trkpt>
      <trkpt lat="46.60501" lon="5.53031">
        <ele>509.4</ele>
        <time>2022-08-20T15:19:46Z</time>
      </trkpt>
      <trkpt lat="46.60504" lon="5.5303">
        <ele>509.2</ele>
        <time>2022-08-20T15:19:47Z</time>
      </trkpt>
      <trkpt lat="46.60507" lon="5.53028">
        <ele>509.2</ele>
        <time>2022-08-20T15:19:48Z</time>
      </trkpt>
      <trkpt lat="46.60509" lon="5.53027">
        <ele>509.2</ele>
        <time>2022-08-20T15:19:49Z</time>
      </trkpt>
      <trkpt lat="46.60513" lon="5.53026">
        <ele>509</ele>
        <time>2022-08-20T15:19:50Z</time>
      </trkpt>
      <trkpt lat="46.60516" lon="5.53026">
        <ele>509</ele>
        <time>2022-08-20T15:19:51Z</time>
      </trkpt>
      <trkpt lat="46.60519" lon="5.53026">
        <ele>508.8</ele>
        <time>2022-08-20T15:19:52Z</time>
      </trkpt>
      <trkpt lat="46.60522" lon="5.53026">
        <ele>508.6</ele>
        <time>2022-08-20T15:19:53Z</time>
      </trkpt>
      <trkpt lat="46.60525" lon="5.53024">
        <ele>508.6</ele>
        <time>2022-08-20T15:19:54Z</time>
      </trkpt>
      <trkpt lat="46.60529" lon="5.53022">
        <ele>508.4</ele>
        <time>2022-08-20T15:19:55Z</time>
      </trkpt>
      <trkpt lat="46.60531" lon="5.53022">
        <ele>508.2</ele>
        <time>2022-08-20T15:19:56Z</time>
      </trkpt>
      <trkpt lat="46.60533" lon="5.53021">
        <ele>508.2</ele>
        <time>2022-08-20T15:19:57Z</time>
      </trkpt>
      <trkpt lat="46.60536" lon="5.5302">
        <ele>508</ele>
        <time>2022-08-20T15:19:58Z</time>
      </trkpt>
      <trkpt lat="46.60538" lon="5.53019">
        <ele>507.8</ele>
        <time>2022-08-20T15:19:59Z</time>
      </trkpt>
      <trkpt lat="46.60541" lon="5.53019">
        <ele>507.4</ele>
        <time>2022-08-20T15:20:00Z</time>
      </trkpt>
      <trkpt lat="46.60543" lon="5.53019">
        <ele>507.2</ele>
        <time>2022-08-20T15:20:01Z</time>
      </trkpt>
      <trkpt lat="46.60546" lon="5.53018">
        <ele>507</ele>
        <time>2022-08-20T15:20:02Z</time>
      </trkpt>
      <trkpt lat="46.60549" lon="5.53017">
        <ele>506.8</ele>
        <time>2022-08-20T15:20:03Z</time>
      </trkpt>
      <trkpt lat="46.60552" lon="5.53018">
        <ele>506.6</ele>
        <time>2022-08-20T15:20:04Z</time>
      </trkpt>
      <trkpt lat="46.60555" lon="5.53018">
        <ele>506.4</ele>
        <time>2022-08-20T15:20:05Z</time>
      </trkpt>
      <trkpt lat="46.60558" lon="5.53017">
        <ele>506.2</ele>
        <time>2022-08-20T15:20:06Z</time>
      </trkpt>
      <trkpt lat="46.6056" lon="5.53016">
        <ele>506</ele>
        <time>2022-08-20T15:20:07Z</time>
      </trkpt>
      <trkpt lat="46.60563" lon="5.53016">
        <ele>505.8</ele>
        <time>2022-08-20T15:20:08Z</time>
      </trkpt>
      <trkpt lat="46.60565" lon="5.53017">
        <ele>505.6</ele>
        <time>2022-08-20T15:20:09Z</time>
      </trkpt>
      <trkpt lat="46.60567" lon="5.53017">
        <ele>505.4</ele>
        <time>2022-08-20T15:20:10Z</time>
      </trkpt>
      <trkpt lat="46.60569" lon="5.53019">
        <ele>505.2</ele>
        <time>2022-08-20T15:20:12Z</time>
      </trkpt>
      <trkpt lat="46.60572" lon="5.5302">
        <ele>504.8</ele>
        <time>2022-08-20T15:20:16Z</time>
      </trkpt>
      <trkpt lat="46.60574" lon="5.53024">
        <ele>504.6</ele>
        <time>2022-08-20T15:20:18Z</time>
      </trkpt>
      <trkpt lat="46.60575" lon="5.53026">
        <ele>504.6</ele>
        <time>2022-08-20T15:20:19Z</time>
      </trkpt>
      <trkpt lat="46.60577" lon="5.5303">
        <ele>504.4</ele>
        <time>2022-08-20T15:20:21Z</time>
      </trkpt>
      <trkpt lat="46.60579" lon="5.53032">
        <ele>504.2</ele>
        <time>2022-08-20T15:20:23Z</time>
      </trkpt>
      <trkpt lat="46.60578" lon="5.53035">
        <ele>503.8</ele>
        <time>2022-08-20T15:20:26Z</time>
      </trkpt>
      <trkpt lat="46.60578" lon="5.53038">
        <ele>503.8</ele>
        <time>2022-08-20T15:20:28Z</time>
      </trkpt>
      <trkpt lat="46.6058" lon="5.5304">
        <ele>503.6</ele>
        <time>2022-08-20T15:20:30Z</time>
      </trkpt>
      <trkpt lat="46.60582" lon="5.53043">
        <ele>503.6</ele>
        <time>2022-08-20T15:20:32Z</time>
      </trkpt>
      <trkpt lat="46.60585" lon="5.53042">
        <ele>503.6</ele>
        <time>2022-08-20T15:20:34Z</time>
      </trkpt>
      <trkpt lat="46.60588" lon="5.53042">
        <ele>503.4</ele>
        <time>2022-08-20T15:20:36Z</time>
      </trkpt>
      <trkpt lat="46.6059" lon="5.53042">
        <ele>503.4</ele>
        <time>2022-08-20T15:20:37Z</time>
      </trkpt>
      <trkpt lat="46.60592" lon="5.53042">
        <ele>503.2</ele>
        <time>2022-08-20T15:20:38Z</time>
      </trkpt>
      <trkpt lat="46.60595" lon="5.53042">
        <ele>503</ele>
        <time>2022-08-20T15:20:40Z</time>
      </trkpt>
      <trkpt lat="46.60597" lon="5.53041">
        <ele>503</ele>
        <time>2022-08-20T15:20:42Z</time>
      </trkpt>
      <trkpt lat="46.60599" lon="5.5304">
        <ele>502.8</ele>
        <time>2022-08-20T15:20:44Z</time>
      </trkpt>
      <trkpt lat="46.60602" lon="5.53039">
        <ele>502.8</ele>
        <time>2022-08-20T15:20:46Z</time>
      </trkpt>
      <trkpt lat="46.60605" lon="5.5304">
        <ele>502.8</ele>
        <time>2022-08-20T15:20:47Z</time>
      </trkpt>
      <trkpt lat="46.60607" lon="5.53039">
        <ele>502.8</ele>
        <time>2022-08-20T15:20:48Z</time>
      </trkpt>
      <trkpt lat="46.60609" lon="5.53038">
        <ele>502.6</ele>
        <time>2022-08-20T15:20:49Z</time>
      </trkpt>
      <trkpt lat="46.60611" lon="5.53036">
        <ele>502.6</ele>
        <time>2022-08-20T15:20:50Z</time>
      </trkpt>
      <trkpt lat="46.60614" lon="5.53035">
        <ele>502.6</ele>
        <time>2022-08-20T15:20:51Z</time>
      </trkpt>
      <trkpt lat="46.60617" lon="5.53035">
        <ele>502.6</ele>
        <time>2022-08-20T15:20:52Z</time>
      </trkpt>
      <trkpt lat="46.6062" lon="5.53035">
        <ele>502.6</ele>
        <time>2022-08-20T15:20:53Z</time>
      </trkpt>
      <trkpt lat="46.60623" lon="5.53034">
        <ele>502.6</ele>
        <time>2022-08-20T15:20:54Z</time>
      </trkpt>
      <trkpt lat="46.60626" lon="5.53034">
        <ele>502.6</ele>
        <time>2022-08-20T15:20:55Z</time>
      </trkpt>
      <trkpt lat="46.60628" lon="5.53034">
        <ele>502.4</ele>
        <time>2022-08-20T15:20:56Z</time>
      </trkpt>
      <trkpt lat="46.60631" lon="5.53033">
        <ele>502.4</ele>
        <time>2022-08-20T15:20:57Z</time>
      </trkpt>
      <trkpt lat="46.60633" lon="5.53032">
        <ele>502.4</ele>
        <time>2022-08-20T15:20:58Z</time>
      </trkpt>
      <trkpt lat="46.60636" lon="5.53031">
        <ele>502.4</ele>
        <time>2022-08-20T15:20:59Z</time>
      </trkpt>
      <trkpt lat="46.60638" lon="5.53031">
        <ele>502.4</ele>
        <time>2022-08-20T15:21:00Z</time>
      </trkpt>
      <trkpt lat="46.60641" lon="5.53031">
        <ele>502.4</ele>
        <time>2022-08-20T15:21:01Z</time>
      </trkpt>
      <trkpt lat="46.60644" lon="5.53032">
        <ele>502.2</ele>
        <time>2022-08-20T15:21:02Z</time>
      </trkpt>
      <trkpt lat="46.60646" lon="5.53033">
        <ele>502.2</ele>
        <time>2022-08-20T15:21:03Z</time>
      </trkpt>
      <trkpt lat="46.60648" lon="5.53032">
        <ele>502.2</ele>
        <time>2022-08-20T15:21:04Z</time>
      </trkpt>
      <trkpt lat="46.60651" lon="5.53032">
        <ele>502</ele>
        <time>2022-08-20T15:21:05Z</time>
      </trkpt>
      <trkpt lat="46.60654" lon="5.53032">
        <ele>502</ele>
        <time>2022-08-20T15:21:06Z</time>
      </trkpt>
      <trkpt lat="46.60656" lon="5.53032">
        <ele>502</ele>
        <time>2022-08-20T15:21:07Z</time>
      </trkpt>
      <trkpt lat="46.6066" lon="5.53033">
        <ele>502</ele>
        <time>2022-08-20T15:21:08Z</time>
      </trkpt>
      <trkpt lat="46.60663" lon="5.53034">
        <ele>502</ele>
        <time>2022-08-20T15:21:09Z</time>
      </trkpt>
      <trkpt lat="46.60666" lon="5.53034">
        <ele>502</ele>
        <time>2022-08-20T15:21:10Z</time>
      </trkpt>
      <trkpt lat="46.60669" lon="5.53035">
        <ele>502</ele>
        <time>2022-08-20T15:21:11Z</time>
      </trkpt>
      <trkpt lat="46.60672" lon="5.53035">
        <ele>501.8</ele>
        <time>2022-08-20T15:21:12Z</time>
      </trkpt>
      <trkpt lat="46.60674" lon="5.53036">
        <ele>501.8</ele>
        <time>2022-08-20T15:21:13Z</time>
      </trkpt>
      <trkpt lat="46.60677" lon="5.53035">
        <ele>501.8</ele>
        <time>2022-08-20T15:21:14Z</time>
      </trkpt>
      <trkpt lat="46.60679" lon="5.53036">
        <ele>501.6</ele>
        <time>2022-08-20T15:21:15Z</time>
      </trkpt>
      <trkpt lat="46.60682" lon="5.53035">
        <ele>501.6</ele>
        <time>2022-08-20T15:21:16Z</time>
      </trkpt>
      <trkpt lat="46.60685" lon="5.53035">
        <ele>501.4</ele>
        <time>2022-08-20T15:21:17Z</time>
      </trkpt>
      <trkpt lat="46.60688" lon="5.53035">
        <ele>501.4</ele>
        <time>2022-08-20T15:21:18Z</time>
      </trkpt>
      <trkpt lat="46.6069" lon="5.53035">
        <ele>501.2</ele>
        <time>2022-08-20T15:21:19Z</time>
      </trkpt>
      <trkpt lat="46.60693" lon="5.53035">
        <ele>501.2</ele>
        <time>2022-08-20T15:21:20Z</time>
      </trkpt>
      <trkpt lat="46.60696" lon="5.53036">
        <ele>501</ele>
        <time>2022-08-20T15:21:21Z</time>
      </trkpt>
      <trkpt lat="46.60699" lon="5.53038">
        <ele>501</ele>
        <time>2022-08-20T15:21:22Z</time>
      </trkpt>
      <trkpt lat="46.60701" lon="5.53038">
        <ele>500.8</ele>
        <time>2022-08-20T15:21:23Z</time>
      </trkpt>
      <trkpt lat="46.60704" lon="5.53038">
        <ele>500.6</ele>
        <time>2022-08-20T15:21:24Z</time>
      </trkpt>
      <trkpt lat="46.60706" lon="5.53038">
        <ele>500.4</ele>
        <time>2022-08-20T15:21:25Z</time>
      </trkpt>
      <trkpt lat="46.60709" lon="5.53039">
        <ele>500.2</ele>
        <time>2022-08-20T15:21:26Z</time>
      </trkpt>
      <trkpt lat="46.60712" lon="5.53038">
        <ele>499.8</ele>
        <time>2022-08-20T15:21:28Z</time>
      </trkpt>
      <trkpt lat="46.60714" lon="5.53037">
        <ele>499.6</ele>
        <time>2022-08-20T15:21:29Z</time>
      </trkpt>
      <trkpt lat="46.60717" lon="5.53036">
        <ele>499.4</ele>
        <time>2022-08-20T15:21:30Z</time>
      </trkpt>
      <trkpt lat="46.60719" lon="5.53036">
        <ele>499.2</ele>
        <time>2022-08-20T15:21:31Z</time>
      </trkpt>
      <trkpt lat="46.60721" lon="5.53038">
        <ele>499</ele>
        <time>2022-08-20T15:21:32Z</time>
      </trkpt>
      <trkpt lat="46.60724" lon="5.5304">
        <ele>498.6</ele>
        <time>2022-08-20T15:21:34Z</time>
      </trkpt>
      <trkpt lat="46.60726" lon="5.53041">
        <ele>498.6</ele>
        <time>2022-08-20T15:21:35Z</time>
      </trkpt>
      <trkpt lat="46.60729" lon="5.53042">
        <ele>498.4</ele>
        <time>2022-08-20T15:21:36Z</time>
      </trkpt>
      <trkpt lat="46.60732" lon="5.53042">
        <ele>498.2</ele>
        <time>2022-08-20T15:21:37Z</time>
      </trkpt>
      <trkpt lat="46.60734" lon="5.53042">
        <ele>498</ele>
        <time>2022-08-20T15:21:38Z</time>
      </trkpt>
      <trkpt lat="46.60736" lon="5.53042">
        <ele>498</ele>
        <time>2022-08-20T15:21:39Z</time>
      </trkpt>
      <trkpt lat="46.60738" lon="5.53042">
        <ele>497.8</ele>
        <time>2022-08-20T15:21:40Z</time>
      </trkpt>
      <trkpt lat="46.60741" lon="5.53042">
        <ele>497.4</ele>
        <time>2022-08-20T15:21:42Z</time>
      </trkpt>
      <trkpt lat="46.60743" lon="5.53042">
        <ele>497.2</ele>
        <time>2022-08-20T15:21:43Z</time>
      </trkpt>
      <trkpt lat="46.60746" lon="5.53041">
        <ele>497</ele>
        <time>2022-08-20T15:21:44Z</time>
      </trkpt>
      <trkpt lat="46.60748" lon="5.53041">
        <ele>496.8</ele>
        <time>2022-08-20T15:21:45Z</time>
      </trkpt>
      <trkpt lat="46.6075" lon="5.53041">
        <ele>496.4</ele>
        <time>2022-08-20T15:21:47Z</time>
      </trkpt>
      <trkpt lat="46.60753" lon="5.53039">
        <ele>496.2</ele>
        <time>2022-08-20T15:21:49Z</time>
      </trkpt>
      <trkpt lat="46.60756" lon="5.53039">
        <ele>495.8</ele>
        <time>2022-08-20T15:21:51Z</time>
      </trkpt>
      <trkpt lat="46.60758" lon="5.53039">
        <ele>495.6</ele>
        <time>2022-08-20T15:21:52Z</time>
      </trkpt>
      <trkpt lat="46.60762" lon="5.5304">
        <ele>495.4</ele>
        <time>2022-08-20T15:21:54Z</time>
      </trkpt>
      <trkpt lat="46.60764" lon="5.53039">
        <ele>495.2</ele>
        <time>2022-08-20T15:21:56Z</time>
      </trkpt>
      <trkpt lat="46.60766" lon="5.53038">
        <ele>495</ele>
        <time>2022-08-20T15:21:57Z</time>
      </trkpt>
      <trkpt lat="46.60768" lon="5.53038">
        <ele>495</ele>
        <time>2022-08-20T15:21:58Z</time>
      </trkpt>
      <trkpt lat="46.60771" lon="5.53038">
        <ele>494.8</ele>
        <time>2022-08-20T15:22:00Z</time>
      </trkpt>
      <trkpt lat="46.60774" lon="5.53037">
        <ele>494.8</ele>
        <time>2022-08-20T15:22:02Z</time>
      </trkpt>
      <trkpt lat="46.60778" lon="5.53038">
        <ele>494.6</ele>
        <time>2022-08-20T15:22:04Z</time>
      </trkpt>
      <trkpt lat="46.60781" lon="5.53039">
        <ele>494.6</ele>
        <time>2022-08-20T15:22:05Z</time>
      </trkpt>
      <trkpt lat="46.60789" lon="5.5304">
        <ele>494.8</ele>
        <time>2022-08-20T15:22:07Z</time>
      </trkpt>
      <trkpt lat="46.6079" lon="5.53041">
        <ele>494.8</ele>
        <time>2022-08-20T15:22:08Z</time>
      </trkpt>
      <trkpt lat="46.60794" lon="5.53043">
        <ele>494.8</ele>
        <time>2022-08-20T15:22:09Z</time>
      </trkpt>
      <trkpt lat="46.60801" lon="5.53047">
        <ele>495</ele>
        <time>2022-08-20T15:22:10Z</time>
      </trkpt>
      <trkpt lat="46.60804" lon="5.53046">
        <ele>495</ele>
        <time>2022-08-20T15:22:11Z</time>
      </trkpt>
      <trkpt lat="46.60806" lon="5.53046">
        <ele>495</ele>
        <time>2022-08-20T15:22:12Z</time>
      </trkpt>
      <trkpt lat="46.60809" lon="5.53046">
        <ele>495.2</ele>
        <time>2022-08-20T15:22:13Z</time>
      </trkpt>
      <trkpt lat="46.60812" lon="5.53046">
        <ele>495.2</ele>
        <time>2022-08-20T15:22:14Z</time>
      </trkpt>
      <trkpt lat="46.60814" lon="5.53045">
        <ele>495.2</ele>
        <time>2022-08-20T15:22:16Z</time>
      </trkpt>
      <trkpt lat="46.60816" lon="5.53044">
        <ele>495.2</ele>
        <time>2022-08-20T15:22:17Z</time>
      </trkpt>
      <trkpt lat="46.60819" lon="5.53042">
        <ele>495.2</ele>
        <time>2022-08-20T15:22:20Z</time>
      </trkpt>
      <trkpt lat="46.60821" lon="5.53037">
        <ele>495.2</ele>
        <time>2022-08-20T15:22:22Z</time>
      </trkpt>
      <trkpt lat="46.60821" lon="5.53035">
        <ele>495.2</ele>
        <time>2022-08-20T15:22:23Z</time>
      </trkpt>
      <trkpt lat="46.60823" lon="5.53034">
        <ele>495.2</ele>
        <time>2022-08-20T15:22:24Z</time>
      </trkpt>
      <trkpt lat="46.60826" lon="5.53035">
        <ele>495.2</ele>
        <time>2022-08-20T15:22:25Z</time>
      </trkpt>
      <trkpt lat="46.60828" lon="5.5304">
        <ele>495.2</ele>
        <time>2022-08-20T15:22:26Z</time>
      </trkpt>
      <trkpt lat="46.6083" lon="5.53044">
        <ele>495.2</ele>
        <time>2022-08-20T15:22:27Z</time>
      </trkpt>
      <trkpt lat="46.60833" lon="5.53049">
        <ele>495.2</ele>
        <time>2022-08-20T15:22:28Z</time>
      </trkpt>
      <trkpt lat="46.60835" lon="5.53053">
        <ele>495.4</ele>
        <time>2022-08-20T15:22:29Z</time>
      </trkpt>
      <trkpt lat="46.60837" lon="5.53053">
        <ele>495.6</ele>
        <time>2022-08-20T15:22:32Z</time>
      </trkpt>
      <trkpt lat="46.6084" lon="5.53052">
        <ele>495.6</ele>
        <time>2022-08-20T15:22:34Z</time>
      </trkpt>
      <trkpt lat="46.60842" lon="5.53051">
        <ele>496</ele>
        <time>2022-08-20T15:22:38Z</time>
      </trkpt>
      <trkpt lat="46.60845" lon="5.53053">
        <ele>496.2</ele>
        <time>2022-08-20T15:22:41Z</time>
      </trkpt>
      <trkpt lat="46.60847" lon="5.53055">
        <ele>496.4</ele>
        <time>2022-08-20T15:22:43Z</time>
      </trkpt>
      <trkpt lat="46.60849" lon="5.53056">
        <ele>496.6</ele>
        <time>2022-08-20T15:22:44Z</time>
      </trkpt>
      <trkpt lat="46.60851" lon="5.53058">
        <ele>496.6</ele>
        <time>2022-08-20T15:22:45Z</time>
      </trkpt>
      <trkpt lat="46.60853" lon="5.53059">
        <ele>496.6</ele>
        <time>2022-08-20T15:22:46Z</time>
      </trkpt>
      <trkpt lat="46.60855" lon="5.53059">
        <ele>496.6</ele>
        <time>2022-08-20T15:22:47Z</time>
      </trkpt>
      <trkpt lat="46.60857" lon="5.5306">
        <ele>496.6</ele>
        <time>2022-08-20T15:22:48Z</time>
      </trkpt>
      <trkpt lat="46.60859" lon="5.5306">
        <ele>496.6</ele>
        <time>2022-08-20T15:22:49Z</time>
      </trkpt>
      <trkpt lat="46.60861" lon="5.53056">
        <ele>496.8</ele>
        <time>2022-08-20T15:22:51Z</time>
      </trkpt>
      <trkpt lat="46.60863" lon="5.53056">
        <ele>496.8</ele>
        <time>2022-08-20T15:22:52Z</time>
      </trkpt>
      <trkpt lat="46.60867" lon="5.53058">
        <ele>496.8</ele>
        <time>2022-08-20T15:22:53Z</time>
      </trkpt>
      <trkpt lat="46.60869" lon="5.53061">
        <ele>497</ele>
        <time>2022-08-20T15:22:54Z</time>
      </trkpt>
      <trkpt lat="46.60872" lon="5.53064">
        <ele>497</ele>
        <time>2022-08-20T15:22:55Z</time>
      </trkpt>
      <trkpt lat="46.60873" lon="5.53067">
        <ele>497</ele>
        <time>2022-08-20T15:22:56Z</time>
      </trkpt>
      <trkpt lat="46.60875" lon="5.53069">
        <ele>497.2</ele>
        <time>2022-08-20T15:22:57Z</time>
      </trkpt>
      <trkpt lat="46.60878" lon="5.5307">
        <ele>497.2</ele>
        <time>2022-08-20T15:22:58Z</time>
      </trkpt>
      <trkpt lat="46.6088" lon="5.53071">
        <ele>497.2</ele>
        <time>2022-08-20T15:22:59Z</time>
      </trkpt>
      <trkpt lat="46.60883" lon="5.53072">
        <ele>497.4</ele>
        <time>2022-08-20T15:23:00Z</time>
      </trkpt>
      <trkpt lat="46.60885" lon="5.53074">
        <ele>497.4</ele>
        <time>2022-08-20T15:23:01Z</time>
      </trkpt>
      <trkpt lat="46.60888" lon="5.53074">
        <ele>497.4</ele>
        <time>2022-08-20T15:23:02Z</time>
      </trkpt>
      <trkpt lat="46.60891" lon="5.53075">
        <ele>497.4</ele>
        <time>2022-08-20T15:23:03Z</time>
      </trkpt>
      <trkpt lat="46.60893" lon="5.53076">
        <ele>497.4</ele>
        <time>2022-08-20T15:23:04Z</time>
      </trkpt>
      <trkpt lat="46.60895" lon="5.53078">
        <ele>497.4</ele>
        <time>2022-08-20T15:23:08Z</time>
      </trkpt>
      <trkpt lat="46.60897" lon="5.53079">
        <ele>497.2</ele>
        <time>2022-08-20T15:23:11Z</time>
      </trkpt>
      <trkpt lat="46.60899" lon="5.53081">
        <ele>497.2</ele>
        <time>2022-08-20T15:23:14Z</time>
      </trkpt>
      <trkpt lat="46.60901" lon="5.53084">
        <ele>497.4</ele>
        <time>2022-08-20T15:23:16Z</time>
      </trkpt>
      <trkpt lat="46.60904" lon="5.53087">
        <ele>497.4</ele>
        <time>2022-08-20T15:23:18Z</time>
      </trkpt>
      <trkpt lat="46.60906" lon="5.5309">
        <ele>497.6</ele>
        <time>2022-08-20T15:23:19Z</time>
      </trkpt>
      <trkpt lat="46.60908" lon="5.53092">
        <ele>497.6</ele>
        <time>2022-08-20T15:23:20Z</time>
      </trkpt>
      <trkpt lat="46.6091" lon="5.53095">
        <ele>497.6</ele>
        <time>2022-08-20T15:23:21Z</time>
      </trkpt>
      <trkpt lat="46.60911" lon="5.53097">
        <ele>497.6</ele>
        <time>2022-08-20T15:23:22Z</time>
      </trkpt>
      <trkpt lat="46.60914" lon="5.53098">
        <ele>497.6</ele>
        <time>2022-08-20T15:23:23Z</time>
      </trkpt>
      <trkpt lat="46.60916" lon="5.53099">
        <ele>497.6</ele>
        <time>2022-08-20T15:23:24Z</time>
      </trkpt>
      <trkpt lat="46.60918" lon="5.531">
        <ele>497.6</ele>
        <time>2022-08-20T15:23:25Z</time>
      </trkpt>
      <trkpt lat="46.6092" lon="5.531">
        <ele>497.4</ele>
        <time>2022-08-20T15:23:26Z</time>
      </trkpt>
      <trkpt lat="46.60923" lon="5.53101">
        <ele>497.4</ele>
        <time>2022-08-20T15:23:27Z</time>
      </trkpt>
      <trkpt lat="46.60926" lon="5.53102">
        <ele>497.4</ele>
        <time>2022-08-20T15:23:28Z</time>
      </trkpt>
      <trkpt lat="46.60929" lon="5.53104">
        <ele>497.2</ele>
        <time>2022-08-20T15:23:29Z</time>
      </trkpt>
      <trkpt lat="46.60932" lon="5.53106">
        <ele>497</ele>
        <time>2022-08-20T15:23:30Z</time>
      </trkpt>
      <trkpt lat="46.60935" lon="5.53108">
        <ele>497</ele>
        <time>2022-08-20T15:23:31Z</time>
      </trkpt>
      <trkpt lat="46.60938" lon="5.53111">
        <ele>496.8</ele>
        <time>2022-08-20T15:23:32Z</time>
      </trkpt>
      <trkpt lat="46.60941" lon="5.53113">
        <ele>496.6</ele>
        <time>2022-08-20T15:23:33Z</time>
      </trkpt>
      <trkpt lat="46.60944" lon="5.53116">
        <ele>496.6</ele>
        <time>2022-08-20T15:23:34Z</time>
      </trkpt>
      <trkpt lat="46.60947" lon="5.53118">
        <ele>496.4</ele>
        <time>2022-08-20T15:23:35Z</time>
      </trkpt>
      <trkpt lat="46.60949" lon="5.5312">
        <ele>496.4</ele>
        <time>2022-08-20T15:23:36Z</time>
      </trkpt>
      <trkpt lat="46.60951" lon="5.53122">
        <ele>496.2</ele>
        <time>2022-08-20T15:23:37Z</time>
      </trkpt>
      <trkpt lat="46.60952" lon="5.53124">
        <ele>496</ele>
        <time>2022-08-20T15:23:38Z</time>
      </trkpt>
      <trkpt lat="46.60956" lon="5.53126">
        <ele>495.6</ele>
        <time>2022-08-20T15:23:40Z</time>
      </trkpt>
      <trkpt lat="46.60957" lon="5.53128">
        <ele>495.6</ele>
        <time>2022-08-20T15:23:41Z</time>
      </trkpt>
      <trkpt lat="46.6096" lon="5.5313">
        <ele>495.4</ele>
        <time>2022-08-20T15:23:42Z</time>
      </trkpt>
      <trkpt lat="46.60962" lon="5.53131">
        <ele>495.2</ele>
        <time>2022-08-20T15:23:43Z</time>
      </trkpt>
      <trkpt lat="46.60964" lon="5.53131">
        <ele>495</ele>
        <time>2022-08-20T15:23:44Z</time>
      </trkpt>
      <trkpt lat="46.60967" lon="5.53133">
        <ele>494.8</ele>
        <time>2022-08-20T15:23:45Z</time>
      </trkpt>
      <trkpt lat="46.6097" lon="5.53134">
        <ele>494.6</ele>
        <time>2022-08-20T15:23:46Z</time>
      </trkpt>
      <trkpt lat="46.60973" lon="5.53136">
        <ele>494.4</ele>
        <time>2022-08-20T15:23:47Z</time>
      </trkpt>
      <trkpt lat="46.60976" lon="5.53137">
        <ele>494.4</ele>
        <time>2022-08-20T15:23:48Z</time>
      </trkpt>
      <trkpt lat="46.60978" lon="5.53138">
        <ele>494.2</ele>
        <time>2022-08-20T15:23:49Z</time>
      </trkpt>
      <trkpt lat="46.6098" lon="5.53138">
        <ele>494</ele>
        <time>2022-08-20T15:23:50Z</time>
      </trkpt>
      <trkpt lat="46.60983" lon="5.53139">
        <ele>493.8</ele>
        <time>2022-08-20T15:23:51Z</time>
      </trkpt>
      <trkpt lat="46.60986" lon="5.5314">
        <ele>493.6</ele>
        <time>2022-08-20T15:23:52Z</time>
      </trkpt>
      <trkpt lat="46.60989" lon="5.53142">
        <ele>493.4</ele>
        <time>2022-08-20T15:23:53Z</time>
      </trkpt>
      <trkpt lat="46.60992" lon="5.53143">
        <ele>493.2</ele>
        <time>2022-08-20T15:23:54Z</time>
      </trkpt>
      <trkpt lat="46.60994" lon="5.53145">
        <ele>493</ele>
        <time>2022-08-20T15:23:55Z</time>
      </trkpt>
      <trkpt lat="46.60996" lon="5.53146">
        <ele>492.8</ele>
        <time>2022-08-20T15:23:56Z</time>
      </trkpt>
      <trkpt lat="46.60999" lon="5.53146">
        <ele>492.8</ele>
        <time>2022-08-20T15:23:57Z</time>
      </trkpt>
      <trkpt lat="46.61003" lon="5.53147">
        <ele>492.6</ele>
        <time>2022-08-20T15:23:58Z</time>
      </trkpt>
      <trkpt lat="46.61007" lon="5.53148">
        <ele>492.4</ele>
        <time>2022-08-20T15:24:00Z</time>
      </trkpt>
      <trkpt lat="46.61009" lon="5.53149">
        <ele>492.4</ele>
        <time>2022-08-20T15:24:01Z</time>
      </trkpt>
      <trkpt lat="46.61012" lon="5.53149">
        <ele>492.2</ele>
        <time>2022-08-20T15:24:02Z</time>
      </trkpt>
      <trkpt lat="46.61016" lon="5.5315">
        <ele>492.2</ele>
        <time>2022-08-20T15:24:03Z</time>
      </trkpt>
      <trkpt lat="46.61021" lon="5.5315">
        <ele>492</ele>
        <time>2022-08-20T15:24:04Z</time>
      </trkpt>
      <trkpt lat="46.61024" lon="5.53151">
        <ele>492</ele>
        <time>2022-08-20T15:24:05Z</time>
      </trkpt>
      <trkpt lat="46.61027" lon="5.53152">
        <ele>492</ele>
        <time>2022-08-20T15:24:06Z</time>
      </trkpt>
      <trkpt lat="46.61029" lon="5.53152">
        <ele>492</ele>
        <time>2022-08-20T15:24:07Z</time>
      </trkpt>
      <trkpt lat="46.61031" lon="5.53153">
        <ele>492</ele>
        <time>2022-08-20T15:24:08Z</time>
      </trkpt>
      <trkpt lat="46.61034" lon="5.53153">
        <ele>492</ele>
        <time>2022-08-20T15:24:09Z</time>
      </trkpt>
      <trkpt lat="46.61037" lon="5.53154">
        <ele>492</ele>
        <time>2022-08-20T15:24:11Z</time>
      </trkpt>
      <trkpt lat="46.6104" lon="5.53154">
        <ele>492</ele>
        <time>2022-08-20T15:24:12Z</time>
      </trkpt>
      <trkpt lat="46.61043" lon="5.53154">
        <ele>491.8</ele>
        <time>2022-08-20T15:24:13Z</time>
      </trkpt>
      <trkpt lat="46.61046" lon="5.53154">
        <ele>491.8</ele>
        <time>2022-08-20T15:24:14Z</time>
      </trkpt>
      <trkpt lat="46.61049" lon="5.53155">
        <ele>491.8</ele>
        <time>2022-08-20T15:24:15Z</time>
      </trkpt>
      <trkpt lat="46.61053" lon="5.53156">
        <ele>491.6</ele>
        <time>2022-08-20T15:24:16Z</time>
      </trkpt>
      <trkpt lat="46.61056" lon="5.53157">
        <ele>491.6</ele>
        <time>2022-08-20T15:24:17Z</time>
      </trkpt>
      <trkpt lat="46.61059" lon="5.53159">
        <ele>491.4</ele>
        <time>2022-08-20T15:24:18Z</time>
      </trkpt>
      <trkpt lat="46.61063" lon="5.53159">
        <ele>491.4</ele>
        <time>2022-08-20T15:24:19Z</time>
      </trkpt>
      <trkpt lat="46.61067" lon="5.5316">
        <ele>491.2</ele>
        <time>2022-08-20T15:24:20Z</time>
      </trkpt>
      <trkpt lat="46.6107" lon="5.53161">
        <ele>491.2</ele>
        <time>2022-08-20T15:24:21Z</time>
      </trkpt>
      <trkpt lat="46.61073" lon="5.53161">
        <ele>491</ele>
        <time>2022-08-20T15:24:22Z</time>
      </trkpt>
      <trkpt lat="46.61076" lon="5.53162">
        <ele>490.8</ele>
        <time>2022-08-20T15:24:23Z</time>
      </trkpt>
      <trkpt lat="46.61079" lon="5.53163">
        <ele>490.8</ele>
        <time>2022-08-20T15:24:24Z</time>
      </trkpt>
      <trkpt lat="46.61081" lon="5.53164">
        <ele>490.6</ele>
        <time>2022-08-20T15:24:25Z</time>
      </trkpt>
      <trkpt lat="46.61084" lon="5.53165">
        <ele>490.6</ele>
        <time>2022-08-20T15:24:26Z</time>
      </trkpt>
      <trkpt lat="46.61086" lon="5.53165">
        <ele>490.4</ele>
        <time>2022-08-20T15:24:27Z</time>
      </trkpt>
      <trkpt lat="46.61089" lon="5.53166">
        <ele>490.2</ele>
        <time>2022-08-20T15:24:28Z</time>
      </trkpt>
      <trkpt lat="46.61092" lon="5.53167">
        <ele>490.2</ele>
        <time>2022-08-20T15:24:29Z</time>
      </trkpt>
      <trkpt lat="46.61095" lon="5.53167">
        <ele>490</ele>
        <time>2022-08-20T15:24:30Z</time>
      </trkpt>
      <trkpt lat="46.61098" lon="5.53168">
        <ele>489.8</ele>
        <time>2022-08-20T15:24:31Z</time>
      </trkpt>
      <trkpt lat="46.61101" lon="5.53169">
        <ele>489.6</ele>
        <time>2022-08-20T15:24:32Z</time>
      </trkpt>
      <trkpt lat="46.61105" lon="5.5317">
        <ele>489.4</ele>
        <time>2022-08-20T15:24:33Z</time>
      </trkpt>
      <trkpt lat="46.61108" lon="5.5317">
        <ele>489.4</ele>
        <time>2022-08-20T15:24:34Z</time>
      </trkpt>
      <trkpt lat="46.61112" lon="5.53172">
        <ele>489.2</ele>
        <time>2022-08-20T15:24:35Z</time>
      </trkpt>
      <trkpt lat="46.61116" lon="5.53172">
        <ele>489</ele>
        <time>2022-08-20T15:24:36Z</time>
      </trkpt>
      <trkpt lat="46.61119" lon="5.53172">
        <ele>489</ele>
        <time>2022-08-20T15:24:37Z</time>
      </trkpt>
      <trkpt lat="46.61123" lon="5.53173">
        <ele>489</ele>
        <time>2022-08-20T15:24:38Z</time>
      </trkpt>
      <trkpt lat="46.61126" lon="5.53173">
        <ele>488.8</ele>
        <time>2022-08-20T15:24:39Z</time>
      </trkpt>
      <trkpt lat="46.6113" lon="5.53173">
        <ele>488.8</ele>
        <time>2022-08-20T15:24:40Z</time>
      </trkpt>
      <trkpt lat="46.61133" lon="5.53174">
        <ele>488.8</ele>
        <time>2022-08-20T15:24:41Z</time>
      </trkpt>
      <trkpt lat="46.61137" lon="5.53175">
        <ele>488.6</ele>
        <time>2022-08-20T15:24:42Z</time>
      </trkpt>
      <trkpt lat="46.6114" lon="5.53175">
        <ele>488.6</ele>
        <time>2022-08-20T15:24:43Z</time>
      </trkpt>
      <trkpt lat="46.61143" lon="5.53175">
        <ele>488.4</ele>
        <time>2022-08-20T15:24:44Z</time>
      </trkpt>
      <trkpt lat="46.61146" lon="5.53174">
        <ele>488.4</ele>
        <time>2022-08-20T15:24:45Z</time>
      </trkpt>
      <trkpt lat="46.61149" lon="5.53174">
        <ele>488.2</ele>
        <time>2022-08-20T15:24:46Z</time>
      </trkpt>
      <trkpt lat="46.61152" lon="5.53174">
        <ele>488.2</ele>
        <time>2022-08-20T15:24:47Z</time>
      </trkpt>
      <trkpt lat="46.61155" lon="5.53176">
        <ele>488.2</ele>
        <time>2022-08-20T15:24:48Z</time>
      </trkpt>
      <trkpt lat="46.61158" lon="5.53176">
        <ele>488.2</ele>
        <time>2022-08-20T15:24:49Z</time>
      </trkpt>
      <trkpt lat="46.61161" lon="5.53177">
        <ele>488.2</ele>
        <time>2022-08-20T15:24:50Z</time>
      </trkpt>
      <trkpt lat="46.61164" lon="5.53176">
        <ele>488.2</ele>
        <time>2022-08-20T15:24:51Z</time>
      </trkpt>
      <trkpt lat="46.61167" lon="5.53177">
        <ele>488.2</ele>
        <time>2022-08-20T15:24:52Z</time>
      </trkpt>
      <trkpt lat="46.6117" lon="5.53179">
        <ele>488</ele>
        <time>2022-08-20T15:24:53Z</time>
      </trkpt>
      <trkpt lat="46.61173" lon="5.5318">
        <ele>488</ele>
        <time>2022-08-20T15:24:54Z</time>
      </trkpt>
      <trkpt lat="46.61177" lon="5.5318">
        <ele>488</ele>
        <time>2022-08-20T15:24:55Z</time>
      </trkpt>
      <trkpt lat="46.6118" lon="5.53181">
        <ele>488</ele>
        <time>2022-08-20T15:24:56Z</time>
      </trkpt>
      <trkpt lat="46.61183" lon="5.53181">
        <ele>488</ele>
        <time>2022-08-20T15:24:57Z</time>
      </trkpt>
      <trkpt lat="46.61186" lon="5.53181">
        <ele>488</ele>
        <time>2022-08-20T15:24:58Z</time>
      </trkpt>
      <trkpt lat="46.61189" lon="5.53182">
        <ele>487.8</ele>
        <time>2022-08-20T15:24:59Z</time>
      </trkpt>
      <trkpt lat="46.61192" lon="5.53183">
        <ele>487.8</ele>
        <time>2022-08-20T15:25:00Z</time>
      </trkpt>
      <trkpt lat="46.61194" lon="5.53183">
        <ele>487.6</ele>
        <time>2022-08-20T15:25:01Z</time>
      </trkpt>
      <trkpt lat="46.61197" lon="5.53183">
        <ele>487.6</ele>
        <time>2022-08-20T15:25:02Z</time>
      </trkpt>
      <trkpt lat="46.612" lon="5.53184">
        <ele>487.4</ele>
        <time>2022-08-20T15:25:03Z</time>
      </trkpt>
      <trkpt lat="46.61203" lon="5.53185">
        <ele>487.4</ele>
        <time>2022-08-20T15:25:04Z</time>
      </trkpt>
      <trkpt lat="46.61206" lon="5.53186">
        <ele>487.4</ele>
        <time>2022-08-20T15:25:05Z</time>
      </trkpt>
      <trkpt lat="46.61208" lon="5.53187">
        <ele>487.2</ele>
        <time>2022-08-20T15:25:06Z</time>
      </trkpt>
      <trkpt lat="46.61212" lon="5.53189">
        <ele>487.2</ele>
        <time>2022-08-20T15:25:07Z</time>
      </trkpt>
      <trkpt lat="46.61215" lon="5.53189">
        <ele>487.2</ele>
        <time>2022-08-20T15:25:08Z</time>
      </trkpt>
      <trkpt lat="46.61218" lon="5.5319">
        <ele>487</ele>
        <time>2022-08-20T15:25:09Z</time>
      </trkpt>
      <trkpt lat="46.61221" lon="5.53191">
        <ele>487</ele>
        <time>2022-08-20T15:25:10Z</time>
      </trkpt>
      <trkpt lat="46.61223" lon="5.53193">
        <ele>486.8</ele>
        <time>2022-08-20T15:25:11Z</time>
      </trkpt>
      <trkpt lat="46.61226" lon="5.53195">
        <ele>486.6</ele>
        <time>2022-08-20T15:25:12Z</time>
      </trkpt>
      <trkpt lat="46.61229" lon="5.53196">
        <ele>486.6</ele>
        <time>2022-08-20T15:25:13Z</time>
      </trkpt>
      <trkpt lat="46.61232" lon="5.53197">
        <ele>486.4</ele>
        <time>2022-08-20T15:25:14Z</time>
      </trkpt>
      <trkpt lat="46.61234" lon="5.53198">
        <ele>486.2</ele>
        <time>2022-08-20T15:25:15Z</time>
      </trkpt>
      <trkpt lat="46.61237" lon="5.53199">
        <ele>486</ele>
        <time>2022-08-20T15:25:16Z</time>
      </trkpt>
      <trkpt lat="46.6124" lon="5.532">
        <ele>485.8</ele>
        <time>2022-08-20T15:25:17Z</time>
      </trkpt>
      <trkpt lat="46.61243" lon="5.53202">
        <ele>485.8</ele>
        <time>2022-08-20T15:25:18Z</time>
      </trkpt>
      <trkpt lat="46.61246" lon="5.53204">
        <ele>485.6</ele>
        <time>2022-08-20T15:25:19Z</time>
      </trkpt>
      <trkpt lat="46.61249" lon="5.53207">
        <ele>485.6</ele>
        <time>2022-08-20T15:25:20Z</time>
      </trkpt>
      <trkpt lat="46.61252" lon="5.53208">
        <ele>485.4</ele>
        <time>2022-08-20T15:25:21Z</time>
      </trkpt>
      <trkpt lat="46.61253" lon="5.53209">
        <ele>485.2</ele>
        <time>2022-08-20T15:25:22Z</time>
      </trkpt>
      <trkpt lat="46.61257" lon="5.53211">
        <ele>485.2</ele>
        <time>2022-08-20T15:25:23Z</time>
      </trkpt>
      <trkpt lat="46.6126" lon="5.53212">
        <ele>485</ele>
        <time>2022-08-20T15:25:24Z</time>
      </trkpt>
      <trkpt lat="46.61262" lon="5.53212">
        <ele>485</ele>
        <time>2022-08-20T15:25:25Z</time>
      </trkpt>
      <trkpt lat="46.61265" lon="5.53213">
        <ele>484.8</ele>
        <time>2022-08-20T15:25:26Z</time>
      </trkpt>
      <trkpt lat="46.61268" lon="5.53214">
        <ele>484.8</ele>
        <time>2022-08-20T15:25:27Z</time>
      </trkpt>
      <trkpt lat="46.6127" lon="5.53215">
        <ele>484.8</ele>
        <time>2022-08-20T15:25:28Z</time>
      </trkpt>
      <trkpt lat="46.61272" lon="5.53215">
        <ele>484.6</ele>
        <time>2022-08-20T15:25:29Z</time>
      </trkpt>
      <trkpt lat="46.61276" lon="5.53216">
        <ele>484.6</ele>
        <time>2022-08-20T15:25:30Z</time>
      </trkpt>
      <trkpt lat="46.61278" lon="5.53216">
        <ele>484.6</ele>
        <time>2022-08-20T15:25:31Z</time>
      </trkpt>
      <trkpt lat="46.61281" lon="5.53216">
        <ele>484.4</ele>
        <time>2022-08-20T15:25:32Z</time>
      </trkpt>
      <trkpt lat="46.61284" lon="5.53217">
        <ele>484.2</ele>
        <time>2022-08-20T15:25:33Z</time>
      </trkpt>
      <trkpt lat="46.61287" lon="5.53217">
        <ele>484</ele>
        <time>2022-08-20T15:25:34Z</time>
      </trkpt>
      <trkpt lat="46.6129" lon="5.53218">
        <ele>484</ele>
        <time>2022-08-20T15:25:35Z</time>
      </trkpt>
      <trkpt lat="46.61293" lon="5.53218">
        <ele>483.8</ele>
        <time>2022-08-20T15:25:36Z</time>
      </trkpt>
      <trkpt lat="46.61296" lon="5.53219">
        <ele>483.8</ele>
        <time>2022-08-20T15:25:37Z</time>
      </trkpt>
      <trkpt lat="46.61298" lon="5.5322">
        <ele>483.8</ele>
        <time>2022-08-20T15:25:38Z</time>
      </trkpt>
      <trkpt lat="46.61301" lon="5.5322">
        <ele>483.6</ele>
        <time>2022-08-20T15:25:39Z</time>
      </trkpt>
      <trkpt lat="46.61303" lon="5.53221">
        <ele>483.6</ele>
        <time>2022-08-20T15:25:40Z</time>
      </trkpt>
      <trkpt lat="46.61306" lon="5.53222">
        <ele>483.4</ele>
        <time>2022-08-20T15:25:41Z</time>
      </trkpt>
      <trkpt lat="46.61309" lon="5.53223">
        <ele>483.4</ele>
        <time>2022-08-20T15:25:42Z</time>
      </trkpt>
      <trkpt lat="46.61312" lon="5.53223">
        <ele>483.4</ele>
        <time>2022-08-20T15:25:43Z</time>
      </trkpt>
      <trkpt lat="46.61315" lon="5.53224">
        <ele>483.4</ele>
        <time>2022-08-20T15:25:44Z</time>
      </trkpt>
      <trkpt lat="46.61318" lon="5.53224">
        <ele>483.2</ele>
        <time>2022-08-20T15:25:45Z</time>
      </trkpt>
      <trkpt lat="46.61321" lon="5.53224">
        <ele>483.2</ele>
        <time>2022-08-20T15:25:46Z</time>
      </trkpt>
      <trkpt lat="46.61323" lon="5.53224">
        <ele>483</ele>
        <time>2022-08-20T15:25:47Z</time>
      </trkpt>
      <trkpt lat="46.61326" lon="5.53224">
        <ele>483</ele>
        <time>2022-08-20T15:25:48Z</time>
      </trkpt>
      <trkpt lat="46.6133" lon="5.53225">
        <ele>483</ele>
        <time>2022-08-20T15:25:49Z</time>
      </trkpt>
      <trkpt lat="46.61333" lon="5.53225">
        <ele>482.8</ele>
        <time>2022-08-20T15:25:50Z</time>
      </trkpt>
      <trkpt lat="46.61336" lon="5.53226">
        <ele>482.8</ele>
        <time>2022-08-20T15:25:51Z</time>
      </trkpt>
      <trkpt lat="46.61338" lon="5.53227">
        <ele>482.8</ele>
        <time>2022-08-20T15:25:52Z</time>
      </trkpt>
      <trkpt lat="46.61341" lon="5.53229">
        <ele>482.6</ele>
        <time>2022-08-20T15:25:53Z</time>
      </trkpt>
      <trkpt lat="46.61345" lon="5.53229">
        <ele>482.6</ele>
        <time>2022-08-20T15:25:54Z</time>
      </trkpt>
      <trkpt lat="46.61348" lon="5.53229">
        <ele>482.6</ele>
        <time>2022-08-20T15:25:55Z</time>
      </trkpt>
      <trkpt lat="46.6135" lon="5.5323">
        <ele>482.6</ele>
        <time>2022-08-20T15:25:56Z</time>
      </trkpt>
      <trkpt lat="46.61353" lon="5.5323">
        <ele>482.4</ele>
        <time>2022-08-20T15:25:57Z</time>
      </trkpt>
      <trkpt lat="46.61356" lon="5.53231">
        <ele>482.4</ele>
        <time>2022-08-20T15:25:58Z</time>
      </trkpt>
      <trkpt lat="46.61359" lon="5.53232">
        <ele>482.2</ele>
        <time>2022-08-20T15:25:59Z</time>
      </trkpt>
      <trkpt lat="46.61362" lon="5.53232">
        <ele>482.2</ele>
        <time>2022-08-20T15:26:00Z</time>
      </trkpt>
      <trkpt lat="46.61366" lon="5.53233">
        <ele>481.8</ele>
        <time>2022-08-20T15:26:02Z</time>
      </trkpt>
      <trkpt lat="46.61369" lon="5.53234">
        <ele>481.6</ele>
        <time>2022-08-20T15:26:03Z</time>
      </trkpt>
      <trkpt lat="46.61372" lon="5.53234">
        <ele>481.4</ele>
        <time>2022-08-20T15:26:04Z</time>
      </trkpt>
      <trkpt lat="46.61374" lon="5.53235">
        <ele>481.2</ele>
        <time>2022-08-20T15:26:05Z</time>
      </trkpt>
      <trkpt lat="46.61377" lon="5.53235">
        <ele>481</ele>
        <time>2022-08-20T15:26:06Z</time>
      </trkpt>
      <trkpt lat="46.6138" lon="5.53236">
        <ele>480.8</ele>
        <time>2022-08-20T15:26:07Z</time>
      </trkpt>
      <trkpt lat="46.61383" lon="5.53238">
        <ele>480.6</ele>
        <time>2022-08-20T15:26:08Z</time>
      </trkpt>
      <trkpt lat="46.61386" lon="5.53239">
        <ele>480.4</ele>
        <time>2022-08-20T15:26:09Z</time>
      </trkpt>
      <trkpt lat="46.61388" lon="5.5324">
        <ele>480</ele>
        <time>2022-08-20T15:26:10Z</time>
      </trkpt>
      <trkpt lat="46.61391" lon="5.53241">
        <ele>479.8</ele>
        <time>2022-08-20T15:26:11Z</time>
      </trkpt>
      <trkpt lat="46.61394" lon="5.53242">
        <ele>479.6</ele>
        <time>2022-08-20T15:26:12Z</time>
      </trkpt>
      <trkpt lat="46.61397" lon="5.53243">
        <ele>479.2</ele>
        <time>2022-08-20T15:26:13Z</time>
      </trkpt>
      <trkpt lat="46.614" lon="5.53244">
        <ele>479</ele>
        <time>2022-08-20T15:26:14Z</time>
      </trkpt>
      <trkpt lat="46.61403" lon="5.53245">
        <ele>478.8</ele>
        <time>2022-08-20T15:26:15Z</time>
      </trkpt>
      <trkpt lat="46.61405" lon="5.53246">
        <ele>478.4</ele>
        <time>2022-08-20T15:26:16Z</time>
      </trkpt>
      <trkpt lat="46.61409" lon="5.53246">
        <ele>478.2</ele>
        <time>2022-08-20T15:26:17Z</time>
      </trkpt>
      <trkpt lat="46.61411" lon="5.53246">
        <ele>478</ele>
        <time>2022-08-20T15:26:18Z</time>
      </trkpt>
      <trkpt lat="46.61414" lon="5.53247">
        <ele>477.8</ele>
        <time>2022-08-20T15:26:19Z</time>
      </trkpt>
      <trkpt lat="46.61417" lon="5.53247">
        <ele>477.6</ele>
        <time>2022-08-20T15:26:20Z</time>
      </trkpt>
      <trkpt lat="46.6142" lon="5.53247">
        <ele>477.6</ele>
        <time>2022-08-20T15:26:21Z</time>
      </trkpt>
      <trkpt lat="46.61422" lon="5.53247">
        <ele>477.4</ele>
        <time>2022-08-20T15:26:22Z</time>
      </trkpt>
      <trkpt lat="46.61425" lon="5.53247">
        <ele>477.2</ele>
        <time>2022-08-20T15:26:23Z</time>
      </trkpt>
      <trkpt lat="46.61427" lon="5.53248">
        <ele>477</ele>
        <time>2022-08-20T15:26:24Z</time>
      </trkpt>
      <trkpt lat="46.61429" lon="5.53248">
        <ele>476.8</ele>
        <time>2022-08-20T15:26:25Z</time>
      </trkpt>
      <trkpt lat="46.61432" lon="5.53248">
        <ele>476.6</ele>
        <time>2022-08-20T15:26:26Z</time>
      </trkpt>
      <trkpt lat="46.61435" lon="5.53249">
        <ele>476.4</ele>
        <time>2022-08-20T15:26:27Z</time>
      </trkpt>
      <trkpt lat="46.61438" lon="5.5325">
        <ele>476.2</ele>
        <time>2022-08-20T15:26:28Z</time>
      </trkpt>
      <trkpt lat="46.61441" lon="5.53251">
        <ele>476</ele>
        <time>2022-08-20T15:26:29Z</time>
      </trkpt>
      <trkpt lat="46.61443" lon="5.53251">
        <ele>476</ele>
        <time>2022-08-20T15:26:30Z</time>
      </trkpt>
      <trkpt lat="46.61446" lon="5.53251">
        <ele>475.8</ele>
        <time>2022-08-20T15:26:31Z</time>
      </trkpt>
      <trkpt lat="46.6145" lon="5.53252">
        <ele>475.6</ele>
        <time>2022-08-20T15:26:32Z</time>
      </trkpt>
      <trkpt lat="46.61454" lon="5.53254">
        <ele>475.4</ele>
        <time>2022-08-20T15:26:33Z</time>
      </trkpt>
      <trkpt lat="46.61458" lon="5.53255">
        <ele>475.2</ele>
        <time>2022-08-20T15:26:34Z</time>
      </trkpt>
      <trkpt lat="46.61461" lon="5.53256">
        <ele>475</ele>
        <time>2022-08-20T15:26:35Z</time>
      </trkpt>
      <trkpt lat="46.61463" lon="5.53256">
        <ele>475</ele>
        <time>2022-08-20T15:26:36Z</time>
      </trkpt>
      <trkpt lat="46.61465" lon="5.53257">
        <ele>474.8</ele>
        <time>2022-08-20T15:26:37Z</time>
      </trkpt>
      <trkpt lat="46.61469" lon="5.53257">
        <ele>474.6</ele>
        <time>2022-08-20T15:26:38Z</time>
      </trkpt>
      <trkpt lat="46.61471" lon="5.53256">
        <ele>474.4</ele>
        <time>2022-08-20T15:26:39Z</time>
      </trkpt>
      <trkpt lat="46.61473" lon="5.53256">
        <ele>474.2</ele>
        <time>2022-08-20T15:26:40Z</time>
      </trkpt>
      <trkpt lat="46.61476" lon="5.53257">
        <ele>474</ele>
        <time>2022-08-20T15:26:41Z</time>
      </trkpt>
      <trkpt lat="46.61478" lon="5.53258">
        <ele>473.8</ele>
        <time>2022-08-20T15:26:42Z</time>
      </trkpt>
      <trkpt lat="46.6148" lon="5.53258">
        <ele>473.8</ele>
        <time>2022-08-20T15:26:43Z</time>
      </trkpt>
      <trkpt lat="46.61483" lon="5.53258">
        <ele>473.6</ele>
        <time>2022-08-20T15:26:44Z</time>
      </trkpt>
      <trkpt lat="46.61486" lon="5.53258">
        <ele>473.6</ele>
        <time>2022-08-20T15:26:45Z</time>
      </trkpt>
      <trkpt lat="46.61488" lon="5.53259">
        <ele>473.4</ele>
        <time>2022-08-20T15:26:46Z</time>
      </trkpt>
      <trkpt lat="46.61492" lon="5.5326">
        <ele>473.4</ele>
        <time>2022-08-20T15:26:47Z</time>
      </trkpt>
      <trkpt lat="46.61494" lon="5.53262">
        <ele>473.4</ele>
        <time>2022-08-20T15:26:48Z</time>
      </trkpt>
      <trkpt lat="46.61497" lon="5.53263">
        <ele>473.2</ele>
        <time>2022-08-20T15:26:49Z</time>
      </trkpt>
      <trkpt lat="46.615" lon="5.53263">
        <ele>473.2</ele>
        <time>2022-08-20T15:26:50Z</time>
      </trkpt>
      <trkpt lat="46.61503" lon="5.53264">
        <ele>473</ele>
        <time>2022-08-20T15:26:51Z</time>
      </trkpt>
      <trkpt lat="46.61505" lon="5.53265">
        <ele>473</ele>
        <time>2022-08-20T15:26:52Z</time>
      </trkpt>
      <trkpt lat="46.61508" lon="5.53265">
        <ele>472.8</ele>
        <time>2022-08-20T15:26:53Z</time>
      </trkpt>
      <trkpt lat="46.6151" lon="5.53266">
        <ele>472.8</ele>
        <time>2022-08-20T15:26:54Z</time>
      </trkpt>
      <trkpt lat="46.61513" lon="5.53266">
        <ele>472.6</ele>
        <time>2022-08-20T15:26:55Z</time>
      </trkpt>
      <trkpt lat="46.61516" lon="5.53267">
        <ele>472.6</ele>
        <time>2022-08-20T15:26:56Z</time>
      </trkpt>
      <trkpt lat="46.61519" lon="5.53268">
        <ele>472.4</ele>
        <time>2022-08-20T15:26:57Z</time>
      </trkpt>
      <trkpt lat="46.61522" lon="5.53269">
        <ele>472.4</ele>
        <time>2022-08-20T15:26:58Z</time>
      </trkpt>
      <trkpt lat="46.61525" lon="5.5327">
        <ele>472.2</ele>
        <time>2022-08-20T15:26:59Z</time>
      </trkpt>
      <trkpt lat="46.61529" lon="5.53272">
        <ele>472.2</ele>
        <time>2022-08-20T15:27:00Z</time>
      </trkpt>
      <trkpt lat="46.61532" lon="5.53273">
        <ele>472.2</ele>
        <time>2022-08-20T15:27:01Z</time>
      </trkpt>
      <trkpt lat="46.61536" lon="5.53273">
        <ele>472</ele>
        <time>2022-08-20T15:27:02Z</time>
      </trkpt>
      <trkpt lat="46.61539" lon="5.53273">
        <ele>472</ele>
        <time>2022-08-20T15:27:03Z</time>
      </trkpt>
      <trkpt lat="46.61542" lon="5.53273">
        <ele>471.8</ele>
        <time>2022-08-20T15:27:04Z</time>
      </trkpt>
      <trkpt lat="46.61545" lon="5.53273">
        <ele>471.8</ele>
        <time>2022-08-20T15:27:05Z</time>
      </trkpt>
      <trkpt lat="46.61547" lon="5.53273">
        <ele>471.6</ele>
        <time>2022-08-20T15:27:06Z</time>
      </trkpt>
      <trkpt lat="46.6155" lon="5.53274">
        <ele>471.6</ele>
        <time>2022-08-20T15:27:07Z</time>
      </trkpt>
      <trkpt lat="46.61554" lon="5.53274">
        <ele>471.6</ele>
        <time>2022-08-20T15:27:08Z</time>
      </trkpt>
      <trkpt lat="46.61557" lon="5.53274">
        <ele>471.4</ele>
        <time>2022-08-20T15:27:09Z</time>
      </trkpt>
      <trkpt lat="46.6156" lon="5.53273">
        <ele>471.4</ele>
        <time>2022-08-20T15:27:10Z</time>
      </trkpt>
      <trkpt lat="46.61563" lon="5.53273">
        <ele>471.4</ele>
        <time>2022-08-20T15:27:11Z</time>
      </trkpt>
      <trkpt lat="46.61566" lon="5.53274">
        <ele>471.4</ele>
        <time>2022-08-20T15:27:12Z</time>
      </trkpt>
      <trkpt lat="46.61569" lon="5.53275">
        <ele>471.2</ele>
        <time>2022-08-20T15:27:13Z</time>
      </trkpt>
      <trkpt lat="46.61572" lon="5.53276">
        <ele>471.2</ele>
        <time>2022-08-20T15:27:14Z</time>
      </trkpt>
      <trkpt lat="46.61574" lon="5.53277">
        <ele>471.2</ele>
        <time>2022-08-20T15:27:15Z</time>
      </trkpt>
      <trkpt lat="46.61577" lon="5.53278">
        <ele>471.2</ele>
        <time>2022-08-20T15:27:16Z</time>
      </trkpt>
      <trkpt lat="46.61579" lon="5.53279">
        <ele>471</ele>
        <time>2022-08-20T15:27:17Z</time>
      </trkpt>
      <trkpt lat="46.61581" lon="5.53281">
        <ele>471</ele>
        <time>2022-08-20T15:27:18Z</time>
      </trkpt>
      <trkpt lat="46.61584" lon="5.53282">
        <ele>471</ele>
        <time>2022-08-20T15:27:19Z</time>
      </trkpt>
      <trkpt lat="46.61586" lon="5.53282">
        <ele>470.8</ele>
        <time>2022-08-20T15:27:20Z</time>
      </trkpt>
      <trkpt lat="46.61589" lon="5.53283">
        <ele>470.8</ele>
        <time>2022-08-20T15:27:21Z</time>
      </trkpt>
      <trkpt lat="46.61592" lon="5.53283">
        <ele>470.8</ele>
        <time>2022-08-20T15:27:22Z</time>
      </trkpt>
      <trkpt lat="46.61594" lon="5.53284">
        <ele>470.8</ele>
        <time>2022-08-20T15:27:23Z</time>
      </trkpt>
      <trkpt lat="46.61596" lon="5.53284">
        <ele>470.8</ele>
        <time>2022-08-20T15:27:24Z</time>
      </trkpt>
      <trkpt lat="46.61598" lon="5.53284">
        <ele>470.6</ele>
        <time>2022-08-20T15:27:25Z</time>
      </trkpt>
      <trkpt lat="46.61601" lon="5.53284">
        <ele>470.6</ele>
        <time>2022-08-20T15:27:26Z</time>
      </trkpt>
      <trkpt lat="46.61603" lon="5.53285">
        <ele>470.6</ele>
        <time>2022-08-20T15:27:27Z</time>
      </trkpt>
      <trkpt lat="46.61607" lon="5.53286">
        <ele>470.4</ele>
        <time>2022-08-20T15:27:28Z</time>
      </trkpt>
      <trkpt lat="46.61611" lon="5.53286">
        <ele>470.4</ele>
        <time>2022-08-20T15:27:29Z</time>
      </trkpt>
      <trkpt lat="46.61615" lon="5.53286">
        <ele>470.4</ele>
        <time>2022-08-20T15:27:30Z</time>
      </trkpt>
      <trkpt lat="46.61619" lon="5.53286">
        <ele>470.4</ele>
        <time>2022-08-20T15:27:31Z</time>
      </trkpt>
      <trkpt lat="46.61621" lon="5.53287">
        <ele>470.4</ele>
        <time>2022-08-20T15:27:32Z</time>
      </trkpt>
      <trkpt lat="46.61624" lon="5.53288">
        <ele>470.2</ele>
        <time>2022-08-20T15:27:33Z</time>
      </trkpt>
      <trkpt lat="46.61627" lon="5.53288">
        <ele>470.2</ele>
        <time>2022-08-20T15:27:34Z</time>
      </trkpt>
      <trkpt lat="46.61629" lon="5.53288">
        <ele>470</ele>
        <time>2022-08-20T15:27:35Z</time>
      </trkpt>
      <trkpt lat="46.61632" lon="5.53288">
        <ele>470</ele>
        <time>2022-08-20T15:27:36Z</time>
      </trkpt>
      <trkpt lat="46.61635" lon="5.53288">
        <ele>470</ele>
        <time>2022-08-20T15:27:37Z</time>
      </trkpt>
      <trkpt lat="46.61638" lon="5.53288">
        <ele>470</ele>
        <time>2022-08-20T15:27:38Z</time>
      </trkpt>
      <trkpt lat="46.61641" lon="5.53289">
        <ele>470</ele>
        <time>2022-08-20T15:27:39Z</time>
      </trkpt>
      <trkpt lat="46.61644" lon="5.53289">
        <ele>469.8</ele>
        <time>2022-08-20T15:27:40Z</time>
      </trkpt>
      <trkpt lat="46.61647" lon="5.5329">
        <ele>469.8</ele>
        <time>2022-08-20T15:27:41Z</time>
      </trkpt>
      <trkpt lat="46.61649" lon="5.5329">
        <ele>469.8</ele>
        <time>2022-08-20T15:27:42Z</time>
      </trkpt>
      <trkpt lat="46.61653" lon="5.5329">
        <ele>469.8</ele>
        <time>2022-08-20T15:27:43Z</time>
      </trkpt>
      <trkpt lat="46.61655" lon="5.53291">
        <ele>469.8</ele>
        <time>2022-08-20T15:27:44Z</time>
      </trkpt>
      <trkpt lat="46.61659" lon="5.53292">
        <ele>469.6</ele>
        <time>2022-08-20T15:27:45Z</time>
      </trkpt>
      <trkpt lat="46.61661" lon="5.53292">
        <ele>469.6</ele>
        <time>2022-08-20T15:27:46Z</time>
      </trkpt>
      <trkpt lat="46.61665" lon="5.53295">
        <ele>469.4</ele>
        <time>2022-08-20T15:27:47Z</time>
      </trkpt>
      <trkpt lat="46.61668" lon="5.53296">
        <ele>469.4</ele>
        <time>2022-08-20T15:27:48Z</time>
      </trkpt>
      <trkpt lat="46.61671" lon="5.53298">
        <ele>469.4</ele>
        <time>2022-08-20T15:27:49Z</time>
      </trkpt>
      <trkpt lat="46.61673" lon="5.53298">
        <ele>469.4</ele>
        <time>2022-08-20T15:27:50Z</time>
      </trkpt>
      <trkpt lat="46.61677" lon="5.53297">
        <ele>469.4</ele>
        <time>2022-08-20T15:27:51Z</time>
      </trkpt>
      <trkpt lat="46.61679" lon="5.53298">
        <ele>469.2</ele>
        <time>2022-08-20T15:27:52Z</time>
      </trkpt>
      <trkpt lat="46.61681" lon="5.53299">
        <ele>469.2</ele>
        <time>2022-08-20T15:27:53Z</time>
      </trkpt>
      <trkpt lat="46.61685" lon="5.533">
        <ele>469</ele>
        <time>2022-08-20T15:27:54Z</time>
      </trkpt>
      <trkpt lat="46.61687" lon="5.53301">
        <ele>469</ele>
        <time>2022-08-20T15:27:55Z</time>
      </trkpt>
      <trkpt lat="46.6169" lon="5.53302">
        <ele>468.8</ele>
        <time>2022-08-20T15:27:56Z</time>
      </trkpt>
      <trkpt lat="46.61693" lon="5.53303">
        <ele>468.6</ele>
        <time>2022-08-20T15:27:57Z</time>
      </trkpt>
      <trkpt lat="46.61696" lon="5.53303">
        <ele>468.6</ele>
        <time>2022-08-20T15:27:58Z</time>
      </trkpt>
      <trkpt lat="46.61699" lon="5.53303">
        <ele>468.4</ele>
        <time>2022-08-20T15:27:59Z</time>
      </trkpt>
      <trkpt lat="46.61701" lon="5.53303">
        <ele>468.4</ele>
        <time>2022-08-20T15:28:00Z</time>
      </trkpt>
      <trkpt lat="46.61703" lon="5.53303">
        <ele>468.4</ele>
        <time>2022-08-20T15:28:01Z</time>
      </trkpt>
      <trkpt lat="46.61707" lon="5.53304">
        <ele>468.2</ele>
        <time>2022-08-20T15:28:02Z</time>
      </trkpt>
      <trkpt lat="46.6171" lon="5.53305">
        <ele>468.2</ele>
        <time>2022-08-20T15:28:03Z</time>
      </trkpt>
      <trkpt lat="46.61712" lon="5.53305">
        <ele>468</ele>
        <time>2022-08-20T15:28:04Z</time>
      </trkpt>
      <trkpt lat="46.61714" lon="5.53305">
        <ele>467.8</ele>
        <time>2022-08-20T15:28:05Z</time>
      </trkpt>
      <trkpt lat="46.61717" lon="5.53305">
        <ele>467.8</ele>
        <time>2022-08-20T15:28:06Z</time>
      </trkpt>
      <trkpt lat="46.61718" lon="5.53305">
        <ele>467.6</ele>
        <time>2022-08-20T15:28:07Z</time>
      </trkpt>
      <trkpt lat="46.61721" lon="5.53305">
        <ele>467.6</ele>
        <time>2022-08-20T15:28:08Z</time>
      </trkpt>
      <trkpt lat="46.61724" lon="5.53305">
        <ele>467.4</ele>
        <time>2022-08-20T15:28:09Z</time>
      </trkpt>
      <trkpt lat="46.61727" lon="5.53305">
        <ele>467.2</ele>
        <time>2022-08-20T15:28:10Z</time>
      </trkpt>
      <trkpt lat="46.61731" lon="5.53306">
        <ele>467.2</ele>
        <time>2022-08-20T15:28:11Z</time>
      </trkpt>
      <trkpt lat="46.61735" lon="5.53307">
        <ele>467</ele>
        <time>2022-08-20T15:28:12Z</time>
      </trkpt>
      <trkpt lat="46.61738" lon="5.53307">
        <ele>466.8</ele>
        <time>2022-08-20T15:28:13Z</time>
      </trkpt>
      <trkpt lat="46.61741" lon="5.53308">
        <ele>466.6</ele>
        <time>2022-08-20T15:28:14Z</time>
      </trkpt>
      <trkpt lat="46.61745" lon="5.53309">
        <ele>466.6</ele>
        <time>2022-08-20T15:28:15Z</time>
      </trkpt>
      <trkpt lat="46.61749" lon="5.53309">
        <ele>466.4</ele>
        <time>2022-08-20T15:28:16Z</time>
      </trkpt>
      <trkpt lat="46.61752" lon="5.5331">
        <ele>466.4</ele>
        <time>2022-08-20T15:28:17Z</time>
      </trkpt>
      <trkpt lat="46.61754" lon="5.5331">
        <ele>466.2</ele>
        <time>2022-08-20T15:28:18Z</time>
      </trkpt>
      <trkpt lat="46.61757" lon="5.53311">
        <ele>466.2</ele>
        <time>2022-08-20T15:28:19Z</time>
      </trkpt>
      <trkpt lat="46.61759" lon="5.53311">
        <ele>466</ele>
        <time>2022-08-20T15:28:20Z</time>
      </trkpt>
      <trkpt lat="46.61762" lon="5.53311">
        <ele>465.8</ele>
        <time>2022-08-20T15:28:21Z</time>
      </trkpt>
      <trkpt lat="46.61764" lon="5.53312">
        <ele>465.8</ele>
        <time>2022-08-20T15:28:22Z</time>
      </trkpt>
      <trkpt lat="46.61766" lon="5.53312">
        <ele>465.6</ele>
        <time>2022-08-20T15:28:23Z</time>
      </trkpt>
      <trkpt lat="46.61768" lon="5.53313">
        <ele>465.6</ele>
        <time>2022-08-20T15:28:24Z</time>
      </trkpt>
      <trkpt lat="46.6177" lon="5.53314">
        <ele>465.4</ele>
        <time>2022-08-20T15:28:25Z</time>
      </trkpt>
      <trkpt lat="46.61772" lon="5.53316">
        <ele>465.2</ele>
        <time>2022-08-20T15:28:26Z</time>
      </trkpt>
      <trkpt lat="46.61775" lon="5.53317">
        <ele>465.2</ele>
        <time>2022-08-20T15:28:27Z</time>
      </trkpt>
      <trkpt lat="46.61778" lon="5.53319">
        <ele>465</ele>
        <time>2022-08-20T15:28:28Z</time>
      </trkpt>
      <trkpt lat="46.6178" lon="5.5332">
        <ele>465</ele>
        <time>2022-08-20T15:28:29Z</time>
      </trkpt>
      <trkpt lat="46.61782" lon="5.53321">
        <ele>464.8</ele>
        <time>2022-08-20T15:28:30Z</time>
      </trkpt>
      <trkpt lat="46.61785" lon="5.53323">
        <ele>464.8</ele>
        <time>2022-08-20T15:28:31Z</time>
      </trkpt>
      <trkpt lat="46.61788" lon="5.53324">
        <ele>464.6</ele>
        <time>2022-08-20T15:28:32Z</time>
      </trkpt>
      <trkpt lat="46.61789" lon="5.53324">
        <ele>464.6</ele>
        <time>2022-08-20T15:28:33Z</time>
      </trkpt>
      <trkpt lat="46.61793" lon="5.53324">
        <ele>464.4</ele>
        <time>2022-08-20T15:28:34Z</time>
      </trkpt>
      <trkpt lat="46.61796" lon="5.53324">
        <ele>464.4</ele>
        <time>2022-08-20T15:28:35Z</time>
      </trkpt>
      <trkpt lat="46.618" lon="5.53323">
        <ele>464.2</ele>
        <time>2022-08-20T15:28:36Z</time>
      </trkpt>
      <trkpt lat="46.61804" lon="5.53323">
        <ele>464</ele>
        <time>2022-08-20T15:28:37Z</time>
      </trkpt>
      <trkpt lat="46.61807" lon="5.53322">
        <ele>464</ele>
        <time>2022-08-20T15:28:38Z</time>
      </trkpt>
      <trkpt lat="46.6181" lon="5.53321">
        <ele>463.8</ele>
        <time>2022-08-20T15:28:39Z</time>
      </trkpt>
      <trkpt lat="46.61812" lon="5.5332">
        <ele>463.6</ele>
        <time>2022-08-20T15:28:40Z</time>
      </trkpt>
      <trkpt lat="46.61815" lon="5.53319">
        <ele>463.6</ele>
        <time>2022-08-20T15:28:41Z</time>
      </trkpt>
      <trkpt lat="46.61816" lon="5.5332">
        <ele>463.4</ele>
        <time>2022-08-20T15:28:42Z</time>
      </trkpt>
      <trkpt lat="46.61818" lon="5.5332">
        <ele>463.2</ele>
        <time>2022-08-20T15:28:43Z</time>
      </trkpt>
      <trkpt lat="46.61821" lon="5.53321">
        <ele>463.2</ele>
        <time>2022-08-20T15:28:44Z</time>
      </trkpt>
      <trkpt lat="46.61824" lon="5.53322">
        <ele>463</ele>
        <time>2022-08-20T15:28:45Z</time>
      </trkpt>
      <trkpt lat="46.61827" lon="5.53323">
        <ele>463</ele>
        <time>2022-08-20T15:28:46Z</time>
      </trkpt>
      <trkpt lat="46.6183" lon="5.53324">
        <ele>463</ele>
        <time>2022-08-20T15:28:47Z</time>
      </trkpt>
      <trkpt lat="46.61832" lon="5.53325">
        <ele>463</ele>
        <time>2022-08-20T15:28:48Z</time>
      </trkpt>
      <trkpt lat="46.61835" lon="5.53326">
        <ele>462.8</ele>
        <time>2022-08-20T15:28:50Z</time>
      </trkpt>
      <trkpt lat="46.61837" lon="5.53326">
        <ele>462.8</ele>
        <time>2022-08-20T15:28:51Z</time>
      </trkpt>
      <trkpt lat="46.6184" lon="5.53326">
        <ele>462.6</ele>
        <time>2022-08-20T15:28:52Z</time>
      </trkpt>
      <trkpt lat="46.61846" lon="5.53328">
        <ele>462.4</ele>
        <time>2022-08-20T15:28:54Z</time>
      </trkpt>
      <trkpt lat="46.61847" lon="5.53328">
        <ele>462.2</ele>
        <time>2022-08-20T15:28:55Z</time>
      </trkpt>
      <trkpt lat="46.6185" lon="5.53328">
        <ele>462.2</ele>
        <time>2022-08-20T15:28:56Z</time>
      </trkpt>
      <trkpt lat="46.61854" lon="5.53328">
        <ele>462</ele>
        <time>2022-08-20T15:28:57Z</time>
      </trkpt>
      <trkpt lat="46.61857" lon="5.53328">
        <ele>461.8</ele>
        <time>2022-08-20T15:28:58Z</time>
      </trkpt>
      <trkpt lat="46.6186" lon="5.53329">
        <ele>461.8</ele>
        <time>2022-08-20T15:28:59Z</time>
      </trkpt>
      <trkpt lat="46.61863" lon="5.53328">
        <ele>461.6</ele>
        <time>2022-08-20T15:29:00Z</time>
      </trkpt>
      <trkpt lat="46.61866" lon="5.53329">
        <ele>461.6</ele>
        <time>2022-08-20T15:29:01Z</time>
      </trkpt>
      <trkpt lat="46.61869" lon="5.53329">
        <ele>461.4</ele>
        <time>2022-08-20T15:29:02Z</time>
      </trkpt>
      <trkpt lat="46.61872" lon="5.53329">
        <ele>461.4</ele>
        <time>2022-08-20T15:29:03Z</time>
      </trkpt>
      <trkpt lat="46.61876" lon="5.5333">
        <ele>461.2</ele>
        <time>2022-08-20T15:29:04Z</time>
      </trkpt>
      <trkpt lat="46.61879" lon="5.53331">
        <ele>461.2</ele>
        <time>2022-08-20T15:29:05Z</time>
      </trkpt>
      <trkpt lat="46.61883" lon="5.53331">
        <ele>461</ele>
        <time>2022-08-20T15:29:06Z</time>
      </trkpt>
      <trkpt lat="46.61886" lon="5.53331">
        <ele>461</ele>
        <time>2022-08-20T15:29:07Z</time>
      </trkpt>
      <trkpt lat="46.61889" lon="5.53331">
        <ele>460.8</ele>
        <time>2022-08-20T15:29:08Z</time>
      </trkpt>
      <trkpt lat="46.61892" lon="5.53331">
        <ele>460.6</ele>
        <time>2022-08-20T15:29:09Z</time>
      </trkpt>
      <trkpt lat="46.61895" lon="5.53331">
        <ele>460.4</ele>
        <time>2022-08-20T15:29:10Z</time>
      </trkpt>
      <trkpt lat="46.61898" lon="5.53332">
        <ele>460.2</ele>
        <time>2022-08-20T15:29:11Z</time>
      </trkpt>
      <trkpt lat="46.61902" lon="5.53332">
        <ele>460.2</ele>
        <time>2022-08-20T15:29:12Z</time>
      </trkpt>
      <trkpt lat="46.61907" lon="5.53333">
        <ele>460</ele>
        <time>2022-08-20T15:29:13Z</time>
      </trkpt>
      <trkpt lat="46.6191" lon="5.53335">
        <ele>460</ele>
        <time>2022-08-20T15:29:14Z</time>
      </trkpt>
      <trkpt lat="46.61914" lon="5.53335">
        <ele>459.8</ele>
        <time>2022-08-20T15:29:15Z</time>
      </trkpt>
      <trkpt lat="46.61917" lon="5.53336">
        <ele>459.6</ele>
        <time>2022-08-20T15:29:16Z</time>
      </trkpt>
      <trkpt lat="46.61921" lon="5.53335">
        <ele>459.6</ele>
        <time>2022-08-20T15:29:17Z</time>
      </trkpt>
      <trkpt lat="46.61923" lon="5.53335">
        <ele>459.4</ele>
        <time>2022-08-20T15:29:18Z</time>
      </trkpt>
      <trkpt lat="46.61925" lon="5.53335">
        <ele>459.2</ele>
        <time>2022-08-20T15:29:19Z</time>
      </trkpt>
      <trkpt lat="46.61928" lon="5.53336">
        <ele>458.8</ele>
        <time>2022-08-20T15:29:21Z</time>
      </trkpt>
      <trkpt lat="46.6193" lon="5.53337">
        <ele>458.6</ele>
        <time>2022-08-20T15:29:23Z</time>
      </trkpt>
      <trkpt lat="46.61933" lon="5.53338">
        <ele>456.2</ele>
        <time>2022-08-20T15:29:50Z</time>
      </trkpt>
      <trkpt lat="46.61934" lon="5.53338">
        <ele>456</ele>
        <time>2022-08-20T15:29:51Z</time>
      </trkpt>
      <trkpt lat="46.61938" lon="5.53339">
        <ele>455.8</ele>
        <time>2022-08-20T15:29:53Z</time>
      </trkpt>
      <trkpt lat="46.6194" lon="5.5334">
        <ele>455.8</ele>
        <time>2022-08-20T15:29:54Z</time>
      </trkpt>
      <trkpt lat="46.61944" lon="5.5334">
        <ele>455.6</ele>
        <time>2022-08-20T15:29:56Z</time>
      </trkpt>
      <trkpt lat="46.61946" lon="5.5334">
        <ele>455.6</ele>
        <time>2022-08-20T15:29:57Z</time>
      </trkpt>
      <trkpt lat="46.61948" lon="5.5334">
        <ele>455.4</ele>
        <time>2022-08-20T15:29:58Z</time>
      </trkpt>
      <trkpt lat="46.61951" lon="5.53341">
        <ele>455.4</ele>
        <time>2022-08-20T15:30:00Z</time>
      </trkpt>
      <trkpt lat="46.61955" lon="5.53341">
        <ele>455</ele>
        <time>2022-08-20T15:30:02Z</time>
      </trkpt>
      <trkpt lat="46.61957" lon="5.53341">
        <ele>455</ele>
        <time>2022-08-20T15:30:03Z</time>
      </trkpt>
      <trkpt lat="46.61959" lon="5.53341">
        <ele>455</ele>
        <time>2022-08-20T15:30:05Z</time>
      </trkpt>
      <trkpt lat="46.61962" lon="5.5334">
        <ele>455</ele>
        <time>2022-08-20T15:30:06Z</time>
      </trkpt>
      <trkpt lat="46.61964" lon="5.53338">
        <ele>454.8</ele>
        <time>2022-08-20T15:30:08Z</time>
      </trkpt>
      <trkpt lat="46.61967" lon="5.53337">
        <ele>454.6</ele>
        <time>2022-08-20T15:30:10Z</time>
      </trkpt>
      <trkpt lat="46.61969" lon="5.53336">
        <ele>454.6</ele>
        <time>2022-08-20T15:30:12Z</time>
      </trkpt>
      <trkpt lat="46.61972" lon="5.53336">
        <ele>454.4</ele>
        <time>2022-08-20T15:30:14Z</time>
      </trkpt>
      <trkpt lat="46.61975" lon="5.53336">
        <ele>454.4</ele>
        <time>2022-08-20T15:30:16Z</time>
      </trkpt>
      <trkpt lat="46.61977" lon="5.53336">
        <ele>454.4</ele>
        <time>2022-08-20T15:30:18Z</time>
      </trkpt>
      <trkpt lat="46.6198" lon="5.53337">
        <ele>454.4</ele>
        <time>2022-08-20T15:30:20Z</time>
      </trkpt>
      <trkpt lat="46.61982" lon="5.53337">
        <ele>454.4</ele>
        <time>2022-08-20T15:30:22Z</time>
      </trkpt>
      <trkpt lat="46.61985" lon="5.53338">
        <ele>454.4</ele>
        <time>2022-08-20T15:30:24Z</time>
      </trkpt>
      <trkpt lat="46.61988" lon="5.53338">
        <ele>454.2</ele>
        <time>2022-08-20T15:30:26Z</time>
      </trkpt>
      <trkpt lat="46.61991" lon="5.53338">
        <ele>454.2</ele>
        <time>2022-08-20T15:30:28Z</time>
      </trkpt>
      <trkpt lat="46.61993" lon="5.53337">
        <ele>454.2</ele>
        <time>2022-08-20T15:30:30Z</time>
      </trkpt>
      <trkpt lat="46.61995" lon="5.53337">
        <ele>454.2</ele>
        <time>2022-08-20T15:30:31Z</time>
      </trkpt>
      <trkpt lat="46.61997" lon="5.53337">
        <ele>454.2</ele>
        <time>2022-08-20T15:30:32Z</time>
      </trkpt>
      <trkpt lat="46.61999" lon="5.53337">
        <ele>454.2</ele>
        <time>2022-08-20T15:30:33Z</time>
      </trkpt>
      <trkpt lat="46.62002" lon="5.53338">
        <ele>454.2</ele>
        <time>2022-08-20T15:30:34Z</time>
      </trkpt>
      <trkpt lat="46.62004" lon="5.53339">
        <ele>454.2</ele>
        <time>2022-08-20T15:30:35Z</time>
      </trkpt>
      <trkpt lat="46.62007" lon="5.5334">
        <ele>454.4</ele>
        <time>2022-08-20T15:30:37Z</time>
      </trkpt>
      <trkpt lat="46.62009" lon="5.53338">
        <ele>454.4</ele>
        <time>2022-08-20T15:30:39Z</time>
      </trkpt>
      <trkpt lat="46.62012" lon="5.53338">
        <ele>454.4</ele>
        <time>2022-08-20T15:30:41Z</time>
      </trkpt>
      <trkpt lat="46.62014" lon="5.53338">
        <ele>454.4</ele>
        <time>2022-08-20T15:30:42Z</time>
      </trkpt>
      <trkpt lat="46.62016" lon="5.53339">
        <ele>454.4</ele>
        <time>2022-08-20T15:30:43Z</time>
      </trkpt>
      <trkpt lat="46.62018" lon="5.53338">
        <ele>454.4</ele>
        <time>2022-08-20T15:30:44Z</time>
      </trkpt>
      <trkpt lat="46.62023" lon="5.53339">
        <ele>454.6</ele>
        <time>2022-08-20T15:30:46Z</time>
      </trkpt>
      <trkpt lat="46.62024" lon="5.53339">
        <ele>454.6</ele>
        <time>2022-08-20T15:30:47Z</time>
      </trkpt>
      <trkpt lat="46.62026" lon="5.53339">
        <ele>454.6</ele>
        <time>2022-08-20T15:30:48Z</time>
      </trkpt>
      <trkpt lat="46.62029" lon="5.5334">
        <ele>454.6</ele>
        <time>2022-08-20T15:30:50Z</time>
      </trkpt>
      <trkpt lat="46.62031" lon="5.53339">
        <ele>454.8</ele>
        <time>2022-08-20T15:30:51Z</time>
      </trkpt>
      <trkpt lat="46.62033" lon="5.53339">
        <ele>454.8</ele>
        <time>2022-08-20T15:30:53Z</time>
      </trkpt>
      <trkpt lat="46.62037" lon="5.5334">
        <ele>454.6</ele>
        <time>2022-08-20T15:30:55Z</time>
      </trkpt>
      <trkpt lat="46.62038" lon="5.5334">
        <ele>454.6</ele>
        <time>2022-08-20T15:30:56Z</time>
      </trkpt>
      <trkpt lat="46.6204" lon="5.5334">
        <ele>454.6</ele>
        <time>2022-08-20T15:30:57Z</time>
      </trkpt>
      <trkpt lat="46.62044" lon="5.5334">
        <ele>454.4</ele>
        <time>2022-08-20T15:30:59Z</time>
      </trkpt>
      <trkpt lat="46.62045" lon="5.5334">
        <ele>454.2</ele>
        <time>2022-08-20T15:31:00Z</time>
      </trkpt>
      <trkpt lat="46.62048" lon="5.53338">
        <ele>454</ele>
        <time>2022-08-20T15:31:02Z</time>
      </trkpt>
      <trkpt lat="46.62052" lon="5.53338">
        <ele>453.8</ele>
        <time>2022-08-20T15:31:04Z</time>
      </trkpt>
      <trkpt lat="46.62053" lon="5.53338">
        <ele>453.8</ele>
        <time>2022-08-20T15:31:05Z</time>
      </trkpt>
      <trkpt lat="46.62056" lon="5.53338">
        <ele>453.6</ele>
        <time>2022-08-20T15:31:07Z</time>
      </trkpt>
      <trkpt lat="46.62058" lon="5.53338">
        <ele>453.4</ele>
        <time>2022-08-20T15:31:08Z</time>
      </trkpt>
      <trkpt lat="46.6206" lon="5.53338">
        <ele>453.4</ele>
        <time>2022-08-20T15:31:09Z</time>
      </trkpt>
      <trkpt lat="46.62062" lon="5.53338">
        <ele>453.4</ele>
        <time>2022-08-20T15:31:10Z</time>
      </trkpt>
      <trkpt lat="46.62064" lon="5.53337">
        <ele>453.2</ele>
        <time>2022-08-20T15:31:11Z</time>
      </trkpt>
      <trkpt lat="46.62066" lon="5.53335">
        <ele>453.2</ele>
        <time>2022-08-20T15:31:12Z</time>
      </trkpt>
      <trkpt lat="46.62069" lon="5.53335">
        <ele>453.2</ele>
        <time>2022-08-20T15:31:14Z</time>
      </trkpt>
      <trkpt lat="46.62071" lon="5.53335">
        <ele>453.2</ele>
        <time>2022-08-20T15:31:15Z</time>
      </trkpt>
      <trkpt lat="46.62074" lon="5.53335">
        <ele>453</ele>
        <time>2022-08-20T15:31:17Z</time>
      </trkpt>
      <trkpt lat="46.62077" lon="5.53336">
        <ele>453</ele>
        <time>2022-08-20T15:31:19Z</time>
      </trkpt>
      <trkpt lat="46.62079" lon="5.53336">
        <ele>453</ele>
        <time>2022-08-20T15:31:20Z</time>
      </trkpt>
      <trkpt lat="46.62081" lon="5.53335">
        <ele>453</ele>
        <time>2022-08-20T15:31:22Z</time>
      </trkpt>
      <trkpt lat="46.62083" lon="5.53334">
        <ele>453</ele>
        <time>2022-08-20T15:31:24Z</time>
      </trkpt>
      <trkpt lat="46.62086" lon="5.53333">
        <ele>453</ele>
        <time>2022-08-20T15:31:26Z</time>
      </trkpt>
      <trkpt lat="46.62088" lon="5.53333">
        <ele>453</ele>
        <time>2022-08-20T15:31:27Z</time>
      </trkpt>
      <trkpt lat="46.62091" lon="5.53334">
        <ele>453.2</ele>
        <time>2022-08-20T15:31:29Z</time>
      </trkpt>
      <trkpt lat="46.62094" lon="5.53334">
        <ele>453.2</ele>
        <time>2022-08-20T15:31:31Z</time>
      </trkpt>
      <trkpt lat="46.62096" lon="5.53334">
        <ele>453.2</ele>
        <time>2022-08-20T15:31:33Z</time>
      </trkpt>
      <trkpt lat="46.62098" lon="5.53333">
        <ele>453.2</ele>
        <time>2022-08-20T15:31:34Z</time>
      </trkpt>
      <trkpt lat="46.62101" lon="5.53332">
        <ele>453.2</ele>
        <time>2022-08-20T15:31:36Z</time>
      </trkpt>
      <trkpt lat="46.62103" lon="5.53332">
        <ele>453.2</ele>
        <time>2022-08-20T15:31:37Z</time>
      </trkpt>
      <trkpt lat="46.62105" lon="5.53332">
        <ele>453.4</ele>
        <time>2022-08-20T15:31:38Z</time>
      </trkpt>
      <trkpt lat="46.62107" lon="5.53332">
        <ele>453.4</ele>
        <time>2022-08-20T15:31:39Z</time>
      </trkpt>
      <trkpt lat="46.6211" lon="5.5333">
        <ele>453.4</ele>
        <time>2022-08-20T15:31:41Z</time>
      </trkpt>
      <trkpt lat="46.62112" lon="5.5333">
        <ele>453.4</ele>
        <time>2022-08-20T15:31:42Z</time>
      </trkpt>
      <trkpt lat="46.62114" lon="5.5333">
        <ele>453.2</ele>
        <time>2022-08-20T15:31:44Z</time>
      </trkpt>
      <trkpt lat="46.62116" lon="5.5333">
        <ele>453.2</ele>
        <time>2022-08-20T15:31:46Z</time>
      </trkpt>
      <trkpt lat="46.62118" lon="5.53329">
        <ele>453.6</ele>
        <time>2022-08-20T15:32:39Z</time>
      </trkpt>
      <trkpt lat="46.6212" lon="5.53329">
        <ele>453.6</ele>
        <time>2022-08-20T15:32:40Z</time>
      </trkpt>
      <trkpt lat="46.62122" lon="5.53328">
        <ele>453.8</ele>
        <time>2022-08-20T15:32:41Z</time>
      </trkpt>
      <trkpt lat="46.62124" lon="5.53327">
        <ele>453.8</ele>
        <time>2022-08-20T15:32:42Z</time>
      </trkpt>
      <trkpt lat="46.62126" lon="5.53327">
        <ele>453.8</ele>
        <time>2022-08-20T15:32:43Z</time>
      </trkpt>
      <trkpt lat="46.62129" lon="5.53326">
        <ele>453.8</ele>
        <time>2022-08-20T15:32:45Z</time>
      </trkpt>
      <trkpt lat="46.62132" lon="5.53324">
        <ele>454</ele>
        <time>2022-08-20T15:32:47Z</time>
      </trkpt>
      <trkpt lat="46.62134" lon="5.53322">
        <ele>454</ele>
        <time>2022-08-20T15:32:49Z</time>
      </trkpt>
      <trkpt lat="46.62137" lon="5.53321">
        <ele>454</ele>
        <time>2022-08-20T15:32:51Z</time>
      </trkpt>
      <trkpt lat="46.6214" lon="5.53321">
        <ele>454</ele>
        <time>2022-08-20T15:32:53Z</time>
      </trkpt>
      <trkpt lat="46.62143" lon="5.5332">
        <ele>454</ele>
        <time>2022-08-20T15:32:55Z</time>
      </trkpt>
      <trkpt lat="46.62146" lon="5.53318">
        <ele>454</ele>
        <time>2022-08-20T15:32:56Z</time>
      </trkpt>
      <trkpt lat="46.62148" lon="5.53316">
        <ele>454</ele>
        <time>2022-08-20T15:32:57Z</time>
      </trkpt>
      <trkpt lat="46.62151" lon="5.53315">
        <ele>454</ele>
        <time>2022-08-20T15:32:58Z</time>
      </trkpt>
      <trkpt lat="46.62153" lon="5.53314">
        <ele>454</ele>
        <time>2022-08-20T15:32:59Z</time>
      </trkpt>
      <trkpt lat="46.62156" lon="5.53313">
        <ele>454</ele>
        <time>2022-08-20T15:33:00Z</time>
      </trkpt>
      <trkpt lat="46.62159" lon="5.53312">
        <ele>453.8</ele>
        <time>2022-08-20T15:33:01Z</time>
      </trkpt>
      <trkpt lat="46.62162" lon="5.53311">
        <ele>453.8</ele>
        <time>2022-08-20T15:33:02Z</time>
      </trkpt>
      <trkpt lat="46.62164" lon="5.5331">
        <ele>453.6</ele>
        <time>2022-08-20T15:33:03Z</time>
      </trkpt>
      <trkpt lat="46.62168" lon="5.53309">
        <ele>453.6</ele>
        <time>2022-08-20T15:33:04Z</time>
      </trkpt>
      <trkpt lat="46.62171" lon="5.53308">
        <ele>453.6</ele>
        <time>2022-08-20T15:33:05Z</time>
      </trkpt>
      <trkpt lat="46.62174" lon="5.53307">
        <ele>453.4</ele>
        <time>2022-08-20T15:33:06Z</time>
      </trkpt>
      <trkpt lat="46.62177" lon="5.53306">
        <ele>453.4</ele>
        <time>2022-08-20T15:33:07Z</time>
      </trkpt>
      <trkpt lat="46.6218" lon="5.53306">
        <ele>453.2</ele>
        <time>2022-08-20T15:33:08Z</time>
      </trkpt>
      <trkpt lat="46.62183" lon="5.53306">
        <ele>453.2</ele>
        <time>2022-08-20T15:33:09Z</time>
      </trkpt>
      <trkpt lat="46.62187" lon="5.53306">
        <ele>453.2</ele>
        <time>2022-08-20T15:33:10Z</time>
      </trkpt>
      <trkpt lat="46.6219" lon="5.53305">
        <ele>453.2</ele>
        <time>2022-08-20T15:33:11Z</time>
      </trkpt>
      <trkpt lat="46.62193" lon="5.53305">
        <ele>453.2</ele>
        <time>2022-08-20T15:33:12Z</time>
      </trkpt>
      <trkpt lat="46.62197" lon="5.53304">
        <ele>453.2</ele>
        <time>2022-08-20T15:33:13Z</time>
      </trkpt>
      <trkpt lat="46.622" lon="5.53303">
        <ele>453.2</ele>
        <time>2022-08-20T15:33:14Z</time>
      </trkpt>
      <trkpt lat="46.62203" lon="5.53302">
        <ele>453.2</ele>
        <time>2022-08-20T15:33:15Z</time>
      </trkpt>
      <trkpt lat="46.62205" lon="5.533">
        <ele>453</ele>
        <time>2022-08-20T15:33:16Z</time>
      </trkpt>
      <trkpt lat="46.62208" lon="5.53297">
        <ele>453</ele>
        <time>2022-08-20T15:33:17Z</time>
      </trkpt>
      <trkpt lat="46.62211" lon="5.53296">
        <ele>452.8</ele>
        <time>2022-08-20T15:33:18Z</time>
      </trkpt>
      <trkpt lat="46.62213" lon="5.53294">
        <ele>452.6</ele>
        <time>2022-08-20T15:33:19Z</time>
      </trkpt>
      <trkpt lat="46.62216" lon="5.53292">
        <ele>452.4</ele>
        <time>2022-08-20T15:33:20Z</time>
      </trkpt>
      <trkpt lat="46.62219" lon="5.5329">
        <ele>452.2</ele>
        <time>2022-08-20T15:33:21Z</time>
      </trkpt>
      <trkpt lat="46.62222" lon="5.5329">
        <ele>452</ele>
        <time>2022-08-20T15:33:22Z</time>
      </trkpt>
      <trkpt lat="46.62225" lon="5.5329">
        <ele>451.6</ele>
        <time>2022-08-20T15:33:23Z</time>
      </trkpt>
      <trkpt lat="46.62229" lon="5.53289">
        <ele>451.4</ele>
        <time>2022-08-20T15:33:24Z</time>
      </trkpt>
      <trkpt lat="46.62231" lon="5.53287">
        <ele>451.2</ele>
        <time>2022-08-20T15:33:25Z</time>
      </trkpt>
      <trkpt lat="46.62235" lon="5.53286">
        <ele>451</ele>
        <time>2022-08-20T15:33:26Z</time>
      </trkpt>
      <trkpt lat="46.62237" lon="5.53285">
        <ele>450.8</ele>
        <time>2022-08-20T15:33:27Z</time>
      </trkpt>
      <trkpt lat="46.6224" lon="5.53282">
        <ele>450.6</ele>
        <time>2022-08-20T15:33:28Z</time>
      </trkpt>
      <trkpt lat="46.62243" lon="5.5328">
        <ele>450.4</ele>
        <time>2022-08-20T15:33:29Z</time>
      </trkpt>
      <trkpt lat="46.62245" lon="5.53277">
        <ele>450.2</ele>
        <time>2022-08-20T15:33:30Z</time>
      </trkpt>
      <trkpt lat="46.62247" lon="5.53276">
        <ele>450</ele>
        <time>2022-08-20T15:33:31Z</time>
      </trkpt>
      <trkpt lat="46.62251" lon="5.53272">
        <ele>450</ele>
        <time>2022-08-20T15:33:32Z</time>
      </trkpt>
      <trkpt lat="46.62253" lon="5.53269">
        <ele>449.8</ele>
        <time>2022-08-20T15:33:33Z</time>
      </trkpt>
      <trkpt lat="46.62257" lon="5.53267">
        <ele>449.6</ele>
        <time>2022-08-20T15:33:34Z</time>
      </trkpt>
      <trkpt lat="46.62261" lon="5.53266">
        <ele>449.4</ele>
        <time>2022-08-20T15:33:35Z</time>
      </trkpt>
      <trkpt lat="46.62264" lon="5.53265">
        <ele>449.2</ele>
        <time>2022-08-20T15:33:36Z</time>
      </trkpt>
      <trkpt lat="46.62267" lon="5.53264">
        <ele>449</ele>
        <time>2022-08-20T15:33:37Z</time>
      </trkpt>
      <trkpt lat="46.6227" lon="5.53262">
        <ele>448.8</ele>
        <time>2022-08-20T15:33:38Z</time>
      </trkpt>
      <trkpt lat="46.62273" lon="5.53261">
        <ele>448.6</ele>
        <time>2022-08-20T15:33:39Z</time>
      </trkpt>
      <trkpt lat="46.62275" lon="5.53259">
        <ele>448.4</ele>
        <time>2022-08-20T15:33:40Z</time>
      </trkpt>
      <trkpt lat="46.62278" lon="5.53258">
        <ele>448</ele>
        <time>2022-08-20T15:33:41Z</time>
      </trkpt>
      <trkpt lat="46.6228" lon="5.53256">
        <ele>447.8</ele>
        <time>2022-08-20T15:33:42Z</time>
      </trkpt>
      <trkpt lat="46.62283" lon="5.53254">
        <ele>447.6</ele>
        <time>2022-08-20T15:33:43Z</time>
      </trkpt>
      <trkpt lat="46.62285" lon="5.53249">
        <ele>447.4</ele>
        <time>2022-08-20T15:33:44Z</time>
      </trkpt>
      <trkpt lat="46.62286" lon="5.53245">
        <ele>447.2</ele>
        <time>2022-08-20T15:33:45Z</time>
      </trkpt>
      <trkpt lat="46.62289" lon="5.53243">
        <ele>447</ele>
        <time>2022-08-20T15:33:46Z</time>
      </trkpt>
      <trkpt lat="46.62292" lon="5.53242">
        <ele>446.8</ele>
        <time>2022-08-20T15:33:47Z</time>
      </trkpt>
      <trkpt lat="46.62295" lon="5.53241">
        <ele>446.6</ele>
        <time>2022-08-20T15:33:48Z</time>
      </trkpt>
      <trkpt lat="46.62297" lon="5.53239">
        <ele>446.6</ele>
        <time>2022-08-20T15:33:49Z</time>
      </trkpt>
      <trkpt lat="46.623" lon="5.53238">
        <ele>446.4</ele>
        <time>2022-08-20T15:33:50Z</time>
      </trkpt>
      <trkpt lat="46.62303" lon="5.53237">
        <ele>446.2</ele>
        <time>2022-08-20T15:33:51Z</time>
      </trkpt>
      <trkpt lat="46.62306" lon="5.53234">
        <ele>446.2</ele>
        <time>2022-08-20T15:33:52Z</time>
      </trkpt>
      <trkpt lat="46.62309" lon="5.53231">
        <ele>446</ele>
        <time>2022-08-20T15:33:53Z</time>
      </trkpt>
      <trkpt lat="46.62311" lon="5.5323">
        <ele>446</ele>
        <time>2022-08-20T15:33:54Z</time>
      </trkpt>
      <trkpt lat="46.62314" lon="5.53229">
        <ele>445.8</ele>
        <time>2022-08-20T15:33:55Z</time>
      </trkpt>
      <trkpt lat="46.62316" lon="5.53226">
        <ele>445.6</ele>
        <time>2022-08-20T15:33:56Z</time>
      </trkpt>
      <trkpt lat="46.62319" lon="5.53223">
        <ele>445.4</ele>
        <time>2022-08-20T15:33:57Z</time>
      </trkpt>
      <trkpt lat="46.62322" lon="5.53222">
        <ele>445.2</ele>
        <time>2022-08-20T15:33:58Z</time>
      </trkpt>
      <trkpt lat="46.62324" lon="5.53219">
        <ele>445.2</ele>
        <time>2022-08-20T15:33:59Z</time>
      </trkpt>
      <trkpt lat="46.62327" lon="5.53217">
        <ele>445</ele>
        <time>2022-08-20T15:34:00Z</time>
      </trkpt>
      <trkpt lat="46.6233" lon="5.53215">
        <ele>444.8</ele>
        <time>2022-08-20T15:34:01Z</time>
      </trkpt>
      <trkpt lat="46.62332" lon="5.53211">
        <ele>444.8</ele>
        <time>2022-08-20T15:34:02Z</time>
      </trkpt>
      <trkpt lat="46.62334" lon="5.53209">
        <ele>444.6</ele>
        <time>2022-08-20T15:34:03Z</time>
      </trkpt>
      <trkpt lat="46.62336" lon="5.53208">
        <ele>444.4</ele>
        <time>2022-08-20T15:34:04Z</time>
      </trkpt>
      <trkpt lat="46.62339" lon="5.53207">
        <ele>444.2</ele>
        <time>2022-08-20T15:34:05Z</time>
      </trkpt>
      <trkpt lat="46.62342" lon="5.53206">
        <ele>444</ele>
        <time>2022-08-20T15:34:06Z</time>
      </trkpt>
      <trkpt lat="46.62345" lon="5.53206">
        <ele>443.8</ele>
        <time>2022-08-20T15:34:07Z</time>
      </trkpt>
      <trkpt lat="46.62348" lon="5.53205">
        <ele>443.6</ele>
        <time>2022-08-20T15:34:08Z</time>
      </trkpt>
      <trkpt lat="46.62351" lon="5.53205">
        <ele>443.4</ele>
        <time>2022-08-20T15:34:09Z</time>
      </trkpt>
      <trkpt lat="46.62354" lon="5.53204">
        <ele>443.2</ele>
        <time>2022-08-20T15:34:10Z</time>
      </trkpt>
      <trkpt lat="46.62357" lon="5.53204">
        <ele>443</ele>
        <time>2022-08-20T15:34:11Z</time>
      </trkpt>
      <trkpt lat="46.6236" lon="5.53203">
        <ele>442.8</ele>
        <time>2022-08-20T15:34:12Z</time>
      </trkpt>
      <trkpt lat="46.62363" lon="5.53202">
        <ele>442.8</ele>
        <time>2022-08-20T15:34:13Z</time>
      </trkpt>
      <trkpt lat="46.62366" lon="5.53201">
        <ele>442.6</ele>
        <time>2022-08-20T15:34:14Z</time>
      </trkpt>
      <trkpt lat="46.62369" lon="5.53201">
        <ele>442.4</ele>
        <time>2022-08-20T15:34:15Z</time>
      </trkpt>
      <trkpt lat="46.62372" lon="5.53199">
        <ele>442.2</ele>
        <time>2022-08-20T15:34:16Z</time>
      </trkpt>
      <trkpt lat="46.62374" lon="5.53197">
        <ele>442.2</ele>
        <time>2022-08-20T15:34:17Z</time>
      </trkpt>
      <trkpt lat="46.62378" lon="5.53196">
        <ele>442</ele>
        <time>2022-08-20T15:34:18Z</time>
      </trkpt>
      <trkpt lat="46.62381" lon="5.53196">
        <ele>441.8</ele>
        <time>2022-08-20T15:34:19Z</time>
      </trkpt>
      <trkpt lat="46.62385" lon="5.53196">
        <ele>441.6</ele>
        <time>2022-08-20T15:34:20Z</time>
      </trkpt>
      <trkpt lat="46.62388" lon="5.53196">
        <ele>441.4</ele>
        <time>2022-08-20T15:34:21Z</time>
      </trkpt>
      <trkpt lat="46.6239" lon="5.53196">
        <ele>441.4</ele>
        <time>2022-08-20T15:34:22Z</time>
      </trkpt>
      <trkpt lat="46.62394" lon="5.53195">
        <ele>441.2</ele>
        <time>2022-08-20T15:34:23Z</time>
      </trkpt>
      <trkpt lat="46.62397" lon="5.53195">
        <ele>441</ele>
        <time>2022-08-20T15:34:24Z</time>
      </trkpt>
      <trkpt lat="46.624" lon="5.53195">
        <ele>440.8</ele>
        <time>2022-08-20T15:34:25Z</time>
      </trkpt>
      <trkpt lat="46.62402" lon="5.53195">
        <ele>440.6</ele>
        <time>2022-08-20T15:34:26Z</time>
      </trkpt>
      <trkpt lat="46.62406" lon="5.53196">
        <ele>440.6</ele>
        <time>2022-08-20T15:34:27Z</time>
      </trkpt>
      <trkpt lat="46.62408" lon="5.53196">
        <ele>440.4</ele>
        <time>2022-08-20T15:34:28Z</time>
      </trkpt>
      <trkpt lat="46.62412" lon="5.53196">
        <ele>440.4</ele>
        <time>2022-08-20T15:34:29Z</time>
      </trkpt>
      <trkpt lat="46.62414" lon="5.53195">
        <ele>440.2</ele>
        <time>2022-08-20T15:34:30Z</time>
      </trkpt>
      <trkpt lat="46.62416" lon="5.53194">
        <ele>440.2</ele>
        <time>2022-08-20T15:34:31Z</time>
      </trkpt>
      <trkpt lat="46.6242" lon="5.53193">
        <ele>440.2</ele>
        <time>2022-08-20T15:34:32Z</time>
      </trkpt>
      <trkpt lat="46.62423" lon="5.53193">
        <ele>440</ele>
        <time>2022-08-20T15:34:33Z</time>
      </trkpt>
      <trkpt lat="46.62425" lon="5.53193">
        <ele>440</ele>
        <time>2022-08-20T15:34:34Z</time>
      </trkpt>
      <trkpt lat="46.62428" lon="5.53193">
        <ele>439.8</ele>
        <time>2022-08-20T15:34:35Z</time>
      </trkpt>
      <trkpt lat="46.62431" lon="5.53194">
        <ele>439.8</ele>
        <time>2022-08-20T15:34:36Z</time>
      </trkpt>
      <trkpt lat="46.62434" lon="5.53196">
        <ele>439.6</ele>
        <time>2022-08-20T15:34:37Z</time>
      </trkpt>
      <trkpt lat="46.62437" lon="5.53198">
        <ele>439.6</ele>
        <time>2022-08-20T15:34:38Z</time>
      </trkpt>
      <trkpt lat="46.6244" lon="5.53199">
        <ele>439.4</ele>
        <time>2022-08-20T15:34:39Z</time>
      </trkpt>
      <trkpt lat="46.62442" lon="5.53199">
        <ele>439.4</ele>
        <time>2022-08-20T15:34:40Z</time>
      </trkpt>
      <trkpt lat="46.62445" lon="5.532">
        <ele>439.2</ele>
        <time>2022-08-20T15:34:41Z</time>
      </trkpt>
      <trkpt lat="46.62448" lon="5.53201">
        <ele>439.2</ele>
        <time>2022-08-20T15:34:42Z</time>
      </trkpt>
      <trkpt lat="46.62451" lon="5.53201">
        <ele>439</ele>
        <time>2022-08-20T15:34:43Z</time>
      </trkpt>
      <trkpt lat="46.62454" lon="5.53202">
        <ele>439</ele>
        <time>2022-08-20T15:34:44Z</time>
      </trkpt>
      <trkpt lat="46.62457" lon="5.53203">
        <ele>438.8</ele>
        <time>2022-08-20T15:34:45Z</time>
      </trkpt>
      <trkpt lat="46.6246" lon="5.53203">
        <ele>438.8</ele>
        <time>2022-08-20T15:34:46Z</time>
      </trkpt>
      <trkpt lat="46.62462" lon="5.53204">
        <ele>438.6</ele>
        <time>2022-08-20T15:34:47Z</time>
      </trkpt>
      <trkpt lat="46.62465" lon="5.53204">
        <ele>438.4</ele>
        <time>2022-08-20T15:34:48Z</time>
      </trkpt>
      <trkpt lat="46.62467" lon="5.53205">
        <ele>438.4</ele>
        <time>2022-08-20T15:34:49Z</time>
      </trkpt>
      <trkpt lat="46.62469" lon="5.53205">
        <ele>438.2</ele>
        <time>2022-08-20T15:34:50Z</time>
      </trkpt>
      <trkpt lat="46.62471" lon="5.53205">
        <ele>438.2</ele>
        <time>2022-08-20T15:34:51Z</time>
      </trkpt>
      <trkpt lat="46.62474" lon="5.53206">
        <ele>438</ele>
        <time>2022-08-20T15:34:52Z</time>
      </trkpt>
      <trkpt lat="46.62477" lon="5.53206">
        <ele>438</ele>
        <time>2022-08-20T15:34:53Z</time>
      </trkpt>
      <trkpt lat="46.62479" lon="5.53207">
        <ele>438</ele>
        <time>2022-08-20T15:34:54Z</time>
      </trkpt>
      <trkpt lat="46.62483" lon="5.53208">
        <ele>437.8</ele>
        <time>2022-08-20T15:34:55Z</time>
      </trkpt>
      <trkpt lat="46.62485" lon="5.53208">
        <ele>437.8</ele>
        <time>2022-08-20T15:34:56Z</time>
      </trkpt>
      <trkpt lat="46.62488" lon="5.53208">
        <ele>437.6</ele>
        <time>2022-08-20T15:34:57Z</time>
      </trkpt>
      <trkpt lat="46.62491" lon="5.53208">
        <ele>437.6</ele>
        <time>2022-08-20T15:34:58Z</time>
      </trkpt>
      <trkpt lat="46.62493" lon="5.53208">
        <ele>437.6</ele>
        <time>2022-08-20T15:34:59Z</time>
      </trkpt>
      <trkpt lat="46.62495" lon="5.53209">
        <ele>437.4</ele>
        <time>2022-08-20T15:35:00Z</time>
      </trkpt>
      <trkpt lat="46.62499" lon="5.53209">
        <ele>437.4</ele>
        <time>2022-08-20T15:35:01Z</time>
      </trkpt>
      <trkpt lat="46.62501" lon="5.53209">
        <ele>437.2</ele>
        <time>2022-08-20T15:35:02Z</time>
      </trkpt>
      <trkpt lat="46.62503" lon="5.53209">
        <ele>437.2</ele>
        <time>2022-08-20T15:35:03Z</time>
      </trkpt>
      <trkpt lat="46.62507" lon="5.5321">
        <ele>437.2</ele>
        <time>2022-08-20T15:35:04Z</time>
      </trkpt>
      <trkpt lat="46.6251" lon="5.53212">
        <ele>437.2</ele>
        <time>2022-08-20T15:35:05Z</time>
      </trkpt>
      <trkpt lat="46.62513" lon="5.53212">
        <ele>437.2</ele>
        <time>2022-08-20T15:35:06Z</time>
      </trkpt>
      <trkpt lat="46.62517" lon="5.53212">
        <ele>437.4</ele>
        <time>2022-08-20T15:35:07Z</time>
      </trkpt>
      <trkpt lat="46.6252" lon="5.53214">
        <ele>437.4</ele>
        <time>2022-08-20T15:35:08Z</time>
      </trkpt>
      <trkpt lat="46.62523" lon="5.53215">
        <ele>437.4</ele>
        <time>2022-08-20T15:35:09Z</time>
      </trkpt>
      <trkpt lat="46.62525" lon="5.53216">
        <ele>437.4</ele>
        <time>2022-08-20T15:35:10Z</time>
      </trkpt>
      <trkpt lat="46.62528" lon="5.53217">
        <ele>437.4</ele>
        <time>2022-08-20T15:35:11Z</time>
      </trkpt>
      <trkpt lat="46.62531" lon="5.53217">
        <ele>437.4</ele>
        <time>2022-08-20T15:35:12Z</time>
      </trkpt>
      <trkpt lat="46.62534" lon="5.53217">
        <ele>437.6</ele>
        <time>2022-08-20T15:35:13Z</time>
      </trkpt>
      <trkpt lat="46.62537" lon="5.53216">
        <ele>437.6</ele>
        <time>2022-08-20T15:35:14Z</time>
      </trkpt>
      <trkpt lat="46.6254" lon="5.53214">
        <ele>437.6</ele>
        <time>2022-08-20T15:35:15Z</time>
      </trkpt>
      <trkpt lat="46.62543" lon="5.53214">
        <ele>437.6</ele>
        <time>2022-08-20T15:35:16Z</time>
      </trkpt>
      <trkpt lat="46.62546" lon="5.53213">
        <ele>437.6</ele>
        <time>2022-08-20T15:35:17Z</time>
      </trkpt>
      <trkpt lat="46.62549" lon="5.53212">
        <ele>437.6</ele>
        <time>2022-08-20T15:35:18Z</time>
      </trkpt>
      <trkpt lat="46.62552" lon="5.53211">
        <ele>437.6</ele>
        <time>2022-08-20T15:35:19Z</time>
      </trkpt>
      <trkpt lat="46.62554" lon="5.5321">
        <ele>437.4</ele>
        <time>2022-08-20T15:35:20Z</time>
      </trkpt>
      <trkpt lat="46.62557" lon="5.53208">
        <ele>437.4</ele>
        <time>2022-08-20T15:35:21Z</time>
      </trkpt>
      <trkpt lat="46.62558" lon="5.53205">
        <ele>437.4</ele>
        <time>2022-08-20T15:35:22Z</time>
      </trkpt>
      <trkpt lat="46.6256" lon="5.53202">
        <ele>437.4</ele>
        <time>2022-08-20T15:35:23Z</time>
      </trkpt>
      <trkpt lat="46.62562" lon="5.53197">
        <ele>437.2</ele>
        <time>2022-08-20T15:35:24Z</time>
      </trkpt>
      <trkpt lat="46.62565" lon="5.53192">
        <ele>437.2</ele>
        <time>2022-08-20T15:35:25Z</time>
      </trkpt>
      <trkpt lat="46.62566" lon="5.53188">
        <ele>437.2</ele>
        <time>2022-08-20T15:35:26Z</time>
      </trkpt>
      <trkpt lat="46.62568" lon="5.53184">
        <ele>437.2</ele>
        <time>2022-08-20T15:35:27Z</time>
      </trkpt>
      <trkpt lat="46.62569" lon="5.53181">
        <ele>437.2</ele>
        <time>2022-08-20T15:35:28Z</time>
      </trkpt>
      <trkpt lat="46.62571" lon="5.53177">
        <ele>437.2</ele>
        <time>2022-08-20T15:35:29Z</time>
      </trkpt>
      <trkpt lat="46.62573" lon="5.53173">
        <ele>437.2</ele>
        <time>2022-08-20T15:35:30Z</time>
      </trkpt>
      <trkpt lat="46.62575" lon="5.5317">
        <ele>437.2</ele>
        <time>2022-08-20T15:35:31Z</time>
      </trkpt>
      <trkpt lat="46.62576" lon="5.53167">
        <ele>437</ele>
        <time>2022-08-20T15:35:32Z</time>
      </trkpt>
      <trkpt lat="46.62578" lon="5.53164">
        <ele>437</ele>
        <time>2022-08-20T15:35:33Z</time>
      </trkpt>
      <trkpt lat="46.62581" lon="5.53161">
        <ele>437</ele>
        <time>2022-08-20T15:35:34Z</time>
      </trkpt>
      <trkpt lat="46.62583" lon="5.53159">
        <ele>437</ele>
        <time>2022-08-20T15:35:35Z</time>
      </trkpt>
      <trkpt lat="46.62585" lon="5.53155">
        <ele>437</ele>
        <time>2022-08-20T15:35:36Z</time>
      </trkpt>
      <trkpt lat="46.62587" lon="5.53153">
        <ele>437</ele>
        <time>2022-08-20T15:35:37Z</time>
      </trkpt>
      <trkpt lat="46.6259" lon="5.53151">
        <ele>436.8</ele>
        <time>2022-08-20T15:35:38Z</time>
      </trkpt>
      <trkpt lat="46.62592" lon="5.53148">
        <ele>436.8</ele>
        <time>2022-08-20T15:35:39Z</time>
      </trkpt>
      <trkpt lat="46.62593" lon="5.53145">
        <ele>436.8</ele>
        <time>2022-08-20T15:35:40Z</time>
      </trkpt>
      <trkpt lat="46.62595" lon="5.53142">
        <ele>436.6</ele>
        <time>2022-08-20T15:35:41Z</time>
      </trkpt>
      <trkpt lat="46.62597" lon="5.53139">
        <ele>436.6</ele>
        <time>2022-08-20T15:35:43Z</time>
      </trkpt>
      <trkpt lat="46.62599" lon="5.53136">
        <ele>436.6</ele>
        <time>2022-08-20T15:35:45Z</time>
      </trkpt>
      <trkpt lat="46.62601" lon="5.53132">
        <ele>436.6</ele>
        <time>2022-08-20T15:35:47Z</time>
      </trkpt>
      <trkpt lat="46.62603" lon="5.53128">
        <ele>436.4</ele>
        <time>2022-08-20T15:35:49Z</time>
      </trkpt>
      <trkpt lat="46.62605" lon="5.53124">
        <ele>436.4</ele>
        <time>2022-08-20T15:35:51Z</time>
      </trkpt>
      <trkpt lat="46.62605" lon="5.53122">
        <ele>436.2</ele>
        <time>2022-08-20T15:35:52Z</time>
      </trkpt>
      <trkpt lat="46.62606" lon="5.53119">
        <ele>436.2</ele>
        <time>2022-08-20T15:35:53Z</time>
      </trkpt>
      <trkpt lat="46.62606" lon="5.53115">
        <ele>436.2</ele>
        <time>2022-08-20T15:35:55Z</time>
      </trkpt>
      <trkpt lat="46.62608" lon="5.53112">
        <ele>436.2</ele>
        <time>2022-08-20T15:35:57Z</time>
      </trkpt>
      <trkpt lat="46.62609" lon="5.53109">
        <ele>436</ele>
        <time>2022-08-20T15:35:59Z</time>
      </trkpt>
      <trkpt lat="46.62611" lon="5.53106">
        <ele>435.8</ele>
        <time>2022-08-20T15:36:01Z</time>
      </trkpt>
      <trkpt lat="46.62613" lon="5.53105">
        <ele>435.6</ele>
        <time>2022-08-20T15:36:03Z</time>
      </trkpt>
      <trkpt lat="46.62614" lon="5.53102">
        <ele>435.6</ele>
        <time>2022-08-20T15:36:05Z</time>
      </trkpt>
      <trkpt lat="46.62616" lon="5.53098">
        <ele>435.4</ele>
        <time>2022-08-20T15:36:07Z</time>
      </trkpt>
      <trkpt lat="46.62618" lon="5.53095">
        <ele>435.2</ele>
        <time>2022-08-20T15:36:09Z</time>
      </trkpt>
      <trkpt lat="46.62619" lon="5.53093">
        <ele>435.2</ele>
        <time>2022-08-20T15:36:10Z</time>
      </trkpt>
      <trkpt lat="46.62621" lon="5.5309">
        <ele>435</ele>
        <time>2022-08-20T15:36:12Z</time>
      </trkpt>
      <trkpt lat="46.62623" lon="5.53087">
        <ele>434.8</ele>
        <time>2022-08-20T15:36:14Z</time>
      </trkpt>
      <trkpt lat="46.62624" lon="5.53083">
        <ele>434.8</ele>
        <time>2022-08-20T15:36:16Z</time>
      </trkpt>
      <trkpt lat="46.62624" lon="5.5308">
        <ele>434.6</ele>
        <time>2022-08-20T15:36:18Z</time>
      </trkpt>
      <trkpt lat="46.62625" lon="5.53075">
        <ele>434.6</ele>
        <time>2022-08-20T15:36:20Z</time>
      </trkpt>
      <trkpt lat="46.62625" lon="5.53072">
        <ele>434.6</ele>
        <time>2022-08-20T15:36:21Z</time>
      </trkpt>
      <trkpt lat="46.62626" lon="5.53069">
        <ele>434.6</ele>
        <time>2022-08-20T15:36:23Z</time>
      </trkpt>
      <trkpt lat="46.62626" lon="5.53066">
        <ele>434.6</ele>
        <time>2022-08-20T15:36:25Z</time>
      </trkpt>
      <trkpt lat="46.62626" lon="5.53063">
        <ele>434.6</ele>
        <time>2022-08-20T15:36:27Z</time>
      </trkpt>
      <trkpt lat="46.62627" lon="5.53059">
        <ele>434.8</ele>
        <time>2022-08-20T15:36:29Z</time>
      </trkpt>
      <trkpt lat="46.62628" lon="5.53055">
        <ele>435</ele>
        <time>2022-08-20T15:36:31Z</time>
      </trkpt>
      <trkpt lat="46.62627" lon="5.5305">
        <ele>435.2</ele>
        <time>2022-08-20T15:36:33Z</time>
      </trkpt>
      <trkpt lat="46.62628" lon="5.53047">
        <ele>435.4</ele>
        <time>2022-08-20T15:36:35Z</time>
      </trkpt>
      <trkpt lat="46.6263" lon="5.53043">
        <ele>435.4</ele>
        <time>2022-08-20T15:36:37Z</time>
      </trkpt>
      <trkpt lat="46.62632" lon="5.53039">
        <ele>435.4</ele>
        <time>2022-08-20T15:36:39Z</time>
      </trkpt>
      <trkpt lat="46.62633" lon="5.53035">
        <ele>435.4</ele>
        <time>2022-08-20T15:36:41Z</time>
      </trkpt>
      <trkpt lat="46.62634" lon="5.53032">
        <ele>435.4</ele>
        <time>2022-08-20T15:36:42Z</time>
      </trkpt>
      <trkpt lat="46.62636" lon="5.53029">
        <ele>435.2</ele>
        <time>2022-08-20T15:36:44Z</time>
      </trkpt>
      <trkpt lat="46.62636" lon="5.53026">
        <ele>435.2</ele>
        <time>2022-08-20T15:36:45Z</time>
      </trkpt>
      <trkpt lat="46.62638" lon="5.53022">
        <ele>435.2</ele>
        <time>2022-08-20T15:36:47Z</time>
      </trkpt>
      <trkpt lat="46.6264" lon="5.53018">
        <ele>435.4</ele>
        <time>2022-08-20T15:36:49Z</time>
      </trkpt>
      <trkpt lat="46.62642" lon="5.53015">
        <ele>435.6</ele>
        <time>2022-08-20T15:36:51Z</time>
      </trkpt>
      <trkpt lat="46.62643" lon="5.53012">
        <ele>436</ele>
        <time>2022-08-20T15:36:53Z</time>
      </trkpt>
      <trkpt lat="46.62644" lon="5.53008">
        <ele>436.2</ele>
        <time>2022-08-20T15:36:55Z</time>
      </trkpt>
      <trkpt lat="46.62645" lon="5.53002">
        <ele>436.4</ele>
        <time>2022-08-20T15:36:57Z</time>
      </trkpt>
      <trkpt lat="46.62645" lon="5.52999">
        <ele>436.4</ele>
        <time>2022-08-20T15:36:58Z</time>
      </trkpt>
      <trkpt lat="46.62645" lon="5.52996">
        <ele>436.6</ele>
        <time>2022-08-20T15:36:59Z</time>
      </trkpt>
      <trkpt lat="46.62646" lon="5.52993">
        <ele>436.6</ele>
        <time>2022-08-20T15:37:01Z</time>
      </trkpt>
      <trkpt lat="46.62648" lon="5.52991">
        <ele>436.8</ele>
        <time>2022-08-20T15:37:03Z</time>
      </trkpt>
      <trkpt lat="46.6265" lon="5.52989">
        <ele>436.8</ele>
        <time>2022-08-20T15:37:05Z</time>
      </trkpt>
      <trkpt lat="46.62652" lon="5.52987">
        <ele>436.8</ele>
        <time>2022-08-20T15:37:07Z</time>
      </trkpt>
      <trkpt lat="46.62653" lon="5.52985">
        <ele>436.8</ele>
        <time>2022-08-20T15:37:08Z</time>
      </trkpt>
      <trkpt lat="46.62654" lon="5.5298">
        <ele>436.8</ele>
        <time>2022-08-20T15:37:10Z</time>
      </trkpt>
      <trkpt lat="46.62655" lon="5.52976">
        <ele>436.8</ele>
        <time>2022-08-20T15:37:12Z</time>
      </trkpt>
      <trkpt lat="46.62653" lon="5.52973">
        <ele>437</ele>
        <time>2022-08-20T15:37:15Z</time>
      </trkpt>
      <trkpt lat="46.6265" lon="5.52969">
        <ele>437</ele>
        <time>2022-08-20T15:37:17Z</time>
      </trkpt>
      <trkpt lat="46.6265" lon="5.52966">
        <ele>437.2</ele>
        <time>2022-08-20T15:37:18Z</time>
      </trkpt>
      <trkpt lat="46.6265" lon="5.52962">
        <ele>437.4</ele>
        <time>2022-08-20T15:37:20Z</time>
      </trkpt>
      <trkpt lat="46.6265" lon="5.52959">
        <ele>437.6</ele>
        <time>2022-08-20T15:37:21Z</time>
      </trkpt>
      <trkpt lat="46.62651" lon="5.52957">
        <ele>437.6</ele>
        <time>2022-08-20T15:37:22Z</time>
      </trkpt>
      <trkpt lat="46.62651" lon="5.52954">
        <ele>437.6</ele>
        <time>2022-08-20T15:37:23Z</time>
      </trkpt>
      <trkpt lat="46.62652" lon="5.52952">
        <ele>437.6</ele>
        <time>2022-08-20T15:37:24Z</time>
      </trkpt>
      <trkpt lat="46.62653" lon="5.52949">
        <ele>437.8</ele>
        <time>2022-08-20T15:37:26Z</time>
      </trkpt>
      <trkpt lat="46.62653" lon="5.52946">
        <ele>438</ele>
        <time>2022-08-20T15:37:28Z</time>
        <extensions>
          <visugpx:TrkExtension xmlns:visugpx="https://www.visugpx.com/editgpx/">
            <visugpx:node>2</visugpx:node>
            </visugpx:TrkExtension>
        </extensions>
      </trkpt>
      <trkpt lat="46.62657" lon="5.52938">
        <ele>444.2</ele>
      </trkpt>
      <trkpt lat="46.62661" lon="5.52924">
        <ele>443.6</ele>
      </trkpt>
      <trkpt lat="46.62665" lon="5.52911">
        <ele>442.9</ele>
      </trkpt>
      <trkpt lat="46.62667" lon="5.52902">
        <ele>442.5</ele>
      </trkpt>
      <trkpt lat="46.62675" lon="5.52889">
        <ele>441.7</ele>
      </trkpt>
      <trkpt lat="46.62681" lon="5.52882">
        <ele>441.2</ele>
      </trkpt>
      <trkpt lat="46.62687" lon="5.52875">
        <ele>440.8</ele>
      </trkpt>
      <trkpt lat="46.62693" lon="5.52868">
        <ele>440.3</ele>
      </trkpt>
      <trkpt lat="46.62698" lon="5.52865">
        <ele>440.2</ele>
      </trkpt>
      <trkpt lat="46.627" lon="5.52858">
        <ele>439.7</ele>
      </trkpt>
      <trkpt lat="46.62705" lon="5.52849">
        <ele>438.8</ele>
      </trkpt>
      <trkpt lat="46.6271" lon="5.52835">
        <ele>437.1</ele>
      </trkpt>
      <trkpt lat="46.62713" lon="5.52828">
        <ele>436</ele>
      </trkpt>
      <trkpt lat="46.62717" lon="5.52817">
        <ele>434.4</ele>
      </trkpt>
      <trkpt lat="46.62719" lon="5.52809">
        <ele>433.4</ele>
      </trkpt>
      <trkpt lat="46.62698" lon="5.52794">
        <ele>431.8</ele>
      </trkpt>
      <trkpt lat="46.62683" lon="5.52781">
        <ele>430.3</ele>
      </trkpt>
      <trkpt lat="46.62668" lon="5.5277">
        <ele>429.7</ele>
      </trkpt>
      <trkpt lat="46.62666" lon="5.52755">
        <ele>429.2</ele>
      </trkpt>
      <trkpt lat="46.62665" lon="5.52731">
        <ele>428.3</ele>
      </trkpt>
      <trkpt lat="46.62665" lon="5.52712">
        <ele>427.6</ele>
      </trkpt>
      <trkpt lat="46.62666" lon="5.52699">
        <ele>427.1</ele>
      </trkpt>
      <trkpt lat="46.62669" lon="5.52678">
        <ele>426.5</ele>
      </trkpt>
      <trkpt lat="46.62671" lon="5.5266">
        <ele>426</ele>
      </trkpt>
      <trkpt lat="46.62675" lon="5.52636">
        <ele>425.7</ele>
      </trkpt>
      <trkpt lat="46.6268" lon="5.52605">
        <ele>426.6</ele>
      </trkpt>
      <trkpt lat="46.62683" lon="5.52586">
        <ele>427.1</ele>
      </trkpt>
      <trkpt lat="46.62683" lon="5.52571">
        <ele>428.3</ele>
      </trkpt>
      <trkpt lat="46.62682" lon="5.52566">
        <ele>428.7</ele>
      </trkpt>
      <trkpt lat="46.6268" lon="5.52552">
        <ele>429.8</ele>
      </trkpt>
      <trkpt lat="46.62675" lon="5.52537">
        <ele>430.7</ele>
      </trkpt>
      <trkpt lat="46.62665" lon="5.52517">
        <ele>432</ele>
      </trkpt>
      <trkpt lat="46.62655" lon="5.52497">
        <ele>433.1</ele>
      </trkpt>
      <trkpt lat="46.62643" lon="5.52478">
        <ele>433.8</ele>
      </trkpt>
      <trkpt lat="46.62633" lon="5.52463">
        <ele>434.4</ele>
      </trkpt>
      <trkpt lat="46.62624" lon="5.52452">
        <ele>434.6</ele>
      </trkpt>
      <trkpt lat="46.62609" lon="5.52433">
        <ele>435.8</ele>
      </trkpt>
      <trkpt lat="46.62595" lon="5.52418">
        <ele>437</ele>
      </trkpt>
      <trkpt lat="46.62586" lon="5.52409">
        <ele>437.7</ele>
      </trkpt>
      <trkpt lat="46.62576" lon="5.52401">
        <ele>438.3</ele>
      </trkpt>
      <trkpt lat="46.62564" lon="5.52392">
        <ele>439</ele>
      </trkpt>
      <trkpt lat="46.62551" lon="5.52383">
        <ele>439.7</ele>
      </trkpt>
      <trkpt lat="46.6254" lon="5.52375">
        <ele>440.4</ele>
      </trkpt>
      <trkpt lat="46.62529" lon="5.52367">
        <ele>441</ele>
      </trkpt>
      <trkpt lat="46.62518" lon="5.52357">
        <ele>442</ele>
      </trkpt>
      <trkpt lat="46.62507" lon="5.52348">
        <ele>442.5</ele>
      </trkpt>
      <trkpt lat="46.62498" lon="5.52339">
        <ele>443</ele>
      </trkpt>
      <trkpt lat="46.62487" lon="5.52328">
        <ele>443.9</ele>
      </trkpt>
      <trkpt lat="46.62478" lon="5.5232">
        <ele>444.4</ele>
      </trkpt>
      <trkpt lat="46.6247" lon="5.52311">
        <ele>445</ele>
      </trkpt>
      <trkpt lat="46.6246" lon="5.52299">
        <ele>445.5</ele>
      </trkpt>
      <trkpt lat="46.62448" lon="5.52282">
        <ele>446</ele>
      </trkpt>
      <trkpt lat="46.62438" lon="5.52264">
        <ele>446.9</ele>
      </trkpt>
      <trkpt lat="46.62428" lon="5.52247">
        <ele>447.6</ele>
      </trkpt>
      <trkpt lat="46.62421" lon="5.52234">
        <ele>448.3</ele>
      </trkpt>
      <trkpt lat="46.62414" lon="5.52221">
        <ele>448.8</ele>
      </trkpt>
      <trkpt lat="46.62405" lon="5.52208">
        <ele>449.1</ele>
      </trkpt>
      <trkpt lat="46.62373" lon="5.52154">
        <ele>452.1</ele>
      </trkpt>
      <trkpt lat="46.62364" lon="5.52139">
        <ele>453.3</ele>
      </trkpt>
      <trkpt lat="46.62359" lon="5.52129">
        <ele>453.5</ele>
      </trkpt>
      <trkpt lat="46.62353" lon="5.52118">
        <ele>453.8</ele>
      </trkpt>
      <trkpt lat="46.62347" lon="5.52106">
        <ele>454.5</ele>
      </trkpt>
      <trkpt lat="46.62341" lon="5.52097">
        <ele>454.8</ele>
        <extensions>
          <visugpx:TrkExtension xmlns:visugpx="https://www.visugpx.com/editgpx/">
            <visugpx:node>8</visugpx:node>
            </visugpx:TrkExtension>
        </extensions>
      </trkpt>
    </trkseg>
  </trk>
</gpx>